<?xml version="1.0" encoding="UTF-8" standalone="no" ?>
<gpx xmlns="http://www.topografix.com/GPX/1/1" xmlns:xsi="http://www.w3.org/2001/XMLSchema-instance" xsi:schemaLocation="http://www.topografix.com/GPX/1/1 http://www.topografix.com/GPX/1/1/gpx.xsd" version="1.1" creator="VisuGPX - https://www.visugpx.com">
  <metadata>
    <name>rando VTT des 1000 étangs 2023 -60 km 1300d+</name>
  </metadata>
  <trk>
    <name><![CDATA[rando des 1000 étangs 2023 -60 km 1600d+]]></name>
    <trkseg>
      <trkpt lat="47.75596" lon="6.57176">
        <ele>334</ele>
        <time>2023-05-01T17:51:16.000Z</time>
      </trkpt>
      <trkpt lat="47.75648" lon="6.57121">
        <ele>334</ele>
        <time>2023-05-01T17:51:16.013Z</time>
      </trkpt>
      <trkpt lat="47.75697" lon="6.57072">
        <ele>334</ele>
        <time>2023-05-01T17:51:16.038Z</time>
      </trkpt>
      <trkpt lat="47.75736" lon="6.57028">
        <ele>334</ele>
        <time>2023-05-01T17:51:16.072Z</time>
      </trkpt>
      <trkpt lat="47.75769" lon="6.56995">
        <ele>334</ele>
        <time>2023-05-01T17:51:16.114Z</time>
      </trkpt>
      <trkpt lat="47.75786" lon="6.56984">
        <ele>334</ele>
        <time>2023-05-01T17:51:16.160Z</time>
      </trkpt>
      <trkpt lat="47.75804" lon="6.56975">
        <ele>335</ele>
        <time>2023-05-01T17:51:16.210Z</time>
      </trkpt>
      <trkpt lat="47.75859" lon="6.56952">
        <ele>335</ele>
        <time>2023-05-01T17:51:16.271Z</time>
      </trkpt>
      <trkpt lat="47.7587" lon="6.56946">
        <ele>335</ele>
        <time>2023-05-01T17:51:16.335Z</time>
      </trkpt>
      <trkpt lat="47.75886" lon="6.56935">
        <ele>335</ele>
        <time>2023-05-01T17:51:16.402Z</time>
      </trkpt>
      <trkpt lat="47.75928" lon="6.569">
        <ele>335</ele>
        <time>2023-05-01T17:51:16.479Z</time>
      </trkpt>
      <trkpt lat="47.75935" lon="6.56895">
        <ele>335</ele>
        <time>2023-05-01T17:51:16.557Z</time>
      </trkpt>
      <trkpt lat="47.75956" lon="6.56888">
        <ele>335</ele>
        <time>2023-05-01T17:51:16.640Z</time>
      </trkpt>
      <trkpt lat="47.76004" lon="6.56888">
        <ele>335</ele>
        <time>2023-05-01T17:51:16.732Z</time>
      </trkpt>
      <trkpt lat="47.76044" lon="6.56881">
        <ele>335</ele>
        <time>2023-05-01T17:51:16.832Z</time>
      </trkpt>
      <trkpt lat="47.7605" lon="6.56881">
        <ele>335</ele>
        <time>2023-05-01T17:51:16.934Z</time>
      </trkpt>
      <trkpt lat="47.76062" lon="6.56886">
        <ele>335</ele>
        <time>2023-05-01T17:51:17.038Z</time>
      </trkpt>
      <trkpt lat="47.76068" lon="6.56891">
        <ele>335</ele>
        <time>2023-05-01T17:51:17.143Z</time>
      </trkpt>
      <trkpt lat="47.76073" lon="6.569">
        <ele>335</ele>
        <time>2023-05-01T17:51:17.250Z</time>
      </trkpt>
      <trkpt lat="47.76075" lon="6.56908">
        <ele>336</ele>
        <time>2023-05-01T17:51:17.358Z</time>
      </trkpt>
      <trkpt lat="47.76084" lon="6.57036">
        <ele>336</ele>
        <time>2023-05-01T17:51:17.484Z</time>
      </trkpt>
      <trkpt lat="47.76088" lon="6.57048">
        <ele>336</ele>
        <time>2023-05-01T17:51:17.611Z</time>
      </trkpt>
      <trkpt lat="47.76092" lon="6.57051">
        <ele>337</ele>
        <time>2023-05-01T17:51:17.739Z</time>
      </trkpt>
      <trkpt lat="47.76102" lon="6.57047">
        <ele>337</ele>
        <time>2023-05-01T17:51:17.869Z</time>
      </trkpt>
      <trkpt lat="47.76201" lon="6.56976">
        <ele>338</ele>
        <time>2023-05-01T17:51:18.021Z</time>
      </trkpt>
      <trkpt lat="47.76207" lon="6.56973">
        <ele>338</ele>
        <time>2023-05-01T17:51:18.175Z</time>
      </trkpt>
      <trkpt lat="47.76246" lon="6.56965">
        <ele>339</ele>
        <time>2023-05-01T17:51:18.337Z</time>
      </trkpt>
      <trkpt lat="47.76281" lon="6.56961">
        <ele>340</ele>
        <time>2023-05-01T17:51:18.505Z</time>
      </trkpt>
      <trkpt lat="47.76327" lon="6.5695">
        <ele>341</ele>
        <time>2023-05-01T17:51:18.683Z</time>
      </trkpt>
      <trkpt lat="47.76373" lon="6.56938">
        <ele>342</ele>
        <time>2023-05-01T17:51:18.870Z</time>
      </trkpt>
      <trkpt lat="47.76492" lon="6.5691">
        <ele>343</ele>
        <time>2023-05-01T17:51:19.081Z</time>
      </trkpt>
      <trkpt lat="47.76528" lon="6.56907">
        <ele>345</ele>
        <time>2023-05-01T17:51:19.300Z</time>
      </trkpt>
      <trkpt lat="47.7662" lon="6.56907">
        <ele>346</ele>
        <time>2023-05-01T17:51:19.537Z</time>
      </trkpt>
      <trkpt lat="47.76666" lon="6.56905">
        <ele>347</ele>
        <time>2023-05-01T17:51:19.783Z</time>
      </trkpt>
      <trkpt lat="47.7667" lon="6.56903">
        <ele>349</ele>
        <time>2023-05-01T17:51:20.030Z</time>
      </trkpt>
      <trkpt lat="47.76673" lon="6.56899">
        <ele>350</ele>
        <time>2023-05-01T17:51:20.278Z</time>
      </trkpt>
      <trkpt lat="47.76675" lon="6.56886">
        <ele>352</ele>
        <time>2023-05-01T17:51:20.528Z</time>
      </trkpt>
      <trkpt lat="47.76683" lon="6.56865">
        <ele>354</ele>
        <time>2023-05-01T17:51:20.781Z</time>
      </trkpt>
      <trkpt lat="47.7669" lon="6.56856">
        <ele>355</ele>
        <time>2023-05-01T17:51:21.036Z</time>
      </trkpt>
      <trkpt lat="47.76709" lon="6.56852">
        <ele>357</ele>
        <time>2023-05-01T17:51:21.295Z</time>
      </trkpt>
      <trkpt lat="47.76722" lon="6.56846">
        <ele>358</ele>
        <time>2023-05-01T17:51:21.556Z</time>
      </trkpt>
      <trkpt lat="47.76746" lon="6.56833">
        <ele>360</ele>
        <time>2023-05-01T17:51:21.822Z</time>
      </trkpt>
      <trkpt lat="47.76749" lon="6.56826">
        <ele>361</ele>
        <time>2023-05-01T17:51:22.089Z</time>
      </trkpt>
      <trkpt lat="47.76753" lon="6.56823">
        <ele>363</ele>
        <time>2023-05-01T17:51:22.357Z</time>
      </trkpt>
      <trkpt lat="47.76773" lon="6.56819">
        <ele>364</ele>
        <time>2023-05-01T17:51:22.629Z</time>
      </trkpt>
      <trkpt lat="47.76779" lon="6.56814">
        <ele>366</ele>
        <time>2023-05-01T17:51:22.903Z</time>
      </trkpt>
      <trkpt lat="47.76781" lon="6.56809">
        <ele>367</ele>
        <time>2023-05-01T17:51:23.178Z</time>
      </trkpt>
      <trkpt lat="47.76778" lon="6.56781">
        <ele>368</ele>
        <time>2023-05-01T17:51:23.456Z</time>
      </trkpt>
      <trkpt lat="47.76787" lon="6.56768">
        <ele>370</ele>
        <time>2023-05-01T17:51:23.737Z</time>
      </trkpt>
      <trkpt lat="47.76802" lon="6.56754">
        <ele>371</ele>
        <time>2023-05-01T17:51:24.021Z</time>
      </trkpt>
      <trkpt lat="47.76816" lon="6.56731">
        <ele>372</ele>
        <time>2023-05-01T17:51:24.310Z</time>
      </trkpt>
      <trkpt lat="47.76819" lon="6.56723">
        <ele>373</ele>
        <time>2023-05-01T17:51:24.600Z</time>
      </trkpt>
      <trkpt lat="47.76822" lon="6.56721">
        <ele>374</ele>
        <time>2023-05-01T17:51:24.891Z</time>
      </trkpt>
      <trkpt lat="47.76824" lon="6.56714">
        <ele>376</ele>
        <time>2023-05-01T17:51:25.183Z</time>
      </trkpt>
      <trkpt lat="47.7683" lon="6.56708">
        <ele>377</ele>
        <time>2023-05-01T17:51:25.476Z</time>
      </trkpt>
      <trkpt lat="47.76832" lon="6.56702">
        <ele>378</ele>
        <time>2023-05-01T17:51:25.770Z</time>
      </trkpt>
      <trkpt lat="47.76849" lon="6.56686">
        <ele>379</ele>
        <time>2023-05-01T17:51:26.068Z</time>
      </trkpt>
      <trkpt lat="47.76855" lon="6.56674">
        <ele>380</ele>
        <time>2023-05-01T17:51:26.368Z</time>
      </trkpt>
      <trkpt lat="47.76856" lon="6.56665">
        <ele>381</ele>
        <time>2023-05-01T17:51:26.669Z</time>
      </trkpt>
      <trkpt lat="47.76859" lon="6.56668">
        <ele>382</ele>
        <time>2023-05-01T17:51:26.971Z</time>
      </trkpt>
      <trkpt lat="47.76867" lon="6.56651">
        <ele>383</ele>
        <time>2023-05-01T17:51:27.276Z</time>
      </trkpt>
      <trkpt lat="47.76872" lon="6.56646">
        <ele>384</ele>
        <time>2023-05-01T17:51:27.582Z</time>
      </trkpt>
      <trkpt lat="47.76886" lon="6.56639">
        <ele>385</ele>
        <time>2023-05-01T17:51:27.891Z</time>
      </trkpt>
      <trkpt lat="47.76899" lon="6.56626">
        <ele>386</ele>
        <time>2023-05-01T17:51:28.203Z</time>
      </trkpt>
      <trkpt lat="47.76917" lon="6.56613">
        <ele>387</ele>
        <time>2023-05-01T17:51:28.519Z</time>
      </trkpt>
      <trkpt lat="47.76932" lon="6.56598">
        <ele>388</ele>
        <time>2023-05-01T17:51:28.838Z</time>
      </trkpt>
      <trkpt lat="47.76951" lon="6.56584">
        <ele>389</ele>
        <time>2023-05-01T17:51:29.162Z</time>
      </trkpt>
      <trkpt lat="47.76958" lon="6.56581">
        <ele>390</ele>
        <time>2023-05-01T17:51:29.487Z</time>
      </trkpt>
      <trkpt lat="47.76969" lon="6.56571">
        <ele>390</ele>
        <time>2023-05-01T17:51:29.815Z</time>
      </trkpt>
      <trkpt lat="47.7699" lon="6.56558">
        <ele>391</ele>
        <time>2023-05-01T17:51:30.147Z</time>
      </trkpt>
      <trkpt lat="47.76995" lon="6.56558">
        <ele>392</ele>
        <time>2023-05-01T17:51:30.480Z</time>
      </trkpt>
      <trkpt lat="47.77001" lon="6.56554">
        <ele>393</ele>
        <time>2023-05-01T17:51:30.815Z</time>
      </trkpt>
      <trkpt lat="47.7701" lon="6.56553">
        <ele>393</ele>
        <time>2023-05-01T17:51:31.152Z</time>
      </trkpt>
      <trkpt lat="47.77013" lon="6.56554">
        <ele>394</ele>
        <time>2023-05-01T17:51:31.489Z</time>
      </trkpt>
      <trkpt lat="47.77024" lon="6.56553">
        <ele>395</ele>
        <time>2023-05-01T17:51:31.828Z</time>
      </trkpt>
      <trkpt lat="47.77026" lon="6.56549">
        <ele>396</ele>
        <time>2023-05-01T17:51:32.168Z</time>
      </trkpt>
      <trkpt lat="47.77033" lon="6.56544">
        <ele>397</ele>
        <time>2023-05-01T17:51:32.510Z</time>
      </trkpt>
      <trkpt lat="47.7704" lon="6.56536">
        <ele>398</ele>
        <time>2023-05-01T17:51:32.853Z</time>
      </trkpt>
      <trkpt lat="47.77043" lon="6.5653">
        <ele>398</ele>
        <time>2023-05-01T17:51:33.197Z</time>
      </trkpt>
      <trkpt lat="47.77052" lon="6.56521">
        <ele>399</ele>
        <time>2023-05-01T17:51:33.543Z</time>
      </trkpt>
      <trkpt lat="47.77059" lon="6.56502">
        <ele>400</ele>
        <time>2023-05-01T17:51:33.892Z</time>
      </trkpt>
      <trkpt lat="47.7707" lon="6.56489">
        <ele>401</ele>
        <time>2023-05-01T17:51:34.244Z</time>
      </trkpt>
      <trkpt lat="47.77087" lon="6.56481">
        <ele>402</ele>
        <time>2023-05-01T17:51:34.600Z</time>
      </trkpt>
      <trkpt lat="47.77111" lon="6.56461">
        <ele>403</ele>
        <time>2023-05-01T17:51:34.961Z</time>
      </trkpt>
      <trkpt lat="47.77126" lon="6.56446">
        <ele>404</ele>
        <time>2023-05-01T17:51:35.326Z</time>
      </trkpt>
      <trkpt lat="47.7713" lon="6.56438">
        <ele>405</ele>
        <time>2023-05-01T17:51:35.692Z</time>
      </trkpt>
      <trkpt lat="47.77131" lon="6.56424">
        <ele>406</ele>
        <time>2023-05-01T17:51:36.060Z</time>
      </trkpt>
      <trkpt lat="47.77139" lon="6.56409">
        <ele>407</ele>
        <time>2023-05-01T17:51:36.431Z</time>
      </trkpt>
      <trkpt lat="47.77155" lon="6.56402">
        <ele>408</ele>
        <time>2023-05-01T17:51:36.805Z</time>
      </trkpt>
      <trkpt lat="47.77158" lon="6.56397">
        <ele>409</ele>
        <time>2023-05-01T17:51:37.180Z</time>
      </trkpt>
      <trkpt lat="47.7719" lon="6.56374">
        <ele>411</ele>
        <time>2023-05-01T17:51:37.562Z</time>
      </trkpt>
      <trkpt lat="47.77196" lon="6.56368">
        <ele>412</ele>
        <time>2023-05-01T17:51:37.945Z</time>
      </trkpt>
      <trkpt lat="47.77197" lon="6.56358">
        <ele>413</ele>
        <time>2023-05-01T17:51:38.330Z</time>
      </trkpt>
      <trkpt lat="47.77201" lon="6.56353">
        <ele>414</ele>
        <time>2023-05-01T17:51:38.716Z</time>
      </trkpt>
      <trkpt lat="47.77217" lon="6.56337">
        <ele>415</ele>
        <time>2023-05-01T17:51:39.106Z</time>
      </trkpt>
      <trkpt lat="47.77222" lon="6.56334">
        <ele>416</ele>
        <time>2023-05-01T17:51:39.497Z</time>
      </trkpt>
      <trkpt lat="47.77239" lon="6.56315">
        <ele>417</ele>
        <time>2023-05-01T17:51:39.892Z</time>
      </trkpt>
      <trkpt lat="47.7725" lon="6.5631">
        <ele>418</ele>
        <time>2023-05-01T17:51:40.290Z</time>
      </trkpt>
      <trkpt lat="47.77263" lon="6.56308">
        <ele>419</ele>
        <time>2023-05-01T17:51:40.690Z</time>
      </trkpt>
      <trkpt lat="47.77265" lon="6.5631">
        <ele>420</ele>
        <time>2023-05-01T17:51:41.091Z</time>
      </trkpt>
      <trkpt lat="47.7728" lon="6.56306">
        <ele>421</ele>
        <time>2023-05-01T17:51:41.495Z</time>
      </trkpt>
      <trkpt lat="47.77296" lon="6.56298">
        <ele>422</ele>
        <time>2023-05-01T17:51:41.902Z</time>
      </trkpt>
      <trkpt lat="47.77308" lon="6.563">
        <ele>423</ele>
        <time>2023-05-01T17:51:42.311Z</time>
      </trkpt>
      <trkpt lat="47.77314" lon="6.56298">
        <ele>424</ele>
        <time>2023-05-01T17:51:42.722Z</time>
      </trkpt>
      <trkpt lat="47.77326" lon="6.56299">
        <ele>425</ele>
        <time>2023-05-01T17:51:43.135Z</time>
      </trkpt>
      <trkpt lat="47.7733" lon="6.56304">
        <ele>425</ele>
        <time>2023-05-01T17:51:43.549Z</time>
      </trkpt>
      <trkpt lat="47.77338" lon="6.56306">
        <ele>426</ele>
        <time>2023-05-01T17:51:43.965Z</time>
      </trkpt>
      <trkpt lat="47.77352" lon="6.56294">
        <ele>427</ele>
        <time>2023-05-01T17:51:44.384Z</time>
      </trkpt>
      <trkpt lat="47.77373" lon="6.56288">
        <ele>428</ele>
        <time>2023-05-01T17:51:44.807Z</time>
      </trkpt>
      <trkpt lat="47.7738" lon="6.56289">
        <ele>428</ele>
        <time>2023-05-01T17:51:45.231Z</time>
      </trkpt>
      <trkpt lat="47.77393" lon="6.563">
        <ele>429</ele>
        <time>2023-05-01T17:51:45.659Z</time>
      </trkpt>
      <trkpt lat="47.77401" lon="6.56302">
        <ele>430</ele>
        <time>2023-05-01T17:51:46.088Z</time>
      </trkpt>
      <trkpt lat="47.77431" lon="6.56279">
        <ele>430</ele>
        <time>2023-05-01T17:51:46.524Z</time>
      </trkpt>
      <trkpt lat="47.77442" lon="6.56265">
        <ele>431</ele>
        <time>2023-05-01T17:51:46.963Z</time>
      </trkpt>
      <trkpt lat="47.77447" lon="6.56253">
        <ele>431</ele>
        <time>2023-05-01T17:51:47.404Z</time>
      </trkpt>
      <trkpt lat="47.77457" lon="6.56242">
        <ele>432</ele>
        <time>2023-05-01T17:51:47.847Z</time>
      </trkpt>
      <trkpt lat="47.77459" lon="6.56238">
        <ele>432</ele>
        <time>2023-05-01T17:51:48.291Z</time>
      </trkpt>
      <trkpt lat="47.7748" lon="6.56222">
        <ele>433</ele>
        <time>2023-05-01T17:51:48.740Z</time>
      </trkpt>
      <trkpt lat="47.77482" lon="6.56219">
        <ele>433</ele>
        <time>2023-05-01T17:51:49.189Z</time>
      </trkpt>
      <trkpt lat="47.775" lon="6.56212">
        <ele>434</ele>
        <time>2023-05-01T17:51:49.642Z</time>
      </trkpt>
      <trkpt lat="47.77509" lon="6.56205">
        <ele>434</ele>
        <time>2023-05-01T17:51:50.097Z</time>
      </trkpt>
      <trkpt lat="47.77522" lon="6.56201">
        <ele>434</ele>
        <time>2023-05-01T17:51:50.555Z</time>
      </trkpt>
      <trkpt lat="47.77522" lon="6.56205">
        <ele>435</ele>
        <time>2023-05-01T17:51:51.013Z</time>
      </trkpt>
      <trkpt lat="47.77534" lon="6.56218">
        <ele>435</ele>
        <time>2023-05-01T17:51:51.474Z</time>
      </trkpt>
      <trkpt lat="47.77547" lon="6.56241">
        <ele>435</ele>
        <time>2023-05-01T17:51:51.939Z</time>
      </trkpt>
      <trkpt lat="47.77554" lon="6.56246">
        <ele>436</ele>
        <time>2023-05-01T17:51:52.406Z</time>
      </trkpt>
      <trkpt lat="47.77563" lon="6.5625">
        <ele>436</ele>
        <time>2023-05-01T17:51:52.875Z</time>
      </trkpt>
      <trkpt lat="47.77582" lon="6.56256">
        <ele>437</ele>
        <time>2023-05-01T17:51:53.348Z</time>
      </trkpt>
      <trkpt lat="47.77599" lon="6.56252">
        <ele>437</ele>
        <time>2023-05-01T17:51:53.824Z</time>
      </trkpt>
      <trkpt lat="47.77611" lon="6.56258">
        <ele>437</ele>
        <time>2023-05-01T17:51:54.303Z</time>
      </trkpt>
      <trkpt lat="47.77627" lon="6.56262">
        <ele>438</ele>
        <time>2023-05-01T17:51:54.785Z</time>
      </trkpt>
      <trkpt lat="47.77632" lon="6.56261">
        <ele>438</ele>
        <time>2023-05-01T17:51:55.268Z</time>
      </trkpt>
      <trkpt lat="47.77642" lon="6.56263">
        <ele>438</ele>
        <time>2023-05-01T17:51:55.753Z</time>
      </trkpt>
      <trkpt lat="47.77645" lon="6.56262">
        <ele>438</ele>
        <time>2023-05-01T17:51:56.238Z</time>
      </trkpt>
      <trkpt lat="47.7766" lon="6.56246">
        <ele>439</ele>
        <time>2023-05-01T17:51:56.727Z</time>
      </trkpt>
      <trkpt lat="47.77667" lon="6.56241">
        <ele>439</ele>
        <time>2023-05-01T17:51:57.218Z</time>
      </trkpt>
      <trkpt lat="47.77677" lon="6.56238">
        <ele>439</ele>
        <time>2023-05-01T17:51:57.711Z</time>
      </trkpt>
      <trkpt lat="47.777" lon="6.56237">
        <ele>439</ele>
        <time>2023-05-01T17:51:58.208Z</time>
      </trkpt>
      <trkpt lat="47.7772" lon="6.5625">
        <ele>440</ele>
        <time>2023-05-01T17:51:58.710Z</time>
      </trkpt>
      <trkpt lat="47.77735" lon="6.56266">
        <ele>440</ele>
        <time>2023-05-01T17:51:59.215Z</time>
      </trkpt>
      <trkpt lat="47.77741" lon="6.56268">
        <ele>440</ele>
        <time>2023-05-01T17:51:59.722Z</time>
      </trkpt>
      <trkpt lat="47.77746" lon="6.56267">
        <ele>440</ele>
        <time>2023-05-01T17:52:00.230Z</time>
      </trkpt>
      <trkpt lat="47.77756" lon="6.56261">
        <ele>441</ele>
        <time>2023-05-01T17:52:00.740Z</time>
      </trkpt>
      <trkpt lat="47.77764" lon="6.56259">
        <ele>441</ele>
        <time>2023-05-01T17:52:01.252Z</time>
      </trkpt>
      <trkpt lat="47.77775" lon="6.56261">
        <ele>441</ele>
        <time>2023-05-01T17:52:01.766Z</time>
      </trkpt>
      <trkpt lat="47.77787" lon="6.5626">
        <ele>442</ele>
        <time>2023-05-01T17:52:02.282Z</time>
      </trkpt>
      <trkpt lat="47.77801" lon="6.56262">
        <ele>442</ele>
        <time>2023-05-01T17:52:02.801Z</time>
      </trkpt>
      <trkpt lat="47.77818" lon="6.56269">
        <ele>442</ele>
        <time>2023-05-01T17:52:03.323Z</time>
      </trkpt>
      <trkpt lat="47.7783" lon="6.5627">
        <ele>443</ele>
        <time>2023-05-01T17:52:03.848Z</time>
      </trkpt>
      <trkpt lat="47.77845" lon="6.56278">
        <ele>443</ele>
        <time>2023-05-01T17:52:04.376Z</time>
      </trkpt>
      <trkpt lat="47.77854" lon="6.56278">
        <ele>444</ele>
        <time>2023-05-01T17:52:04.906Z</time>
      </trkpt>
      <trkpt lat="47.77866" lon="6.56276">
        <ele>444</ele>
        <time>2023-05-01T17:52:05.438Z</time>
      </trkpt>
      <trkpt lat="47.77869" lon="6.56277">
        <ele>445</ele>
        <time>2023-05-01T17:52:05.971Z</time>
      </trkpt>
      <trkpt lat="47.77883" lon="6.5629">
        <ele>445</ele>
        <time>2023-05-01T17:52:06.507Z</time>
      </trkpt>
      <trkpt lat="47.7789" lon="6.56306">
        <ele>445</ele>
        <time>2023-05-01T17:52:07.046Z</time>
      </trkpt>
      <trkpt lat="47.77897" lon="6.56314">
        <ele>446</ele>
        <time>2023-05-01T17:52:07.586Z</time>
      </trkpt>
      <trkpt lat="47.77905" lon="6.56316">
        <ele>446</ele>
        <time>2023-05-01T17:52:08.128Z</time>
      </trkpt>
      <trkpt lat="47.77911" lon="6.56315">
        <ele>446</ele>
        <time>2023-05-01T17:52:08.671Z</time>
      </trkpt>
      <trkpt lat="47.77919" lon="6.56312">
        <ele>447</ele>
        <time>2023-05-01T17:52:09.216Z</time>
      </trkpt>
      <trkpt lat="47.7793" lon="6.56302">
        <ele>447</ele>
        <time>2023-05-01T17:52:09.764Z</time>
      </trkpt>
      <trkpt lat="47.77949" lon="6.5628">
        <ele>448</ele>
        <time>2023-05-01T17:52:10.316Z</time>
      </trkpt>
      <trkpt lat="47.77969" lon="6.56262">
        <ele>448</ele>
        <time>2023-05-01T17:52:10.873Z</time>
      </trkpt>
      <trkpt lat="47.77979" lon="6.56249">
        <ele>448</ele>
        <time>2023-05-01T17:52:11.433Z</time>
      </trkpt>
      <trkpt lat="47.77981" lon="6.56238">
        <ele>448</ele>
        <time>2023-05-01T17:52:11.994Z</time>
      </trkpt>
      <trkpt lat="47.77984" lon="6.56232">
        <ele>449</ele>
        <time>2023-05-01T17:52:12.556Z</time>
      </trkpt>
      <trkpt lat="47.77996" lon="6.56216">
        <ele>449</ele>
        <time>2023-05-01T17:52:13.122Z</time>
      </trkpt>
      <trkpt lat="47.78019" lon="6.56191">
        <ele>449</ele>
        <time>2023-05-01T17:52:13.693Z</time>
      </trkpt>
      <trkpt lat="47.78034" lon="6.56178">
        <ele>449</ele>
        <time>2023-05-01T17:52:14.268Z</time>
      </trkpt>
      <trkpt lat="47.78057" lon="6.56151">
        <ele>450</ele>
        <time>2023-05-01T17:52:14.849Z</time>
      </trkpt>
      <trkpt lat="47.78112" lon="6.56096">
        <ele>450</ele>
        <time>2023-05-01T17:52:15.443Z</time>
      </trkpt>
      <trkpt lat="47.78123" lon="6.5609">
        <ele>450</ele>
        <time>2023-05-01T17:52:16.039Z</time>
      </trkpt>
      <trkpt lat="47.78149" lon="6.56084">
        <ele>451</ele>
        <time>2023-05-01T17:52:16.640Z</time>
      </trkpt>
      <trkpt lat="47.78155" lon="6.56079">
        <ele>451</ele>
        <time>2023-05-01T17:52:17.243Z</time>
      </trkpt>
      <trkpt lat="47.78159" lon="6.56074">
        <ele>451</ele>
        <time>2023-05-01T17:52:17.847Z</time>
      </trkpt>
      <trkpt lat="47.78166" lon="6.56057">
        <ele>451</ele>
        <time>2023-05-01T17:52:18.454Z</time>
      </trkpt>
      <trkpt lat="47.78182" lon="6.56035">
        <ele>452</ele>
        <time>2023-05-01T17:52:19.065Z</time>
      </trkpt>
      <trkpt lat="47.78191" lon="6.56032">
        <ele>452</ele>
        <time>2023-05-01T17:52:19.678Z</time>
      </trkpt>
      <trkpt lat="47.78214" lon="6.56033">
        <ele>452</ele>
        <time>2023-05-01T17:52:20.295Z</time>
      </trkpt>
      <trkpt lat="47.7823" lon="6.56039">
        <ele>452</ele>
        <time>2023-05-01T17:52:20.916Z</time>
      </trkpt>
      <trkpt lat="47.78242" lon="6.5604">
        <ele>453</ele>
        <time>2023-05-01T17:52:21.539Z</time>
      </trkpt>
      <trkpt lat="47.78269" lon="6.56036">
        <ele>453</ele>
        <time>2023-05-01T17:52:22.168Z</time>
      </trkpt>
      <trkpt lat="47.78277" lon="6.56033">
        <ele>453</ele>
        <time>2023-05-01T17:52:22.798Z</time>
      </trkpt>
      <trkpt lat="47.78292" lon="6.5602">
        <ele>453</ele>
        <time>2023-05-01T17:52:23.432Z</time>
      </trkpt>
      <trkpt lat="47.78306" lon="6.56012">
        <ele>453</ele>
        <time>2023-05-01T17:52:24.069Z</time>
      </trkpt>
      <trkpt lat="47.7832" lon="6.56004">
        <ele>453</ele>
        <time>2023-05-01T17:52:24.709Z</time>
      </trkpt>
      <trkpt lat="47.78328" lon="6.56001">
        <ele>453</ele>
        <time>2023-05-01T17:52:25.350Z</time>
      </trkpt>
      <trkpt lat="47.78334" lon="6.56003">
        <ele>453</ele>
        <time>2023-05-01T17:52:25.993Z</time>
      </trkpt>
      <trkpt lat="47.78341" lon="6.5601">
        <ele>453</ele>
        <time>2023-05-01T17:52:26.637Z</time>
      </trkpt>
      <trkpt lat="47.78346" lon="6.56017">
        <ele>453</ele>
        <time>2023-05-01T17:52:27.283Z</time>
      </trkpt>
      <trkpt lat="47.78351" lon="6.56032">
        <ele>453</ele>
        <time>2023-05-01T17:52:27.931Z</time>
      </trkpt>
      <trkpt lat="47.78356" lon="6.56036">
        <ele>453</ele>
        <time>2023-05-01T17:52:28.580Z</time>
      </trkpt>
      <trkpt lat="47.78365" lon="6.56034">
        <ele>452</ele>
        <time>2023-05-01T17:52:29.231Z</time>
      </trkpt>
      <trkpt lat="47.78373" lon="6.56027">
        <ele>452</ele>
        <time>2023-05-01T17:52:29.884Z</time>
      </trkpt>
      <trkpt lat="47.7838" lon="6.56027">
        <ele>452</ele>
        <time>2023-05-01T17:52:30.538Z</time>
      </trkpt>
      <trkpt lat="47.78391" lon="6.56033">
        <ele>451</ele>
        <time>2023-05-01T17:52:31.194Z</time>
      </trkpt>
      <trkpt lat="47.784" lon="6.56047">
        <ele>451</ele>
        <time>2023-05-01T17:52:31.853Z</time>
      </trkpt>
      <trkpt lat="47.7841" lon="6.56052">
        <ele>450</ele>
        <time>2023-05-01T17:52:32.514Z</time>
      </trkpt>
      <trkpt lat="47.78439" lon="6.56043">
        <ele>449</ele>
        <time>2023-05-01T17:52:33.181Z</time>
      </trkpt>
      <trkpt lat="47.78447" lon="6.56044">
        <ele>449</ele>
        <time>2023-05-01T17:52:33.850Z</time>
      </trkpt>
      <trkpt lat="47.78456" lon="6.56049">
        <ele>448</ele>
        <time>2023-05-01T17:52:34.520Z</time>
      </trkpt>
      <trkpt lat="47.78471" lon="6.56066">
        <ele>447</ele>
        <time>2023-05-01T17:52:35.194Z</time>
      </trkpt>
      <trkpt lat="47.78495" lon="6.56084">
        <ele>446</ele>
        <time>2023-05-01T17:52:35.874Z</time>
      </trkpt>
      <trkpt lat="47.78515" lon="6.56087">
        <ele>446</ele>
        <time>2023-05-01T17:52:36.558Z</time>
      </trkpt>
      <trkpt lat="47.78531" lon="6.56078">
        <ele>445</ele>
        <time>2023-05-01T17:52:37.245Z</time>
      </trkpt>
      <trkpt lat="47.78538" lon="6.56076">
        <ele>444</ele>
        <time>2023-05-01T17:52:37.934Z</time>
      </trkpt>
      <trkpt lat="47.78568" lon="6.56076">
        <ele>443</ele>
        <time>2023-05-01T17:52:38.629Z</time>
      </trkpt>
      <trkpt lat="47.78574" lon="6.56079">
        <ele>442</ele>
        <time>2023-05-01T17:52:39.325Z</time>
      </trkpt>
      <trkpt lat="47.78577" lon="6.56084">
        <ele>441</ele>
        <time>2023-05-01T17:52:40.022Z</time>
      </trkpt>
      <trkpt lat="47.78577" lon="6.56091">
        <ele>440</ele>
        <time>2023-05-01T17:52:40.720Z</time>
      </trkpt>
      <trkpt lat="47.78569" lon="6.56111">
        <ele>439</ele>
        <time>2023-05-01T17:52:41.421Z</time>
      </trkpt>
      <trkpt lat="47.78568" lon="6.56119">
        <ele>438</ele>
        <time>2023-05-01T17:52:42.123Z</time>
      </trkpt>
      <trkpt lat="47.78569" lon="6.56145">
        <ele>437</ele>
        <time>2023-05-01T17:52:42.828Z</time>
      </trkpt>
      <trkpt lat="47.78566" lon="6.5618">
        <ele>436</ele>
        <time>2023-05-01T17:52:43.538Z</time>
      </trkpt>
      <trkpt lat="47.78575" lon="6.56315">
        <ele>434</ele>
        <time>2023-05-01T17:52:44.266Z</time>
      </trkpt>
      <trkpt lat="47.78581" lon="6.56362">
        <ele>433</ele>
        <time>2023-05-01T17:52:45.001Z</time>
      </trkpt>
      <trkpt lat="47.78585" lon="6.56377">
        <ele>433</ele>
        <time>2023-05-01T17:52:45.738Z</time>
      </trkpt>
      <trkpt lat="47.78596" lon="6.56403">
        <ele>432</ele>
        <time>2023-05-01T17:52:46.479Z</time>
      </trkpt>
      <trkpt lat="47.78623" lon="6.56437">
        <ele>431</ele>
        <time>2023-05-01T17:52:47.227Z</time>
      </trkpt>
      <trkpt lat="47.78636" lon="6.56449">
        <ele>430</ele>
        <time>2023-05-01T17:52:47.978Z</time>
      </trkpt>
      <trkpt lat="47.78655" lon="6.56452">
        <ele>430</ele>
        <time>2023-05-01T17:52:48.733Z</time>
      </trkpt>
      <trkpt lat="47.78659" lon="6.56455">
        <ele>430</ele>
        <time>2023-05-01T17:52:49.489Z</time>
      </trkpt>
      <trkpt lat="47.78665" lon="6.56465">
        <ele>429</ele>
        <time>2023-05-01T17:52:50.247Z</time>
      </trkpt>
      <trkpt lat="47.78672" lon="6.56486">
        <ele>429</ele>
        <time>2023-05-01T17:52:51.008Z</time>
      </trkpt>
      <trkpt lat="47.78685" lon="6.56497">
        <ele>429</ele>
        <time>2023-05-01T17:52:51.772Z</time>
      </trkpt>
      <trkpt lat="47.78702" lon="6.56506">
        <ele>429</ele>
        <time>2023-05-01T17:52:52.539Z</time>
      </trkpt>
      <trkpt lat="47.78716" lon="6.56529">
        <ele>429</ele>
        <time>2023-05-01T17:52:53.311Z</time>
      </trkpt>
      <trkpt lat="47.78717" lon="6.56536">
        <ele>429</ele>
        <time>2023-05-01T17:52:54.084Z</time>
      </trkpt>
      <trkpt lat="47.78713" lon="6.56547">
        <ele>429</ele>
        <time>2023-05-01T17:52:54.858Z</time>
      </trkpt>
      <trkpt lat="47.78683" lon="6.56591">
        <ele>429</ele>
        <time>2023-05-01T17:52:55.641Z</time>
      </trkpt>
      <trkpt lat="47.78663" lon="6.56614">
        <ele>429</ele>
        <time>2023-05-01T17:52:56.429Z</time>
      </trkpt>
      <trkpt lat="47.78662" lon="6.56624">
        <ele>430</ele>
        <time>2023-05-01T17:52:57.218Z</time>
      </trkpt>
      <trkpt lat="47.78677" lon="6.56701">
        <ele>431</ele>
        <time>2023-05-01T17:52:58.018Z</time>
      </trkpt>
      <trkpt lat="47.78687" lon="6.56717">
        <ele>431</ele>
        <time>2023-05-01T17:52:58.821Z</time>
      </trkpt>
      <trkpt lat="47.78694" lon="6.56722">
        <ele>432</ele>
        <time>2023-05-01T17:52:59.625Z</time>
      </trkpt>
      <trkpt lat="47.78701" lon="6.56722">
        <ele>433</ele>
        <time>2023-05-01T17:53:00.431Z</time>
      </trkpt>
      <trkpt lat="47.78715" lon="6.56717">
        <ele>433</ele>
        <time>2023-05-01T17:53:01.240Z</time>
      </trkpt>
      <trkpt lat="47.78729" lon="6.56713">
        <ele>434</ele>
        <time>2023-05-01T17:53:02.052Z</time>
      </trkpt>
      <trkpt lat="47.78746" lon="6.56714">
        <ele>435</ele>
        <time>2023-05-01T17:53:02.867Z</time>
      </trkpt>
      <trkpt lat="47.78753" lon="6.56728">
        <ele>436</ele>
        <time>2023-05-01T17:53:03.685Z</time>
      </trkpt>
      <trkpt lat="47.78765" lon="6.56747">
        <ele>437</ele>
        <time>2023-05-01T17:53:04.506Z</time>
      </trkpt>
      <trkpt lat="47.78772" lon="6.56752">
        <ele>438</ele>
        <time>2023-05-01T17:53:05.328Z</time>
      </trkpt>
      <trkpt lat="47.78782" lon="6.56766">
        <ele>439</ele>
        <time>2023-05-01T17:53:06.153Z</time>
      </trkpt>
      <trkpt lat="47.78793" lon="6.56773">
        <ele>440</ele>
        <time>2023-05-01T17:53:06.981Z</time>
      </trkpt>
      <trkpt lat="47.78796" lon="6.5678">
        <ele>441</ele>
        <time>2023-05-01T17:53:07.810Z</time>
      </trkpt>
      <trkpt lat="47.78799" lon="6.5678">
        <ele>442</ele>
        <time>2023-05-01T17:53:08.639Z</time>
      </trkpt>
      <trkpt lat="47.7882" lon="6.56794">
        <ele>443</ele>
        <time>2023-05-01T17:53:09.473Z</time>
      </trkpt>
      <trkpt lat="47.78824" lon="6.56795">
        <ele>444</ele>
        <time>2023-05-01T17:53:10.308Z</time>
      </trkpt>
      <trkpt lat="47.78831" lon="6.56791">
        <ele>445</ele>
        <time>2023-05-01T17:53:11.144Z</time>
      </trkpt>
      <trkpt lat="47.78839" lon="6.56785">
        <ele>446</ele>
        <time>2023-05-01T17:53:11.982Z</time>
      </trkpt>
      <trkpt lat="47.78863" lon="6.56785">
        <ele>447</ele>
        <time>2023-05-01T17:53:12.825Z</time>
      </trkpt>
      <trkpt lat="47.78872" lon="6.56787">
        <ele>448</ele>
        <time>2023-05-01T17:53:13.670Z</time>
      </trkpt>
      <trkpt lat="47.78887" lon="6.56784">
        <ele>449</ele>
        <time>2023-05-01T17:53:14.518Z</time>
      </trkpt>
      <trkpt lat="47.78909" lon="6.56772">
        <ele>450</ele>
        <time>2023-05-01T17:53:15.370Z</time>
      </trkpt>
      <trkpt lat="47.78927" lon="6.56751">
        <ele>451</ele>
        <time>2023-05-01T17:53:16.227Z</time>
      </trkpt>
      <trkpt lat="47.78947" lon="6.56735">
        <ele>452</ele>
        <time>2023-05-01T17:53:17.088Z</time>
      </trkpt>
      <trkpt lat="47.78962" lon="6.56718">
        <ele>453</ele>
        <time>2023-05-01T17:53:17.953Z</time>
      </trkpt>
      <trkpt lat="47.78972" lon="6.56697">
        <ele>454</ele>
        <time>2023-05-01T17:53:18.822Z</time>
      </trkpt>
      <trkpt lat="47.78976" lon="6.56686">
        <ele>455</ele>
        <time>2023-05-01T17:53:19.692Z</time>
      </trkpt>
      <trkpt lat="47.78977" lon="6.56679">
        <ele>456</ele>
        <time>2023-05-01T17:53:20.563Z</time>
      </trkpt>
      <trkpt lat="47.7897" lon="6.56657">
        <ele>456</ele>
        <time>2023-05-01T17:53:21.438Z</time>
      </trkpt>
      <trkpt lat="47.78971" lon="6.56628">
        <ele>457</ele>
        <time>2023-05-01T17:53:22.317Z</time>
      </trkpt>
      <trkpt lat="47.7897" lon="6.56624">
        <ele>458</ele>
        <time>2023-05-01T17:53:23.196Z</time>
      </trkpt>
      <trkpt lat="47.78961" lon="6.56615">
        <ele>458</ele>
        <time>2023-05-01T17:53:24.077Z</time>
      </trkpt>
      <trkpt lat="47.78955" lon="6.56605">
        <ele>459</ele>
        <time>2023-05-01T17:53:24.960Z</time>
      </trkpt>
      <trkpt lat="47.78945" lon="6.56595">
        <ele>459</ele>
        <time>2023-05-01T17:53:25.846Z</time>
      </trkpt>
      <trkpt lat="47.78935" lon="6.56579">
        <ele>459</ele>
        <time>2023-05-01T17:53:26.734Z</time>
      </trkpt>
      <trkpt lat="47.78915" lon="6.56558">
        <ele>460</ele>
        <time>2023-05-01T17:53:27.627Z</time>
      </trkpt>
      <trkpt lat="47.78904" lon="6.56535">
        <ele>460</ele>
        <time>2023-05-01T17:53:28.524Z</time>
      </trkpt>
      <trkpt lat="47.78895" lon="6.56512">
        <ele>460</ele>
        <time>2023-05-01T17:53:29.425Z</time>
      </trkpt>
      <trkpt lat="47.78898" lon="6.56492">
        <ele>461</ele>
        <time>2023-05-01T17:53:30.329Z</time>
      </trkpt>
      <trkpt lat="47.78907" lon="6.56485">
        <ele>461</ele>
        <time>2023-05-01T17:53:31.235Z</time>
      </trkpt>
      <trkpt lat="47.78925" lon="6.56477">
        <ele>461</ele>
        <time>2023-05-01T17:53:32.144Z</time>
      </trkpt>
      <trkpt lat="47.78963" lon="6.56469">
        <ele>461</ele>
        <time>2023-05-01T17:53:33.061Z</time>
      </trkpt>
      <trkpt lat="47.78989" lon="6.56449">
        <ele>461</ele>
        <time>2023-05-01T17:53:33.984Z</time>
      </trkpt>
      <trkpt lat="47.79009" lon="6.5643">
        <ele>461</ele>
        <time>2023-05-01T17:53:34.912Z</time>
      </trkpt>
      <trkpt lat="47.79018" lon="6.56421">
        <ele>461</ele>
        <time>2023-05-01T17:53:35.842Z</time>
      </trkpt>
      <trkpt lat="47.79046" lon="6.56381">
        <ele>461</ele>
        <time>2023-05-01T17:53:36.780Z</time>
      </trkpt>
      <trkpt lat="47.79084" lon="6.56354">
        <ele>461</ele>
        <time>2023-05-01T17:53:37.726Z</time>
      </trkpt>
      <trkpt lat="47.79104" lon="6.56343">
        <ele>461</ele>
        <time>2023-05-01T17:53:38.676Z</time>
      </trkpt>
      <trkpt lat="47.79141" lon="6.56329">
        <ele>460</ele>
        <time>2023-05-01T17:53:39.634Z</time>
      </trkpt>
      <trkpt lat="47.79178" lon="6.56321">
        <ele>460</ele>
        <time>2023-05-01T17:53:40.599Z</time>
      </trkpt>
      <trkpt lat="47.79196" lon="6.56315">
        <ele>460</ele>
        <time>2023-05-01T17:53:41.568Z</time>
      </trkpt>
      <trkpt lat="47.79205" lon="6.56316">
        <ele>460</ele>
        <time>2023-05-01T17:53:42.539Z</time>
      </trkpt>
      <trkpt lat="47.79215" lon="6.56319">
        <ele>460</ele>
        <time>2023-05-01T17:53:43.512Z</time>
      </trkpt>
      <trkpt lat="47.79226" lon="6.56319">
        <ele>459</ele>
        <time>2023-05-01T17:53:44.487Z</time>
      </trkpt>
      <trkpt lat="47.79244" lon="6.5631">
        <ele>459</ele>
        <time>2023-05-01T17:53:45.466Z</time>
      </trkpt>
      <trkpt lat="47.79249" lon="6.56301">
        <ele>459</ele>
        <time>2023-05-01T17:53:46.447Z</time>
      </trkpt>
      <trkpt lat="47.79253" lon="6.56289">
        <ele>459</ele>
        <time>2023-05-01T17:53:47.429Z</time>
      </trkpt>
      <trkpt lat="47.79254" lon="6.56275">
        <ele>458</ele>
        <time>2023-05-01T17:53:48.413Z</time>
      </trkpt>
      <trkpt lat="47.7925" lon="6.56251">
        <ele>458</ele>
        <time>2023-05-01T17:53:49.401Z</time>
      </trkpt>
      <trkpt lat="47.79234" lon="6.56207">
        <ele>458</ele>
        <time>2023-05-01T17:53:50.395Z</time>
      </trkpt>
      <trkpt lat="47.79219" lon="6.56155">
        <ele>458</ele>
        <time>2023-05-01T17:53:51.397Z</time>
      </trkpt>
      <trkpt lat="47.79209" lon="6.5613">
        <ele>457</ele>
        <time>2023-05-01T17:53:52.403Z</time>
      </trkpt>
      <trkpt lat="47.79193" lon="6.56109">
        <ele>457</ele>
        <time>2023-05-01T17:53:53.413Z</time>
      </trkpt>
      <trkpt lat="47.79174" lon="6.5609">
        <ele>457</ele>
        <time>2023-05-01T17:53:54.428Z</time>
      </trkpt>
      <trkpt lat="47.79157" lon="6.56069">
        <ele>456</ele>
        <time>2023-05-01T17:53:55.447Z</time>
      </trkpt>
      <trkpt lat="47.79118" lon="6.56015">
        <ele>456</ele>
        <time>2023-05-01T17:53:56.477Z</time>
      </trkpt>
      <trkpt lat="47.79111" lon="6.56003">
        <ele>456</ele>
        <time>2023-05-01T17:53:57.509Z</time>
      </trkpt>
      <trkpt lat="47.79047" lon="6.55841">
        <ele>456</ele>
        <time>2023-05-01T17:53:58.566Z</time>
      </trkpt>
      <trkpt lat="47.79045" lon="6.55825">
        <ele>456</ele>
        <time>2023-05-01T17:53:59.625Z</time>
      </trkpt>
      <trkpt lat="47.79048" lon="6.55811">
        <ele>456</ele>
        <time>2023-05-01T17:54:00.686Z</time>
      </trkpt>
      <trkpt lat="47.79053" lon="6.55798">
        <ele>456</ele>
        <time>2023-05-01T17:54:01.749Z</time>
      </trkpt>
      <trkpt lat="47.79067" lon="6.55778">
        <ele>456</ele>
        <time>2023-05-01T17:54:02.816Z</time>
      </trkpt>
      <trkpt lat="47.79142" lon="6.55686">
        <ele>456</ele>
        <time>2023-05-01T17:54:03.903Z</time>
      </trkpt>
      <trkpt lat="47.79162" lon="6.55639">
        <ele>456</ele>
        <time>2023-05-01T17:54:04.997Z</time>
      </trkpt>
      <trkpt lat="47.79175" lon="6.55626">
        <ele>457</ele>
        <time>2023-05-01T17:54:06.095Z</time>
      </trkpt>
      <trkpt lat="47.79197" lon="6.55618">
        <ele>457</ele>
        <time>2023-05-01T17:54:07.197Z</time>
      </trkpt>
      <trkpt lat="47.79237" lon="6.55608">
        <ele>457</ele>
        <time>2023-05-01T17:54:08.307Z</time>
      </trkpt>
      <trkpt lat="47.79294" lon="6.55582">
        <ele>457</ele>
        <time>2023-05-01T17:54:09.429Z</time>
      </trkpt>
      <trkpt lat="47.79308" lon="6.55573">
        <ele>458</ele>
        <time>2023-05-01T17:54:10.554Z</time>
      </trkpt>
      <trkpt lat="47.79342" lon="6.55563">
        <ele>458</ele>
        <time>2023-05-01T17:54:11.686Z</time>
      </trkpt>
      <trkpt lat="47.79347" lon="6.5556">
        <ele>458</ele>
        <time>2023-05-01T17:54:12.819Z</time>
      </trkpt>
      <trkpt lat="47.79367" lon="6.55538">
        <ele>459</ele>
        <time>2023-05-01T17:54:13.957Z</time>
      </trkpt>
      <trkpt lat="47.79385" lon="6.55526">
        <ele>459</ele>
        <time>2023-05-01T17:54:15.099Z</time>
      </trkpt>
      <trkpt lat="47.79391" lon="6.55524">
        <ele>460</ele>
        <time>2023-05-01T17:54:16.242Z</time>
      </trkpt>
      <trkpt lat="47.794" lon="6.55523">
        <ele>460</ele>
        <time>2023-05-01T17:54:17.387Z</time>
      </trkpt>
      <trkpt lat="47.79414" lon="6.55516">
        <ele>461</ele>
        <time>2023-05-01T17:54:18.535Z</time>
      </trkpt>
      <trkpt lat="47.79429" lon="6.55514">
        <ele>461</ele>
        <time>2023-05-01T17:54:19.686Z</time>
      </trkpt>
      <trkpt lat="47.79442" lon="6.5551">
        <ele>462</ele>
        <time>2023-05-01T17:54:20.840Z</time>
      </trkpt>
      <trkpt lat="47.79467" lon="6.55497">
        <ele>462</ele>
        <time>2023-05-01T17:54:21.999Z</time>
      </trkpt>
      <trkpt lat="47.79478" lon="6.55497">
        <ele>462</ele>
        <time>2023-05-01T17:54:23.160Z</time>
      </trkpt>
      <trkpt lat="47.7949" lon="6.55488">
        <ele>463</ele>
        <time>2023-05-01T17:54:24.324Z</time>
      </trkpt>
      <trkpt lat="47.79507" lon="6.55482">
        <ele>463</ele>
        <time>2023-05-01T17:54:25.491Z</time>
      </trkpt>
      <trkpt lat="47.79518" lon="6.55475">
        <ele>464</ele>
        <time>2023-05-01T17:54:26.661Z</time>
      </trkpt>
      <trkpt lat="47.79576" lon="6.5546">
        <ele>464</ele>
        <time>2023-05-01T17:54:27.843Z</time>
      </trkpt>
      <trkpt lat="47.79596" lon="6.55452">
        <ele>465</ele>
        <time>2023-05-01T17:54:29.029Z</time>
      </trkpt>
      <trkpt lat="47.79617" lon="6.55436">
        <ele>465</ele>
        <time>2023-05-01T17:54:30.219Z</time>
      </trkpt>
      <trkpt lat="47.79637" lon="6.55417">
        <ele>466</ele>
        <time>2023-05-01T17:54:31.414Z</time>
      </trkpt>
      <trkpt lat="47.79666" lon="6.55399">
        <ele>466</ele>
        <time>2023-05-01T17:54:32.616Z</time>
      </trkpt>
      <trkpt lat="47.79684" lon="6.55383">
        <ele>467</ele>
        <time>2023-05-01T17:54:33.822Z</time>
      </trkpt>
      <trkpt lat="47.79716" lon="6.55346">
        <ele>468</ele>
        <time>2023-05-01T17:54:35.036Z</time>
      </trkpt>
      <trkpt lat="47.79746" lon="6.55316">
        <ele>469</ele>
        <time>2023-05-01T17:54:36.257Z</time>
      </trkpt>
      <trkpt lat="47.79763" lon="6.55292">
        <ele>469</ele>
        <time>2023-05-01T17:54:37.483Z</time>
      </trkpt>
      <trkpt lat="47.79785" lon="6.55272">
        <ele>470</ele>
        <time>2023-05-01T17:54:38.714Z</time>
      </trkpt>
      <trkpt lat="47.79807" lon="6.55264">
        <ele>471</ele>
        <time>2023-05-01T17:54:39.949Z</time>
      </trkpt>
      <trkpt lat="47.79828" lon="6.55249">
        <ele>471</ele>
        <time>2023-05-01T17:54:41.189Z</time>
      </trkpt>
      <trkpt lat="47.79852" lon="6.55227">
        <ele>472</ele>
        <time>2023-05-01T17:54:42.435Z</time>
      </trkpt>
      <trkpt lat="47.79859" lon="6.55223">
        <ele>473</ele>
        <time>2023-05-01T17:54:43.682Z</time>
      </trkpt>
      <trkpt lat="47.79867" lon="6.55221">
        <ele>474</ele>
        <time>2023-05-01T17:54:44.931Z</time>
      </trkpt>
      <trkpt lat="47.79877" lon="6.5522">
        <ele>475</ele>
        <time>2023-05-01T17:54:46.182Z</time>
      </trkpt>
      <trkpt lat="47.79894" lon="6.55228">
        <ele>475</ele>
        <time>2023-05-01T17:54:47.437Z</time>
      </trkpt>
      <trkpt lat="47.79915" lon="6.55221">
        <ele>476</ele>
        <time>2023-05-01T17:54:48.696Z</time>
      </trkpt>
      <trkpt lat="47.79924" lon="6.55219">
        <ele>477</ele>
        <time>2023-05-01T17:54:49.957Z</time>
      </trkpt>
      <trkpt lat="47.7993" lon="6.5522">
        <ele>478</ele>
        <time>2023-05-01T17:54:51.219Z</time>
      </trkpt>
      <trkpt lat="47.79939" lon="6.55216">
        <ele>479</ele>
        <time>2023-05-01T17:54:52.483Z</time>
      </trkpt>
      <trkpt lat="47.79947" lon="6.55216">
        <ele>479</ele>
        <time>2023-05-01T17:54:53.748Z</time>
      </trkpt>
      <trkpt lat="47.79974" lon="6.55222">
        <ele>480</ele>
        <time>2023-05-01T17:54:55.019Z</time>
      </trkpt>
      <trkpt lat="47.79988" lon="6.55233">
        <ele>481</ele>
        <time>2023-05-01T17:54:56.293Z</time>
      </trkpt>
      <trkpt lat="47.79997" lon="6.55236">
        <ele>482</ele>
        <time>2023-05-01T17:54:57.569Z</time>
      </trkpt>
      <trkpt lat="47.79999" lon="6.55237">
        <ele>482</ele>
        <time>2023-05-01T17:54:58.845Z</time>
      </trkpt>
      <trkpt lat="47.8" lon="6.55235">
        <ele>483</ele>
        <time>2023-05-01T17:55:00.122Z</time>
      </trkpt>
      <trkpt lat="47.80001" lon="6.55228">
        <ele>483</ele>
        <time>2023-05-01T17:55:01.399Z</time>
      </trkpt>
      <trkpt lat="47.8" lon="6.55222">
        <ele>484</ele>
        <time>2023-05-01T17:55:02.677Z</time>
      </trkpt>
      <trkpt lat="47.79968" lon="6.55168">
        <ele>484</ele>
        <time>2023-05-01T17:55:03.965Z</time>
      </trkpt>
      <trkpt lat="47.79951" lon="6.55147">
        <ele>484</ele>
        <time>2023-05-01T17:55:05.257Z</time>
      </trkpt>
      <trkpt lat="47.79932" lon="6.55116">
        <ele>484</ele>
        <time>2023-05-01T17:55:06.555Z</time>
      </trkpt>
      <trkpt lat="47.79905" lon="6.55082">
        <ele>484</ele>
        <time>2023-05-01T17:55:07.860Z</time>
      </trkpt>
      <trkpt lat="47.79887" lon="6.55054">
        <ele>484</ele>
        <time>2023-05-01T17:55:09.170Z</time>
      </trkpt>
      <trkpt lat="47.79868" lon="6.55029">
        <ele>484</ele>
        <time>2023-05-01T17:55:10.485Z</time>
      </trkpt>
      <trkpt lat="47.79854" lon="6.55014">
        <ele>484</ele>
        <time>2023-05-01T17:55:11.804Z</time>
      </trkpt>
      <trkpt lat="47.79845" lon="6.55001">
        <ele>484</ele>
        <time>2023-05-01T17:55:13.126Z</time>
      </trkpt>
      <trkpt lat="47.79827" lon="6.54993">
        <ele>484</ele>
        <time>2023-05-01T17:55:14.451Z</time>
      </trkpt>
      <trkpt lat="47.79827" lon="6.54991">
        <ele>484</ele>
        <time>2023-05-01T17:55:15.777Z</time>
      </trkpt>
      <trkpt lat="47.79843" lon="6.54983">
        <ele>484</ele>
        <time>2023-05-01T17:55:17.106Z</time>
      </trkpt>
      <trkpt lat="47.79863" lon="6.54981">
        <ele>483</ele>
        <time>2023-05-01T17:55:18.439Z</time>
      </trkpt>
      <trkpt lat="47.79865" lon="6.54977">
        <ele>483</ele>
        <time>2023-05-01T17:55:19.773Z</time>
      </trkpt>
      <trkpt lat="47.79857" lon="6.54953">
        <ele>483</ele>
        <time>2023-05-01T17:55:21.110Z</time>
      </trkpt>
      <trkpt lat="47.79856" lon="6.54943">
        <ele>482</ele>
        <time>2023-05-01T17:55:22.448Z</time>
      </trkpt>
      <trkpt lat="47.79842" lon="6.54908">
        <ele>482</ele>
        <time>2023-05-01T17:55:23.792Z</time>
      </trkpt>
      <trkpt lat="47.79791" lon="6.54816">
        <ele>481</ele>
        <time>2023-05-01T17:55:25.152Z</time>
      </trkpt>
      <trkpt lat="47.79786" lon="6.54803">
        <ele>481</ele>
        <time>2023-05-01T17:55:26.514Z</time>
      </trkpt>
      <trkpt lat="47.79787" lon="6.54789">
        <ele>480</ele>
        <time>2023-05-01T17:55:27.878Z</time>
      </trkpt>
      <trkpt lat="47.79786" lon="6.54783">
        <ele>480</ele>
        <time>2023-05-01T17:55:29.243Z</time>
      </trkpt>
      <trkpt lat="47.79768" lon="6.54728">
        <ele>479</ele>
        <time>2023-05-01T17:55:30.616Z</time>
      </trkpt>
      <trkpt lat="47.79766" lon="6.54703">
        <ele>479</ele>
        <time>2023-05-01T17:55:31.992Z</time>
      </trkpt>
      <trkpt lat="47.79764" lon="6.54698">
        <ele>478</ele>
        <time>2023-05-01T17:55:33.369Z</time>
      </trkpt>
      <trkpt lat="47.79765" lon="6.54692">
        <ele>477</ele>
        <time>2023-05-01T17:55:34.747Z</time>
      </trkpt>
      <trkpt lat="47.79762" lon="6.54685">
        <ele>477</ele>
        <time>2023-05-01T17:55:36.126Z</time>
      </trkpt>
      <trkpt lat="47.79761" lon="6.54673">
        <ele>476</ele>
        <time>2023-05-01T17:55:37.507Z</time>
      </trkpt>
      <trkpt lat="47.79763" lon="6.54664">
        <ele>476</ele>
        <time>2023-05-01T17:55:38.889Z</time>
      </trkpt>
      <trkpt lat="47.79765" lon="6.54646">
        <ele>475</ele>
        <time>2023-05-01T17:55:40.274Z</time>
      </trkpt>
      <trkpt lat="47.79748" lon="6.54534">
        <ele>475</ele>
        <time>2023-05-01T17:55:41.674Z</time>
      </trkpt>
      <trkpt lat="47.79719" lon="6.54441">
        <ele>474</ele>
        <time>2023-05-01T17:55:43.088Z</time>
      </trkpt>
      <trkpt lat="47.79714" lon="6.54432">
        <ele>473</ele>
        <time>2023-05-01T17:55:44.503Z</time>
      </trkpt>
      <trkpt lat="47.79713" lon="6.54428">
        <ele>473</ele>
        <time>2023-05-01T17:55:45.919Z</time>
      </trkpt>
      <trkpt lat="47.79714" lon="6.54424">
        <ele>473</ele>
        <time>2023-05-01T17:55:47.336Z</time>
      </trkpt>
      <trkpt lat="47.79725" lon="6.54415">
        <ele>472</ele>
        <time>2023-05-01T17:55:48.755Z</time>
      </trkpt>
      <trkpt lat="47.79728" lon="6.5441">
        <ele>472</ele>
        <time>2023-05-01T17:55:50.175Z</time>
      </trkpt>
      <trkpt lat="47.79737" lon="6.54382">
        <ele>472</ele>
        <time>2023-05-01T17:55:51.599Z</time>
      </trkpt>
      <trkpt lat="47.79736" lon="6.54366">
        <ele>472</ele>
        <time>2023-05-01T17:55:53.025Z</time>
      </trkpt>
      <trkpt lat="47.79738" lon="6.5435">
        <ele>471</ele>
        <time>2023-05-01T17:55:54.453Z</time>
      </trkpt>
      <trkpt lat="47.79742" lon="6.54338">
        <ele>471</ele>
        <time>2023-05-01T17:55:55.883Z</time>
      </trkpt>
      <trkpt lat="47.79748" lon="6.54328">
        <ele>471</ele>
        <time>2023-05-01T17:55:57.315Z</time>
      </trkpt>
      <trkpt lat="47.79765" lon="6.54309">
        <ele>471</ele>
        <time>2023-05-01T17:55:58.751Z</time>
      </trkpt>
      <trkpt lat="47.79781" lon="6.54284">
        <ele>471</ele>
        <time>2023-05-01T17:56:00.192Z</time>
      </trkpt>
      <trkpt lat="47.79793" lon="6.54278">
        <ele>471</ele>
        <time>2023-05-01T17:56:01.636Z</time>
      </trkpt>
      <trkpt lat="47.798" lon="6.54278">
        <ele>471</ele>
        <time>2023-05-01T17:56:03.081Z</time>
      </trkpt>
      <trkpt lat="47.79815" lon="6.54282">
        <ele>471</ele>
        <time>2023-05-01T17:56:04.529Z</time>
      </trkpt>
      <trkpt lat="47.79826" lon="6.5429">
        <ele>471</ele>
        <time>2023-05-01T17:56:05.980Z</time>
      </trkpt>
      <trkpt lat="47.79831" lon="6.54292">
        <ele>472</ele>
        <time>2023-05-01T17:56:07.432Z</time>
      </trkpt>
      <trkpt lat="47.79839" lon="6.54292">
        <ele>472</ele>
        <time>2023-05-01T17:56:08.885Z</time>
      </trkpt>
      <trkpt lat="47.7988" lon="6.54281">
        <ele>472</ele>
        <time>2023-05-01T17:56:10.346Z</time>
      </trkpt>
      <trkpt lat="47.79889" lon="6.54277">
        <ele>472</ele>
        <time>2023-05-01T17:56:11.809Z</time>
      </trkpt>
      <trkpt lat="47.79895" lon="6.54271">
        <ele>473</ele>
        <time>2023-05-01T17:56:13.274Z</time>
      </trkpt>
      <trkpt lat="47.79909" lon="6.54263">
        <ele>473</ele>
        <time>2023-05-01T17:56:14.742Z</time>
      </trkpt>
      <trkpt lat="47.79919" lon="6.54261">
        <ele>473</ele>
        <time>2023-05-01T17:56:16.212Z</time>
      </trkpt>
      <trkpt lat="47.79932" lon="6.54265">
        <ele>474</ele>
        <time>2023-05-01T17:56:17.684Z</time>
      </trkpt>
      <trkpt lat="47.79937" lon="6.54269">
        <ele>474</ele>
        <time>2023-05-01T17:56:19.158Z</time>
      </trkpt>
      <trkpt lat="47.79945" lon="6.54273">
        <ele>475</ele>
        <time>2023-05-01T17:56:20.633Z</time>
      </trkpt>
      <trkpt lat="47.7995" lon="6.54277">
        <ele>475</ele>
        <time>2023-05-01T17:56:22.109Z</time>
      </trkpt>
      <trkpt lat="47.79952" lon="6.5428">
        <ele>476</ele>
        <time>2023-05-01T17:56:23.586Z</time>
      </trkpt>
      <trkpt lat="47.79955" lon="6.54295">
        <ele>476</ele>
        <time>2023-05-01T17:56:25.065Z</time>
      </trkpt>
      <trkpt lat="47.79959" lon="6.54297">
        <ele>477</ele>
        <time>2023-05-01T17:56:26.545Z</time>
      </trkpt>
      <trkpt lat="47.7996" lon="6.543">
        <ele>477</ele>
        <time>2023-05-01T17:56:28.025Z</time>
      </trkpt>
      <trkpt lat="47.79961" lon="6.54305">
        <ele>478</ele>
        <time>2023-05-01T17:56:29.506Z</time>
      </trkpt>
      <trkpt lat="47.79958" lon="6.54342">
        <ele>479</ele>
        <time>2023-05-01T17:56:30.992Z</time>
      </trkpt>
      <trkpt lat="47.79966" lon="6.54362">
        <ele>479</ele>
        <time>2023-05-01T17:56:32.481Z</time>
      </trkpt>
      <trkpt lat="47.79975" lon="6.54423">
        <ele>480</ele>
        <time>2023-05-01T17:56:33.979Z</time>
      </trkpt>
      <trkpt lat="47.79977" lon="6.54445">
        <ele>481</ele>
        <time>2023-05-01T17:56:35.479Z</time>
      </trkpt>
      <trkpt lat="47.79989" lon="6.545">
        <ele>481</ele>
        <time>2023-05-01T17:56:36.987Z</time>
      </trkpt>
      <trkpt lat="47.79997" lon="6.5455">
        <ele>482</ele>
        <time>2023-05-01T17:56:38.502Z</time>
      </trkpt>
      <trkpt lat="47.8" lon="6.54555">
        <ele>483</ele>
        <time>2023-05-01T17:56:40.018Z</time>
      </trkpt>
      <trkpt lat="47.80002" lon="6.54564">
        <ele>483</ele>
        <time>2023-05-01T17:56:41.536Z</time>
      </trkpt>
      <trkpt lat="47.80012" lon="6.54591">
        <ele>484</ele>
        <time>2023-05-01T17:56:43.058Z</time>
      </trkpt>
      <trkpt lat="47.80013" lon="6.54603">
        <ele>484</ele>
        <time>2023-05-01T17:56:44.581Z</time>
      </trkpt>
      <trkpt lat="47.80032" lon="6.54669">
        <ele>484</ele>
        <time>2023-05-01T17:56:46.114Z</time>
      </trkpt>
      <trkpt lat="47.80037" lon="6.5468">
        <ele>485</ele>
        <time>2023-05-01T17:56:47.649Z</time>
      </trkpt>
      <trkpt lat="47.80042" lon="6.54704">
        <ele>485</ele>
        <time>2023-05-01T17:56:49.187Z</time>
      </trkpt>
      <trkpt lat="47.80052" lon="6.54726">
        <ele>485</ele>
        <time>2023-05-01T17:56:50.729Z</time>
      </trkpt>
      <trkpt lat="47.8006" lon="6.54733">
        <ele>485</ele>
        <time>2023-05-01T17:56:52.273Z</time>
      </trkpt>
      <trkpt lat="47.80065" lon="6.54769">
        <ele>486</ele>
        <time>2023-05-01T17:56:53.822Z</time>
      </trkpt>
      <trkpt lat="47.80073" lon="6.54778">
        <ele>486</ele>
        <time>2023-05-01T17:56:55.372Z</time>
      </trkpt>
      <trkpt lat="47.80074" lon="6.5479">
        <ele>486</ele>
        <time>2023-05-01T17:56:56.924Z</time>
      </trkpt>
      <trkpt lat="47.80071" lon="6.54836">
        <ele>486</ele>
        <time>2023-05-01T17:56:58.482Z</time>
      </trkpt>
      <trkpt lat="47.80072" lon="6.54851">
        <ele>486</ele>
        <time>2023-05-01T17:57:00.042Z</time>
      </trkpt>
      <trkpt lat="47.80075" lon="6.54854">
        <ele>486</ele>
        <time>2023-05-01T17:57:01.603Z</time>
      </trkpt>
      <trkpt lat="47.80081" lon="6.54857">
        <ele>486</ele>
        <time>2023-05-01T17:57:03.165Z</time>
      </trkpt>
      <trkpt lat="47.80085" lon="6.54869">
        <ele>486</ele>
        <time>2023-05-01T17:57:04.729Z</time>
      </trkpt>
      <trkpt lat="47.80087" lon="6.54884">
        <ele>486</ele>
        <time>2023-05-01T17:57:06.295Z</time>
      </trkpt>
      <trkpt lat="47.80103" lon="6.54899">
        <ele>485</ele>
        <time>2023-05-01T17:57:07.865Z</time>
      </trkpt>
      <trkpt lat="47.80114" lon="6.54913">
        <ele>485</ele>
        <time>2023-05-01T17:57:09.438Z</time>
      </trkpt>
      <trkpt lat="47.80117" lon="6.54923">
        <ele>485</ele>
        <time>2023-05-01T17:57:11.012Z</time>
      </trkpt>
      <trkpt lat="47.8012" lon="6.54926">
        <ele>485</ele>
        <time>2023-05-01T17:57:12.587Z</time>
      </trkpt>
      <trkpt lat="47.80156" lon="6.54912">
        <ele>484</ele>
        <time>2023-05-01T17:57:14.170Z</time>
      </trkpt>
      <trkpt lat="47.80192" lon="6.54915">
        <ele>484</ele>
        <time>2023-05-01T17:57:15.760Z</time>
      </trkpt>
      <trkpt lat="47.80215" lon="6.54911">
        <ele>484</ele>
        <time>2023-05-01T17:57:17.354Z</time>
      </trkpt>
      <trkpt lat="47.80236" lon="6.54911">
        <ele>484</ele>
        <time>2023-05-01T17:57:18.953Z</time>
      </trkpt>
      <trkpt lat="47.80239" lon="6.54913">
        <ele>484</ele>
        <time>2023-05-01T17:57:20.553Z</time>
      </trkpt>
      <trkpt lat="47.80244" lon="6.54921">
        <ele>484</ele>
        <time>2023-05-01T17:57:22.154Z</time>
      </trkpt>
      <trkpt lat="47.80259" lon="6.54954">
        <ele>484</ele>
        <time>2023-05-01T17:57:23.760Z</time>
      </trkpt>
      <trkpt lat="47.80279" lon="6.55007">
        <ele>484</ele>
        <time>2023-05-01T17:57:25.374Z</time>
      </trkpt>
      <trkpt lat="47.80276" lon="6.55013">
        <ele>484</ele>
        <time>2023-05-01T17:57:26.989Z</time>
      </trkpt>
      <trkpt lat="47.80276" lon="6.55027">
        <ele>484</ele>
        <time>2023-05-01T17:57:28.606Z</time>
      </trkpt>
      <trkpt lat="47.80271" lon="6.55042">
        <ele>485</ele>
        <time>2023-05-01T17:57:30.226Z</time>
      </trkpt>
      <trkpt lat="47.80264" lon="6.55057">
        <ele>485</ele>
        <time>2023-05-01T17:57:31.848Z</time>
      </trkpt>
      <trkpt lat="47.80249" lon="6.55082">
        <ele>485</ele>
        <time>2023-05-01T17:57:33.475Z</time>
      </trkpt>
      <trkpt lat="47.80223" lon="6.55101">
        <ele>485</ele>
        <time>2023-05-01T17:57:35.107Z</time>
      </trkpt>
      <trkpt lat="47.80189" lon="6.55114">
        <ele>485</ele>
        <time>2023-05-01T17:57:36.747Z</time>
      </trkpt>
      <trkpt lat="47.80175" lon="6.55122">
        <ele>486</ele>
        <time>2023-05-01T17:57:38.389Z</time>
      </trkpt>
      <trkpt lat="47.80171" lon="6.55134">
        <ele>486</ele>
        <time>2023-05-01T17:57:40.033Z</time>
      </trkpt>
      <trkpt lat="47.80162" lon="6.55147">
        <ele>486</ele>
        <time>2023-05-01T17:57:41.680Z</time>
      </trkpt>
      <trkpt lat="47.80144" lon="6.55165">
        <ele>487</ele>
        <time>2023-05-01T17:57:43.331Z</time>
      </trkpt>
      <trkpt lat="47.80138" lon="6.55183">
        <ele>487</ele>
        <time>2023-05-01T17:57:44.985Z</time>
      </trkpt>
      <trkpt lat="47.80139" lon="6.55198">
        <ele>488</ele>
        <time>2023-05-01T17:57:46.641Z</time>
      </trkpt>
      <trkpt lat="47.80136" lon="6.5521">
        <ele>488</ele>
        <time>2023-05-01T17:57:48.299Z</time>
      </trkpt>
      <trkpt lat="47.80137" lon="6.55219">
        <ele>488</ele>
        <time>2023-05-01T17:57:49.958Z</time>
      </trkpt>
      <trkpt lat="47.80158" lon="6.55268">
        <ele>489</ele>
        <time>2023-05-01T17:57:51.625Z</time>
      </trkpt>
      <trkpt lat="47.80171" lon="6.55278">
        <ele>490</ele>
        <time>2023-05-01T17:57:53.295Z</time>
      </trkpt>
      <trkpt lat="47.80185" lon="6.55296">
        <ele>490</ele>
        <time>2023-05-01T17:57:54.968Z</time>
      </trkpt>
      <trkpt lat="47.80192" lon="6.55302">
        <ele>491</ele>
        <time>2023-05-01T17:57:56.643Z</time>
      </trkpt>
      <trkpt lat="47.80199" lon="6.55314">
        <ele>491</ele>
        <time>2023-05-01T17:57:58.320Z</time>
      </trkpt>
      <trkpt lat="47.80225" lon="6.55332">
        <ele>492</ele>
        <time>2023-05-01T17:58:00.003Z</time>
      </trkpt>
      <trkpt lat="47.80232" lon="6.55333">
        <ele>492</ele>
        <time>2023-05-01T17:58:01.687Z</time>
      </trkpt>
      <trkpt lat="47.80246" lon="6.5533">
        <ele>493</ele>
        <time>2023-05-01T17:58:03.374Z</time>
      </trkpt>
      <trkpt lat="47.80256" lon="6.55335">
        <ele>493</ele>
        <time>2023-05-01T17:58:05.063Z</time>
      </trkpt>
      <trkpt lat="47.80258" lon="6.5534">
        <ele>494</ele>
        <time>2023-05-01T17:58:06.753Z</time>
      </trkpt>
      <trkpt lat="47.80259" lon="6.55353">
        <ele>494</ele>
        <time>2023-05-01T17:58:08.445Z</time>
      </trkpt>
      <trkpt lat="47.80254" lon="6.55379">
        <ele>495</ele>
        <time>2023-05-01T17:58:10.140Z</time>
      </trkpt>
      <trkpt lat="47.80246" lon="6.55396">
        <ele>495</ele>
        <time>2023-05-01T17:58:11.838Z</time>
      </trkpt>
      <trkpt lat="47.8023" lon="6.55426">
        <ele>495</ele>
        <time>2023-05-01T17:58:13.541Z</time>
      </trkpt>
      <trkpt lat="47.80226" lon="6.55438">
        <ele>496</ele>
        <time>2023-05-01T17:58:15.246Z</time>
      </trkpt>
      <trkpt lat="47.80218" lon="6.55489">
        <ele>496</ele>
        <time>2023-05-01T17:58:16.958Z</time>
      </trkpt>
      <trkpt lat="47.80215" lon="6.55543">
        <ele>496</ele>
        <time>2023-05-01T17:58:18.677Z</time>
      </trkpt>
      <trkpt lat="47.80226" lon="6.55577">
        <ele>496</ele>
        <time>2023-05-01T17:58:20.401Z</time>
      </trkpt>
      <trkpt lat="47.8023" lon="6.55609">
        <ele>496</ele>
        <time>2023-05-01T17:58:22.130Z</time>
      </trkpt>
      <trkpt lat="47.80234" lon="6.55614">
        <ele>495</ele>
        <time>2023-05-01T17:58:23.860Z</time>
      </trkpt>
      <trkpt lat="47.80235" lon="6.55621">
        <ele>495</ele>
        <time>2023-05-01T17:58:25.591Z</time>
      </trkpt>
      <trkpt lat="47.80241" lon="6.55634">
        <ele>495</ele>
        <time>2023-05-01T17:58:27.324Z</time>
      </trkpt>
      <trkpt lat="47.80244" lon="6.55645">
        <ele>494</ele>
        <time>2023-05-01T17:58:29.058Z</time>
      </trkpt>
      <trkpt lat="47.80254" lon="6.55657">
        <ele>494</ele>
        <time>2023-05-01T17:58:30.795Z</time>
      </trkpt>
      <trkpt lat="47.80261" lon="6.55662">
        <ele>493</ele>
        <time>2023-05-01T17:58:32.534Z</time>
      </trkpt>
      <trkpt lat="47.80267" lon="6.55672">
        <ele>493</ele>
        <time>2023-05-01T17:58:34.275Z</time>
      </trkpt>
      <trkpt lat="47.80278" lon="6.55712">
        <ele>492</ele>
        <time>2023-05-01T17:58:36.021Z</time>
      </trkpt>
      <trkpt lat="47.8029" lon="6.55729">
        <ele>491</ele>
        <time>2023-05-01T17:58:37.771Z</time>
      </trkpt>
      <trkpt lat="47.80291" lon="6.55735">
        <ele>490</ele>
        <time>2023-05-01T17:58:39.521Z</time>
      </trkpt>
      <trkpt lat="47.80295" lon="6.55743">
        <ele>489</ele>
        <time>2023-05-01T17:58:41.273Z</time>
      </trkpt>
      <trkpt lat="47.80301" lon="6.55764">
        <ele>488</ele>
        <time>2023-05-01T17:58:43.028Z</time>
      </trkpt>
      <trkpt lat="47.80315" lon="6.55788">
        <ele>487</ele>
        <time>2023-05-01T17:58:44.787Z</time>
      </trkpt>
      <trkpt lat="47.80321" lon="6.55802">
        <ele>486</ele>
        <time>2023-05-01T17:58:46.548Z</time>
      </trkpt>
      <trkpt lat="47.80323" lon="6.55821">
        <ele>485</ele>
        <time>2023-05-01T17:58:48.312Z</time>
      </trkpt>
      <trkpt lat="47.8033" lon="6.55837">
        <ele>483</ele>
        <time>2023-05-01T17:58:50.078Z</time>
      </trkpt>
      <trkpt lat="47.80338" lon="6.55865">
        <ele>482</ele>
        <time>2023-05-01T17:58:51.849Z</time>
      </trkpt>
      <trkpt lat="47.80338" lon="6.55878">
        <ele>481</ele>
        <time>2023-05-01T17:58:53.621Z</time>
      </trkpt>
      <trkpt lat="47.80344" lon="6.55913">
        <ele>479</ele>
        <time>2023-05-01T17:58:55.398Z</time>
      </trkpt>
      <trkpt lat="47.80347" lon="6.55923">
        <ele>478</ele>
        <time>2023-05-01T17:58:57.177Z</time>
      </trkpt>
      <trkpt lat="47.80353" lon="6.55932">
        <ele>476</ele>
        <time>2023-05-01T17:58:58.957Z</time>
      </trkpt>
      <trkpt lat="47.8036" lon="6.55952">
        <ele>475</ele>
        <time>2023-05-01T17:59:00.740Z</time>
      </trkpt>
      <trkpt lat="47.80363" lon="6.5598">
        <ele>474</ele>
        <time>2023-05-01T17:59:02.527Z</time>
      </trkpt>
      <trkpt lat="47.80369" lon="6.56018">
        <ele>472</ele>
        <time>2023-05-01T17:59:04.320Z</time>
      </trkpt>
      <trkpt lat="47.80402" lon="6.5609">
        <ele>471</ele>
        <time>2023-05-01T17:59:06.124Z</time>
      </trkpt>
      <trkpt lat="47.80417" lon="6.56129">
        <ele>469</ele>
        <time>2023-05-01T17:59:07.934Z</time>
      </trkpt>
      <trkpt lat="47.80425" lon="6.56175">
        <ele>468</ele>
        <time>2023-05-01T17:59:09.751Z</time>
      </trkpt>
      <trkpt lat="47.80424" lon="6.56196">
        <ele>467</ele>
        <time>2023-05-01T17:59:11.571Z</time>
      </trkpt>
      <trkpt lat="47.8043" lon="6.56206">
        <ele>466</ele>
        <time>2023-05-01T17:59:13.392Z</time>
      </trkpt>
      <trkpt lat="47.80433" lon="6.56229">
        <ele>465</ele>
        <time>2023-05-01T17:59:15.216Z</time>
      </trkpt>
      <trkpt lat="47.80434" lon="6.56248">
        <ele>464</ele>
        <time>2023-05-01T17:59:17.043Z</time>
      </trkpt>
      <trkpt lat="47.80432" lon="6.56287">
        <ele>463</ele>
        <time>2023-05-01T17:59:18.875Z</time>
      </trkpt>
      <trkpt lat="47.80434" lon="6.56314">
        <ele>463</ele>
        <time>2023-05-01T17:59:20.711Z</time>
      </trkpt>
      <trkpt lat="47.80444" lon="6.56353">
        <ele>462</ele>
        <time>2023-05-01T17:59:22.553Z</time>
      </trkpt>
      <trkpt lat="47.80454" lon="6.56382">
        <ele>462</ele>
        <time>2023-05-01T17:59:24.399Z</time>
      </trkpt>
      <trkpt lat="47.80484" lon="6.5644">
        <ele>461</ele>
        <time>2023-05-01T17:59:26.255Z</time>
      </trkpt>
      <trkpt lat="47.80491" lon="6.56451">
        <ele>461</ele>
        <time>2023-05-01T17:59:28.113Z</time>
      </trkpt>
      <trkpt lat="47.80504" lon="6.56466">
        <ele>461</ele>
        <time>2023-05-01T17:59:29.974Z</time>
      </trkpt>
      <trkpt lat="47.80513" lon="6.56484">
        <ele>462</ele>
        <time>2023-05-01T17:59:31.838Z</time>
      </trkpt>
      <trkpt lat="47.80522" lon="6.5649">
        <ele>462</ele>
        <time>2023-05-01T17:59:33.704Z</time>
      </trkpt>
      <trkpt lat="47.80536" lon="6.56502">
        <ele>462</ele>
        <time>2023-05-01T17:59:35.573Z</time>
      </trkpt>
      <trkpt lat="47.80537" lon="6.56514">
        <ele>463</ele>
        <time>2023-05-01T17:59:37.444Z</time>
      </trkpt>
      <trkpt lat="47.80538" lon="6.56517">
        <ele>463</ele>
        <time>2023-05-01T17:59:39.316Z</time>
      </trkpt>
      <trkpt lat="47.80556" lon="6.56529">
        <ele>464</ele>
        <time>2023-05-01T17:59:41.192Z</time>
      </trkpt>
      <trkpt lat="47.80572" lon="6.5655">
        <ele>465</ele>
        <time>2023-05-01T17:59:43.072Z</time>
      </trkpt>
      <trkpt lat="47.80582" lon="6.56552">
        <ele>465</ele>
        <time>2023-05-01T17:59:44.954Z</time>
      </trkpt>
      <trkpt lat="47.8059" lon="6.56549">
        <ele>466</ele>
        <time>2023-05-01T17:59:46.837Z</time>
      </trkpt>
      <trkpt lat="47.80602" lon="6.56543">
        <ele>467</ele>
        <time>2023-05-01T17:59:48.723Z</time>
      </trkpt>
      <trkpt lat="47.80612" lon="6.56531">
        <ele>468</ele>
        <time>2023-05-01T17:59:50.611Z</time>
      </trkpt>
      <trkpt lat="47.80622" lon="6.56531">
        <ele>469</ele>
        <time>2023-05-01T17:59:52.501Z</time>
      </trkpt>
      <trkpt lat="47.80634" lon="6.56529">
        <ele>470</ele>
        <time>2023-05-01T17:59:54.394Z</time>
      </trkpt>
      <trkpt lat="47.80657" lon="6.56541">
        <ele>471</ele>
        <time>2023-05-01T17:59:56.292Z</time>
      </trkpt>
      <trkpt lat="47.80666" lon="6.56549">
        <ele>472</ele>
        <time>2023-05-01T17:59:58.192Z</time>
      </trkpt>
      <trkpt lat="47.80684" lon="6.56554">
        <ele>473</ele>
        <time>2023-05-01T18:00:00.096Z</time>
      </trkpt>
      <trkpt lat="47.80696" lon="6.56553">
        <ele>474</ele>
        <time>2023-05-01T18:00:02.002Z</time>
      </trkpt>
      <trkpt lat="47.80702" lon="6.56551">
        <ele>475</ele>
        <time>2023-05-01T18:00:03.909Z</time>
      </trkpt>
      <trkpt lat="47.80709" lon="6.56554">
        <ele>476</ele>
        <time>2023-05-01T18:00:05.818Z</time>
      </trkpt>
      <trkpt lat="47.80717" lon="6.56552">
        <ele>477</ele>
        <time>2023-05-01T18:00:07.728Z</time>
      </trkpt>
      <trkpt lat="47.80732" lon="6.56556">
        <ele>478</ele>
        <time>2023-05-01T18:00:09.641Z</time>
      </trkpt>
      <trkpt lat="47.80741" lon="6.56551">
        <ele>479</ele>
        <time>2023-05-01T18:00:11.556Z</time>
      </trkpt>
      <trkpt lat="47.8075" lon="6.56542">
        <ele>480</ele>
        <time>2023-05-01T18:00:13.473Z</time>
      </trkpt>
      <trkpt lat="47.80763" lon="6.56541">
        <ele>481</ele>
        <time>2023-05-01T18:00:15.393Z</time>
      </trkpt>
      <trkpt lat="47.80774" lon="6.56534">
        <ele>481</ele>
        <time>2023-05-01T18:00:17.315Z</time>
      </trkpt>
      <trkpt lat="47.80779" lon="6.56533">
        <ele>482</ele>
        <time>2023-05-01T18:00:19.238Z</time>
      </trkpt>
      <trkpt lat="47.80783" lon="6.56533">
        <ele>483</ele>
        <time>2023-05-01T18:00:21.162Z</time>
      </trkpt>
      <trkpt lat="47.80789" lon="6.56536">
        <ele>483</ele>
        <time>2023-05-01T18:00:23.087Z</time>
      </trkpt>
      <trkpt lat="47.80794" lon="6.56543">
        <ele>484</ele>
        <time>2023-05-01T18:00:25.014Z</time>
      </trkpt>
      <trkpt lat="47.80795" lon="6.56549">
        <ele>484</ele>
        <time>2023-05-01T18:00:26.942Z</time>
      </trkpt>
      <trkpt lat="47.80804" lon="6.56556">
        <ele>485</ele>
        <time>2023-05-01T18:00:28.872Z</time>
      </trkpt>
      <trkpt lat="47.80819" lon="6.5658">
        <ele>485</ele>
        <time>2023-05-01T18:00:30.806Z</time>
      </trkpt>
      <trkpt lat="47.80822" lon="6.56592">
        <ele>486</ele>
        <time>2023-05-01T18:00:32.742Z</time>
      </trkpt>
      <trkpt lat="47.80829" lon="6.56596">
        <ele>486</ele>
        <time>2023-05-01T18:00:34.679Z</time>
      </trkpt>
      <trkpt lat="47.8084" lon="6.56599">
        <ele>486</ele>
        <time>2023-05-01T18:00:36.619Z</time>
      </trkpt>
      <trkpt lat="47.80849" lon="6.56603">
        <ele>486</ele>
        <time>2023-05-01T18:00:38.560Z</time>
      </trkpt>
      <trkpt lat="47.80858" lon="6.56616">
        <ele>486</ele>
        <time>2023-05-01T18:00:40.504Z</time>
      </trkpt>
      <trkpt lat="47.80861" lon="6.56624">
        <ele>486</ele>
        <time>2023-05-01T18:00:42.449Z</time>
      </trkpt>
      <trkpt lat="47.80876" lon="6.56638">
        <ele>486</ele>
        <time>2023-05-01T18:00:44.398Z</time>
      </trkpt>
      <trkpt lat="47.80878" lon="6.56645">
        <ele>486</ele>
        <time>2023-05-01T18:00:46.348Z</time>
      </trkpt>
      <trkpt lat="47.80884" lon="6.56653">
        <ele>486</ele>
        <time>2023-05-01T18:00:48.299Z</time>
      </trkpt>
      <trkpt lat="47.80894" lon="6.56659">
        <ele>485</ele>
        <time>2023-05-01T18:00:50.252Z</time>
      </trkpt>
      <trkpt lat="47.80903" lon="6.56675">
        <ele>485</ele>
        <time>2023-05-01T18:00:52.208Z</time>
      </trkpt>
      <trkpt lat="47.80914" lon="6.56687">
        <ele>485</ele>
        <time>2023-05-01T18:00:54.167Z</time>
      </trkpt>
      <trkpt lat="47.80929" lon="6.567">
        <ele>484</ele>
        <time>2023-05-01T18:00:56.129Z</time>
      </trkpt>
      <trkpt lat="47.80944" lon="6.56723">
        <ele>483</ele>
        <time>2023-05-01T18:00:58.096Z</time>
      </trkpt>
      <trkpt lat="47.80946" lon="6.56729">
        <ele>483</ele>
        <time>2023-05-01T18:01:00.064Z</time>
      </trkpt>
      <trkpt lat="47.80946" lon="6.56758">
        <ele>482</ele>
        <time>2023-05-01T18:01:02.036Z</time>
      </trkpt>
      <trkpt lat="47.80947" lon="6.56765">
        <ele>482</ele>
        <time>2023-05-01T18:01:04.009Z</time>
      </trkpt>
      <trkpt lat="47.80945" lon="6.56781">
        <ele>482</ele>
        <time>2023-05-01T18:01:05.984Z</time>
      </trkpt>
      <trkpt lat="47.80945" lon="6.56795">
        <ele>481</ele>
        <time>2023-05-01T18:01:07.961Z</time>
      </trkpt>
      <trkpt lat="47.80937" lon="6.56831">
        <ele>481</ele>
        <time>2023-05-01T18:01:09.943Z</time>
      </trkpt>
      <trkpt lat="47.80941" lon="6.56849">
        <ele>480</ele>
        <time>2023-05-01T18:01:11.927Z</time>
      </trkpt>
      <trkpt lat="47.80947" lon="6.5686">
        <ele>480</ele>
        <time>2023-05-01T18:01:13.913Z</time>
      </trkpt>
      <trkpt lat="47.80951" lon="6.56863">
        <ele>479</ele>
        <time>2023-05-01T18:01:15.900Z</time>
      </trkpt>
      <trkpt lat="47.80966" lon="6.56866">
        <ele>479</ele>
        <time>2023-05-01T18:01:17.890Z</time>
      </trkpt>
      <trkpt lat="47.80981" lon="6.56862">
        <ele>479</ele>
        <time>2023-05-01T18:01:19.883Z</time>
      </trkpt>
      <trkpt lat="47.81002" lon="6.56863">
        <ele>479</ele>
        <time>2023-05-01T18:01:21.880Z</time>
      </trkpt>
      <trkpt lat="47.81005" lon="6.56867">
        <ele>478</ele>
        <time>2023-05-01T18:01:23.878Z</time>
      </trkpt>
      <trkpt lat="47.81012" lon="6.56881">
        <ele>478</ele>
        <time>2023-05-01T18:01:25.879Z</time>
      </trkpt>
      <trkpt lat="47.81025" lon="6.56918">
        <ele>478</ele>
        <time>2023-05-01T18:01:27.885Z</time>
      </trkpt>
      <trkpt lat="47.81041" lon="6.56951">
        <ele>478</ele>
        <time>2023-05-01T18:01:29.897Z</time>
      </trkpt>
      <trkpt lat="47.81073" lon="6.56971">
        <ele>478</ele>
        <time>2023-05-01T18:01:31.916Z</time>
      </trkpt>
      <trkpt lat="47.81087" lon="6.56978">
        <ele>478</ele>
        <time>2023-05-01T18:01:33.938Z</time>
      </trkpt>
      <trkpt lat="47.81129" lon="6.56995">
        <ele>478</ele>
        <time>2023-05-01T18:01:35.968Z</time>
      </trkpt>
      <trkpt lat="47.8114" lon="6.57003">
        <ele>479</ele>
        <time>2023-05-01T18:01:38.001Z</time>
      </trkpt>
      <trkpt lat="47.81162" lon="6.5701">
        <ele>479</ele>
        <time>2023-05-01T18:01:40.038Z</time>
      </trkpt>
      <trkpt lat="47.81193" lon="6.5703">
        <ele>479</ele>
        <time>2023-05-01T18:01:42.082Z</time>
      </trkpt>
      <trkpt lat="47.81234" lon="6.57029">
        <ele>479</ele>
        <time>2023-05-01T18:01:44.134Z</time>
      </trkpt>
      <trkpt lat="47.81256" lon="6.57036">
        <ele>480</ele>
        <time>2023-05-01T18:01:46.191Z</time>
      </trkpt>
      <trkpt lat="47.81275" lon="6.57045">
        <ele>480</ele>
        <time>2023-05-01T18:01:48.252Z</time>
      </trkpt>
      <trkpt lat="47.8129" lon="6.57059">
        <ele>480</ele>
        <time>2023-05-01T18:01:50.317Z</time>
      </trkpt>
      <trkpt lat="47.81299" lon="6.5707">
        <ele>481</ele>
        <time>2023-05-01T18:01:52.384Z</time>
      </trkpt>
      <trkpt lat="47.81308" lon="6.57096">
        <ele>481</ele>
        <time>2023-05-01T18:01:54.455Z</time>
      </trkpt>
      <trkpt lat="47.81314" lon="6.57108">
        <ele>482</ele>
        <time>2023-05-01T18:01:56.528Z</time>
      </trkpt>
      <trkpt lat="47.8132" lon="6.57117">
        <ele>482</ele>
        <time>2023-05-01T18:01:58.603Z</time>
      </trkpt>
      <trkpt lat="47.81338" lon="6.57138">
        <ele>482</ele>
        <time>2023-05-01T18:02:00.682Z</time>
      </trkpt>
      <trkpt lat="47.81344" lon="6.57149">
        <ele>483</ele>
        <time>2023-05-01T18:02:02.763Z</time>
      </trkpt>
      <trkpt lat="47.81357" lon="6.57178">
        <ele>483</ele>
        <time>2023-05-01T18:02:04.849Z</time>
      </trkpt>
      <trkpt lat="47.81364" lon="6.5723">
        <ele>483</ele>
        <time>2023-05-01T18:02:06.942Z</time>
      </trkpt>
      <trkpt lat="47.81377" lon="6.57255">
        <ele>484</ele>
        <time>2023-05-01T18:02:09.039Z</time>
      </trkpt>
      <trkpt lat="47.81387" lon="6.57282">
        <ele>484</ele>
        <time>2023-05-01T18:02:11.140Z</time>
      </trkpt>
      <trkpt lat="47.8139" lon="6.57321">
        <ele>484</ele>
        <time>2023-05-01T18:02:13.246Z</time>
      </trkpt>
      <trkpt lat="47.81393" lon="6.57341">
        <ele>485</ele>
        <time>2023-05-01T18:02:15.355Z</time>
      </trkpt>
      <trkpt lat="47.81397" lon="6.57356">
        <ele>485</ele>
        <time>2023-05-01T18:02:17.466Z</time>
      </trkpt>
      <trkpt lat="47.81394" lon="6.57381">
        <ele>485</ele>
        <time>2023-05-01T18:02:19.581Z</time>
      </trkpt>
      <trkpt lat="47.814" lon="6.57401">
        <ele>486</ele>
        <time>2023-05-01T18:02:21.699Z</time>
      </trkpt>
      <trkpt lat="47.81406" lon="6.57412">
        <ele>486</ele>
        <time>2023-05-01T18:02:23.819Z</time>
      </trkpt>
      <trkpt lat="47.81409" lon="6.57424">
        <ele>486</ele>
        <time>2023-05-01T18:02:25.940Z</time>
      </trkpt>
      <trkpt lat="47.81419" lon="6.57447">
        <ele>486</ele>
        <time>2023-05-01T18:02:28.065Z</time>
      </trkpt>
      <trkpt lat="47.8143" lon="6.57477">
        <ele>486</ele>
        <time>2023-05-01T18:02:30.195Z</time>
      </trkpt>
      <trkpt lat="47.81434" lon="6.57482">
        <ele>486</ele>
        <time>2023-05-01T18:02:32.326Z</time>
      </trkpt>
      <trkpt lat="47.81446" lon="6.575">
        <ele>486</ele>
        <time>2023-05-01T18:02:34.460Z</time>
      </trkpt>
      <trkpt lat="47.81449" lon="6.57515">
        <ele>486</ele>
        <time>2023-05-01T18:02:36.596Z</time>
      </trkpt>
      <trkpt lat="47.81453" lon="6.57528">
        <ele>486</ele>
        <time>2023-05-01T18:02:38.734Z</time>
      </trkpt>
      <trkpt lat="47.8147" lon="6.5756">
        <ele>486</ele>
        <time>2023-05-01T18:02:40.878Z</time>
      </trkpt>
      <trkpt lat="47.81475" lon="6.57587">
        <ele>486</ele>
        <time>2023-05-01T18:02:43.025Z</time>
      </trkpt>
      <trkpt lat="47.81473" lon="6.57631">
        <ele>486</ele>
        <time>2023-05-01T18:02:45.178Z</time>
      </trkpt>
      <trkpt lat="47.81468" lon="6.57647">
        <ele>486</ele>
        <time>2023-05-01T18:02:47.334Z</time>
      </trkpt>
      <trkpt lat="47.81469" lon="6.57669">
        <ele>485</ele>
        <time>2023-05-01T18:02:49.493Z</time>
      </trkpt>
      <trkpt lat="47.81466" lon="6.57695">
        <ele>485</ele>
        <time>2023-05-01T18:02:51.655Z</time>
      </trkpt>
      <trkpt lat="47.81452" lon="6.57742">
        <ele>485</ele>
        <time>2023-05-01T18:02:53.824Z</time>
      </trkpt>
      <trkpt lat="47.81451" lon="6.57754">
        <ele>484</ele>
        <time>2023-05-01T18:02:55.995Z</time>
      </trkpt>
      <trkpt lat="47.8146" lon="6.57784">
        <ele>484</ele>
        <time>2023-05-01T18:02:58.170Z</time>
      </trkpt>
      <trkpt lat="47.81459" lon="6.57792">
        <ele>484</ele>
        <time>2023-05-01T18:03:00.346Z</time>
      </trkpt>
      <trkpt lat="47.81449" lon="6.57804">
        <ele>483</ele>
        <time>2023-05-01T18:03:02.525Z</time>
      </trkpt>
      <trkpt lat="47.81442" lon="6.57815">
        <ele>483</ele>
        <time>2023-05-01T18:03:04.706Z</time>
      </trkpt>
      <trkpt lat="47.81442" lon="6.57818">
        <ele>482</ele>
        <time>2023-05-01T18:03:06.887Z</time>
      </trkpt>
      <trkpt lat="47.81435" lon="6.57826">
        <ele>482</ele>
        <time>2023-05-01T18:03:09.070Z</time>
      </trkpt>
      <trkpt lat="47.81432" lon="6.57834">
        <ele>481</ele>
        <time>2023-05-01T18:03:11.254Z</time>
      </trkpt>
      <trkpt lat="47.81421" lon="6.57849">
        <ele>481</ele>
        <time>2023-05-01T18:03:13.441Z</time>
      </trkpt>
      <trkpt lat="47.81411" lon="6.57865">
        <ele>480</ele>
        <time>2023-05-01T18:03:15.631Z</time>
      </trkpt>
      <trkpt lat="47.81408" lon="6.57876">
        <ele>480</ele>
        <time>2023-05-01T18:03:17.823Z</time>
      </trkpt>
      <trkpt lat="47.81407" lon="6.57884">
        <ele>479</ele>
        <time>2023-05-01T18:03:20.016Z</time>
      </trkpt>
      <trkpt lat="47.81404" lon="6.5789">
        <ele>478</ele>
        <time>2023-05-01T18:03:22.210Z</time>
      </trkpt>
      <trkpt lat="47.81398" lon="6.57909">
        <ele>478</ele>
        <time>2023-05-01T18:03:24.407Z</time>
      </trkpt>
      <trkpt lat="47.81391" lon="6.57946">
        <ele>477</ele>
        <time>2023-05-01T18:03:26.609Z</time>
      </trkpt>
      <trkpt lat="47.81386" lon="6.57964">
        <ele>477</ele>
        <time>2023-05-01T18:03:28.814Z</time>
      </trkpt>
      <trkpt lat="47.81386" lon="6.57994">
        <ele>476</ele>
        <time>2023-05-01T18:03:31.023Z</time>
      </trkpt>
      <trkpt lat="47.81388" lon="6.58011">
        <ele>476</ele>
        <time>2023-05-01T18:03:33.234Z</time>
      </trkpt>
      <trkpt lat="47.81387" lon="6.58018">
        <ele>475</ele>
        <time>2023-05-01T18:03:35.446Z</time>
      </trkpt>
      <trkpt lat="47.81381" lon="6.58039">
        <ele>475</ele>
        <time>2023-05-01T18:03:37.661Z</time>
      </trkpt>
      <trkpt lat="47.81371" lon="6.58064">
        <ele>474</ele>
        <time>2023-05-01T18:03:39.880Z</time>
      </trkpt>
      <trkpt lat="47.81372" lon="6.5807">
        <ele>474</ele>
        <time>2023-05-01T18:03:42.100Z</time>
      </trkpt>
      <trkpt lat="47.8137" lon="6.58076">
        <ele>473</ele>
        <time>2023-05-01T18:03:44.321Z</time>
      </trkpt>
      <trkpt lat="47.81364" lon="6.58081">
        <ele>473</ele>
        <time>2023-05-01T18:03:46.543Z</time>
      </trkpt>
      <trkpt lat="47.81348" lon="6.58088">
        <ele>472</ele>
        <time>2023-05-01T18:03:48.768Z</time>
      </trkpt>
      <trkpt lat="47.81331" lon="6.5811">
        <ele>472</ele>
        <time>2023-05-01T18:03:50.998Z</time>
      </trkpt>
      <trkpt lat="47.81293" lon="6.58148">
        <ele>472</ele>
        <time>2023-05-01T18:03:53.237Z</time>
      </trkpt>
      <trkpt lat="47.81273" lon="6.58164">
        <ele>471</ele>
        <time>2023-05-01T18:03:55.480Z</time>
      </trkpt>
      <trkpt lat="47.81267" lon="6.5817">
        <ele>471</ele>
        <time>2023-05-01T18:03:57.725Z</time>
      </trkpt>
      <trkpt lat="47.81262" lon="6.58179">
        <ele>471</ele>
        <time>2023-05-01T18:03:59.971Z</time>
      </trkpt>
      <trkpt lat="47.81253" lon="6.58186">
        <ele>471</ele>
        <time>2023-05-01T18:04:02.219Z</time>
      </trkpt>
      <trkpt lat="47.81239" lon="6.5821">
        <ele>471</ele>
        <time>2023-05-01T18:04:04.472Z</time>
      </trkpt>
      <trkpt lat="47.81229" lon="6.58218">
        <ele>470</ele>
        <time>2023-05-01T18:04:06.727Z</time>
      </trkpt>
      <trkpt lat="47.81208" lon="6.58245">
        <ele>470</ele>
        <time>2023-05-01T18:04:08.988Z</time>
      </trkpt>
      <trkpt lat="47.81188" lon="6.58249">
        <ele>470</ele>
        <time>2023-05-01T18:04:11.253Z</time>
      </trkpt>
      <trkpt lat="47.81185" lon="6.58254">
        <ele>470</ele>
        <time>2023-05-01T18:04:13.519Z</time>
      </trkpt>
      <trkpt lat="47.81177" lon="6.5826">
        <ele>470</ele>
        <time>2023-05-01T18:04:15.786Z</time>
      </trkpt>
      <trkpt lat="47.81153" lon="6.58293">
        <ele>470</ele>
        <time>2023-05-01T18:04:18.060Z</time>
      </trkpt>
      <trkpt lat="47.81136" lon="6.58304">
        <ele>470</ele>
        <time>2023-05-01T18:04:20.337Z</time>
      </trkpt>
      <trkpt lat="47.81104" lon="6.58346">
        <ele>470</ele>
        <time>2023-05-01T18:04:22.623Z</time>
      </trkpt>
      <trkpt lat="47.81099" lon="6.58368">
        <ele>470</ele>
        <time>2023-05-01T18:04:24.912Z</time>
      </trkpt>
      <trkpt lat="47.81098" lon="6.58386">
        <ele>470</ele>
        <time>2023-05-01T18:04:27.204Z</time>
      </trkpt>
      <trkpt lat="47.81109" lon="6.58401">
        <ele>470</ele>
        <time>2023-05-01T18:04:29.499Z</time>
      </trkpt>
      <trkpt lat="47.81112" lon="6.58426">
        <ele>470</ele>
        <time>2023-05-01T18:04:31.797Z</time>
      </trkpt>
      <trkpt lat="47.81111" lon="6.58434">
        <ele>470</ele>
        <time>2023-05-01T18:04:34.096Z</time>
      </trkpt>
      <trkpt lat="47.81114" lon="6.58451">
        <ele>470</ele>
        <time>2023-05-01T18:04:36.398Z</time>
      </trkpt>
      <trkpt lat="47.81129" lon="6.58476">
        <ele>470</ele>
        <time>2023-05-01T18:04:38.704Z</time>
      </trkpt>
      <trkpt lat="47.81135" lon="6.58485">
        <ele>470</ele>
        <time>2023-05-01T18:04:41.012Z</time>
      </trkpt>
      <trkpt lat="47.81147" lon="6.58511">
        <ele>470</ele>
        <time>2023-05-01T18:04:43.324Z</time>
      </trkpt>
      <trkpt lat="47.81164" lon="6.58536">
        <ele>471</ele>
        <time>2023-05-01T18:04:45.641Z</time>
      </trkpt>
      <trkpt lat="47.81164" lon="6.58543">
        <ele>471</ele>
        <time>2023-05-01T18:04:47.959Z</time>
      </trkpt>
      <trkpt lat="47.81167" lon="6.58548">
        <ele>471</ele>
        <time>2023-05-01T18:04:50.278Z</time>
      </trkpt>
      <trkpt lat="47.81184" lon="6.58568">
        <ele>471</ele>
        <time>2023-05-01T18:04:52.601Z</time>
      </trkpt>
      <trkpt lat="47.81192" lon="6.58584">
        <ele>471</ele>
        <time>2023-05-01T18:04:54.927Z</time>
      </trkpt>
      <trkpt lat="47.81192" lon="6.58604">
        <ele>471</ele>
        <time>2023-05-01T18:04:57.255Z</time>
      </trkpt>
      <trkpt lat="47.81197" lon="6.58614">
        <ele>471</ele>
        <time>2023-05-01T18:04:59.585Z</time>
      </trkpt>
      <trkpt lat="47.81198" lon="6.58635">
        <ele>471</ele>
        <time>2023-05-01T18:05:01.918Z</time>
      </trkpt>
      <trkpt lat="47.81207" lon="6.58662">
        <ele>472</ele>
        <time>2023-05-01T18:05:04.255Z</time>
      </trkpt>
      <trkpt lat="47.81208" lon="6.58678">
        <ele>472</ele>
        <time>2023-05-01T18:05:06.594Z</time>
      </trkpt>
      <trkpt lat="47.81215" lon="6.58702">
        <ele>472</ele>
        <time>2023-05-01T18:05:08.936Z</time>
      </trkpt>
      <trkpt lat="47.81219" lon="6.58707">
        <ele>472</ele>
        <time>2023-05-01T18:05:11.280Z</time>
      </trkpt>
      <trkpt lat="47.81235" lon="6.58716">
        <ele>472</ele>
        <time>2023-05-01T18:05:13.627Z</time>
      </trkpt>
      <trkpt lat="47.81247" lon="6.58714">
        <ele>472</ele>
        <time>2023-05-01T18:05:15.976Z</time>
      </trkpt>
      <trkpt lat="47.8126" lon="6.58709">
        <ele>472</ele>
        <time>2023-05-01T18:05:18.328Z</time>
      </trkpt>
      <trkpt lat="47.81283" lon="6.58699">
        <ele>472</ele>
        <time>2023-05-01T18:05:20.685Z</time>
      </trkpt>
      <trkpt lat="47.81295" lon="6.58691">
        <ele>472</ele>
        <time>2023-05-01T18:05:23.045Z</time>
      </trkpt>
      <trkpt lat="47.81302" lon="6.58679">
        <ele>472</ele>
        <time>2023-05-01T18:05:25.407Z</time>
      </trkpt>
      <trkpt lat="47.8131" lon="6.5866">
        <ele>472</ele>
        <time>2023-05-01T18:05:27.772Z</time>
      </trkpt>
      <trkpt lat="47.81401" lon="6.58547">
        <ele>472</ele>
        <time>2023-05-01T18:05:30.160Z</time>
      </trkpt>
      <trkpt lat="47.81416" lon="6.58518">
        <ele>472</ele>
        <time>2023-05-01T18:05:32.553Z</time>
      </trkpt>
      <trkpt lat="47.81424" lon="6.58507">
        <ele>472</ele>
        <time>2023-05-01T18:05:34.948Z</time>
      </trkpt>
      <trkpt lat="47.81438" lon="6.58492">
        <ele>472</ele>
        <time>2023-05-01T18:05:37.347Z</time>
      </trkpt>
      <trkpt lat="47.81445" lon="6.58482">
        <ele>472</ele>
        <time>2023-05-01T18:05:39.748Z</time>
      </trkpt>
      <trkpt lat="47.81467" lon="6.58441">
        <ele>472</ele>
        <time>2023-05-01T18:05:42.156Z</time>
      </trkpt>
      <trkpt lat="47.81478" lon="6.58429">
        <ele>473</ele>
        <time>2023-05-01T18:05:44.567Z</time>
      </trkpt>
      <trkpt lat="47.81485" lon="6.58426">
        <ele>473</ele>
        <time>2023-05-01T18:05:46.979Z</time>
      </trkpt>
      <trkpt lat="47.81493" lon="6.58425">
        <ele>473</ele>
        <time>2023-05-01T18:05:49.393Z</time>
      </trkpt>
      <trkpt lat="47.8152" lon="6.58437">
        <ele>473</ele>
        <time>2023-05-01T18:05:51.813Z</time>
      </trkpt>
      <trkpt lat="47.81531" lon="6.58435">
        <ele>473</ele>
        <time>2023-05-01T18:05:54.235Z</time>
      </trkpt>
      <trkpt lat="47.81538" lon="6.58427">
        <ele>473</ele>
        <time>2023-05-01T18:05:56.658Z</time>
      </trkpt>
      <trkpt lat="47.81547" lon="6.58403">
        <ele>473</ele>
        <time>2023-05-01T18:05:59.085Z</time>
      </trkpt>
      <trkpt lat="47.81549" lon="6.58401">
        <ele>473</ele>
        <time>2023-05-01T18:06:01.513Z</time>
      </trkpt>
      <trkpt lat="47.81551" lon="6.58401">
        <ele>473</ele>
        <time>2023-05-01T18:06:03.941Z</time>
      </trkpt>
      <trkpt lat="47.81563" lon="6.5841">
        <ele>473</ele>
        <time>2023-05-01T18:06:06.372Z</time>
      </trkpt>
      <trkpt lat="47.81598" lon="6.58434">
        <ele>473</ele>
        <time>2023-05-01T18:06:08.811Z</time>
      </trkpt>
      <trkpt lat="47.81608" lon="6.58446">
        <ele>474</ele>
        <time>2023-05-01T18:06:11.252Z</time>
      </trkpt>
      <trkpt lat="47.8161" lon="6.58451">
        <ele>474</ele>
        <time>2023-05-01T18:06:13.694Z</time>
      </trkpt>
      <trkpt lat="47.81611" lon="6.58463">
        <ele>474</ele>
        <time>2023-05-01T18:06:16.138Z</time>
      </trkpt>
      <trkpt lat="47.81604" lon="6.58531">
        <ele>474</ele>
        <time>2023-05-01T18:06:18.591Z</time>
      </trkpt>
      <trkpt lat="47.81597" lon="6.58554">
        <ele>474</ele>
        <time>2023-05-01T18:06:21.047Z</time>
      </trkpt>
      <trkpt lat="47.81575" lon="6.58587">
        <ele>474</ele>
        <time>2023-05-01T18:06:23.509Z</time>
      </trkpt>
      <trkpt lat="47.8157" lon="6.58599">
        <ele>474</ele>
        <time>2023-05-01T18:06:25.973Z</time>
      </trkpt>
      <trkpt lat="47.81563" lon="6.58621">
        <ele>474</ele>
        <time>2023-05-01T18:06:28.441Z</time>
      </trkpt>
      <trkpt lat="47.81557" lon="6.58645">
        <ele>474</ele>
        <time>2023-05-01T18:06:30.912Z</time>
      </trkpt>
      <trkpt lat="47.81555" lon="6.58672">
        <ele>474</ele>
        <time>2023-05-01T18:06:33.387Z</time>
      </trkpt>
      <trkpt lat="47.81554" lon="6.58703">
        <ele>474</ele>
        <time>2023-05-01T18:06:35.866Z</time>
      </trkpt>
      <trkpt lat="47.81561" lon="6.588">
        <ele>473</ele>
        <time>2023-05-01T18:06:38.358Z</time>
      </trkpt>
      <trkpt lat="47.81558" lon="6.58835">
        <ele>473</ele>
        <time>2023-05-01T18:06:40.855Z</time>
      </trkpt>
      <trkpt lat="47.81554" lon="6.58848">
        <ele>473</ele>
        <time>2023-05-01T18:06:43.354Z</time>
      </trkpt>
      <trkpt lat="47.81541" lon="6.58867">
        <ele>473</ele>
        <time>2023-05-01T18:06:45.856Z</time>
      </trkpt>
      <trkpt lat="47.81536" lon="6.58881">
        <ele>472</ele>
        <time>2023-05-01T18:06:48.361Z</time>
      </trkpt>
      <trkpt lat="47.81524" lon="6.58946">
        <ele>472</ele>
        <time>2023-05-01T18:06:50.875Z</time>
      </trkpt>
      <trkpt lat="47.81518" lon="6.5897">
        <ele>472</ele>
        <time>2023-05-01T18:06:53.392Z</time>
      </trkpt>
      <trkpt lat="47.81512" lon="6.58984">
        <ele>472</ele>
        <time>2023-05-01T18:06:55.911Z</time>
      </trkpt>
      <trkpt lat="47.8149" lon="6.5901">
        <ele>471</ele>
        <time>2023-05-01T18:06:58.436Z</time>
      </trkpt>
      <trkpt lat="47.81488" lon="6.59024">
        <ele>471</ele>
        <time>2023-05-01T18:07:00.963Z</time>
      </trkpt>
      <trkpt lat="47.81485" lon="6.59055">
        <ele>470</ele>
        <time>2023-05-01T18:07:03.494Z</time>
      </trkpt>
      <trkpt lat="47.81488" lon="6.59118">
        <ele>470</ele>
        <time>2023-05-01T18:07:06.034Z</time>
      </trkpt>
      <trkpt lat="47.81492" lon="6.59157">
        <ele>470</ele>
        <time>2023-05-01T18:07:08.579Z</time>
      </trkpt>
      <trkpt lat="47.81493" lon="6.59193">
        <ele>470</ele>
        <time>2023-05-01T18:07:11.129Z</time>
      </trkpt>
      <trkpt lat="47.81492" lon="6.59235">
        <ele>469</ele>
        <time>2023-05-01T18:07:13.684Z</time>
      </trkpt>
      <trkpt lat="47.81496" lon="6.59264">
        <ele>469</ele>
        <time>2023-05-01T18:07:16.243Z</time>
      </trkpt>
      <trkpt lat="47.81496" lon="6.59324">
        <ele>469</ele>
        <time>2023-05-01T18:07:18.810Z</time>
      </trkpt>
      <trkpt lat="47.81492" lon="6.59342">
        <ele>469</ele>
        <time>2023-05-01T18:07:21.380Z</time>
      </trkpt>
      <trkpt lat="47.81492" lon="6.5935">
        <ele>468</ele>
        <time>2023-05-01T18:07:23.951Z</time>
      </trkpt>
      <trkpt lat="47.81497" lon="6.59382">
        <ele>468</ele>
        <time>2023-05-01T18:07:26.527Z</time>
      </trkpt>
      <trkpt lat="47.81506" lon="6.59405">
        <ele>468</ele>
        <time>2023-05-01T18:07:29.106Z</time>
      </trkpt>
      <trkpt lat="47.81517" lon="6.59421">
        <ele>468</ele>
        <time>2023-05-01T18:07:31.688Z</time>
      </trkpt>
      <trkpt lat="47.8153" lon="6.5943">
        <ele>468</ele>
        <time>2023-05-01T18:07:34.273Z</time>
      </trkpt>
      <trkpt lat="47.81563" lon="6.59434">
        <ele>468</ele>
        <time>2023-05-01T18:07:36.865Z</time>
      </trkpt>
      <trkpt lat="47.81576" lon="6.59442">
        <ele>468</ele>
        <time>2023-05-01T18:07:39.459Z</time>
      </trkpt>
      <trkpt lat="47.81591" lon="6.59457">
        <ele>468</ele>
        <time>2023-05-01T18:07:42.057Z</time>
      </trkpt>
      <trkpt lat="47.81597" lon="6.59472">
        <ele>468</ele>
        <time>2023-05-01T18:07:44.657Z</time>
      </trkpt>
      <trkpt lat="47.81603" lon="6.59492">
        <ele>468</ele>
        <time>2023-05-01T18:07:47.260Z</time>
      </trkpt>
      <trkpt lat="47.81612" lon="6.59506">
        <ele>469</ele>
        <time>2023-05-01T18:07:49.866Z</time>
      </trkpt>
      <trkpt lat="47.81615" lon="6.59534">
        <ele>469</ele>
        <time>2023-05-01T18:07:52.476Z</time>
      </trkpt>
      <trkpt lat="47.81615" lon="6.5954">
        <ele>469</ele>
        <time>2023-05-01T18:07:55.087Z</time>
      </trkpt>
      <trkpt lat="47.8161" lon="6.59557">
        <ele>469</ele>
        <time>2023-05-01T18:07:57.700Z</time>
      </trkpt>
      <trkpt lat="47.81602" lon="6.59573">
        <ele>469</ele>
        <time>2023-05-01T18:08:00.316Z</time>
      </trkpt>
      <trkpt lat="47.81602" lon="6.59583">
        <ele>470</ele>
        <time>2023-05-01T18:08:02.933Z</time>
      </trkpt>
      <trkpt lat="47.81593" lon="6.59606">
        <ele>470</ele>
        <time>2023-05-01T18:08:05.554Z</time>
      </trkpt>
      <trkpt lat="47.81594" lon="6.59642">
        <ele>470</ele>
        <time>2023-05-01T18:08:08.180Z</time>
      </trkpt>
      <trkpt lat="47.816" lon="6.59658">
        <ele>470</ele>
        <time>2023-05-01T18:08:10.808Z</time>
      </trkpt>
      <trkpt lat="47.81612" lon="6.59668">
        <ele>471</ele>
        <time>2023-05-01T18:08:13.439Z</time>
      </trkpt>
      <trkpt lat="47.8162" lon="6.59681">
        <ele>471</ele>
        <time>2023-05-01T18:08:16.072Z</time>
      </trkpt>
      <trkpt lat="47.81642" lon="6.59748">
        <ele>472</ele>
        <time>2023-05-01T18:08:18.715Z</time>
      </trkpt>
      <trkpt lat="47.81649" lon="6.5976">
        <ele>472</ele>
        <time>2023-05-01T18:08:21.360Z</time>
      </trkpt>
      <trkpt lat="47.8166" lon="6.59774">
        <ele>472</ele>
        <time>2023-05-01T18:08:24.008Z</time>
      </trkpt>
      <trkpt lat="47.81682" lon="6.59795">
        <ele>472</ele>
        <time>2023-05-01T18:08:26.662Z</time>
      </trkpt>
      <trkpt lat="47.81693" lon="6.598">
        <ele>473</ele>
        <time>2023-05-01T18:08:29.318Z</time>
      </trkpt>
      <trkpt lat="47.81703" lon="6.598">
        <ele>473</ele>
        <time>2023-05-01T18:08:31.976Z</time>
      </trkpt>
      <trkpt lat="47.81729" lon="6.59805">
        <ele>473</ele>
        <time>2023-05-01T18:08:34.639Z</time>
      </trkpt>
      <trkpt lat="47.81745" lon="6.59812">
        <ele>473</ele>
        <time>2023-05-01T18:08:37.305Z</time>
      </trkpt>
      <trkpt lat="47.81767" lon="6.59826">
        <ele>474</ele>
        <time>2023-05-01T18:08:39.976Z</time>
      </trkpt>
      <trkpt lat="47.8178" lon="6.59843">
        <ele>474</ele>
        <time>2023-05-01T18:08:42.650Z</time>
      </trkpt>
      <trkpt lat="47.81775" lon="6.59874">
        <ele>474</ele>
        <time>2023-05-01T18:08:45.329Z</time>
      </trkpt>
      <trkpt lat="47.81762" lon="6.59939">
        <ele>474</ele>
        <time>2023-05-01T18:08:48.017Z</time>
      </trkpt>
      <trkpt lat="47.81757" lon="6.59955">
        <ele>474</ele>
        <time>2023-05-01T18:08:50.707Z</time>
      </trkpt>
      <trkpt lat="47.81754" lon="6.59961">
        <ele>474</ele>
        <time>2023-05-01T18:08:53.398Z</time>
      </trkpt>
      <trkpt lat="47.81756" lon="6.59973">
        <ele>474</ele>
        <time>2023-05-01T18:08:56.091Z</time>
      </trkpt>
      <trkpt lat="47.81749" lon="6.60018">
        <ele>474</ele>
        <time>2023-05-01T18:08:58.790Z</time>
      </trkpt>
      <trkpt lat="47.81754" lon="6.60044">
        <ele>474</ele>
        <time>2023-05-01T18:09:01.493Z</time>
      </trkpt>
      <trkpt lat="47.81754" lon="6.60061">
        <ele>474</ele>
        <time>2023-05-01T18:09:04.198Z</time>
      </trkpt>
      <trkpt lat="47.81759" lon="6.60071">
        <ele>474</ele>
        <time>2023-05-01T18:09:06.905Z</time>
      </trkpt>
      <trkpt lat="47.81759" lon="6.60076">
        <ele>474</ele>
        <time>2023-05-01T18:09:09.613Z</time>
      </trkpt>
      <trkpt lat="47.8176" lon="6.60081">
        <ele>474</ele>
        <time>2023-05-01T18:09:12.321Z</time>
      </trkpt>
      <trkpt lat="47.81759" lon="6.60099">
        <ele>474</ele>
        <time>2023-05-01T18:09:15.032Z</time>
      </trkpt>
      <trkpt lat="47.81751" lon="6.60113">
        <ele>473</ele>
        <time>2023-05-01T18:09:17.745Z</time>
      </trkpt>
      <trkpt lat="47.81729" lon="6.60163">
        <ele>473</ele>
        <time>2023-05-01T18:09:20.466Z</time>
      </trkpt>
      <trkpt lat="47.81733" lon="6.60219">
        <ele>472</ele>
        <time>2023-05-01T18:09:23.195Z</time>
      </trkpt>
      <trkpt lat="47.81744" lon="6.60285">
        <ele>472</ele>
        <time>2023-05-01T18:09:25.933Z</time>
      </trkpt>
      <trkpt lat="47.81729" lon="6.60304">
        <ele>472</ele>
        <time>2023-05-01T18:09:28.675Z</time>
      </trkpt>
      <trkpt lat="47.81678" lon="6.60347">
        <ele>471</ele>
        <time>2023-05-01T18:09:31.429Z</time>
      </trkpt>
      <trkpt lat="47.81673" lon="6.60355">
        <ele>471</ele>
        <time>2023-05-01T18:09:34.184Z</time>
      </trkpt>
      <trkpt lat="47.8166" lon="6.6039">
        <ele>470</ele>
        <time>2023-05-01T18:09:36.945Z</time>
      </trkpt>
      <trkpt lat="47.81655" lon="6.60418">
        <ele>470</ele>
        <time>2023-05-01T18:09:39.709Z</time>
      </trkpt>
      <trkpt lat="47.8164" lon="6.60425">
        <ele>470</ele>
        <time>2023-05-01T18:09:42.477Z</time>
      </trkpt>
      <trkpt lat="47.81647" lon="6.60443">
        <ele>469</ele>
        <time>2023-05-01T18:09:45.248Z</time>
      </trkpt>
      <trkpt lat="47.81646" lon="6.60453">
        <ele>469</ele>
        <time>2023-05-01T18:09:48.020Z</time>
      </trkpt>
      <trkpt lat="47.81644" lon="6.60449">
        <ele>469</ele>
        <time>2023-05-01T18:09:50.792Z</time>
      </trkpt>
      <trkpt lat="47.8164" lon="6.60452">
        <ele>469</ele>
        <time>2023-05-01T18:09:53.565Z</time>
      </trkpt>
      <trkpt lat="47.81637" lon="6.60461">
        <ele>468</ele>
        <time>2023-05-01T18:09:56.340Z</time>
      </trkpt>
      <trkpt lat="47.81634" lon="6.60463">
        <ele>468</ele>
        <time>2023-05-01T18:09:59.115Z</time>
      </trkpt>
      <trkpt lat="47.8163" lon="6.60463">
        <ele>468</ele>
        <time>2023-05-01T18:10:01.891Z</time>
      </trkpt>
      <trkpt lat="47.81616" lon="6.60449">
        <ele>468</ele>
        <time>2023-05-01T18:10:04.670Z</time>
      </trkpt>
      <trkpt lat="47.81596" lon="6.60433">
        <ele>467</ele>
        <time>2023-05-01T18:10:07.454Z</time>
      </trkpt>
      <trkpt lat="47.81571" lon="6.60404">
        <ele>467</ele>
        <time>2023-05-01T18:10:10.244Z</time>
      </trkpt>
      <trkpt lat="47.81564" lon="6.60388">
        <ele>467</ele>
        <time>2023-05-01T18:10:13.037Z</time>
      </trkpt>
      <trkpt lat="47.81551" lon="6.60328">
        <ele>467</ele>
        <time>2023-05-01T18:10:15.838Z</time>
      </trkpt>
      <trkpt lat="47.81544" lon="6.60313">
        <ele>467</ele>
        <time>2023-05-01T18:10:18.642Z</time>
      </trkpt>
      <trkpt lat="47.81528" lon="6.603">
        <ele>467</ele>
        <time>2023-05-01T18:10:21.449Z</time>
      </trkpt>
      <trkpt lat="47.81514" lon="6.60293">
        <ele>467</ele>
        <time>2023-05-01T18:10:24.260Z</time>
      </trkpt>
      <trkpt lat="47.81481" lon="6.60288">
        <ele>467</ele>
        <time>2023-05-01T18:10:27.077Z</time>
      </trkpt>
      <trkpt lat="47.8147" lon="6.60285">
        <ele>467</ele>
        <time>2023-05-01T18:10:29.896Z</time>
      </trkpt>
      <trkpt lat="47.81464" lon="6.6028">
        <ele>466</ele>
        <time>2023-05-01T18:10:32.717Z</time>
      </trkpt>
      <trkpt lat="47.81459" lon="6.60273">
        <ele>466</ele>
        <time>2023-05-01T18:10:35.539Z</time>
      </trkpt>
      <trkpt lat="47.81455" lon="6.60262">
        <ele>466</ele>
        <time>2023-05-01T18:10:38.363Z</time>
      </trkpt>
      <trkpt lat="47.81449" lon="6.60212">
        <ele>466</ele>
        <time>2023-05-01T18:10:41.194Z</time>
      </trkpt>
      <trkpt lat="47.81441" lon="6.60169">
        <ele>466</ele>
        <time>2023-05-01T18:10:44.031Z</time>
      </trkpt>
      <trkpt lat="47.81436" lon="6.60116">
        <ele>466</ele>
        <time>2023-05-01T18:10:46.875Z</time>
      </trkpt>
      <trkpt lat="47.81429" lon="6.60082">
        <ele>466</ele>
        <time>2023-05-01T18:10:49.724Z</time>
      </trkpt>
      <trkpt lat="47.81422" lon="6.60029">
        <ele>466</ele>
        <time>2023-05-01T18:10:52.580Z</time>
      </trkpt>
      <trkpt lat="47.81415" lon="6.59995">
        <ele>465</ele>
        <time>2023-05-01T18:10:55.441Z</time>
      </trkpt>
      <trkpt lat="47.814" lon="6.59956">
        <ele>465</ele>
        <time>2023-05-01T18:10:58.308Z</time>
      </trkpt>
      <trkpt lat="47.81395" lon="6.59944">
        <ele>465</ele>
        <time>2023-05-01T18:11:01.177Z</time>
      </trkpt>
      <trkpt lat="47.81395" lon="6.59939">
        <ele>465</ele>
        <time>2023-05-01T18:11:04.046Z</time>
      </trkpt>
      <trkpt lat="47.81388" lon="6.5992">
        <ele>465</ele>
        <time>2023-05-01T18:11:06.918Z</time>
      </trkpt>
      <trkpt lat="47.81382" lon="6.59898">
        <ele>465</ele>
        <time>2023-05-01T18:11:09.794Z</time>
      </trkpt>
      <trkpt lat="47.81367" lon="6.59857">
        <ele>466</ele>
        <time>2023-05-01T18:11:12.676Z</time>
      </trkpt>
      <trkpt lat="47.81363" lon="6.5984">
        <ele>466</ele>
        <time>2023-05-01T18:11:15.560Z</time>
      </trkpt>
      <trkpt lat="47.8135" lon="6.59802">
        <ele>466</ele>
        <time>2023-05-01T18:11:18.450Z</time>
      </trkpt>
      <trkpt lat="47.81345" lon="6.59792">
        <ele>466</ele>
        <time>2023-05-01T18:11:21.342Z</time>
      </trkpt>
      <trkpt lat="47.81327" lon="6.59771">
        <ele>466</ele>
        <time>2023-05-01T18:11:24.238Z</time>
      </trkpt>
      <trkpt lat="47.81317" lon="6.59755">
        <ele>466</ele>
        <time>2023-05-01T18:11:27.137Z</time>
      </trkpt>
      <trkpt lat="47.81304" lon="6.59732">
        <ele>466</ele>
        <time>2023-05-01T18:11:30.040Z</time>
      </trkpt>
      <trkpt lat="47.81297" lon="6.59714">
        <ele>466</ele>
        <time>2023-05-01T18:11:32.946Z</time>
      </trkpt>
      <trkpt lat="47.81294" lon="6.59699">
        <ele>466</ele>
        <time>2023-05-01T18:11:35.854Z</time>
      </trkpt>
      <trkpt lat="47.81278" lon="6.59653">
        <ele>467</ele>
        <time>2023-05-01T18:11:38.769Z</time>
      </trkpt>
      <trkpt lat="47.81267" lon="6.59616">
        <ele>467</ele>
        <time>2023-05-01T18:11:41.690Z</time>
      </trkpt>
      <trkpt lat="47.81266" lon="6.59595">
        <ele>467</ele>
        <time>2023-05-01T18:11:44.613Z</time>
      </trkpt>
      <trkpt lat="47.81267" lon="6.59586">
        <ele>467</ele>
        <time>2023-05-01T18:11:47.538Z</time>
      </trkpt>
      <trkpt lat="47.81259" lon="6.59541">
        <ele>467</ele>
        <time>2023-05-01T18:11:50.469Z</time>
      </trkpt>
      <trkpt lat="47.81258" lon="6.59517">
        <ele>467</ele>
        <time>2023-05-01T18:11:53.403Z</time>
      </trkpt>
      <trkpt lat="47.81244" lon="6.59464">
        <ele>467</ele>
        <time>2023-05-01T18:11:56.345Z</time>
      </trkpt>
      <trkpt lat="47.81206" lon="6.59411">
        <ele>468</ele>
        <time>2023-05-01T18:11:59.298Z</time>
      </trkpt>
      <trkpt lat="47.81184" lon="6.59377">
        <ele>468</ele>
        <time>2023-05-01T18:12:02.257Z</time>
      </trkpt>
      <trkpt lat="47.81169" lon="6.59349">
        <ele>468</ele>
        <time>2023-05-01T18:12:05.221Z</time>
      </trkpt>
      <trkpt lat="47.8115" lon="6.59319">
        <ele>469</ele>
        <time>2023-05-01T18:12:08.190Z</time>
      </trkpt>
      <trkpt lat="47.81141" lon="6.59311">
        <ele>469</ele>
        <time>2023-05-01T18:12:11.161Z</time>
      </trkpt>
      <trkpt lat="47.81137" lon="6.59308">
        <ele>469</ele>
        <time>2023-05-01T18:12:14.133Z</time>
      </trkpt>
      <trkpt lat="47.8113" lon="6.59309">
        <ele>470</ele>
        <time>2023-05-01T18:12:17.107Z</time>
      </trkpt>
      <trkpt lat="47.81121" lon="6.59306">
        <ele>470</ele>
        <time>2023-05-01T18:12:20.082Z</time>
      </trkpt>
      <trkpt lat="47.81107" lon="6.59308">
        <ele>471</ele>
        <time>2023-05-01T18:12:23.060Z</time>
      </trkpt>
      <trkpt lat="47.811" lon="6.59314">
        <ele>471</ele>
        <time>2023-05-01T18:12:26.040Z</time>
      </trkpt>
      <trkpt lat="47.81097" lon="6.59333">
        <ele>471</ele>
        <time>2023-05-01T18:12:29.022Z</time>
      </trkpt>
      <trkpt lat="47.81097" lon="6.59348">
        <ele>472</ele>
        <time>2023-05-01T18:12:32.006Z</time>
      </trkpt>
      <trkpt lat="47.81093" lon="6.59367">
        <ele>472</ele>
        <time>2023-05-01T18:12:34.993Z</time>
      </trkpt>
      <trkpt lat="47.81088" lon="6.59385">
        <ele>473</ele>
        <time>2023-05-01T18:12:37.983Z</time>
      </trkpt>
      <trkpt lat="47.81086" lon="6.59403">
        <ele>473</ele>
        <time>2023-05-01T18:12:40.975Z</time>
      </trkpt>
      <trkpt lat="47.81081" lon="6.59414">
        <ele>474</ele>
        <time>2023-05-01T18:12:43.969Z</time>
      </trkpt>
      <trkpt lat="47.81078" lon="6.59433">
        <ele>474</ele>
        <time>2023-05-01T18:12:46.966Z</time>
      </trkpt>
      <trkpt lat="47.81076" lon="6.59437">
        <ele>475</ele>
        <time>2023-05-01T18:12:49.963Z</time>
      </trkpt>
      <trkpt lat="47.81075" lon="6.59449">
        <ele>475</ele>
        <time>2023-05-01T18:12:52.962Z</time>
      </trkpt>
      <trkpt lat="47.81077" lon="6.59462">
        <ele>476</ele>
        <time>2023-05-01T18:12:55.963Z</time>
      </trkpt>
      <trkpt lat="47.81077" lon="6.59477">
        <ele>477</ele>
        <time>2023-05-01T18:12:58.966Z</time>
      </trkpt>
      <trkpt lat="47.81081" lon="6.59499">
        <ele>477</ele>
        <time>2023-05-01T18:13:01.972Z</time>
      </trkpt>
      <trkpt lat="47.81085" lon="6.59512">
        <ele>478</ele>
        <time>2023-05-01T18:13:04.980Z</time>
      </trkpt>
      <trkpt lat="47.81095" lon="6.59521">
        <ele>478</ele>
        <time>2023-05-01T18:13:07.990Z</time>
      </trkpt>
      <trkpt lat="47.81113" lon="6.59549">
        <ele>479</ele>
        <time>2023-05-01T18:13:11.005Z</time>
      </trkpt>
      <trkpt lat="47.81115" lon="6.5956">
        <ele>480</ele>
        <time>2023-05-01T18:13:14.022Z</time>
      </trkpt>
      <trkpt lat="47.81127" lon="6.5957">
        <ele>480</ele>
        <time>2023-05-01T18:13:17.042Z</time>
      </trkpt>
      <trkpt lat="47.81131" lon="6.59578">
        <ele>481</ele>
        <time>2023-05-01T18:13:20.063Z</time>
      </trkpt>
      <trkpt lat="47.81131" lon="6.59592">
        <ele>481</ele>
        <time>2023-05-01T18:13:23.086Z</time>
      </trkpt>
      <trkpt lat="47.8114" lon="6.59598">
        <ele>482</ele>
        <time>2023-05-01T18:13:26.111Z</time>
      </trkpt>
      <trkpt lat="47.81139" lon="6.59605">
        <ele>482</ele>
        <time>2023-05-01T18:13:29.137Z</time>
      </trkpt>
      <trkpt lat="47.81147" lon="6.59614">
        <ele>482</ele>
        <time>2023-05-01T18:13:32.165Z</time>
      </trkpt>
      <trkpt lat="47.81151" lon="6.59625">
        <ele>483</ele>
        <time>2023-05-01T18:13:35.194Z</time>
      </trkpt>
      <trkpt lat="47.81151" lon="6.59637">
        <ele>483</ele>
        <time>2023-05-01T18:13:38.225Z</time>
      </trkpt>
      <trkpt lat="47.81149" lon="6.59645">
        <ele>484</ele>
        <time>2023-05-01T18:13:41.257Z</time>
      </trkpt>
      <trkpt lat="47.81148" lon="6.59674">
        <ele>484</ele>
        <time>2023-05-01T18:13:44.293Z</time>
      </trkpt>
      <trkpt lat="47.81146" lon="6.59683">
        <ele>484</ele>
        <time>2023-05-01T18:13:47.330Z</time>
      </trkpt>
      <trkpt lat="47.81147" lon="6.59692">
        <ele>485</ele>
        <time>2023-05-01T18:13:50.369Z</time>
      </trkpt>
      <trkpt lat="47.81141" lon="6.59705">
        <ele>485</ele>
        <time>2023-05-01T18:13:53.410Z</time>
      </trkpt>
      <trkpt lat="47.81146" lon="6.59719">
        <ele>485</ele>
        <time>2023-05-01T18:13:56.453Z</time>
      </trkpt>
      <trkpt lat="47.81143" lon="6.59741">
        <ele>486</ele>
        <time>2023-05-01T18:13:59.499Z</time>
      </trkpt>
      <trkpt lat="47.81141" lon="6.59746">
        <ele>486</ele>
        <time>2023-05-01T18:14:02.546Z</time>
      </trkpt>
      <trkpt lat="47.81144" lon="6.59756">
        <ele>486</ele>
        <time>2023-05-01T18:14:05.594Z</time>
      </trkpt>
      <trkpt lat="47.81144" lon="6.59761">
        <ele>486</ele>
        <time>2023-05-01T18:14:08.643Z</time>
      </trkpt>
      <trkpt lat="47.81154" lon="6.59793">
        <ele>487</ele>
        <time>2023-05-01T18:14:11.697Z</time>
      </trkpt>
      <trkpt lat="47.81151" lon="6.59812">
        <ele>487</ele>
        <time>2023-05-01T18:14:14.753Z</time>
      </trkpt>
      <trkpt lat="47.81138" lon="6.59829">
        <ele>487</ele>
        <time>2023-05-01T18:14:17.813Z</time>
      </trkpt>
      <trkpt lat="47.81132" lon="6.59849">
        <ele>487</ele>
        <time>2023-05-01T18:14:20.876Z</time>
      </trkpt>
      <trkpt lat="47.8112" lon="6.59866">
        <ele>487</ele>
        <time>2023-05-01T18:14:23.942Z</time>
      </trkpt>
      <trkpt lat="47.81115" lon="6.59878">
        <ele>488</ele>
        <time>2023-05-01T18:14:27.010Z</time>
      </trkpt>
      <trkpt lat="47.81109" lon="6.59888">
        <ele>488</ele>
        <time>2023-05-01T18:14:30.080Z</time>
      </trkpt>
      <trkpt lat="47.81096" lon="6.599">
        <ele>488</ele>
        <time>2023-05-01T18:14:33.153Z</time>
      </trkpt>
      <trkpt lat="47.81079" lon="6.59902">
        <ele>488</ele>
        <time>2023-05-01T18:14:36.229Z</time>
      </trkpt>
      <trkpt lat="47.81071" lon="6.59906">
        <ele>488</ele>
        <time>2023-05-01T18:14:39.307Z</time>
      </trkpt>
      <trkpt lat="47.8106" lon="6.59922">
        <ele>489</ele>
        <time>2023-05-01T18:14:42.388Z</time>
      </trkpt>
      <trkpt lat="47.81056" lon="6.59932">
        <ele>489</ele>
        <time>2023-05-01T18:14:45.471Z</time>
      </trkpt>
      <trkpt lat="47.81053" lon="6.59972">
        <ele>489</ele>
        <time>2023-05-01T18:14:48.559Z</time>
      </trkpt>
      <trkpt lat="47.81045" lon="6.60002">
        <ele>490</ele>
        <time>2023-05-01T18:14:51.651Z</time>
      </trkpt>
      <trkpt lat="47.81038" lon="6.60074">
        <ele>490</ele>
        <time>2023-05-01T18:14:54.753Z</time>
      </trkpt>
      <trkpt lat="47.81041" lon="6.60091">
        <ele>491</ele>
        <time>2023-05-01T18:14:57.858Z</time>
      </trkpt>
      <trkpt lat="47.8105" lon="6.60111">
        <ele>491</ele>
        <time>2023-05-01T18:15:00.966Z</time>
      </trkpt>
      <trkpt lat="47.81054" lon="6.60128">
        <ele>492</ele>
        <time>2023-05-01T18:15:04.076Z</time>
      </trkpt>
      <trkpt lat="47.81061" lon="6.60185">
        <ele>492</ele>
        <time>2023-05-01T18:15:07.194Z</time>
      </trkpt>
      <trkpt lat="47.81066" lon="6.60199">
        <ele>493</ele>
        <time>2023-05-01T18:15:10.314Z</time>
      </trkpt>
      <trkpt lat="47.81075" lon="6.60214">
        <ele>493</ele>
        <time>2023-05-01T18:15:13.437Z</time>
      </trkpt>
      <trkpt lat="47.81075" lon="6.60219">
        <ele>493</ele>
        <time>2023-05-01T18:15:16.561Z</time>
      </trkpt>
      <trkpt lat="47.81074" lon="6.60229">
        <ele>494</ele>
        <time>2023-05-01T18:15:19.686Z</time>
      </trkpt>
      <trkpt lat="47.8107" lon="6.60239">
        <ele>494</ele>
        <time>2023-05-01T18:15:22.812Z</time>
      </trkpt>
      <trkpt lat="47.81061" lon="6.60257">
        <ele>495</ele>
        <time>2023-05-01T18:15:25.942Z</time>
      </trkpt>
      <trkpt lat="47.81048" lon="6.60272">
        <ele>495</ele>
        <time>2023-05-01T18:15:29.075Z</time>
      </trkpt>
      <trkpt lat="47.81044" lon="6.60285">
        <ele>496</ele>
        <time>2023-05-01T18:15:32.210Z</time>
      </trkpt>
      <trkpt lat="47.81044" lon="6.60293">
        <ele>496</ele>
        <time>2023-05-01T18:15:35.346Z</time>
      </trkpt>
      <trkpt lat="47.81042" lon="6.603">
        <ele>496</ele>
        <time>2023-05-01T18:15:38.483Z</time>
      </trkpt>
      <trkpt lat="47.81058" lon="6.60329">
        <ele>497</ele>
        <time>2023-05-01T18:15:41.625Z</time>
      </trkpt>
      <trkpt lat="47.81054" lon="6.60352">
        <ele>497</ele>
        <time>2023-05-01T18:15:44.770Z</time>
      </trkpt>
      <trkpt lat="47.8106" lon="6.60367">
        <ele>497</ele>
        <time>2023-05-01T18:15:47.917Z</time>
      </trkpt>
      <trkpt lat="47.81066" lon="6.60393">
        <ele>498</ele>
        <time>2023-05-01T18:15:51.068Z</time>
      </trkpt>
      <trkpt lat="47.81071" lon="6.60408">
        <ele>498</ele>
        <time>2023-05-01T18:15:54.221Z</time>
      </trkpt>
      <trkpt lat="47.81068" lon="6.60435">
        <ele>498</ele>
        <time>2023-05-01T18:15:57.378Z</time>
      </trkpt>
      <trkpt lat="47.81061" lon="6.60454">
        <ele>498</ele>
        <time>2023-05-01T18:16:00.538Z</time>
      </trkpt>
      <trkpt lat="47.81022" lon="6.60491">
        <ele>498</ele>
        <time>2023-05-01T18:16:03.707Z</time>
      </trkpt>
      <trkpt lat="47.81007" lon="6.60511">
        <ele>498</ele>
        <time>2023-05-01T18:16:06.880Z</time>
      </trkpt>
      <trkpt lat="47.80995" lon="6.60521">
        <ele>498</ele>
        <time>2023-05-01T18:16:10.056Z</time>
      </trkpt>
      <trkpt lat="47.80995" lon="6.60525">
        <ele>498</ele>
        <time>2023-05-01T18:16:13.233Z</time>
      </trkpt>
      <trkpt lat="47.80992" lon="6.60529">
        <ele>498</ele>
        <time>2023-05-01T18:16:16.411Z</time>
      </trkpt>
      <trkpt lat="47.80979" lon="6.60537">
        <ele>498</ele>
        <time>2023-05-01T18:16:19.591Z</time>
      </trkpt>
      <trkpt lat="47.80965" lon="6.60545">
        <ele>498</ele>
        <time>2023-05-01T18:16:22.774Z</time>
      </trkpt>
      <trkpt lat="47.8096" lon="6.60549">
        <ele>498</ele>
        <time>2023-05-01T18:16:25.959Z</time>
      </trkpt>
      <trkpt lat="47.80947" lon="6.60569">
        <ele>497</ele>
        <time>2023-05-01T18:16:29.147Z</time>
      </trkpt>
      <trkpt lat="47.8094" lon="6.6059">
        <ele>497</ele>
        <time>2023-05-01T18:16:32.338Z</time>
      </trkpt>
      <trkpt lat="47.80938" lon="6.60599">
        <ele>497</ele>
        <time>2023-05-01T18:16:35.531Z</time>
      </trkpt>
      <trkpt lat="47.80941" lon="6.60617">
        <ele>496</ele>
        <time>2023-05-01T18:16:38.726Z</time>
      </trkpt>
      <trkpt lat="47.80942" lon="6.60636">
        <ele>496</ele>
        <time>2023-05-01T18:16:41.924Z</time>
      </trkpt>
      <trkpt lat="47.80936" lon="6.60669">
        <ele>496</ele>
        <time>2023-05-01T18:16:45.126Z</time>
      </trkpt>
      <trkpt lat="47.809" lon="6.60765">
        <ele>495</ele>
        <time>2023-05-01T18:16:48.343Z</time>
      </trkpt>
      <trkpt lat="47.80889" lon="6.60846">
        <ele>495</ele>
        <time>2023-05-01T18:16:51.571Z</time>
      </trkpt>
      <trkpt lat="47.8089" lon="6.60868">
        <ele>494</ele>
        <time>2023-05-01T18:16:54.802Z</time>
      </trkpt>
      <trkpt lat="47.80901" lon="6.60935">
        <ele>494</ele>
        <time>2023-05-01T18:16:58.043Z</time>
      </trkpt>
      <trkpt lat="47.80905" lon="6.61002">
        <ele>493</ele>
        <time>2023-05-01T18:17:01.293Z</time>
      </trkpt>
      <trkpt lat="47.80919" lon="6.61038">
        <ele>493</ele>
        <time>2023-05-01T18:17:04.548Z</time>
      </trkpt>
      <trkpt lat="47.8092" lon="6.61082">
        <ele>492</ele>
        <time>2023-05-01T18:17:07.809Z</time>
      </trkpt>
      <trkpt lat="47.80914" lon="6.61112">
        <ele>492</ele>
        <time>2023-05-01T18:17:11.074Z</time>
      </trkpt>
      <trkpt lat="47.80885" lon="6.61168">
        <ele>491</ele>
        <time>2023-05-01T18:17:14.349Z</time>
      </trkpt>
      <trkpt lat="47.80883" lon="6.61175">
        <ele>491</ele>
        <time>2023-05-01T18:17:17.625Z</time>
      </trkpt>
      <trkpt lat="47.80884" lon="6.61182">
        <ele>490</ele>
        <time>2023-05-01T18:17:20.902Z</time>
      </trkpt>
      <trkpt lat="47.80881" lon="6.61193">
        <ele>490</ele>
        <time>2023-05-01T18:17:24.181Z</time>
      </trkpt>
      <trkpt lat="47.80884" lon="6.61212">
        <ele>490</ele>
        <time>2023-05-01T18:17:27.462Z</time>
      </trkpt>
      <trkpt lat="47.80904" lon="6.61232">
        <ele>489</ele>
        <time>2023-05-01T18:17:30.748Z</time>
      </trkpt>
      <trkpt lat="47.80908" lon="6.61232">
        <ele>489</ele>
        <time>2023-05-01T18:17:34.035Z</time>
      </trkpt>
      <trkpt lat="47.80917" lon="6.6123">
        <ele>489</ele>
        <time>2023-05-01T18:17:37.324Z</time>
      </trkpt>
      <trkpt lat="47.80944" lon="6.61237">
        <ele>489</ele>
        <time>2023-05-01T18:17:40.618Z</time>
      </trkpt>
      <trkpt lat="47.80973" lon="6.6126">
        <ele>489</ele>
        <time>2023-05-01T18:17:43.919Z</time>
      </trkpt>
      <trkpt lat="47.80984" lon="6.61263">
        <ele>489</ele>
        <time>2023-05-01T18:17:47.222Z</time>
      </trkpt>
      <trkpt lat="47.80998" lon="6.6127">
        <ele>489</ele>
        <time>2023-05-01T18:17:50.528Z</time>
      </trkpt>
      <trkpt lat="47.81004" lon="6.61275">
        <ele>489</ele>
        <time>2023-05-01T18:17:53.835Z</time>
      </trkpt>
      <trkpt lat="47.81006" lon="6.61276">
        <ele>489</ele>
        <time>2023-05-01T18:17:57.143Z</time>
      </trkpt>
      <trkpt lat="47.81033" lon="6.61253">
        <ele>489</ele>
        <time>2023-05-01T18:18:00.457Z</time>
      </trkpt>
      <trkpt lat="47.81047" lon="6.61245">
        <ele>489</ele>
        <time>2023-05-01T18:18:03.774Z</time>
      </trkpt>
      <trkpt lat="47.81061" lon="6.61246">
        <ele>489</ele>
        <time>2023-05-01T18:18:07.094Z</time>
      </trkpt>
      <trkpt lat="47.81075" lon="6.61266">
        <ele>490</ele>
        <time>2023-05-01T18:18:10.418Z</time>
      </trkpt>
      <trkpt lat="47.81091" lon="6.61279">
        <ele>490</ele>
        <time>2023-05-01T18:18:13.745Z</time>
      </trkpt>
      <trkpt lat="47.81103" lon="6.61293">
        <ele>490</ele>
        <time>2023-05-01T18:18:17.075Z</time>
      </trkpt>
      <trkpt lat="47.81107" lon="6.61312">
        <ele>491</ele>
        <time>2023-05-01T18:18:20.408Z</time>
      </trkpt>
      <trkpt lat="47.81121" lon="6.6133">
        <ele>491</ele>
        <time>2023-05-01T18:18:23.745Z</time>
      </trkpt>
      <trkpt lat="47.81137" lon="6.61355">
        <ele>492</ele>
        <time>2023-05-01T18:18:27.086Z</time>
      </trkpt>
      <trkpt lat="47.81138" lon="6.61363">
        <ele>492</ele>
        <time>2023-05-01T18:18:30.428Z</time>
      </trkpt>
      <trkpt lat="47.81141" lon="6.61368">
        <ele>493</ele>
        <time>2023-05-01T18:18:33.771Z</time>
      </trkpt>
      <trkpt lat="47.81141" lon="6.61372">
        <ele>493</ele>
        <time>2023-05-01T18:18:37.115Z</time>
      </trkpt>
      <trkpt lat="47.81145" lon="6.61376">
        <ele>493</ele>
        <time>2023-05-01T18:18:40.460Z</time>
      </trkpt>
      <trkpt lat="47.81153" lon="6.61395">
        <ele>494</ele>
        <time>2023-05-01T18:18:43.808Z</time>
      </trkpt>
      <trkpt lat="47.81163" lon="6.61409">
        <ele>494</ele>
        <time>2023-05-01T18:18:47.159Z</time>
      </trkpt>
      <trkpt lat="47.81175" lon="6.61414">
        <ele>495</ele>
        <time>2023-05-01T18:18:50.512Z</time>
      </trkpt>
      <trkpt lat="47.81181" lon="6.61412">
        <ele>495</ele>
        <time>2023-05-01T18:18:53.867Z</time>
      </trkpt>
      <trkpt lat="47.81191" lon="6.61412">
        <ele>496</ele>
        <time>2023-05-01T18:18:57.223Z</time>
      </trkpt>
      <trkpt lat="47.812" lon="6.61407">
        <ele>496</ele>
        <time>2023-05-01T18:19:00.581Z</time>
      </trkpt>
      <trkpt lat="47.81203" lon="6.61407">
        <ele>496</ele>
        <time>2023-05-01T18:19:03.940Z</time>
      </trkpt>
      <trkpt lat="47.81207" lon="6.61409">
        <ele>497</ele>
        <time>2023-05-01T18:19:07.300Z</time>
      </trkpt>
      <trkpt lat="47.81209" lon="6.61415">
        <ele>497</ele>
        <time>2023-05-01T18:19:10.661Z</time>
      </trkpt>
      <trkpt lat="47.81205" lon="6.6143">
        <ele>497</ele>
        <time>2023-05-01T18:19:14.024Z</time>
      </trkpt>
      <trkpt lat="47.81215" lon="6.61444">
        <ele>498</ele>
        <time>2023-05-01T18:19:17.390Z</time>
      </trkpt>
      <trkpt lat="47.81217" lon="6.61458">
        <ele>498</ele>
        <time>2023-05-01T18:19:20.757Z</time>
      </trkpt>
      <trkpt lat="47.81225" lon="6.61465">
        <ele>498</ele>
        <time>2023-05-01T18:19:24.126Z</time>
      </trkpt>
      <trkpt lat="47.81232" lon="6.61475">
        <ele>498</ele>
        <time>2023-05-01T18:19:27.497Z</time>
      </trkpt>
      <trkpt lat="47.81236" lon="6.61506">
        <ele>499</ele>
        <time>2023-05-01T18:19:30.873Z</time>
      </trkpt>
      <trkpt lat="47.81235" lon="6.61516">
        <ele>499</ele>
        <time>2023-05-01T18:19:34.250Z</time>
      </trkpt>
      <trkpt lat="47.81233" lon="6.61573">
        <ele>499</ele>
        <time>2023-05-01T18:19:37.635Z</time>
      </trkpt>
      <trkpt lat="47.81235" lon="6.6158">
        <ele>500</ele>
        <time>2023-05-01T18:19:41.021Z</time>
      </trkpt>
      <trkpt lat="47.81243" lon="6.61598">
        <ele>500</ele>
        <time>2023-05-01T18:19:44.410Z</time>
      </trkpt>
      <trkpt lat="47.81249" lon="6.61617">
        <ele>500</ele>
        <time>2023-05-01T18:19:47.801Z</time>
      </trkpt>
      <trkpt lat="47.81253" lon="6.61626">
        <ele>500</ele>
        <time>2023-05-01T18:19:51.194Z</time>
      </trkpt>
      <trkpt lat="47.81255" lon="6.61637">
        <ele>501</ele>
        <time>2023-05-01T18:19:54.589Z</time>
      </trkpt>
      <trkpt lat="47.81244" lon="6.61636">
        <ele>501</ele>
        <time>2023-05-01T18:19:57.986Z</time>
      </trkpt>
      <trkpt lat="47.81234" lon="6.61643">
        <ele>501</ele>
        <time>2023-05-01T18:20:01.385Z</time>
      </trkpt>
      <trkpt lat="47.81217" lon="6.61671">
        <ele>501</ele>
        <time>2023-05-01T18:20:04.789Z</time>
      </trkpt>
      <trkpt lat="47.81213" lon="6.61671">
        <ele>502</ele>
        <time>2023-05-01T18:20:08.194Z</time>
      </trkpt>
      <trkpt lat="47.81189" lon="6.61676">
        <ele>502</ele>
        <time>2023-05-01T18:20:11.604Z</time>
      </trkpt>
      <trkpt lat="47.81178" lon="6.61681">
        <ele>502</ele>
        <time>2023-05-01T18:20:15.016Z</time>
      </trkpt>
      <trkpt lat="47.81161" lon="6.61693">
        <ele>503</ele>
        <time>2023-05-01T18:20:18.432Z</time>
      </trkpt>
      <trkpt lat="47.81152" lon="6.61696">
        <ele>503</ele>
        <time>2023-05-01T18:20:21.849Z</time>
      </trkpt>
      <trkpt lat="47.81139" lon="6.61709">
        <ele>503</ele>
        <time>2023-05-01T18:20:25.270Z</time>
      </trkpt>
      <trkpt lat="47.81122" lon="6.61716">
        <ele>504</ele>
        <time>2023-05-01T18:20:28.694Z</time>
      </trkpt>
      <trkpt lat="47.81119" lon="6.61719">
        <ele>504</ele>
        <time>2023-05-01T18:20:32.119Z</time>
      </trkpt>
      <trkpt lat="47.81111" lon="6.61731">
        <ele>504</ele>
        <time>2023-05-01T18:20:35.546Z</time>
      </trkpt>
      <trkpt lat="47.81098" lon="6.61745">
        <ele>505</ele>
        <time>2023-05-01T18:20:38.976Z</time>
      </trkpt>
      <trkpt lat="47.81091" lon="6.61758">
        <ele>505</ele>
        <time>2023-05-01T18:20:42.409Z</time>
      </trkpt>
      <trkpt lat="47.81074" lon="6.61774">
        <ele>505</ele>
        <time>2023-05-01T18:20:45.846Z</time>
      </trkpt>
      <trkpt lat="47.81064" lon="6.61794">
        <ele>506</ele>
        <time>2023-05-01T18:20:49.286Z</time>
      </trkpt>
      <trkpt lat="47.81066" lon="6.618">
        <ele>506</ele>
        <time>2023-05-01T18:20:52.727Z</time>
      </trkpt>
      <trkpt lat="47.81063" lon="6.61808">
        <ele>506</ele>
        <time>2023-05-01T18:20:56.169Z</time>
      </trkpt>
      <trkpt lat="47.81066" lon="6.61811">
        <ele>507</ele>
        <time>2023-05-01T18:20:59.612Z</time>
      </trkpt>
      <trkpt lat="47.81068" lon="6.6182">
        <ele>507</ele>
        <time>2023-05-01T18:21:03.056Z</time>
      </trkpt>
      <trkpt lat="47.81061" lon="6.6184">
        <ele>507</ele>
        <time>2023-05-01T18:21:06.503Z</time>
      </trkpt>
      <trkpt lat="47.81063" lon="6.61848">
        <ele>508</ele>
        <time>2023-05-01T18:21:09.951Z</time>
      </trkpt>
      <trkpt lat="47.81061" lon="6.61869">
        <ele>508</ele>
        <time>2023-05-01T18:21:13.402Z</time>
      </trkpt>
      <trkpt lat="47.81056" lon="6.6188">
        <ele>508</ele>
        <time>2023-05-01T18:21:16.855Z</time>
      </trkpt>
      <trkpt lat="47.81049" lon="6.61889">
        <ele>508</ele>
        <time>2023-05-01T18:21:20.310Z</time>
      </trkpt>
      <trkpt lat="47.81041" lon="6.61895">
        <ele>509</ele>
        <time>2023-05-01T18:21:23.767Z</time>
      </trkpt>
      <trkpt lat="47.8104" lon="6.61898">
        <ele>509</ele>
        <time>2023-05-01T18:21:27.224Z</time>
      </trkpt>
      <trkpt lat="47.81042" lon="6.61903">
        <ele>509</ele>
        <time>2023-05-01T18:21:30.682Z</time>
      </trkpt>
      <trkpt lat="47.81041" lon="6.61906">
        <ele>510</ele>
        <time>2023-05-01T18:21:34.140Z</time>
      </trkpt>
      <trkpt lat="47.81034" lon="6.61914">
        <ele>510</ele>
        <time>2023-05-01T18:21:37.600Z</time>
      </trkpt>
      <trkpt lat="47.8103" lon="6.61915">
        <ele>510</ele>
        <time>2023-05-01T18:21:41.061Z</time>
      </trkpt>
      <trkpt lat="47.8102" lon="6.61927">
        <ele>510</ele>
        <time>2023-05-01T18:21:44.524Z</time>
      </trkpt>
      <trkpt lat="47.81018" lon="6.61933">
        <ele>511</ele>
        <time>2023-05-01T18:21:47.988Z</time>
      </trkpt>
      <trkpt lat="47.81009" lon="6.61932">
        <ele>511</ele>
        <time>2023-05-01T18:21:51.454Z</time>
      </trkpt>
      <trkpt lat="47.80996" lon="6.61937">
        <ele>511</ele>
        <time>2023-05-01T18:21:54.923Z</time>
      </trkpt>
      <trkpt lat="47.80991" lon="6.61948">
        <ele>512</ele>
        <time>2023-05-01T18:21:58.394Z</time>
      </trkpt>
      <trkpt lat="47.80985" lon="6.61951">
        <ele>512</ele>
        <time>2023-05-01T18:22:01.866Z</time>
      </trkpt>
      <trkpt lat="47.80975" lon="6.6196">
        <ele>512</ele>
        <time>2023-05-01T18:22:05.340Z</time>
      </trkpt>
      <trkpt lat="47.8096" lon="6.61967">
        <ele>512</ele>
        <time>2023-05-01T18:22:08.817Z</time>
      </trkpt>
      <trkpt lat="47.80952" lon="6.61977">
        <ele>513</ele>
        <time>2023-05-01T18:22:12.296Z</time>
      </trkpt>
      <trkpt lat="47.80947" lon="6.61988">
        <ele>513</ele>
        <time>2023-05-01T18:22:15.777Z</time>
      </trkpt>
      <trkpt lat="47.80944" lon="6.6199">
        <ele>513</ele>
        <time>2023-05-01T18:22:19.259Z</time>
      </trkpt>
      <trkpt lat="47.80935" lon="6.62002">
        <ele>514</ele>
        <time>2023-05-01T18:22:22.743Z</time>
      </trkpt>
      <trkpt lat="47.80934" lon="6.62015">
        <ele>514</ele>
        <time>2023-05-01T18:22:26.229Z</time>
      </trkpt>
      <trkpt lat="47.8093" lon="6.62024">
        <ele>514</ele>
        <time>2023-05-01T18:22:29.716Z</time>
      </trkpt>
      <trkpt lat="47.80921" lon="6.62034">
        <ele>514</ele>
        <time>2023-05-01T18:22:33.206Z</time>
      </trkpt>
      <trkpt lat="47.80926" lon="6.62072">
        <ele>515</ele>
        <time>2023-05-01T18:22:36.701Z</time>
      </trkpt>
      <trkpt lat="47.80936" lon="6.6208">
        <ele>515</ele>
        <time>2023-05-01T18:22:40.198Z</time>
      </trkpt>
      <trkpt lat="47.80943" lon="6.62083">
        <ele>515</ele>
        <time>2023-05-01T18:22:43.697Z</time>
      </trkpt>
      <trkpt lat="47.80953" lon="6.62082">
        <ele>515</ele>
        <time>2023-05-01T18:22:47.198Z</time>
      </trkpt>
      <trkpt lat="47.8096" lon="6.62086">
        <ele>515</ele>
        <time>2023-05-01T18:22:50.700Z</time>
      </trkpt>
      <trkpt lat="47.80964" lon="6.62092">
        <ele>515</ele>
        <time>2023-05-01T18:22:54.203Z</time>
      </trkpt>
      <trkpt lat="47.80967" lon="6.62107">
        <ele>515</ele>
        <time>2023-05-01T18:22:57.708Z</time>
      </trkpt>
      <trkpt lat="47.80973" lon="6.62115">
        <ele>516</ele>
        <time>2023-05-01T18:23:01.215Z</time>
      </trkpt>
      <trkpt lat="47.80974" lon="6.62123">
        <ele>516</ele>
        <time>2023-05-01T18:23:04.723Z</time>
      </trkpt>
      <trkpt lat="47.80973" lon="6.62132">
        <ele>516</ele>
        <time>2023-05-01T18:23:08.232Z</time>
      </trkpt>
      <trkpt lat="47.8096" lon="6.62152">
        <ele>516</ele>
        <time>2023-05-01T18:23:11.745Z</time>
      </trkpt>
      <trkpt lat="47.80955" lon="6.62165">
        <ele>516</ele>
        <time>2023-05-01T18:23:15.260Z</time>
      </trkpt>
      <trkpt lat="47.80956" lon="6.62184">
        <ele>515</ele>
        <time>2023-05-01T18:23:18.778Z</time>
      </trkpt>
      <trkpt lat="47.80951" lon="6.62197">
        <ele>515</ele>
        <time>2023-05-01T18:23:22.298Z</time>
      </trkpt>
      <trkpt lat="47.80952" lon="6.62199">
        <ele>515</ele>
        <time>2023-05-01T18:23:25.818Z</time>
      </trkpt>
      <trkpt lat="47.8095" lon="6.62208">
        <ele>515</ele>
        <time>2023-05-01T18:23:29.339Z</time>
      </trkpt>
      <trkpt lat="47.80945" lon="6.62215">
        <ele>515</ele>
        <time>2023-05-01T18:23:32.862Z</time>
      </trkpt>
      <trkpt lat="47.80947" lon="6.62226">
        <ele>514</ele>
        <time>2023-05-01T18:23:36.386Z</time>
      </trkpt>
      <trkpt lat="47.80954" lon="6.62235">
        <ele>514</ele>
        <time>2023-05-01T18:23:39.912Z</time>
      </trkpt>
      <trkpt lat="47.80955" lon="6.62238">
        <ele>514</ele>
        <time>2023-05-01T18:23:43.439Z</time>
      </trkpt>
      <trkpt lat="47.80954" lon="6.62251">
        <ele>513</ele>
        <time>2023-05-01T18:23:46.967Z</time>
      </trkpt>
      <trkpt lat="47.80934" lon="6.6227">
        <ele>513</ele>
        <time>2023-05-01T18:23:50.500Z</time>
      </trkpt>
      <trkpt lat="47.80933" lon="6.62274">
        <ele>512</ele>
        <time>2023-05-01T18:23:54.034Z</time>
      </trkpt>
      <trkpt lat="47.80923" lon="6.62285">
        <ele>512</ele>
        <time>2023-05-01T18:23:57.570Z</time>
      </trkpt>
      <trkpt lat="47.80913" lon="6.62292">
        <ele>511</ele>
        <time>2023-05-01T18:24:01.108Z</time>
      </trkpt>
      <trkpt lat="47.80901" lon="6.62306">
        <ele>510</ele>
        <time>2023-05-01T18:24:04.649Z</time>
      </trkpt>
      <trkpt lat="47.8088" lon="6.62326">
        <ele>510</ele>
        <time>2023-05-01T18:24:08.195Z</time>
      </trkpt>
      <trkpt lat="47.80845" lon="6.62347">
        <ele>509</ele>
        <time>2023-05-01T18:24:11.749Z</time>
      </trkpt>
      <trkpt lat="47.80803" lon="6.62368">
        <ele>508</ele>
        <time>2023-05-01T18:24:15.312Z</time>
      </trkpt>
      <trkpt lat="47.80797" lon="6.62373">
        <ele>507</ele>
        <time>2023-05-01T18:24:18.876Z</time>
      </trkpt>
      <trkpt lat="47.80788" lon="6.62374">
        <ele>506</ele>
        <time>2023-05-01T18:24:22.442Z</time>
      </trkpt>
      <trkpt lat="47.80774" lon="6.62381">
        <ele>505</ele>
        <time>2023-05-01T18:24:26.011Z</time>
      </trkpt>
      <trkpt lat="47.80768" lon="6.62387">
        <ele>504</ele>
        <time>2023-05-01T18:24:29.581Z</time>
      </trkpt>
      <trkpt lat="47.80744" lon="6.62399">
        <ele>503</ele>
        <time>2023-05-01T18:24:33.156Z</time>
      </trkpt>
      <trkpt lat="47.80727" lon="6.62411">
        <ele>502</ele>
        <time>2023-05-01T18:24:36.735Z</time>
      </trkpt>
      <trkpt lat="47.80716" lon="6.62424">
        <ele>501</ele>
        <time>2023-05-01T18:24:40.317Z</time>
      </trkpt>
      <trkpt lat="47.80692" lon="6.62442">
        <ele>500</ele>
        <time>2023-05-01T18:24:43.904Z</time>
      </trkpt>
      <trkpt lat="47.80662" lon="6.62485">
        <ele>499</ele>
        <time>2023-05-01T18:24:47.500Z</time>
      </trkpt>
      <trkpt lat="47.8066" lon="6.62492">
        <ele>497</ele>
        <time>2023-05-01T18:24:51.097Z</time>
      </trkpt>
      <trkpt lat="47.80664" lon="6.62613">
        <ele>496</ele>
        <time>2023-05-01T18:24:54.710Z</time>
      </trkpt>
      <trkpt lat="47.80661" lon="6.62628">
        <ele>495</ele>
        <time>2023-05-01T18:24:58.325Z</time>
      </trkpt>
      <trkpt lat="47.80654" lon="6.62637">
        <ele>494</ele>
        <time>2023-05-01T18:25:01.942Z</time>
      </trkpt>
      <trkpt lat="47.80648" lon="6.62641">
        <ele>493</ele>
        <time>2023-05-01T18:25:05.560Z</time>
      </trkpt>
      <trkpt lat="47.80646" lon="6.62652">
        <ele>492</ele>
        <time>2023-05-01T18:25:09.180Z</time>
      </trkpt>
      <trkpt lat="47.80643" lon="6.62655">
        <ele>491</ele>
        <time>2023-05-01T18:25:12.800Z</time>
      </trkpt>
      <trkpt lat="47.80631" lon="6.62665">
        <ele>490</ele>
        <time>2023-05-01T18:25:16.423Z</time>
      </trkpt>
      <trkpt lat="47.80619" lon="6.62679">
        <ele>490</ele>
        <time>2023-05-01T18:25:20.049Z</time>
      </trkpt>
      <trkpt lat="47.80597" lon="6.62695">
        <ele>489</ele>
        <time>2023-05-01T18:25:23.680Z</time>
      </trkpt>
      <trkpt lat="47.80593" lon="6.627">
        <ele>488</ele>
        <time>2023-05-01T18:25:27.312Z</time>
      </trkpt>
      <trkpt lat="47.80583" lon="6.6271">
        <ele>487</ele>
        <time>2023-05-01T18:25:30.947Z</time>
      </trkpt>
      <trkpt lat="47.80574" lon="6.62716">
        <ele>486</ele>
        <time>2023-05-01T18:25:34.584Z</time>
      </trkpt>
      <trkpt lat="47.80567" lon="6.62714">
        <ele>485</ele>
        <time>2023-05-01T18:25:38.222Z</time>
      </trkpt>
      <trkpt lat="47.80562" lon="6.62717">
        <ele>485</ele>
        <time>2023-05-01T18:25:41.861Z</time>
      </trkpt>
      <trkpt lat="47.80546" lon="6.62736">
        <ele>484</ele>
        <time>2023-05-01T18:25:45.504Z</time>
      </trkpt>
      <trkpt lat="47.80529" lon="6.62749">
        <ele>483</ele>
        <time>2023-05-01T18:25:49.151Z</time>
      </trkpt>
      <trkpt lat="47.80501" lon="6.62785">
        <ele>483</ele>
        <time>2023-05-01T18:25:52.805Z</time>
      </trkpt>
      <trkpt lat="47.80489" lon="6.62788">
        <ele>482</ele>
        <time>2023-05-01T18:25:56.462Z</time>
      </trkpt>
      <trkpt lat="47.80472" lon="6.62789">
        <ele>482</ele>
        <time>2023-05-01T18:26:00.122Z</time>
      </trkpt>
      <trkpt lat="47.80464" lon="6.62793">
        <ele>481</ele>
        <time>2023-05-01T18:26:03.784Z</time>
      </trkpt>
      <trkpt lat="47.80457" lon="6.62801">
        <ele>480</ele>
        <time>2023-05-01T18:26:07.448Z</time>
      </trkpt>
      <trkpt lat="47.80438" lon="6.62805">
        <ele>480</ele>
        <time>2023-05-01T18:26:11.116Z</time>
      </trkpt>
      <trkpt lat="47.80422" lon="6.62818">
        <ele>479</ele>
        <time>2023-05-01T18:26:14.787Z</time>
      </trkpt>
      <trkpt lat="47.80418" lon="6.62826">
        <ele>479</ele>
        <time>2023-05-01T18:26:18.459Z</time>
      </trkpt>
      <trkpt lat="47.80419" lon="6.62829">
        <ele>478</ele>
        <time>2023-05-01T18:26:22.132Z</time>
      </trkpt>
      <trkpt lat="47.80448" lon="6.62855">
        <ele>478</ele>
        <time>2023-05-01T18:26:25.812Z</time>
      </trkpt>
      <trkpt lat="47.80458" lon="6.62869">
        <ele>478</ele>
        <time>2023-05-01T18:26:29.495Z</time>
      </trkpt>
      <trkpt lat="47.80463" lon="6.62878">
        <ele>477</ele>
        <time>2023-05-01T18:26:33.179Z</time>
      </trkpt>
      <trkpt lat="47.80468" lon="6.62893">
        <ele>477</ele>
        <time>2023-05-01T18:26:36.865Z</time>
      </trkpt>
      <trkpt lat="47.80474" lon="6.6292">
        <ele>477</ele>
        <time>2023-05-01T18:26:40.555Z</time>
      </trkpt>
      <trkpt lat="47.80479" lon="6.62929">
        <ele>477</ele>
        <time>2023-05-01T18:26:44.247Z</time>
      </trkpt>
      <trkpt lat="47.80498" lon="6.62957">
        <ele>476</ele>
        <time>2023-05-01T18:26:47.944Z</time>
      </trkpt>
      <trkpt lat="47.80504" lon="6.62975">
        <ele>476</ele>
        <time>2023-05-01T18:26:51.644Z</time>
      </trkpt>
      <trkpt lat="47.80548" lon="6.63066">
        <ele>476</ele>
        <time>2023-05-01T18:26:55.359Z</time>
      </trkpt>
      <trkpt lat="47.80571" lon="6.63127">
        <ele>476</ele>
        <time>2023-05-01T18:26:59.083Z</time>
      </trkpt>
      <trkpt lat="47.80578" lon="6.6315">
        <ele>476</ele>
        <time>2023-05-01T18:27:02.811Z</time>
      </trkpt>
      <trkpt lat="47.80575" lon="6.63161">
        <ele>476</ele>
        <time>2023-05-01T18:27:06.540Z</time>
      </trkpt>
      <trkpt lat="47.80569" lon="6.63174">
        <ele>476</ele>
        <time>2023-05-01T18:27:10.271Z</time>
      </trkpt>
      <trkpt lat="47.80517" lon="6.63255">
        <ele>476</ele>
        <time>2023-05-01T18:27:14.017Z</time>
      </trkpt>
      <trkpt lat="47.80498" lon="6.63281">
        <ele>476</ele>
        <time>2023-05-01T18:27:17.769Z</time>
      </trkpt>
      <trkpt lat="47.80494" lon="6.63292">
        <ele>476</ele>
        <time>2023-05-01T18:27:21.522Z</time>
      </trkpt>
      <trkpt lat="47.80494" lon="6.6332">
        <ele>476</ele>
        <time>2023-05-01T18:27:25.279Z</time>
      </trkpt>
      <trkpt lat="47.80496" lon="6.63341">
        <ele>476</ele>
        <time>2023-05-01T18:27:29.039Z</time>
      </trkpt>
      <trkpt lat="47.80495" lon="6.63377">
        <ele>476</ele>
        <time>2023-05-01T18:27:32.804Z</time>
      </trkpt>
      <trkpt lat="47.80506" lon="6.63392">
        <ele>476</ele>
        <time>2023-05-01T18:27:36.572Z</time>
      </trkpt>
      <trkpt lat="47.80514" lon="6.63406">
        <ele>476</ele>
        <time>2023-05-01T18:27:40.342Z</time>
      </trkpt>
      <trkpt lat="47.80527" lon="6.6342">
        <ele>476</ele>
        <time>2023-05-01T18:27:44.115Z</time>
      </trkpt>
      <trkpt lat="47.80541" lon="6.63454">
        <ele>476</ele>
        <time>2023-05-01T18:27:47.894Z</time>
      </trkpt>
      <trkpt lat="47.80555" lon="6.63477">
        <ele>476</ele>
        <time>2023-05-01T18:27:51.677Z</time>
      </trkpt>
      <trkpt lat="47.80559" lon="6.63494">
        <ele>477</ele>
        <time>2023-05-01T18:27:55.462Z</time>
      </trkpt>
      <trkpt lat="47.8056" lon="6.63517">
        <ele>477</ele>
        <time>2023-05-01T18:27:59.250Z</time>
      </trkpt>
      <trkpt lat="47.80566" lon="6.63529">
        <ele>477</ele>
        <time>2023-05-01T18:28:03.040Z</time>
      </trkpt>
      <trkpt lat="47.80562" lon="6.63534">
        <ele>477</ele>
        <time>2023-05-01T18:28:06.832Z</time>
      </trkpt>
      <trkpt lat="47.80503" lon="6.63534">
        <ele>477</ele>
        <time>2023-05-01T18:28:10.635Z</time>
      </trkpt>
      <trkpt lat="47.80498" lon="6.63537">
        <ele>477</ele>
        <time>2023-05-01T18:28:14.439Z</time>
      </trkpt>
      <trkpt lat="47.80489" lon="6.63536">
        <ele>477</ele>
        <time>2023-05-01T18:28:18.245Z</time>
      </trkpt>
      <trkpt lat="47.80482" lon="6.63537">
        <ele>477</ele>
        <time>2023-05-01T18:28:22.053Z</time>
      </trkpt>
      <trkpt lat="47.80472" lon="6.63545">
        <ele>477</ele>
        <time>2023-05-01T18:28:25.863Z</time>
      </trkpt>
      <trkpt lat="47.80462" lon="6.63546">
        <ele>478</ele>
        <time>2023-05-01T18:28:29.675Z</time>
      </trkpt>
      <trkpt lat="47.80454" lon="6.63548">
        <ele>478</ele>
        <time>2023-05-01T18:28:33.489Z</time>
      </trkpt>
      <trkpt lat="47.8044" lon="6.63548">
        <ele>478</ele>
        <time>2023-05-01T18:28:37.305Z</time>
      </trkpt>
      <trkpt lat="47.80437" lon="6.63551">
        <ele>478</ele>
        <time>2023-05-01T18:28:41.122Z</time>
      </trkpt>
      <trkpt lat="47.8043" lon="6.6356">
        <ele>478</ele>
        <time>2023-05-01T18:28:44.941Z</time>
      </trkpt>
      <trkpt lat="47.80423" lon="6.63562">
        <ele>479</ele>
        <time>2023-05-01T18:28:48.761Z</time>
      </trkpt>
      <trkpt lat="47.80418" lon="6.63562">
        <ele>479</ele>
        <time>2023-05-01T18:28:52.582Z</time>
      </trkpt>
      <trkpt lat="47.80415" lon="6.63565">
        <ele>479</ele>
        <time>2023-05-01T18:28:56.404Z</time>
      </trkpt>
      <trkpt lat="47.80412" lon="6.63565">
        <ele>479</ele>
        <time>2023-05-01T18:29:00.227Z</time>
      </trkpt>
      <trkpt lat="47.80407" lon="6.63561">
        <ele>479</ele>
        <time>2023-05-01T18:29:04.051Z</time>
      </trkpt>
      <trkpt lat="47.80401" lon="6.63562">
        <ele>479</ele>
        <time>2023-05-01T18:29:07.876Z</time>
      </trkpt>
      <trkpt lat="47.80396" lon="6.63561">
        <ele>479</ele>
        <time>2023-05-01T18:29:11.702Z</time>
      </trkpt>
      <trkpt lat="47.80392" lon="6.6357">
        <ele>479</ele>
        <time>2023-05-01T18:29:15.530Z</time>
      </trkpt>
      <trkpt lat="47.80384" lon="6.63579">
        <ele>479</ele>
        <time>2023-05-01T18:29:19.359Z</time>
      </trkpt>
      <trkpt lat="47.8038" lon="6.63583">
        <ele>479</ele>
        <time>2023-05-01T18:29:23.189Z</time>
      </trkpt>
      <trkpt lat="47.80361" lon="6.63594">
        <ele>479</ele>
        <time>2023-05-01T18:29:27.024Z</time>
      </trkpt>
      <trkpt lat="47.80349" lon="6.63608">
        <ele>479</ele>
        <time>2023-05-01T18:29:30.862Z</time>
      </trkpt>
      <trkpt lat="47.80348" lon="6.63632">
        <ele>479</ele>
        <time>2023-05-01T18:29:34.703Z</time>
      </trkpt>
      <trkpt lat="47.8035" lon="6.63649">
        <ele>479</ele>
        <time>2023-05-01T18:29:38.546Z</time>
      </trkpt>
      <trkpt lat="47.80347" lon="6.63657">
        <ele>479</ele>
        <time>2023-05-01T18:29:42.390Z</time>
      </trkpt>
      <trkpt lat="47.80346" lon="6.63678">
        <ele>479</ele>
        <time>2023-05-01T18:29:46.237Z</time>
      </trkpt>
      <trkpt lat="47.80347" lon="6.6373">
        <ele>479</ele>
        <time>2023-05-01T18:29:50.091Z</time>
      </trkpt>
      <trkpt lat="47.80341" lon="6.63748">
        <ele>478</ele>
        <time>2023-05-01T18:29:53.948Z</time>
      </trkpt>
      <trkpt lat="47.80343" lon="6.63759">
        <ele>478</ele>
        <time>2023-05-01T18:29:57.806Z</time>
      </trkpt>
      <trkpt lat="47.80338" lon="6.6377">
        <ele>478</ele>
        <time>2023-05-01T18:30:01.666Z</time>
      </trkpt>
      <trkpt lat="47.80339" lon="6.63787">
        <ele>477</ele>
        <time>2023-05-01T18:30:05.528Z</time>
      </trkpt>
      <trkpt lat="47.80338" lon="6.63792">
        <ele>476</ele>
        <time>2023-05-01T18:30:09.391Z</time>
      </trkpt>
      <trkpt lat="47.80334" lon="6.63796">
        <ele>476</ele>
        <time>2023-05-01T18:30:13.255Z</time>
      </trkpt>
      <trkpt lat="47.80327" lon="6.63828">
        <ele>475</ele>
        <time>2023-05-01T18:30:17.124Z</time>
      </trkpt>
      <trkpt lat="47.80321" lon="6.63836">
        <ele>474</ele>
        <time>2023-05-01T18:30:20.994Z</time>
      </trkpt>
      <trkpt lat="47.80318" lon="6.63845">
        <ele>473</ele>
        <time>2023-05-01T18:30:24.866Z</time>
      </trkpt>
      <trkpt lat="47.80316" lon="6.63859">
        <ele>472</ele>
        <time>2023-05-01T18:30:28.740Z</time>
      </trkpt>
      <trkpt lat="47.80314" lon="6.63923">
        <ele>471</ele>
        <time>2023-05-01T18:30:32.622Z</time>
      </trkpt>
      <trkpt lat="47.8032" lon="6.63992">
        <ele>470</ele>
        <time>2023-05-01T18:30:36.513Z</time>
      </trkpt>
      <trkpt lat="47.80326" lon="6.6402">
        <ele>469</ele>
        <time>2023-05-01T18:30:40.408Z</time>
      </trkpt>
      <trkpt lat="47.80334" lon="6.64043">
        <ele>468</ele>
        <time>2023-05-01T18:30:44.307Z</time>
      </trkpt>
      <trkpt lat="47.80335" lon="6.64063">
        <ele>466</ele>
        <time>2023-05-01T18:30:48.209Z</time>
      </trkpt>
      <trkpt lat="47.80319" lon="6.6406">
        <ele>464</ele>
        <time>2023-05-01T18:30:52.114Z</time>
      </trkpt>
      <trkpt lat="47.80305" lon="6.6405">
        <ele>463</ele>
        <time>2023-05-01T18:30:56.022Z</time>
      </trkpt>
      <trkpt lat="47.80297" lon="6.64037">
        <ele>461</ele>
        <time>2023-05-01T18:30:59.932Z</time>
      </trkpt>
      <trkpt lat="47.80284" lon="6.6402">
        <ele>459</ele>
        <time>2023-05-01T18:31:03.846Z</time>
      </trkpt>
      <trkpt lat="47.80265" lon="6.6399">
        <ele>457</ele>
        <time>2023-05-01T18:31:07.765Z</time>
      </trkpt>
      <trkpt lat="47.8024" lon="6.63959">
        <ele>455</ele>
        <time>2023-05-01T18:31:11.691Z</time>
      </trkpt>
      <trkpt lat="47.80218" lon="6.63904">
        <ele>452</ele>
        <time>2023-05-01T18:31:15.625Z</time>
      </trkpt>
      <trkpt lat="47.80201" lon="6.63868">
        <ele>450</ele>
        <time>2023-05-01T18:31:19.565Z</time>
      </trkpt>
      <trkpt lat="47.80193" lon="6.63844">
        <ele>447</ele>
        <time>2023-05-01T18:31:23.509Z</time>
      </trkpt>
      <trkpt lat="47.80188" lon="6.63835">
        <ele>445</ele>
        <time>2023-05-01T18:31:27.454Z</time>
      </trkpt>
      <trkpt lat="47.80182" lon="6.63828">
        <ele>442</ele>
        <time>2023-05-01T18:31:31.401Z</time>
      </trkpt>
      <trkpt lat="47.80159" lon="6.63818">
        <ele>440</ele>
        <time>2023-05-01T18:31:35.353Z</time>
      </trkpt>
      <trkpt lat="47.80126" lon="6.63811">
        <ele>437</ele>
        <time>2023-05-01T18:31:39.311Z</time>
      </trkpt>
      <trkpt lat="47.80101" lon="6.63802">
        <ele>434</ele>
        <time>2023-05-01T18:31:43.275Z</time>
      </trkpt>
      <trkpt lat="47.80093" lon="6.63802">
        <ele>431</ele>
        <time>2023-05-01T18:31:47.240Z</time>
      </trkpt>
      <trkpt lat="47.80068" lon="6.63811">
        <ele>428</ele>
        <time>2023-05-01T18:31:51.210Z</time>
      </trkpt>
      <trkpt lat="47.80054" lon="6.6382">
        <ele>425</ele>
        <time>2023-05-01T18:31:55.183Z</time>
      </trkpt>
      <trkpt lat="47.8004" lon="6.6382">
        <ele>422</ele>
        <time>2023-05-01T18:31:59.159Z</time>
      </trkpt>
      <trkpt lat="47.80018" lon="6.63837">
        <ele>419</ele>
        <time>2023-05-01T18:32:03.140Z</time>
      </trkpt>
      <trkpt lat="47.80003" lon="6.63851">
        <ele>416</ele>
        <time>2023-05-01T18:32:07.125Z</time>
      </trkpt>
      <trkpt lat="47.79975" lon="6.63871">
        <ele>413</ele>
        <time>2023-05-01T18:32:11.116Z</time>
      </trkpt>
      <trkpt lat="47.79968" lon="6.63879">
        <ele>411</ele>
        <time>2023-05-01T18:32:15.109Z</time>
      </trkpt>
      <trkpt lat="47.79958" lon="6.63893">
        <ele>408</ele>
        <time>2023-05-01T18:32:19.105Z</time>
      </trkpt>
      <trkpt lat="47.79938" lon="6.63931">
        <ele>405</ele>
        <time>2023-05-01T18:32:23.107Z</time>
      </trkpt>
      <trkpt lat="47.79915" lon="6.63955">
        <ele>402</ele>
        <time>2023-05-01T18:32:27.115Z</time>
      </trkpt>
      <trkpt lat="47.79894" lon="6.63988">
        <ele>400</ele>
        <time>2023-05-01T18:32:31.129Z</time>
      </trkpt>
      <trkpt lat="47.79871" lon="6.64041">
        <ele>397</ele>
        <time>2023-05-01T18:32:35.151Z</time>
      </trkpt>
      <trkpt lat="47.79865" lon="6.64049">
        <ele>395</ele>
        <time>2023-05-01T18:32:39.175Z</time>
      </trkpt>
      <trkpt lat="47.79856" lon="6.64073">
        <ele>392</ele>
        <time>2023-05-01T18:32:43.203Z</time>
      </trkpt>
      <trkpt lat="47.79848" lon="6.64105">
        <ele>390</ele>
        <time>2023-05-01T18:32:47.235Z</time>
      </trkpt>
      <trkpt lat="47.79846" lon="6.64117">
        <ele>388</ele>
        <time>2023-05-01T18:32:51.269Z</time>
      </trkpt>
      <trkpt lat="47.79844" lon="6.64148">
        <ele>387</ele>
        <time>2023-05-01T18:32:55.307Z</time>
      </trkpt>
      <trkpt lat="47.79847" lon="6.6418">
        <ele>385</ele>
        <time>2023-05-01T18:32:59.349Z</time>
      </trkpt>
      <trkpt lat="47.79843" lon="6.642">
        <ele>383</ele>
        <time>2023-05-01T18:33:03.394Z</time>
      </trkpt>
      <trkpt lat="47.79843" lon="6.64219">
        <ele>382</ele>
        <time>2023-05-01T18:33:07.442Z</time>
      </trkpt>
      <trkpt lat="47.79855" lon="6.64261">
        <ele>380</ele>
        <time>2023-05-01T18:33:11.496Z</time>
      </trkpt>
      <trkpt lat="47.79866" lon="6.64294">
        <ele>379</ele>
        <time>2023-05-01T18:33:15.555Z</time>
      </trkpt>
      <trkpt lat="47.79878" lon="6.64352">
        <ele>378</ele>
        <time>2023-05-01T18:33:19.622Z</time>
      </trkpt>
      <trkpt lat="47.79883" lon="6.64417">
        <ele>377</ele>
        <time>2023-05-01T18:33:23.698Z</time>
      </trkpt>
      <trkpt lat="47.79877" lon="6.6445">
        <ele>376</ele>
        <time>2023-05-01T18:33:27.779Z</time>
      </trkpt>
      <trkpt lat="47.79876" lon="6.64475">
        <ele>375</ele>
        <time>2023-05-01T18:33:31.863Z</time>
      </trkpt>
      <trkpt lat="47.79873" lon="6.64489">
        <ele>375</ele>
        <time>2023-05-01T18:33:35.949Z</time>
      </trkpt>
      <trkpt lat="47.79851" lon="6.64526">
        <ele>374</ele>
        <time>2023-05-01T18:33:40.042Z</time>
      </trkpt>
      <trkpt lat="47.79846" lon="6.6454">
        <ele>373</ele>
        <time>2023-05-01T18:33:44.137Z</time>
      </trkpt>
      <trkpt lat="47.79845" lon="6.64553">
        <ele>373</ele>
        <time>2023-05-01T18:33:48.234Z</time>
      </trkpt>
      <trkpt lat="47.79848" lon="6.64562">
        <ele>373</ele>
        <time>2023-05-01T18:33:52.332Z</time>
      </trkpt>
      <trkpt lat="47.79869" lon="6.64572">
        <ele>373</ele>
        <time>2023-05-01T18:33:56.434Z</time>
      </trkpt>
      <trkpt lat="47.79879" lon="6.64583">
        <ele>373</ele>
        <time>2023-05-01T18:34:00.539Z</time>
      </trkpt>
      <trkpt lat="47.79888" lon="6.64605">
        <ele>373</ele>
        <time>2023-05-01T18:34:04.647Z</time>
      </trkpt>
      <trkpt lat="47.79916" lon="6.64649">
        <ele>373</ele>
        <time>2023-05-01T18:34:08.763Z</time>
      </trkpt>
      <trkpt lat="47.79926" lon="6.64678">
        <ele>373</ele>
        <time>2023-05-01T18:34:12.884Z</time>
      </trkpt>
      <trkpt lat="47.79952" lon="6.64735">
        <ele>374</ele>
        <time>2023-05-01T18:34:17.014Z</time>
      </trkpt>
      <trkpt lat="47.79959" lon="6.64783">
        <ele>374</ele>
        <time>2023-05-01T18:34:21.151Z</time>
      </trkpt>
      <trkpt lat="47.79962" lon="6.64808">
        <ele>374</ele>
        <time>2023-05-01T18:34:25.291Z</time>
      </trkpt>
      <trkpt lat="47.7997" lon="6.64857">
        <ele>375</ele>
        <time>2023-05-01T18:34:29.438Z</time>
      </trkpt>
      <trkpt lat="47.79974" lon="6.64872">
        <ele>375</ele>
        <time>2023-05-01T18:34:33.587Z</time>
      </trkpt>
      <trkpt lat="47.79985" lon="6.64895">
        <ele>376</ele>
        <time>2023-05-01T18:34:37.740Z</time>
      </trkpt>
      <trkpt lat="47.8001" lon="6.64925">
        <ele>376</ele>
        <time>2023-05-01T18:34:41.899Z</time>
      </trkpt>
      <trkpt lat="47.80017" lon="6.64941">
        <ele>377</ele>
        <time>2023-05-01T18:34:46.061Z</time>
      </trkpt>
      <trkpt lat="47.80017" lon="6.64944">
        <ele>378</ele>
        <time>2023-05-01T18:34:50.223Z</time>
      </trkpt>
      <trkpt lat="47.80009" lon="6.64958">
        <ele>378</ele>
        <time>2023-05-01T18:34:54.388Z</time>
      </trkpt>
      <trkpt lat="47.8001" lon="6.6497">
        <ele>379</ele>
        <time>2023-05-01T18:34:58.555Z</time>
      </trkpt>
      <trkpt lat="47.80008" lon="6.64972">
        <ele>380</ele>
        <time>2023-05-01T18:35:02.722Z</time>
      </trkpt>
      <trkpt lat="47.80007" lon="6.64992">
        <ele>381</ele>
        <time>2023-05-01T18:35:06.892Z</time>
      </trkpt>
      <trkpt lat="47.79997" lon="6.65015">
        <ele>382</ele>
        <time>2023-05-01T18:35:11.065Z</time>
      </trkpt>
      <trkpt lat="47.79991" lon="6.65019">
        <ele>383</ele>
        <time>2023-05-01T18:35:15.240Z</time>
      </trkpt>
      <trkpt lat="47.79986" lon="6.65046">
        <ele>384</ele>
        <time>2023-05-01T18:35:19.419Z</time>
      </trkpt>
      <trkpt lat="47.79976" lon="6.6507">
        <ele>384</ele>
        <time>2023-05-01T18:35:23.601Z</time>
      </trkpt>
      <trkpt lat="47.79977" lon="6.65075">
        <ele>385</ele>
        <time>2023-05-01T18:35:27.784Z</time>
      </trkpt>
      <trkpt lat="47.7998" lon="6.65079">
        <ele>386</ele>
        <time>2023-05-01T18:35:31.968Z</time>
      </trkpt>
      <trkpt lat="47.79981" lon="6.65079">
        <ele>387</ele>
        <time>2023-05-01T18:35:36.152Z</time>
      </trkpt>
      <trkpt lat="47.79992" lon="6.65071">
        <ele>388</ele>
        <time>2023-05-01T18:35:40.338Z</time>
      </trkpt>
      <trkpt lat="47.79996" lon="6.65065">
        <ele>389</ele>
        <time>2023-05-01T18:35:44.526Z</time>
      </trkpt>
      <trkpt lat="47.79999" lon="6.65065">
        <ele>390</ele>
        <time>2023-05-01T18:35:48.714Z</time>
      </trkpt>
      <trkpt lat="47.80017" lon="6.65052">
        <ele>391</ele>
        <time>2023-05-01T18:35:52.906Z</time>
      </trkpt>
      <trkpt lat="47.80028" lon="6.65039">
        <ele>392</ele>
        <time>2023-05-01T18:35:57.101Z</time>
      </trkpt>
      <trkpt lat="47.80032" lon="6.65039">
        <ele>393</ele>
        <time>2023-05-01T18:36:01.297Z</time>
      </trkpt>
      <trkpt lat="47.80043" lon="6.65033">
        <ele>394</ele>
        <time>2023-05-01T18:36:05.495Z</time>
      </trkpt>
      <trkpt lat="47.80048" lon="6.65033">
        <ele>395</ele>
        <time>2023-05-01T18:36:09.694Z</time>
      </trkpt>
      <trkpt lat="47.80064" lon="6.65044">
        <ele>396</ele>
        <time>2023-05-01T18:36:13.897Z</time>
      </trkpt>
      <trkpt lat="47.80075" lon="6.65056">
        <ele>397</ele>
        <time>2023-05-01T18:36:18.102Z</time>
      </trkpt>
      <trkpt lat="47.80088" lon="6.65084">
        <ele>398</ele>
        <time>2023-05-01T18:36:22.312Z</time>
      </trkpt>
      <trkpt lat="47.80097" lon="6.6512">
        <ele>399</ele>
        <time>2023-05-01T18:36:26.527Z</time>
      </trkpt>
      <trkpt lat="47.80113" lon="6.65163">
        <ele>399</ele>
        <time>2023-05-01T18:36:30.749Z</time>
      </trkpt>
      <trkpt lat="47.80119" lon="6.65175">
        <ele>400</ele>
        <time>2023-05-01T18:36:34.973Z</time>
      </trkpt>
      <trkpt lat="47.80123" lon="6.65199">
        <ele>400</ele>
        <time>2023-05-01T18:36:39.200Z</time>
      </trkpt>
      <trkpt lat="47.80129" lon="6.65217">
        <ele>401</ele>
        <time>2023-05-01T18:36:43.430Z</time>
      </trkpt>
      <trkpt lat="47.8013" lon="6.65248">
        <ele>401</ele>
        <time>2023-05-01T18:36:47.664Z</time>
      </trkpt>
      <trkpt lat="47.80117" lon="6.65287">
        <ele>401</ele>
        <time>2023-05-01T18:36:51.904Z</time>
      </trkpt>
      <trkpt lat="47.80119" lon="6.6533">
        <ele>402</ele>
        <time>2023-05-01T18:36:56.150Z</time>
      </trkpt>
      <trkpt lat="47.80118" lon="6.65367">
        <ele>402</ele>
        <time>2023-05-01T18:37:00.401Z</time>
      </trkpt>
      <trkpt lat="47.80116" lon="6.65381">
        <ele>402</ele>
        <time>2023-05-01T18:37:04.654Z</time>
      </trkpt>
      <trkpt lat="47.80115" lon="6.65396">
        <ele>402</ele>
        <time>2023-05-01T18:37:08.909Z</time>
      </trkpt>
      <trkpt lat="47.80109" lon="6.6542">
        <ele>402</ele>
        <time>2023-05-01T18:37:13.167Z</time>
      </trkpt>
      <trkpt lat="47.80107" lon="6.65447">
        <ele>402</ele>
        <time>2023-05-01T18:37:17.429Z</time>
      </trkpt>
      <trkpt lat="47.80107" lon="6.65465">
        <ele>402</ele>
        <time>2023-05-01T18:37:21.693Z</time>
      </trkpt>
      <trkpt lat="47.80104" lon="6.65484">
        <ele>402</ele>
        <time>2023-05-01T18:37:25.960Z</time>
      </trkpt>
      <trkpt lat="47.80096" lon="6.65509">
        <ele>402</ele>
        <time>2023-05-01T18:37:30.231Z</time>
      </trkpt>
      <trkpt lat="47.80096" lon="6.65515">
        <ele>402</ele>
        <time>2023-05-01T18:37:34.502Z</time>
      </trkpt>
      <trkpt lat="47.80091" lon="6.65532">
        <ele>402</ele>
        <time>2023-05-01T18:37:38.776Z</time>
      </trkpt>
      <trkpt lat="47.80084" lon="6.65537">
        <ele>402</ele>
        <time>2023-05-01T18:37:43.051Z</time>
      </trkpt>
      <trkpt lat="47.80071" lon="6.65577">
        <ele>401</ele>
        <time>2023-05-01T18:37:47.332Z</time>
      </trkpt>
      <trkpt lat="47.80067" lon="6.65584">
        <ele>401</ele>
        <time>2023-05-01T18:37:51.615Z</time>
      </trkpt>
      <trkpt lat="47.80059" lon="6.65594">
        <ele>401</ele>
        <time>2023-05-01T18:37:55.900Z</time>
      </trkpt>
      <trkpt lat="47.80053" lon="6.65613">
        <ele>400</ele>
        <time>2023-05-01T18:38:00.188Z</time>
      </trkpt>
      <trkpt lat="47.80052" lon="6.65676">
        <ele>400</ele>
        <time>2023-05-01T18:38:04.484Z</time>
      </trkpt>
      <trkpt lat="47.80054" lon="6.65705">
        <ele>399</ele>
        <time>2023-05-01T18:38:08.784Z</time>
      </trkpt>
      <trkpt lat="47.80059" lon="6.65723">
        <ele>399</ele>
        <time>2023-05-01T18:38:13.087Z</time>
      </trkpt>
      <trkpt lat="47.8006" lon="6.65733">
        <ele>398</ele>
        <time>2023-05-01T18:38:17.391Z</time>
      </trkpt>
      <trkpt lat="47.80081" lon="6.65793">
        <ele>398</ele>
        <time>2023-05-01T18:38:21.704Z</time>
      </trkpt>
      <trkpt lat="47.80096" lon="6.65828">
        <ele>398</ele>
        <time>2023-05-01T18:38:26.023Z</time>
      </trkpt>
      <trkpt lat="47.80109" lon="6.65847">
        <ele>397</ele>
        <time>2023-05-01T18:38:30.345Z</time>
      </trkpt>
      <trkpt lat="47.8012" lon="6.65876">
        <ele>397</ele>
        <time>2023-05-01T18:38:34.672Z</time>
      </trkpt>
      <trkpt lat="47.80131" lon="6.65899">
        <ele>396</ele>
        <time>2023-05-01T18:38:39.003Z</time>
      </trkpt>
      <trkpt lat="47.80135" lon="6.65911">
        <ele>396</ele>
        <time>2023-05-01T18:38:43.335Z</time>
      </trkpt>
      <trkpt lat="47.80137" lon="6.65927">
        <ele>396</ele>
        <time>2023-05-01T18:38:47.670Z</time>
      </trkpt>
      <trkpt lat="47.80135" lon="6.65943">
        <ele>395</ele>
        <time>2023-05-01T18:38:52.007Z</time>
      </trkpt>
      <trkpt lat="47.80125" lon="6.65981">
        <ele>395</ele>
        <time>2023-05-01T18:38:56.349Z</time>
      </trkpt>
      <trkpt lat="47.80125" lon="6.65997">
        <ele>394</ele>
        <time>2023-05-01T18:39:00.694Z</time>
      </trkpt>
      <trkpt lat="47.80126" lon="6.66004">
        <ele>394</ele>
        <time>2023-05-01T18:39:05.040Z</time>
      </trkpt>
      <trkpt lat="47.80131" lon="6.66012">
        <ele>393</ele>
        <time>2023-05-01T18:39:09.387Z</time>
      </trkpt>
      <trkpt lat="47.80143" lon="6.66016">
        <ele>393</ele>
        <time>2023-05-01T18:39:13.736Z</time>
      </trkpt>
      <trkpt lat="47.80149" lon="6.66016">
        <ele>393</ele>
        <time>2023-05-01T18:39:18.087Z</time>
      </trkpt>
      <trkpt lat="47.80151" lon="6.66017">
        <ele>392</ele>
        <time>2023-05-01T18:39:22.438Z</time>
      </trkpt>
      <trkpt lat="47.80162" lon="6.66028">
        <ele>392</ele>
        <time>2023-05-01T18:39:26.792Z</time>
      </trkpt>
      <trkpt lat="47.80182" lon="6.66041">
        <ele>392</ele>
        <time>2023-05-01T18:39:31.150Z</time>
      </trkpt>
      <trkpt lat="47.8019" lon="6.66048">
        <ele>392</ele>
        <time>2023-05-01T18:39:35.510Z</time>
      </trkpt>
      <trkpt lat="47.80197" lon="6.6606">
        <ele>391</ele>
        <time>2023-05-01T18:39:39.872Z</time>
      </trkpt>
      <trkpt lat="47.80201" lon="6.66073">
        <ele>391</ele>
        <time>2023-05-01T18:39:44.236Z</time>
      </trkpt>
      <trkpt lat="47.80212" lon="6.66097">
        <ele>390</ele>
        <time>2023-05-01T18:39:48.604Z</time>
      </trkpt>
      <trkpt lat="47.8022" lon="6.6611">
        <ele>390</ele>
        <time>2023-05-01T18:39:52.974Z</time>
      </trkpt>
      <trkpt lat="47.8023" lon="6.66133">
        <ele>390</ele>
        <time>2023-05-01T18:39:57.348Z</time>
      </trkpt>
      <trkpt lat="47.80238" lon="6.66145">
        <ele>389</ele>
        <time>2023-05-01T18:40:01.724Z</time>
      </trkpt>
      <trkpt lat="47.80249" lon="6.66168">
        <ele>389</ele>
        <time>2023-05-01T18:40:06.104Z</time>
      </trkpt>
      <trkpt lat="47.80262" lon="6.66183">
        <ele>389</ele>
        <time>2023-05-01T18:40:10.487Z</time>
      </trkpt>
      <trkpt lat="47.8027" lon="6.66196">
        <ele>389</ele>
        <time>2023-05-01T18:40:14.873Z</time>
      </trkpt>
      <trkpt lat="47.80281" lon="6.66223">
        <ele>388</ele>
        <time>2023-05-01T18:40:19.263Z</time>
      </trkpt>
      <trkpt lat="47.80282" lon="6.66237">
        <ele>388</ele>
        <time>2023-05-01T18:40:23.655Z</time>
      </trkpt>
      <trkpt lat="47.80279" lon="6.66251">
        <ele>388</ele>
        <time>2023-05-01T18:40:28.049Z</time>
      </trkpt>
      <trkpt lat="47.80269" lon="6.66272">
        <ele>387</ele>
        <time>2023-05-01T18:40:32.446Z</time>
      </trkpt>
      <trkpt lat="47.80252" lon="6.66297">
        <ele>387</ele>
        <time>2023-05-01T18:40:36.848Z</time>
      </trkpt>
      <trkpt lat="47.80245" lon="6.66312">
        <ele>387</ele>
        <time>2023-05-01T18:40:41.253Z</time>
      </trkpt>
      <trkpt lat="47.80243" lon="6.6632">
        <ele>386</ele>
        <time>2023-05-01T18:40:45.659Z</time>
      </trkpt>
      <trkpt lat="47.80245" lon="6.66348">
        <ele>386</ele>
        <time>2023-05-01T18:40:50.068Z</time>
      </trkpt>
      <trkpt lat="47.80261" lon="6.664">
        <ele>386</ele>
        <time>2023-05-01T18:40:54.485Z</time>
      </trkpt>
      <trkpt lat="47.80283" lon="6.66456">
        <ele>386</ele>
        <time>2023-05-01T18:40:58.911Z</time>
      </trkpt>
      <trkpt lat="47.80305" lon="6.66524">
        <ele>385</ele>
        <time>2023-05-01T18:41:03.347Z</time>
      </trkpt>
      <trkpt lat="47.80339" lon="6.6666">
        <ele>386</ele>
        <time>2023-05-01T18:41:07.803Z</time>
      </trkpt>
      <trkpt lat="47.80346" lon="6.66711">
        <ele>385</ele>
        <time>2023-05-01T18:41:12.266Z</time>
      </trkpt>
      <trkpt lat="47.80347" lon="6.66739">
        <ele>385</ele>
        <time>2023-05-01T18:41:16.732Z</time>
      </trkpt>
      <trkpt lat="47.80343" lon="6.66785">
        <ele>385</ele>
        <time>2023-05-01T18:41:21.205Z</time>
      </trkpt>
      <trkpt lat="47.80339" lon="6.66794">
        <ele>385</ele>
        <time>2023-05-01T18:41:25.679Z</time>
      </trkpt>
      <trkpt lat="47.80333" lon="6.66798">
        <ele>385</ele>
        <time>2023-05-01T18:41:30.154Z</time>
      </trkpt>
      <trkpt lat="47.80327" lon="6.66799">
        <ele>385</ele>
        <time>2023-05-01T18:41:34.631Z</time>
      </trkpt>
      <trkpt lat="47.80315" lon="6.66793">
        <ele>385</ele>
        <time>2023-05-01T18:41:39.110Z</time>
      </trkpt>
      <trkpt lat="47.80311" lon="6.66786">
        <ele>386</ele>
        <time>2023-05-01T18:41:43.590Z</time>
      </trkpt>
      <trkpt lat="47.80302" lon="6.66763">
        <ele>386</ele>
        <time>2023-05-01T18:41:48.074Z</time>
      </trkpt>
      <trkpt lat="47.80287" lon="6.66755">
        <ele>386</ele>
        <time>2023-05-01T18:41:52.561Z</time>
      </trkpt>
      <trkpt lat="47.80278" lon="6.66759">
        <ele>386</ele>
        <time>2023-05-01T18:41:57.050Z</time>
      </trkpt>
      <trkpt lat="47.80259" lon="6.66758">
        <ele>387</ele>
        <time>2023-05-01T18:42:01.543Z</time>
      </trkpt>
      <trkpt lat="47.80237" lon="6.66765">
        <ele>387</ele>
        <time>2023-05-01T18:42:06.040Z</time>
      </trkpt>
      <trkpt lat="47.80227" lon="6.66765">
        <ele>387</ele>
        <time>2023-05-01T18:42:10.539Z</time>
      </trkpt>
      <trkpt lat="47.8021" lon="6.66768">
        <ele>388</ele>
        <time>2023-05-01T18:42:15.042Z</time>
      </trkpt>
      <trkpt lat="47.80183" lon="6.66767">
        <ele>388</ele>
        <time>2023-05-01T18:42:19.550Z</time>
      </trkpt>
      <trkpt lat="47.80176" lon="6.66765">
        <ele>389</ele>
        <time>2023-05-01T18:42:24.060Z</time>
      </trkpt>
      <trkpt lat="47.80163" lon="6.66753">
        <ele>389</ele>
        <time>2023-05-01T18:42:28.573Z</time>
      </trkpt>
      <trkpt lat="47.80156" lon="6.66743">
        <ele>390</ele>
        <time>2023-05-01T18:42:33.088Z</time>
      </trkpt>
      <trkpt lat="47.80138" lon="6.66733">
        <ele>391</ele>
        <time>2023-05-01T18:42:37.607Z</time>
      </trkpt>
      <trkpt lat="47.80054" lon="6.6664">
        <ele>391</ele>
        <time>2023-05-01T18:42:42.147Z</time>
      </trkpt>
      <trkpt lat="47.80032" lon="6.66604">
        <ele>392</ele>
        <time>2023-05-01T18:42:46.693Z</time>
      </trkpt>
      <trkpt lat="47.8001" lon="6.66547">
        <ele>393</ele>
        <time>2023-05-01T18:42:51.248Z</time>
      </trkpt>
      <trkpt lat="47.79992" lon="6.6647">
        <ele>394</ele>
        <time>2023-05-01T18:42:55.814Z</time>
      </trkpt>
      <trkpt lat="47.79976" lon="6.66385">
        <ele>394</ele>
        <time>2023-05-01T18:43:00.392Z</time>
      </trkpt>
      <trkpt lat="47.79937" lon="6.66273">
        <ele>395</ele>
        <time>2023-05-01T18:43:04.987Z</time>
      </trkpt>
      <trkpt lat="47.79919" lon="6.66193">
        <ele>396</ele>
        <time>2023-05-01T18:43:09.593Z</time>
      </trkpt>
      <trkpt lat="47.79894" lon="6.66163">
        <ele>397</ele>
        <time>2023-05-01T18:43:14.206Z</time>
      </trkpt>
      <trkpt lat="47.79864" lon="6.66134">
        <ele>398</ele>
        <time>2023-05-01T18:43:18.826Z</time>
      </trkpt>
      <trkpt lat="47.79845" lon="6.66123">
        <ele>399</ele>
        <time>2023-05-01T18:43:23.450Z</time>
      </trkpt>
      <trkpt lat="47.79836" lon="6.66116">
        <ele>400</ele>
        <time>2023-05-01T18:43:28.076Z</time>
      </trkpt>
      <trkpt lat="47.79827" lon="6.66104">
        <ele>401</ele>
        <time>2023-05-01T18:43:32.704Z</time>
      </trkpt>
      <trkpt lat="47.79804" lon="6.66079">
        <ele>403</ele>
        <time>2023-05-01T18:43:37.338Z</time>
      </trkpt>
      <trkpt lat="47.79793" lon="6.66065">
        <ele>404</ele>
        <time>2023-05-01T18:43:41.975Z</time>
      </trkpt>
      <trkpt lat="47.79786" lon="6.66058">
        <ele>406</ele>
        <time>2023-05-01T18:43:46.614Z</time>
      </trkpt>
      <trkpt lat="47.79779" lon="6.66045">
        <ele>407</ele>
        <time>2023-05-01T18:43:51.255Z</time>
      </trkpt>
      <trkpt lat="47.79768" lon="6.66029">
        <ele>408</ele>
        <time>2023-05-01T18:43:55.899Z</time>
      </trkpt>
      <trkpt lat="47.79753" lon="6.66013">
        <ele>410</ele>
        <time>2023-05-01T18:44:00.547Z</time>
      </trkpt>
      <trkpt lat="47.79746" lon="6.65999">
        <ele>411</ele>
        <time>2023-05-01T18:44:05.197Z</time>
      </trkpt>
      <trkpt lat="47.79738" lon="6.6599">
        <ele>413</ele>
        <time>2023-05-01T18:44:09.849Z</time>
      </trkpt>
      <trkpt lat="47.79731" lon="6.65969">
        <ele>414</ele>
        <time>2023-05-01T18:44:14.504Z</time>
      </trkpt>
      <trkpt lat="47.79725" lon="6.65913">
        <ele>415</ele>
        <time>2023-05-01T18:44:19.167Z</time>
      </trkpt>
      <trkpt lat="47.79722" lon="6.65902">
        <ele>417</ele>
        <time>2023-05-01T18:44:23.832Z</time>
      </trkpt>
      <trkpt lat="47.79716" lon="6.65892">
        <ele>419</ele>
        <time>2023-05-01T18:44:28.498Z</time>
      </trkpt>
      <trkpt lat="47.79713" lon="6.65891">
        <ele>420</ele>
        <time>2023-05-01T18:44:33.165Z</time>
      </trkpt>
      <trkpt lat="47.79708" lon="6.65892">
        <ele>422</ele>
        <time>2023-05-01T18:44:37.833Z</time>
      </trkpt>
      <trkpt lat="47.79703" lon="6.65897">
        <ele>424</ele>
        <time>2023-05-01T18:44:42.502Z</time>
      </trkpt>
      <trkpt lat="47.79699" lon="6.65912">
        <ele>425</ele>
        <time>2023-05-01T18:44:47.173Z</time>
      </trkpt>
      <trkpt lat="47.79703" lon="6.65927">
        <ele>427</ele>
        <time>2023-05-01T18:44:51.847Z</time>
      </trkpt>
      <trkpt lat="47.79703" lon="6.65943">
        <ele>429</ele>
        <time>2023-05-01T18:44:56.523Z</time>
      </trkpt>
      <trkpt lat="47.79708" lon="6.65955">
        <ele>430</ele>
        <time>2023-05-01T18:45:01.201Z</time>
      </trkpt>
      <trkpt lat="47.79707" lon="6.65975">
        <ele>432</ele>
        <time>2023-05-01T18:45:05.881Z</time>
      </trkpt>
      <trkpt lat="47.79712" lon="6.65992">
        <ele>433</ele>
        <time>2023-05-01T18:45:10.564Z</time>
      </trkpt>
      <trkpt lat="47.79711" lon="6.65997">
        <ele>435</ele>
        <time>2023-05-01T18:45:15.248Z</time>
      </trkpt>
      <trkpt lat="47.79712" lon="6.66001">
        <ele>437</ele>
        <time>2023-05-01T18:45:19.932Z</time>
      </trkpt>
      <trkpt lat="47.79712" lon="6.6601">
        <ele>438</ele>
        <time>2023-05-01T18:45:24.617Z</time>
      </trkpt>
      <trkpt lat="47.79715" lon="6.66013">
        <ele>440</ele>
        <time>2023-05-01T18:45:29.303Z</time>
      </trkpt>
      <trkpt lat="47.79716" lon="6.66023">
        <ele>441</ele>
        <time>2023-05-01T18:45:33.990Z</time>
      </trkpt>
      <trkpt lat="47.79713" lon="6.66039">
        <ele>443</ele>
        <time>2023-05-01T18:45:38.680Z</time>
      </trkpt>
      <trkpt lat="47.79713" lon="6.66055">
        <ele>445</ele>
        <time>2023-05-01T18:45:43.372Z</time>
      </trkpt>
      <trkpt lat="47.79713" lon="6.66066">
        <ele>446</ele>
        <time>2023-05-01T18:45:48.065Z</time>
      </trkpt>
      <trkpt lat="47.79717" lon="6.66076">
        <ele>448</ele>
        <time>2023-05-01T18:45:52.760Z</time>
      </trkpt>
      <trkpt lat="47.79715" lon="6.66081">
        <ele>450</ele>
        <time>2023-05-01T18:45:57.456Z</time>
      </trkpt>
      <trkpt lat="47.79716" lon="6.66086">
        <ele>451</ele>
        <time>2023-05-01T18:46:02.152Z</time>
      </trkpt>
      <trkpt lat="47.79711" lon="6.66096">
        <ele>453</ele>
        <time>2023-05-01T18:46:06.850Z</time>
      </trkpt>
      <trkpt lat="47.79711" lon="6.66102">
        <ele>455</ele>
        <time>2023-05-01T18:46:11.549Z</time>
      </trkpt>
      <trkpt lat="47.7971" lon="6.66132">
        <ele>457</ele>
        <time>2023-05-01T18:46:16.252Z</time>
      </trkpt>
      <trkpt lat="47.79701" lon="6.66158">
        <ele>459</ele>
        <time>2023-05-01T18:46:20.959Z</time>
      </trkpt>
      <trkpt lat="47.79702" lon="6.66163">
        <ele>460</ele>
        <time>2023-05-01T18:46:25.666Z</time>
      </trkpt>
      <trkpt lat="47.79696" lon="6.66186">
        <ele>462</ele>
        <time>2023-05-01T18:46:30.377Z</time>
      </trkpt>
      <trkpt lat="47.79694" lon="6.66207">
        <ele>464</ele>
        <time>2023-05-01T18:46:35.090Z</time>
      </trkpt>
      <trkpt lat="47.79696" lon="6.66218">
        <ele>465</ele>
        <time>2023-05-01T18:46:39.805Z</time>
      </trkpt>
      <trkpt lat="47.7969" lon="6.66229">
        <ele>467</ele>
        <time>2023-05-01T18:46:44.522Z</time>
      </trkpt>
      <trkpt lat="47.79685" lon="6.66254">
        <ele>469</ele>
        <time>2023-05-01T18:46:49.243Z</time>
      </trkpt>
      <trkpt lat="47.79672" lon="6.66292">
        <ele>470</ele>
        <time>2023-05-01T18:46:53.969Z</time>
      </trkpt>
      <trkpt lat="47.79666" lon="6.66302">
        <ele>472</ele>
        <time>2023-05-01T18:46:58.697Z</time>
      </trkpt>
      <trkpt lat="47.79662" lon="6.6634">
        <ele>473</ele>
        <time>2023-05-01T18:47:03.430Z</time>
      </trkpt>
      <trkpt lat="47.79655" lon="6.66366">
        <ele>475</ele>
        <time>2023-05-01T18:47:08.167Z</time>
      </trkpt>
      <trkpt lat="47.79636" lon="6.66409">
        <ele>477</ele>
        <time>2023-05-01T18:47:12.911Z</time>
      </trkpt>
      <trkpt lat="47.79629" lon="6.66417">
        <ele>478</ele>
        <time>2023-05-01T18:47:17.657Z</time>
      </trkpt>
      <trkpt lat="47.79621" lon="6.66431">
        <ele>480</ele>
        <time>2023-05-01T18:47:22.405Z</time>
      </trkpt>
      <trkpt lat="47.79609" lon="6.6647">
        <ele>482</ele>
        <time>2023-05-01T18:47:27.159Z</time>
      </trkpt>
      <trkpt lat="47.79605" lon="6.66473">
        <ele>483</ele>
        <time>2023-05-01T18:47:31.914Z</time>
      </trkpt>
      <trkpt lat="47.7959" lon="6.66505">
        <ele>485</ele>
        <time>2023-05-01T18:47:36.674Z</time>
      </trkpt>
      <trkpt lat="47.79583" lon="6.6651">
        <ele>486</ele>
        <time>2023-05-01T18:47:41.436Z</time>
      </trkpt>
      <trkpt lat="47.79571" lon="6.66528">
        <ele>488</ele>
        <time>2023-05-01T18:47:46.201Z</time>
      </trkpt>
      <trkpt lat="47.7956" lon="6.66538">
        <ele>489</ele>
        <time>2023-05-01T18:47:50.969Z</time>
      </trkpt>
      <trkpt lat="47.79553" lon="6.66551">
        <ele>491</ele>
        <time>2023-05-01T18:47:55.739Z</time>
      </trkpt>
      <trkpt lat="47.79547" lon="6.66559">
        <ele>492</ele>
        <time>2023-05-01T18:48:00.510Z</time>
      </trkpt>
      <trkpt lat="47.79546" lon="6.66563">
        <ele>493</ele>
        <time>2023-05-01T18:48:05.282Z</time>
      </trkpt>
      <trkpt lat="47.7954" lon="6.66567">
        <ele>495</ele>
        <time>2023-05-01T18:48:10.055Z</time>
      </trkpt>
      <trkpt lat="47.79537" lon="6.66577">
        <ele>496</ele>
        <time>2023-05-01T18:48:14.830Z</time>
      </trkpt>
      <trkpt lat="47.79529" lon="6.66587">
        <ele>497</ele>
        <time>2023-05-01T18:48:19.607Z</time>
      </trkpt>
      <trkpt lat="47.79522" lon="6.66593">
        <ele>498</ele>
        <time>2023-05-01T18:48:24.386Z</time>
      </trkpt>
      <trkpt lat="47.79509" lon="6.66612">
        <ele>500</ele>
        <time>2023-05-01T18:48:29.168Z</time>
      </trkpt>
      <trkpt lat="47.79484" lon="6.66634">
        <ele>501</ele>
        <time>2023-05-01T18:48:33.956Z</time>
      </trkpt>
      <trkpt lat="47.79478" lon="6.66643">
        <ele>502</ele>
        <time>2023-05-01T18:48:38.746Z</time>
      </trkpt>
      <trkpt lat="47.79461" lon="6.66653">
        <ele>504</ele>
        <time>2023-05-01T18:48:43.539Z</time>
      </trkpt>
      <trkpt lat="47.79455" lon="6.66662">
        <ele>505</ele>
        <time>2023-05-01T18:48:48.334Z</time>
      </trkpt>
      <trkpt lat="47.79451" lon="6.66664">
        <ele>506</ele>
        <time>2023-05-01T18:48:53.130Z</time>
      </trkpt>
      <trkpt lat="47.79443" lon="6.66675">
        <ele>507</ele>
        <time>2023-05-01T18:48:57.928Z</time>
      </trkpt>
      <trkpt lat="47.79442" lon="6.66674">
        <ele>508</ele>
        <time>2023-05-01T18:49:02.726Z</time>
      </trkpt>
      <trkpt lat="47.7944" lon="6.66678">
        <ele>509</ele>
        <time>2023-05-01T18:49:07.525Z</time>
      </trkpt>
      <trkpt lat="47.7943" lon="6.66683">
        <ele>510</ele>
        <time>2023-05-01T18:49:12.326Z</time>
      </trkpt>
      <trkpt lat="47.79422" lon="6.66695">
        <ele>511</ele>
        <time>2023-05-01T18:49:17.129Z</time>
      </trkpt>
      <trkpt lat="47.79414" lon="6.66713">
        <ele>512</ele>
        <time>2023-05-01T18:49:21.935Z</time>
      </trkpt>
      <trkpt lat="47.794" lon="6.66731">
        <ele>513</ele>
        <time>2023-05-01T18:49:26.745Z</time>
      </trkpt>
      <trkpt lat="47.79386" lon="6.66757">
        <ele>514</ele>
        <time>2023-05-01T18:49:31.559Z</time>
      </trkpt>
      <trkpt lat="47.79382" lon="6.66762">
        <ele>515</ele>
        <time>2023-05-01T18:49:36.375Z</time>
      </trkpt>
      <trkpt lat="47.79378" lon="6.66763">
        <ele>516</ele>
        <time>2023-05-01T18:49:41.191Z</time>
      </trkpt>
      <trkpt lat="47.79375" lon="6.66771">
        <ele>517</ele>
        <time>2023-05-01T18:49:46.009Z</time>
      </trkpt>
      <trkpt lat="47.79369" lon="6.66774">
        <ele>518</ele>
        <time>2023-05-01T18:49:50.828Z</time>
      </trkpt>
      <trkpt lat="47.79358" lon="6.66786">
        <ele>519</ele>
        <time>2023-05-01T18:49:55.650Z</time>
      </trkpt>
      <trkpt lat="47.79356" lon="6.66786">
        <ele>519</ele>
        <time>2023-05-01T18:50:00.472Z</time>
      </trkpt>
      <trkpt lat="47.79353" lon="6.66795">
        <ele>520</ele>
        <time>2023-05-01T18:50:05.295Z</time>
      </trkpt>
      <trkpt lat="47.79338" lon="6.66807">
        <ele>521</ele>
        <time>2023-05-01T18:50:10.122Z</time>
      </trkpt>
      <trkpt lat="47.79332" lon="6.66808">
        <ele>522</ele>
        <time>2023-05-01T18:50:14.950Z</time>
      </trkpt>
      <trkpt lat="47.79323" lon="6.66815">
        <ele>523</ele>
        <time>2023-05-01T18:50:19.780Z</time>
      </trkpt>
      <trkpt lat="47.79319" lon="6.6682">
        <ele>524</ele>
        <time>2023-05-01T18:50:24.611Z</time>
      </trkpt>
      <trkpt lat="47.79309" lon="6.66823">
        <ele>525</ele>
        <time>2023-05-01T18:50:29.444Z</time>
      </trkpt>
      <trkpt lat="47.79303" lon="6.66823">
        <ele>526</ele>
        <time>2023-05-01T18:50:34.278Z</time>
      </trkpt>
      <trkpt lat="47.79298" lon="6.66829">
        <ele>527</ele>
        <time>2023-05-01T18:50:39.114Z</time>
      </trkpt>
      <trkpt lat="47.79285" lon="6.66834">
        <ele>528</ele>
        <time>2023-05-01T18:50:43.952Z</time>
      </trkpt>
      <trkpt lat="47.79281" lon="6.66842">
        <ele>529</ele>
        <time>2023-05-01T18:50:48.791Z</time>
      </trkpt>
      <trkpt lat="47.79278" lon="6.66843">
        <ele>530</ele>
        <time>2023-05-01T18:50:53.631Z</time>
      </trkpt>
      <trkpt lat="47.79256" lon="6.66846">
        <ele>531</ele>
        <time>2023-05-01T18:50:58.475Z</time>
      </trkpt>
      <trkpt lat="47.79243" lon="6.66854">
        <ele>532</ele>
        <time>2023-05-01T18:51:03.322Z</time>
      </trkpt>
      <trkpt lat="47.79233" lon="6.66854">
        <ele>533</ele>
        <time>2023-05-01T18:51:08.171Z</time>
      </trkpt>
      <trkpt lat="47.79219" lon="6.66851">
        <ele>534</ele>
        <time>2023-05-01T18:51:13.023Z</time>
      </trkpt>
      <trkpt lat="47.79216" lon="6.66851">
        <ele>535</ele>
        <time>2023-05-01T18:51:17.876Z</time>
      </trkpt>
      <trkpt lat="47.79212" lon="6.66854">
        <ele>536</ele>
        <time>2023-05-01T18:51:22.730Z</time>
      </trkpt>
      <trkpt lat="47.79193" lon="6.66879">
        <ele>537</ele>
        <time>2023-05-01T18:51:27.589Z</time>
      </trkpt>
      <trkpt lat="47.79195" lon="6.66883">
        <ele>538</ele>
        <time>2023-05-01T18:51:32.448Z</time>
      </trkpt>
      <trkpt lat="47.79194" lon="6.66896">
        <ele>539</ele>
        <time>2023-05-01T18:51:37.309Z</time>
      </trkpt>
      <trkpt lat="47.79191" lon="6.66915">
        <ele>540</ele>
        <time>2023-05-01T18:51:42.173Z</time>
      </trkpt>
      <trkpt lat="47.79194" lon="6.66922">
        <ele>541</ele>
        <time>2023-05-01T18:51:47.038Z</time>
      </trkpt>
      <trkpt lat="47.79194" lon="6.6694">
        <ele>542</ele>
        <time>2023-05-01T18:51:51.905Z</time>
      </trkpt>
      <trkpt lat="47.79188" lon="6.66974">
        <ele>543</ele>
        <time>2023-05-01T18:51:56.777Z</time>
      </trkpt>
      <trkpt lat="47.7919" lon="6.67001">
        <ele>544</ele>
        <time>2023-05-01T18:52:01.653Z</time>
      </trkpt>
      <trkpt lat="47.79189" lon="6.67015">
        <ele>545</ele>
        <time>2023-05-01T18:52:06.531Z</time>
      </trkpt>
      <trkpt lat="47.79194" lon="6.67065">
        <ele>546</ele>
        <time>2023-05-01T18:52:11.415Z</time>
      </trkpt>
      <trkpt lat="47.79201" lon="6.67093">
        <ele>548</ele>
        <time>2023-05-01T18:52:16.303Z</time>
      </trkpt>
      <trkpt lat="47.79203" lon="6.67097">
        <ele>549</ele>
        <time>2023-05-01T18:52:21.192Z</time>
      </trkpt>
      <trkpt lat="47.79204" lon="6.67109">
        <ele>550</ele>
        <time>2023-05-01T18:52:26.083Z</time>
      </trkpt>
      <trkpt lat="47.79198" lon="6.67134">
        <ele>551</ele>
        <time>2023-05-01T18:52:30.977Z</time>
      </trkpt>
      <trkpt lat="47.79198" lon="6.6715">
        <ele>552</ele>
        <time>2023-05-01T18:52:35.873Z</time>
      </trkpt>
      <trkpt lat="47.79195" lon="6.67157">
        <ele>553</ele>
        <time>2023-05-01T18:52:40.771Z</time>
      </trkpt>
      <trkpt lat="47.79188" lon="6.67168">
        <ele>555</ele>
        <time>2023-05-01T18:52:45.671Z</time>
      </trkpt>
      <trkpt lat="47.79182" lon="6.67186">
        <ele>556</ele>
        <time>2023-05-01T18:52:50.573Z</time>
      </trkpt>
      <trkpt lat="47.79176" lon="6.67198">
        <ele>557</ele>
        <time>2023-05-01T18:52:55.477Z</time>
      </trkpt>
      <trkpt lat="47.79179" lon="6.67206">
        <ele>558</ele>
        <time>2023-05-01T18:53:00.383Z</time>
      </trkpt>
      <trkpt lat="47.79178" lon="6.67215">
        <ele>560</ele>
        <time>2023-05-01T18:53:05.290Z</time>
      </trkpt>
      <trkpt lat="47.79175" lon="6.67225">
        <ele>561</ele>
        <time>2023-05-01T18:53:10.198Z</time>
      </trkpt>
      <trkpt lat="47.79175" lon="6.6723">
        <ele>562</ele>
        <time>2023-05-01T18:53:15.107Z</time>
      </trkpt>
      <trkpt lat="47.79166" lon="6.67273">
        <ele>563</ele>
        <time>2023-05-01T18:53:20.022Z</time>
      </trkpt>
      <trkpt lat="47.79169" lon="6.67296">
        <ele>564</ele>
        <time>2023-05-01T18:53:24.940Z</time>
      </trkpt>
      <trkpt lat="47.79183" lon="6.67316">
        <ele>565</ele>
        <time>2023-05-01T18:53:29.862Z</time>
      </trkpt>
      <trkpt lat="47.79192" lon="6.6732">
        <ele>567</ele>
        <time>2023-05-01T18:53:34.786Z</time>
      </trkpt>
      <trkpt lat="47.79195" lon="6.67323">
        <ele>568</ele>
        <time>2023-05-01T18:53:39.711Z</time>
      </trkpt>
      <trkpt lat="47.79226" lon="6.67341">
        <ele>569</ele>
        <time>2023-05-01T18:53:44.642Z</time>
      </trkpt>
      <trkpt lat="47.79237" lon="6.67349">
        <ele>570</ele>
        <time>2023-05-01T18:53:49.576Z</time>
      </trkpt>
      <trkpt lat="47.79252" lon="6.67367">
        <ele>571</ele>
        <time>2023-05-01T18:53:54.514Z</time>
      </trkpt>
      <trkpt lat="47.79259" lon="6.67381">
        <ele>572</ele>
        <time>2023-05-01T18:53:59.454Z</time>
      </trkpt>
      <trkpt lat="47.79263" lon="6.67387">
        <ele>574</ele>
        <time>2023-05-01T18:54:04.395Z</time>
      </trkpt>
      <trkpt lat="47.79268" lon="6.67392">
        <ele>575</ele>
        <time>2023-05-01T18:54:09.337Z</time>
      </trkpt>
      <trkpt lat="47.79275" lon="6.67402">
        <ele>576</ele>
        <time>2023-05-01T18:54:14.281Z</time>
      </trkpt>
      <trkpt lat="47.79277" lon="6.67411">
        <ele>577</ele>
        <time>2023-05-01T18:54:19.227Z</time>
      </trkpt>
      <trkpt lat="47.79294" lon="6.67431">
        <ele>578</ele>
        <time>2023-05-01T18:54:24.177Z</time>
      </trkpt>
      <trkpt lat="47.79297" lon="6.67445">
        <ele>579</ele>
        <time>2023-05-01T18:54:29.129Z</time>
      </trkpt>
      <trkpt lat="47.79309" lon="6.67468">
        <ele>580</ele>
        <time>2023-05-01T18:54:34.085Z</time>
      </trkpt>
      <trkpt lat="47.79311" lon="6.67475">
        <ele>581</ele>
        <time>2023-05-01T18:54:39.042Z</time>
      </trkpt>
      <trkpt lat="47.79308" lon="6.67482">
        <ele>582</ele>
        <time>2023-05-01T18:54:44.000Z</time>
      </trkpt>
      <trkpt lat="47.79304" lon="6.67483">
        <ele>583</ele>
        <time>2023-05-01T18:54:48.959Z</time>
      </trkpt>
      <trkpt lat="47.79284" lon="6.67456">
        <ele>585</ele>
        <time>2023-05-01T18:54:53.923Z</time>
      </trkpt>
      <trkpt lat="47.79259" lon="6.6743">
        <ele>586</ele>
        <time>2023-05-01T18:54:58.893Z</time>
      </trkpt>
      <trkpt lat="47.79243" lon="6.6742">
        <ele>587</ele>
        <time>2023-05-01T18:55:03.867Z</time>
      </trkpt>
      <trkpt lat="47.7923" lon="6.67415">
        <ele>588</ele>
        <time>2023-05-01T18:55:08.843Z</time>
      </trkpt>
      <trkpt lat="47.79208" lon="6.6741">
        <ele>589</ele>
        <time>2023-05-01T18:55:13.824Z</time>
      </trkpt>
      <trkpt lat="47.79206" lon="6.67411">
        <ele>590</ele>
        <time>2023-05-01T18:55:18.805Z</time>
      </trkpt>
      <trkpt lat="47.79206" lon="6.67414">
        <ele>591</ele>
        <time>2023-05-01T18:55:23.787Z</time>
      </trkpt>
      <trkpt lat="47.79201" lon="6.67415">
        <ele>592</ele>
        <time>2023-05-01T18:55:28.770Z</time>
      </trkpt>
      <trkpt lat="47.79193" lon="6.67415">
        <ele>593</ele>
        <time>2023-05-01T18:55:33.754Z</time>
      </trkpt>
      <trkpt lat="47.79188" lon="6.67419">
        <ele>594</ele>
        <time>2023-05-01T18:55:38.739Z</time>
      </trkpt>
      <trkpt lat="47.79176" lon="6.67417">
        <ele>595</ele>
        <time>2023-05-01T18:55:43.727Z</time>
      </trkpt>
      <trkpt lat="47.79173" lon="6.67419">
        <ele>596</ele>
        <time>2023-05-01T18:55:48.715Z</time>
      </trkpt>
      <trkpt lat="47.79162" lon="6.6742">
        <ele>597</ele>
        <time>2023-05-01T18:55:53.706Z</time>
      </trkpt>
      <trkpt lat="47.79158" lon="6.67432">
        <ele>598</ele>
        <time>2023-05-01T18:55:58.698Z</time>
      </trkpt>
      <trkpt lat="47.79149" lon="6.67436">
        <ele>599</ele>
        <time>2023-05-01T18:56:03.692Z</time>
      </trkpt>
      <trkpt lat="47.79137" lon="6.67446">
        <ele>600</ele>
        <time>2023-05-01T18:56:08.689Z</time>
      </trkpt>
      <trkpt lat="47.79128" lon="6.6745">
        <ele>600</ele>
        <time>2023-05-01T18:56:13.688Z</time>
      </trkpt>
      <trkpt lat="47.79123" lon="6.67454">
        <ele>601</ele>
        <time>2023-05-01T18:56:18.688Z</time>
      </trkpt>
      <trkpt lat="47.79093" lon="6.67465">
        <ele>602</ele>
        <time>2023-05-01T18:56:23.694Z</time>
      </trkpt>
      <trkpt lat="47.7908" lon="6.67467">
        <ele>603</ele>
        <time>2023-05-01T18:56:28.703Z</time>
      </trkpt>
      <trkpt lat="47.79077" lon="6.67465">
        <ele>604</ele>
        <time>2023-05-01T18:56:33.713Z</time>
      </trkpt>
      <trkpt lat="47.79073" lon="6.67465">
        <ele>605</ele>
        <time>2023-05-01T18:56:38.723Z</time>
      </trkpt>
      <trkpt lat="47.79061" lon="6.67474">
        <ele>606</ele>
        <time>2023-05-01T18:56:43.736Z</time>
      </trkpt>
      <trkpt lat="47.79042" lon="6.67474">
        <ele>607</ele>
        <time>2023-05-01T18:56:48.753Z</time>
      </trkpt>
      <trkpt lat="47.79033" lon="6.67475">
        <ele>608</ele>
        <time>2023-05-01T18:56:53.772Z</time>
      </trkpt>
      <trkpt lat="47.79024" lon="6.67471">
        <ele>609</ele>
        <time>2023-05-01T18:56:58.792Z</time>
      </trkpt>
      <trkpt lat="47.79014" lon="6.67474">
        <ele>609</ele>
        <time>2023-05-01T18:57:03.815Z</time>
      </trkpt>
      <trkpt lat="47.78998" lon="6.67472">
        <ele>610</ele>
        <time>2023-05-01T18:57:08.841Z</time>
      </trkpt>
      <trkpt lat="47.78994" lon="6.67475">
        <ele>611</ele>
        <time>2023-05-01T18:57:13.868Z</time>
      </trkpt>
      <trkpt lat="47.78991" lon="6.67474">
        <ele>612</ele>
        <time>2023-05-01T18:57:18.895Z</time>
      </trkpt>
      <trkpt lat="47.78988" lon="6.67476">
        <ele>613</ele>
        <time>2023-05-01T18:57:23.923Z</time>
      </trkpt>
      <trkpt lat="47.78973" lon="6.67473">
        <ele>613</ele>
        <time>2023-05-01T18:57:28.954Z</time>
      </trkpt>
      <trkpt lat="47.78969" lon="6.67475">
        <ele>614</ele>
        <time>2023-05-01T18:57:33.986Z</time>
      </trkpt>
      <trkpt lat="47.78967" lon="6.67475">
        <ele>615</ele>
        <time>2023-05-01T18:57:39.018Z</time>
      </trkpt>
      <trkpt lat="47.78954" lon="6.67479">
        <ele>615</ele>
        <time>2023-05-01T18:57:44.053Z</time>
      </trkpt>
      <trkpt lat="47.78944" lon="6.67478">
        <ele>616</ele>
        <time>2023-05-01T18:57:49.090Z</time>
      </trkpt>
      <trkpt lat="47.7894" lon="6.67475">
        <ele>617</ele>
        <time>2023-05-01T18:57:54.128Z</time>
      </trkpt>
      <trkpt lat="47.78939" lon="6.67471">
        <ele>617</ele>
        <time>2023-05-01T18:57:59.166Z</time>
      </trkpt>
      <trkpt lat="47.78941" lon="6.67464">
        <ele>618</ele>
        <time>2023-05-01T18:58:04.205Z</time>
      </trkpt>
      <trkpt lat="47.78953" lon="6.67454">
        <ele>619</ele>
        <time>2023-05-01T18:58:09.247Z</time>
      </trkpt>
      <trkpt lat="47.78965" lon="6.67437">
        <ele>619</ele>
        <time>2023-05-01T18:58:14.293Z</time>
      </trkpt>
      <trkpt lat="47.78968" lon="6.67431">
        <ele>620</ele>
        <time>2023-05-01T18:58:19.340Z</time>
      </trkpt>
      <trkpt lat="47.78973" lon="6.67411">
        <ele>621</ele>
        <time>2023-05-01T18:58:24.389Z</time>
      </trkpt>
      <trkpt lat="47.7896" lon="6.67372">
        <ele>621</ele>
        <time>2023-05-01T18:58:29.444Z</time>
      </trkpt>
      <trkpt lat="47.78946" lon="6.67349">
        <ele>622</ele>
        <time>2023-05-01T18:58:34.503Z</time>
      </trkpt>
      <trkpt lat="47.78945" lon="6.67346">
        <ele>623</ele>
        <time>2023-05-01T18:58:39.563Z</time>
      </trkpt>
      <trkpt lat="47.78946" lon="6.67339">
        <ele>623</ele>
        <time>2023-05-01T18:58:44.624Z</time>
      </trkpt>
      <trkpt lat="47.78943" lon="6.67328">
        <ele>624</ele>
        <time>2023-05-01T18:58:49.686Z</time>
      </trkpt>
      <trkpt lat="47.78937" lon="6.67325">
        <ele>625</ele>
        <time>2023-05-01T18:58:54.750Z</time>
      </trkpt>
      <trkpt lat="47.78933" lon="6.67305">
        <ele>626</ele>
        <time>2023-05-01T18:58:59.816Z</time>
      </trkpt>
      <trkpt lat="47.78933" lon="6.6729">
        <ele>627</ele>
        <time>2023-05-01T18:59:04.884Z</time>
      </trkpt>
      <trkpt lat="47.78941" lon="6.67238">
        <ele>627</ele>
        <time>2023-05-01T18:59:09.960Z</time>
      </trkpt>
      <trkpt lat="47.78941" lon="6.67218">
        <ele>628</ele>
        <time>2023-05-01T18:59:15.038Z</time>
      </trkpt>
      <trkpt lat="47.78938" lon="6.67191">
        <ele>629</ele>
        <time>2023-05-01T18:59:20.120Z</time>
      </trkpt>
      <trkpt lat="47.78928" lon="6.6717">
        <ele>630</ele>
        <time>2023-05-01T18:59:25.205Z</time>
      </trkpt>
      <trkpt lat="47.7892" lon="6.67162">
        <ele>631</ele>
        <time>2023-05-01T18:59:30.292Z</time>
      </trkpt>
      <trkpt lat="47.78912" lon="6.67161">
        <ele>633</ele>
        <time>2023-05-01T18:59:35.381Z</time>
      </trkpt>
      <trkpt lat="47.78906" lon="6.67167">
        <ele>634</ele>
        <time>2023-05-01T18:59:40.472Z</time>
      </trkpt>
      <trkpt lat="47.78904" lon="6.67176">
        <ele>635</ele>
        <time>2023-05-01T18:59:45.564Z</time>
      </trkpt>
      <trkpt lat="47.78919" lon="6.67207">
        <ele>636</ele>
        <time>2023-05-01T18:59:50.661Z</time>
      </trkpt>
      <trkpt lat="47.78922" lon="6.67235">
        <ele>637</ele>
        <time>2023-05-01T18:59:55.762Z</time>
      </trkpt>
      <trkpt lat="47.78916" lon="6.67257">
        <ele>639</ele>
        <time>2023-05-01T19:00:00.866Z</time>
      </trkpt>
      <trkpt lat="47.78908" lon="6.67275">
        <ele>640</ele>
        <time>2023-05-01T19:00:05.973Z</time>
      </trkpt>
      <trkpt lat="47.78898" lon="6.67285">
        <ele>642</ele>
        <time>2023-05-01T19:00:11.082Z</time>
      </trkpt>
      <trkpt lat="47.78891" lon="6.67308">
        <ele>643</ele>
        <time>2023-05-01T19:00:16.195Z</time>
      </trkpt>
      <trkpt lat="47.78881" lon="6.67331">
        <ele>645</ele>
        <time>2023-05-01T19:00:21.311Z</time>
      </trkpt>
      <trkpt lat="47.78877" lon="6.67366">
        <ele>647</ele>
        <time>2023-05-01T19:00:26.432Z</time>
      </trkpt>
      <trkpt lat="47.78872" lon="6.67369">
        <ele>648</ele>
        <time>2023-05-01T19:00:31.554Z</time>
      </trkpt>
      <trkpt lat="47.78865" lon="6.67381">
        <ele>650</ele>
        <time>2023-05-01T19:00:36.678Z</time>
      </trkpt>
      <trkpt lat="47.7886" lon="6.67386">
        <ele>652</ele>
        <time>2023-05-01T19:00:41.804Z</time>
      </trkpt>
      <trkpt lat="47.78852" lon="6.67403">
        <ele>654</ele>
        <time>2023-05-01T19:00:46.932Z</time>
      </trkpt>
      <trkpt lat="47.78847" lon="6.67409">
        <ele>656</ele>
        <time>2023-05-01T19:00:52.062Z</time>
      </trkpt>
      <trkpt lat="47.7883" lon="6.67423">
        <ele>658</ele>
        <time>2023-05-01T19:00:57.196Z</time>
      </trkpt>
      <trkpt lat="47.78825" lon="6.67431">
        <ele>660</ele>
        <time>2023-05-01T19:01:02.331Z</time>
      </trkpt>
      <trkpt lat="47.78818" lon="6.67434">
        <ele>663</ele>
        <time>2023-05-01T19:01:07.467Z</time>
      </trkpt>
      <trkpt lat="47.78807" lon="6.67447">
        <ele>665</ele>
        <time>2023-05-01T19:01:12.606Z</time>
      </trkpt>
      <trkpt lat="47.78786" lon="6.67479">
        <ele>667</ele>
        <time>2023-05-01T19:01:17.751Z</time>
      </trkpt>
      <trkpt lat="47.7878" lon="6.67497">
        <ele>669</ele>
        <time>2023-05-01T19:01:22.899Z</time>
      </trkpt>
      <trkpt lat="47.78778" lon="6.67497">
        <ele>671</ele>
        <time>2023-05-01T19:01:28.047Z</time>
      </trkpt>
      <trkpt lat="47.78772" lon="6.67507">
        <ele>674</ele>
        <time>2023-05-01T19:01:33.197Z</time>
      </trkpt>
      <trkpt lat="47.78767" lon="6.67511">
        <ele>676</ele>
        <time>2023-05-01T19:01:38.349Z</time>
      </trkpt>
      <trkpt lat="47.78761" lon="6.6752">
        <ele>678</ele>
        <time>2023-05-01T19:01:43.502Z</time>
      </trkpt>
      <trkpt lat="47.78755" lon="6.67524">
        <ele>680</ele>
        <time>2023-05-01T19:01:48.656Z</time>
      </trkpt>
      <trkpt lat="47.78741" lon="6.67539">
        <ele>683</ele>
        <time>2023-05-01T19:01:53.814Z</time>
      </trkpt>
      <trkpt lat="47.78717" lon="6.67597">
        <ele>685</ele>
        <time>2023-05-01T19:01:58.981Z</time>
      </trkpt>
      <trkpt lat="47.78716" lon="6.6761">
        <ele>687</ele>
        <time>2023-05-01T19:02:04.150Z</time>
      </trkpt>
      <trkpt lat="47.787" lon="6.67672">
        <ele>690</ele>
        <time>2023-05-01T19:02:09.328Z</time>
      </trkpt>
      <trkpt lat="47.78694" lon="6.67682">
        <ele>692</ele>
        <time>2023-05-01T19:02:14.508Z</time>
      </trkpt>
      <trkpt lat="47.78688" lon="6.67696">
        <ele>694</ele>
        <time>2023-05-01T19:02:19.690Z</time>
      </trkpt>
      <trkpt lat="47.78658" lon="6.67722">
        <ele>696</ele>
        <time>2023-05-01T19:02:24.879Z</time>
      </trkpt>
      <trkpt lat="47.78642" lon="6.67755">
        <ele>698</ele>
        <time>2023-05-01T19:02:30.073Z</time>
      </trkpt>
      <trkpt lat="47.78637" lon="6.6776">
        <ele>700</ele>
        <time>2023-05-01T19:02:35.269Z</time>
      </trkpt>
      <trkpt lat="47.78634" lon="6.67788">
        <ele>702</ele>
        <time>2023-05-01T19:02:40.469Z</time>
      </trkpt>
      <trkpt lat="47.78631" lon="6.67801">
        <ele>704</ele>
        <time>2023-05-01T19:02:45.670Z</time>
      </trkpt>
      <trkpt lat="47.78632" lon="6.6781">
        <ele>705</ele>
        <time>2023-05-01T19:02:50.873Z</time>
      </trkpt>
      <trkpt lat="47.78635" lon="6.67814">
        <ele>707</ele>
        <time>2023-05-01T19:02:56.076Z</time>
      </trkpt>
      <trkpt lat="47.78636" lon="6.67818">
        <ele>709</ele>
        <time>2023-05-01T19:03:01.280Z</time>
      </trkpt>
      <trkpt lat="47.78635" lon="6.67824">
        <ele>710</ele>
        <time>2023-05-01T19:03:06.485Z</time>
      </trkpt>
      <trkpt lat="47.78641" lon="6.67838">
        <ele>712</ele>
        <time>2023-05-01T19:03:11.692Z</time>
      </trkpt>
      <trkpt lat="47.78642" lon="6.67847">
        <ele>713</ele>
        <time>2023-05-01T19:03:16.900Z</time>
      </trkpt>
      <trkpt lat="47.7865" lon="6.67869">
        <ele>715</ele>
        <time>2023-05-01T19:03:22.112Z</time>
      </trkpt>
      <trkpt lat="47.78651" lon="6.67884">
        <ele>716</ele>
        <time>2023-05-01T19:03:27.326Z</time>
      </trkpt>
      <trkpt lat="47.7865" lon="6.67892">
        <ele>717</ele>
        <time>2023-05-01T19:03:32.541Z</time>
      </trkpt>
      <trkpt lat="47.78661" lon="6.67924">
        <ele>719</ele>
        <time>2023-05-01T19:03:37.761Z</time>
      </trkpt>
      <trkpt lat="47.7867" lon="6.67928">
        <ele>720</ele>
        <time>2023-05-01T19:03:42.982Z</time>
      </trkpt>
      <trkpt lat="47.78683" lon="6.67923">
        <ele>721</ele>
        <time>2023-05-01T19:03:48.206Z</time>
      </trkpt>
      <trkpt lat="47.78692" lon="6.67926">
        <ele>722</ele>
        <time>2023-05-01T19:03:53.432Z</time>
      </trkpt>
      <trkpt lat="47.78704" lon="6.67936">
        <ele>724</ele>
        <time>2023-05-01T19:03:58.661Z</time>
      </trkpt>
      <trkpt lat="47.7872" lon="6.67954">
        <ele>725</ele>
        <time>2023-05-01T19:04:03.894Z</time>
      </trkpt>
      <trkpt lat="47.78725" lon="6.67958">
        <ele>726</ele>
        <time>2023-05-01T19:04:09.128Z</time>
      </trkpt>
      <trkpt lat="47.78731" lon="6.67957">
        <ele>727</ele>
        <time>2023-05-01T19:04:14.363Z</time>
      </trkpt>
      <trkpt lat="47.78736" lon="6.67953">
        <ele>728</ele>
        <time>2023-05-01T19:04:19.599Z</time>
      </trkpt>
      <trkpt lat="47.78741" lon="6.67947">
        <ele>729</ele>
        <time>2023-05-01T19:04:24.837Z</time>
      </trkpt>
      <trkpt lat="47.78749" lon="6.67952">
        <ele>729</ele>
        <time>2023-05-01T19:04:30.076Z</time>
      </trkpt>
      <trkpt lat="47.78769" lon="6.67949">
        <ele>730</ele>
        <time>2023-05-01T19:04:35.319Z</time>
      </trkpt>
      <trkpt lat="47.78775" lon="6.67952">
        <ele>731</ele>
        <time>2023-05-01T19:04:40.564Z</time>
      </trkpt>
      <trkpt lat="47.78778" lon="6.6795">
        <ele>732</ele>
        <time>2023-05-01T19:04:45.809Z</time>
      </trkpt>
      <trkpt lat="47.78788" lon="6.67957">
        <ele>733</ele>
        <time>2023-05-01T19:04:51.056Z</time>
      </trkpt>
      <trkpt lat="47.78794" lon="6.67959">
        <ele>734</ele>
        <time>2023-05-01T19:04:56.305Z</time>
      </trkpt>
      <trkpt lat="47.78803" lon="6.67971">
        <ele>735</ele>
        <time>2023-05-01T19:05:01.556Z</time>
      </trkpt>
      <trkpt lat="47.78821" lon="6.67988">
        <ele>736</ele>
        <time>2023-05-01T19:05:06.811Z</time>
      </trkpt>
      <trkpt lat="47.78825" lon="6.6799">
        <ele>737</ele>
        <time>2023-05-01T19:05:12.067Z</time>
      </trkpt>
      <trkpt lat="47.7883" lon="6.67997">
        <ele>738</ele>
        <time>2023-05-01T19:05:17.325Z</time>
      </trkpt>
      <trkpt lat="47.78834" lon="6.68001">
        <ele>738</ele>
        <time>2023-05-01T19:05:22.584Z</time>
      </trkpt>
      <trkpt lat="47.78834" lon="6.68006">
        <ele>739</ele>
        <time>2023-05-01T19:05:27.843Z</time>
      </trkpt>
      <trkpt lat="47.78837" lon="6.68009">
        <ele>740</ele>
        <time>2023-05-01T19:05:33.103Z</time>
      </trkpt>
      <trkpt lat="47.78842" lon="6.68012">
        <ele>741</ele>
        <time>2023-05-01T19:05:38.364Z</time>
      </trkpt>
      <trkpt lat="47.78862" lon="6.68019">
        <ele>741</ele>
        <time>2023-05-01T19:05:43.629Z</time>
      </trkpt>
      <trkpt lat="47.78883" lon="6.68036">
        <ele>742</ele>
        <time>2023-05-01T19:05:48.899Z</time>
      </trkpt>
      <trkpt lat="47.78887" lon="6.68036">
        <ele>743</ele>
        <time>2023-05-01T19:05:54.170Z</time>
      </trkpt>
      <trkpt lat="47.78897" lon="6.68055">
        <ele>743</ele>
        <time>2023-05-01T19:05:59.444Z</time>
      </trkpt>
      <trkpt lat="47.78907" lon="6.68064">
        <ele>744</ele>
        <time>2023-05-01T19:06:04.720Z</time>
      </trkpt>
      <trkpt lat="47.78926" lon="6.68092">
        <ele>745</ele>
        <time>2023-05-01T19:06:10.002Z</time>
      </trkpt>
      <trkpt lat="47.78934" lon="6.68106">
        <ele>746</ele>
        <time>2023-05-01T19:06:15.286Z</time>
      </trkpt>
      <trkpt lat="47.78949" lon="6.68114">
        <ele>746</ele>
        <time>2023-05-01T19:06:20.573Z</time>
      </trkpt>
      <trkpt lat="47.78951" lon="6.6812">
        <ele>747</ele>
        <time>2023-05-01T19:06:25.861Z</time>
      </trkpt>
      <trkpt lat="47.7895" lon="6.68124">
        <ele>748</ele>
        <time>2023-05-01T19:06:31.150Z</time>
      </trkpt>
      <trkpt lat="47.78949" lon="6.68124">
        <ele>748</ele>
        <time>2023-05-01T19:06:36.439Z</time>
      </trkpt>
      <trkpt lat="47.78948" lon="6.68122">
        <ele>749</ele>
        <time>2023-05-01T19:06:41.728Z</time>
      </trkpt>
      <trkpt lat="47.78952" lon="6.68118">
        <ele>750</ele>
        <time>2023-05-01T19:06:47.018Z</time>
      </trkpt>
      <trkpt lat="47.78965" lon="6.6813">
        <ele>750</ele>
        <time>2023-05-01T19:06:52.312Z</time>
      </trkpt>
      <trkpt lat="47.78945" lon="6.6812">
        <ele>751</ele>
        <time>2023-05-01T19:06:57.610Z</time>
      </trkpt>
      <trkpt lat="47.78924" lon="6.68115">
        <ele>752</ele>
        <time>2023-05-01T19:07:02.912Z</time>
      </trkpt>
      <trkpt lat="47.78906" lon="6.68102">
        <ele>752</ele>
        <time>2023-05-01T19:07:08.218Z</time>
      </trkpt>
      <trkpt lat="47.78896" lon="6.68098">
        <ele>753</ele>
        <time>2023-05-01T19:07:13.526Z</time>
      </trkpt>
      <trkpt lat="47.78889" lon="6.68097">
        <ele>754</ele>
        <time>2023-05-01T19:07:18.836Z</time>
      </trkpt>
      <trkpt lat="47.78871" lon="6.68104">
        <ele>754</ele>
        <time>2023-05-01T19:07:24.149Z</time>
      </trkpt>
      <trkpt lat="47.78848" lon="6.68092">
        <ele>755</ele>
        <time>2023-05-01T19:07:29.467Z</time>
      </trkpt>
      <trkpt lat="47.78839" lon="6.68094">
        <ele>756</ele>
        <time>2023-05-01T19:07:34.787Z</time>
      </trkpt>
      <trkpt lat="47.78831" lon="6.68097">
        <ele>756</ele>
        <time>2023-05-01T19:07:40.109Z</time>
      </trkpt>
      <trkpt lat="47.78813" lon="6.68114">
        <ele>757</ele>
        <time>2023-05-01T19:07:45.435Z</time>
      </trkpt>
      <trkpt lat="47.78806" lon="6.68124">
        <ele>757</ele>
        <time>2023-05-01T19:07:50.763Z</time>
      </trkpt>
      <trkpt lat="47.78802" lon="6.68138">
        <ele>758</ele>
        <time>2023-05-01T19:07:56.093Z</time>
      </trkpt>
      <trkpt lat="47.788" lon="6.68157">
        <ele>758</ele>
        <time>2023-05-01T19:08:01.426Z</time>
      </trkpt>
      <trkpt lat="47.78803" lon="6.68166">
        <ele>758</ele>
        <time>2023-05-01T19:08:06.760Z</time>
      </trkpt>
      <trkpt lat="47.78803" lon="6.68211">
        <ele>758</ele>
        <time>2023-05-01T19:08:12.100Z</time>
      </trkpt>
      <trkpt lat="47.78796" lon="6.68233">
        <ele>759</ele>
        <time>2023-05-01T19:08:17.443Z</time>
      </trkpt>
      <trkpt lat="47.78795" lon="6.68255">
        <ele>759</ele>
        <time>2023-05-01T19:08:22.789Z</time>
      </trkpt>
      <trkpt lat="47.78792" lon="6.68268">
        <ele>759</ele>
        <time>2023-05-01T19:08:28.137Z</time>
      </trkpt>
      <trkpt lat="47.78785" lon="6.68284">
        <ele>759</ele>
        <time>2023-05-01T19:08:33.487Z</time>
      </trkpt>
      <trkpt lat="47.78781" lon="6.68289">
        <ele>759</ele>
        <time>2023-05-01T19:08:38.839Z</time>
      </trkpt>
      <trkpt lat="47.78776" lon="6.6829">
        <ele>759</ele>
        <time>2023-05-01T19:08:44.192Z</time>
      </trkpt>
      <trkpt lat="47.78769" lon="6.68287">
        <ele>759</ele>
        <time>2023-05-01T19:08:49.546Z</time>
      </trkpt>
      <trkpt lat="47.78752" lon="6.68265">
        <ele>759</ele>
        <time>2023-05-01T19:08:54.905Z</time>
      </trkpt>
      <trkpt lat="47.78703" lon="6.68239">
        <ele>759</ele>
        <time>2023-05-01T19:09:00.274Z</time>
      </trkpt>
      <trkpt lat="47.78697" lon="6.68234">
        <ele>759</ele>
        <time>2023-05-01T19:09:05.644Z</time>
      </trkpt>
      <trkpt lat="47.78694" lon="6.68229">
        <ele>759</ele>
        <time>2023-05-01T19:09:11.015Z</time>
      </trkpt>
      <trkpt lat="47.78679" lon="6.68217">
        <ele>759</ele>
        <time>2023-05-01T19:09:16.390Z</time>
      </trkpt>
      <trkpt lat="47.78666" lon="6.68211">
        <ele>759</ele>
        <time>2023-05-01T19:09:21.767Z</time>
      </trkpt>
      <trkpt lat="47.78642" lon="6.68214">
        <ele>759</ele>
        <time>2023-05-01T19:09:27.149Z</time>
      </trkpt>
      <trkpt lat="47.78636" lon="6.68212">
        <ele>758</ele>
        <time>2023-05-01T19:09:32.532Z</time>
      </trkpt>
      <trkpt lat="47.78619" lon="6.68203">
        <ele>758</ele>
        <time>2023-05-01T19:09:37.919Z</time>
      </trkpt>
      <trkpt lat="47.78608" lon="6.68191">
        <ele>758</ele>
        <time>2023-05-01T19:09:43.309Z</time>
      </trkpt>
      <trkpt lat="47.78592" lon="6.68189">
        <ele>758</ele>
        <time>2023-05-01T19:09:48.702Z</time>
      </trkpt>
      <trkpt lat="47.78574" lon="6.68195">
        <ele>758</ele>
        <time>2023-05-01T19:09:54.099Z</time>
      </trkpt>
      <trkpt lat="47.78559" lon="6.68205">
        <ele>757</ele>
        <time>2023-05-01T19:09:59.499Z</time>
      </trkpt>
      <trkpt lat="47.78556" lon="6.68214">
        <ele>757</ele>
        <time>2023-05-01T19:10:04.900Z</time>
      </trkpt>
      <trkpt lat="47.78556" lon="6.68233">
        <ele>757</ele>
        <time>2023-05-01T19:10:10.304Z</time>
      </trkpt>
      <trkpt lat="47.78562" lon="6.68252">
        <ele>757</ele>
        <time>2023-05-01T19:10:15.711Z</time>
      </trkpt>
      <trkpt lat="47.78563" lon="6.68263">
        <ele>757</ele>
        <time>2023-05-01T19:10:21.119Z</time>
      </trkpt>
      <trkpt lat="47.78559" lon="6.68293">
        <ele>757</ele>
        <time>2023-05-01T19:10:26.531Z</time>
      </trkpt>
      <trkpt lat="47.78557" lon="6.68301">
        <ele>757</ele>
        <time>2023-05-01T19:10:31.945Z</time>
      </trkpt>
      <trkpt lat="47.78568" lon="6.68342">
        <ele>758</ele>
        <time>2023-05-01T19:10:37.365Z</time>
      </trkpt>
      <trkpt lat="47.78567" lon="6.684">
        <ele>758</ele>
        <time>2023-05-01T19:10:42.792Z</time>
      </trkpt>
      <trkpt lat="47.78569" lon="6.68426">
        <ele>758</ele>
        <time>2023-05-01T19:10:48.223Z</time>
      </trkpt>
      <trkpt lat="47.78575" lon="6.68451">
        <ele>758</ele>
        <time>2023-05-01T19:10:53.658Z</time>
      </trkpt>
      <trkpt lat="47.78575" lon="6.68476">
        <ele>758</ele>
        <time>2023-05-01T19:10:59.096Z</time>
      </trkpt>
      <trkpt lat="47.78583" lon="6.68504">
        <ele>759</ele>
        <time>2023-05-01T19:11:04.538Z</time>
      </trkpt>
      <trkpt lat="47.78588" lon="6.68515">
        <ele>759</ele>
        <time>2023-05-01T19:11:09.982Z</time>
      </trkpt>
      <trkpt lat="47.7859" lon="6.68529">
        <ele>760</ele>
        <time>2023-05-01T19:11:15.428Z</time>
      </trkpt>
      <trkpt lat="47.78598" lon="6.68539">
        <ele>760</ele>
        <time>2023-05-01T19:11:20.876Z</time>
      </trkpt>
      <trkpt lat="47.78602" lon="6.68558">
        <ele>760</ele>
        <time>2023-05-01T19:11:26.326Z</time>
      </trkpt>
      <trkpt lat="47.78606" lon="6.68569">
        <ele>761</ele>
        <time>2023-05-01T19:11:31.778Z</time>
      </trkpt>
      <trkpt lat="47.78603" lon="6.68577">
        <ele>761</ele>
        <time>2023-05-01T19:11:37.231Z</time>
      </trkpt>
      <trkpt lat="47.786" lon="6.68607">
        <ele>762</ele>
        <time>2023-05-01T19:11:42.688Z</time>
      </trkpt>
      <trkpt lat="47.78603" lon="6.68633">
        <ele>763</ele>
        <time>2023-05-01T19:11:48.149Z</time>
      </trkpt>
      <trkpt lat="47.78612" lon="6.68649">
        <ele>763</ele>
        <time>2023-05-01T19:11:53.613Z</time>
      </trkpt>
      <trkpt lat="47.78614" lon="6.6866">
        <ele>764</ele>
        <time>2023-05-01T19:11:59.078Z</time>
      </trkpt>
      <trkpt lat="47.78625" lon="6.68681">
        <ele>764</ele>
        <time>2023-05-01T19:12:04.547Z</time>
      </trkpt>
      <trkpt lat="47.78627" lon="6.68694">
        <ele>765</ele>
        <time>2023-05-01T19:12:10.018Z</time>
      </trkpt>
      <trkpt lat="47.78631" lon="6.687">
        <ele>765</ele>
        <time>2023-05-01T19:12:15.490Z</time>
      </trkpt>
      <trkpt lat="47.7864" lon="6.68724">
        <ele>766</ele>
        <time>2023-05-01T19:12:20.965Z</time>
      </trkpt>
      <trkpt lat="47.78664" lon="6.68768">
        <ele>767</ele>
        <time>2023-05-01T19:12:26.448Z</time>
      </trkpt>
      <trkpt lat="47.7867" lon="6.68802">
        <ele>768</ele>
        <time>2023-05-01T19:12:31.936Z</time>
      </trkpt>
      <trkpt lat="47.7867" lon="6.68812">
        <ele>768</ele>
        <time>2023-05-01T19:12:37.425Z</time>
      </trkpt>
      <trkpt lat="47.78674" lon="6.68826">
        <ele>769</ele>
        <time>2023-05-01T19:12:42.916Z</time>
      </trkpt>
      <trkpt lat="47.78674" lon="6.68844">
        <ele>770</ele>
        <time>2023-05-01T19:12:48.410Z</time>
      </trkpt>
      <trkpt lat="47.78671" lon="6.68869">
        <ele>770</ele>
        <time>2023-05-01T19:12:53.907Z</time>
      </trkpt>
      <trkpt lat="47.78666" lon="6.6888">
        <ele>771</ele>
        <time>2023-05-01T19:12:59.406Z</time>
      </trkpt>
      <trkpt lat="47.78654" lon="6.68886">
        <ele>772</ele>
        <time>2023-05-01T19:13:04.907Z</time>
      </trkpt>
      <trkpt lat="47.78646" lon="6.68883">
        <ele>773</ele>
        <time>2023-05-01T19:13:10.410Z</time>
      </trkpt>
      <trkpt lat="47.78633" lon="6.68881">
        <ele>774</ele>
        <time>2023-05-01T19:13:15.916Z</time>
      </trkpt>
      <trkpt lat="47.78623" lon="6.68882">
        <ele>775</ele>
        <time>2023-05-01T19:13:21.424Z</time>
      </trkpt>
      <trkpt lat="47.78618" lon="6.68886">
        <ele>776</ele>
        <time>2023-05-01T19:13:26.933Z</time>
      </trkpt>
      <trkpt lat="47.78608" lon="6.68903">
        <ele>777</ele>
        <time>2023-05-01T19:13:32.445Z</time>
      </trkpt>
      <trkpt lat="47.78611" lon="6.68912">
        <ele>778</ele>
        <time>2023-05-01T19:13:37.958Z</time>
      </trkpt>
      <trkpt lat="47.7861" lon="6.68925">
        <ele>779</ele>
        <time>2023-05-01T19:13:43.473Z</time>
      </trkpt>
      <trkpt lat="47.78614" lon="6.68932">
        <ele>780</ele>
        <time>2023-05-01T19:13:48.989Z</time>
      </trkpt>
      <trkpt lat="47.78618" lon="6.68935">
        <ele>781</ele>
        <time>2023-05-01T19:13:54.506Z</time>
      </trkpt>
      <trkpt lat="47.78628" lon="6.68963">
        <ele>782</ele>
        <time>2023-05-01T19:14:00.027Z</time>
      </trkpt>
      <trkpt lat="47.78628" lon="6.68967">
        <ele>783</ele>
        <time>2023-05-01T19:14:05.549Z</time>
      </trkpt>
      <trkpt lat="47.7862" lon="6.68975">
        <ele>785</ele>
        <time>2023-05-01T19:14:11.073Z</time>
      </trkpt>
      <trkpt lat="47.78617" lon="6.68977">
        <ele>786</ele>
        <time>2023-05-01T19:14:16.597Z</time>
      </trkpt>
      <trkpt lat="47.78609" lon="6.68972">
        <ele>787</ele>
        <time>2023-05-01T19:14:22.123Z</time>
      </trkpt>
      <trkpt lat="47.786" lon="6.68972">
        <ele>788</ele>
        <time>2023-05-01T19:14:27.651Z</time>
      </trkpt>
      <trkpt lat="47.78597" lon="6.68973">
        <ele>790</ele>
        <time>2023-05-01T19:14:33.180Z</time>
      </trkpt>
      <trkpt lat="47.7859" lon="6.68983">
        <ele>791</ele>
        <time>2023-05-01T19:14:38.711Z</time>
      </trkpt>
      <trkpt lat="47.78583" lon="6.68984">
        <ele>792</ele>
        <time>2023-05-01T19:14:44.243Z</time>
      </trkpt>
      <trkpt lat="47.78581" lon="6.6899">
        <ele>794</ele>
        <time>2023-05-01T19:14:49.776Z</time>
      </trkpt>
      <trkpt lat="47.78576" lon="6.68994">
        <ele>795</ele>
        <time>2023-05-01T19:14:55.310Z</time>
      </trkpt>
      <trkpt lat="47.7857" lon="6.68999">
        <ele>797</ele>
        <time>2023-05-01T19:15:00.845Z</time>
      </trkpt>
      <trkpt lat="47.78563" lon="6.69001">
        <ele>798</ele>
        <time>2023-05-01T19:15:06.382Z</time>
      </trkpt>
      <trkpt lat="47.78558" lon="6.69009">
        <ele>800</ele>
        <time>2023-05-01T19:15:11.920Z</time>
      </trkpt>
      <trkpt lat="47.78552" lon="6.69008">
        <ele>801</ele>
        <time>2023-05-01T19:15:17.459Z</time>
      </trkpt>
      <trkpt lat="47.7855" lon="6.69012">
        <ele>803</ele>
        <time>2023-05-01T19:15:22.999Z</time>
      </trkpt>
      <trkpt lat="47.78552" lon="6.69029">
        <ele>805</ele>
        <time>2023-05-01T19:15:28.541Z</time>
      </trkpt>
      <trkpt lat="47.78549" lon="6.69042">
        <ele>806</ele>
        <time>2023-05-01T19:15:34.085Z</time>
      </trkpt>
      <trkpt lat="47.7855" lon="6.69064">
        <ele>808</ele>
        <time>2023-05-01T19:15:39.632Z</time>
      </trkpt>
      <trkpt lat="47.78552" lon="6.69068">
        <ele>810</ele>
        <time>2023-05-01T19:15:45.180Z</time>
      </trkpt>
      <trkpt lat="47.78557" lon="6.69085">
        <ele>811</ele>
        <time>2023-05-01T19:15:50.730Z</time>
      </trkpt>
      <trkpt lat="47.78559" lon="6.691">
        <ele>813</ele>
        <time>2023-05-01T19:15:56.283Z</time>
      </trkpt>
      <trkpt lat="47.78558" lon="6.69134">
        <ele>815</ele>
        <time>2023-05-01T19:16:01.840Z</time>
      </trkpt>
      <trkpt lat="47.78552" lon="6.69139">
        <ele>817</ele>
        <time>2023-05-01T19:16:07.398Z</time>
      </trkpt>
      <trkpt lat="47.78547" lon="6.6914">
        <ele>819</ele>
        <time>2023-05-01T19:16:12.958Z</time>
      </trkpt>
      <trkpt lat="47.78534" lon="6.69172">
        <ele>821</ele>
        <time>2023-05-01T19:16:18.523Z</time>
      </trkpt>
      <trkpt lat="47.78523" lon="6.69188">
        <ele>822</ele>
        <time>2023-05-01T19:16:24.091Z</time>
      </trkpt>
      <trkpt lat="47.78516" lon="6.69193">
        <ele>824</ele>
        <time>2023-05-01T19:16:29.660Z</time>
      </trkpt>
      <trkpt lat="47.78512" lon="6.69199">
        <ele>826</ele>
        <time>2023-05-01T19:16:35.230Z</time>
      </trkpt>
      <trkpt lat="47.78496" lon="6.69199">
        <ele>828</ele>
        <time>2023-05-01T19:16:40.804Z</time>
      </trkpt>
      <trkpt lat="47.78489" lon="6.69203">
        <ele>829</ele>
        <time>2023-05-01T19:16:46.379Z</time>
      </trkpt>
      <trkpt lat="47.78484" lon="6.69208">
        <ele>831</ele>
        <time>2023-05-01T19:16:51.955Z</time>
      </trkpt>
      <trkpt lat="47.7848" lon="6.6922">
        <ele>833</ele>
        <time>2023-05-01T19:16:57.533Z</time>
      </trkpt>
      <trkpt lat="47.78493" lon="6.6925">
        <ele>835</ele>
        <time>2023-05-01T19:17:03.116Z</time>
      </trkpt>
      <trkpt lat="47.78495" lon="6.69268">
        <ele>836</ele>
        <time>2023-05-01T19:17:08.701Z</time>
      </trkpt>
      <trkpt lat="47.78492" lon="6.69277">
        <ele>838</ele>
        <time>2023-05-01T19:17:14.288Z</time>
      </trkpt>
      <trkpt lat="47.78491" lon="6.693">
        <ele>839</ele>
        <time>2023-05-01T19:17:19.878Z</time>
      </trkpt>
      <trkpt lat="47.78486" lon="6.69323">
        <ele>841</ele>
        <time>2023-05-01T19:17:25.471Z</time>
      </trkpt>
      <trkpt lat="47.78489" lon="6.69341">
        <ele>843</ele>
        <time>2023-05-01T19:17:31.066Z</time>
      </trkpt>
      <trkpt lat="47.78487" lon="6.69355">
        <ele>844</ele>
        <time>2023-05-01T19:17:36.663Z</time>
      </trkpt>
      <trkpt lat="47.78487" lon="6.69365">
        <ele>845</ele>
        <time>2023-05-01T19:17:42.262Z</time>
      </trkpt>
      <trkpt lat="47.7849" lon="6.69383">
        <ele>847</ele>
        <time>2023-05-01T19:17:47.863Z</time>
      </trkpt>
      <trkpt lat="47.78484" lon="6.69402">
        <ele>848</ele>
        <time>2023-05-01T19:17:53.467Z</time>
      </trkpt>
      <trkpt lat="47.78479" lon="6.69447">
        <ele>849</ele>
        <time>2023-05-01T19:17:59.077Z</time>
      </trkpt>
      <trkpt lat="47.78476" lon="6.69453">
        <ele>851</ele>
        <time>2023-05-01T19:18:04.688Z</time>
      </trkpt>
      <trkpt lat="47.78484" lon="6.69431">
        <ele>852</ele>
        <time>2023-05-01T19:18:10.303Z</time>
      </trkpt>
      <trkpt lat="47.7849" lon="6.69388">
        <ele>853</ele>
        <time>2023-05-01T19:18:15.924Z</time>
      </trkpt>
      <trkpt lat="47.78489" lon="6.69378">
        <ele>854</ele>
        <time>2023-05-01T19:18:21.546Z</time>
      </trkpt>
      <trkpt lat="47.78489" lon="6.69386">
        <ele>855</ele>
        <time>2023-05-01T19:18:27.169Z</time>
      </trkpt>
      <trkpt lat="47.78484" lon="6.69402">
        <ele>857</ele>
        <time>2023-05-01T19:18:32.794Z</time>
      </trkpt>
      <trkpt lat="47.78478" lon="6.69445">
        <ele>858</ele>
        <time>2023-05-01T19:18:38.425Z</time>
      </trkpt>
      <trkpt lat="47.78473" lon="6.69456">
        <ele>859</ele>
        <time>2023-05-01T19:18:44.058Z</time>
      </trkpt>
      <trkpt lat="47.7847" lon="6.69474">
        <ele>860</ele>
        <time>2023-05-01T19:18:49.694Z</time>
      </trkpt>
      <trkpt lat="47.78466" lon="6.69482">
        <ele>861</ele>
        <time>2023-05-01T19:18:55.331Z</time>
      </trkpt>
      <trkpt lat="47.78462" lon="6.69494">
        <ele>863</ele>
        <time>2023-05-01T19:19:00.970Z</time>
      </trkpt>
      <trkpt lat="47.7845" lon="6.69521">
        <ele>864</ele>
        <time>2023-05-01T19:19:06.613Z</time>
      </trkpt>
      <trkpt lat="47.78443" lon="6.69526">
        <ele>865</ele>
        <time>2023-05-01T19:19:12.258Z</time>
      </trkpt>
      <trkpt lat="47.78422" lon="6.69559">
        <ele>867</ele>
        <time>2023-05-01T19:19:17.909Z</time>
      </trkpt>
      <trkpt lat="47.78417" lon="6.69561">
        <ele>868</ele>
        <time>2023-05-01T19:19:23.561Z</time>
      </trkpt>
      <trkpt lat="47.78409" lon="6.69573">
        <ele>870</ele>
        <time>2023-05-01T19:19:29.215Z</time>
      </trkpt>
      <trkpt lat="47.78407" lon="6.69572">
        <ele>871</ele>
        <time>2023-05-01T19:19:34.869Z</time>
      </trkpt>
      <trkpt lat="47.78411" lon="6.69566">
        <ele>872</ele>
        <time>2023-05-01T19:19:40.524Z</time>
      </trkpt>
      <trkpt lat="47.78434" lon="6.6954">
        <ele>874</ele>
        <time>2023-05-01T19:19:46.185Z</time>
      </trkpt>
      <trkpt lat="47.78429" lon="6.69544">
        <ele>875</ele>
        <time>2023-05-01T19:19:51.848Z</time>
      </trkpt>
      <trkpt lat="47.78412" lon="6.69571">
        <ele>877</ele>
        <time>2023-05-01T19:19:57.516Z</time>
      </trkpt>
      <trkpt lat="47.78408" lon="6.69603">
        <ele>878</ele>
        <time>2023-05-01T19:20:03.188Z</time>
      </trkpt>
      <trkpt lat="47.78408" lon="6.69625">
        <ele>880</ele>
        <time>2023-05-01T19:20:08.863Z</time>
      </trkpt>
      <trkpt lat="47.78408" lon="6.69648">
        <ele>881</ele>
        <time>2023-05-01T19:20:14.541Z</time>
      </trkpt>
      <trkpt lat="47.78414" lon="6.69675">
        <ele>883</ele>
        <time>2023-05-01T19:20:20.223Z</time>
      </trkpt>
      <trkpt lat="47.78413" lon="6.6969">
        <ele>884</ele>
        <time>2023-05-01T19:20:25.907Z</time>
      </trkpt>
      <trkpt lat="47.78417" lon="6.69699">
        <ele>885</ele>
        <time>2023-05-01T19:20:31.592Z</time>
      </trkpt>
      <trkpt lat="47.78418" lon="6.6972">
        <ele>887</ele>
        <time>2023-05-01T19:20:37.280Z</time>
      </trkpt>
      <trkpt lat="47.78421" lon="6.69736">
        <ele>888</ele>
        <time>2023-05-01T19:20:42.970Z</time>
      </trkpt>
      <trkpt lat="47.78427" lon="6.69753">
        <ele>890</ele>
        <time>2023-05-01T19:20:48.663Z</time>
      </trkpt>
      <trkpt lat="47.7843" lon="6.69785">
        <ele>891</ele>
        <time>2023-05-01T19:20:54.360Z</time>
      </trkpt>
      <trkpt lat="47.78432" lon="6.69856">
        <ele>893</ele>
        <time>2023-05-01T19:21:00.067Z</time>
      </trkpt>
      <trkpt lat="47.78436" lon="6.69884">
        <ele>894</ele>
        <time>2023-05-01T19:21:05.778Z</time>
      </trkpt>
      <trkpt lat="47.78435" lon="6.69896">
        <ele>895</ele>
        <time>2023-05-01T19:21:11.490Z</time>
      </trkpt>
      <trkpt lat="47.7843" lon="6.69921">
        <ele>896</ele>
        <time>2023-05-01T19:21:17.206Z</time>
      </trkpt>
      <trkpt lat="47.78409" lon="6.6997">
        <ele>897</ele>
        <time>2023-05-01T19:21:22.930Z</time>
      </trkpt>
      <trkpt lat="47.78401" lon="6.70007">
        <ele>898</ele>
        <time>2023-05-01T19:21:28.659Z</time>
      </trkpt>
      <trkpt lat="47.78399" lon="6.70026">
        <ele>899</ele>
        <time>2023-05-01T19:21:34.391Z</time>
      </trkpt>
      <trkpt lat="47.78399" lon="6.70097">
        <ele>899</ele>
        <time>2023-05-01T19:21:40.132Z</time>
      </trkpt>
      <trkpt lat="47.78393" lon="6.70127">
        <ele>900</ele>
        <time>2023-05-01T19:21:45.877Z</time>
      </trkpt>
      <trkpt lat="47.78365" lon="6.70236">
        <ele>901</ele>
        <time>2023-05-01T19:21:51.638Z</time>
      </trkpt>
      <trkpt lat="47.78352" lon="6.70276">
        <ele>901</ele>
        <time>2023-05-01T19:21:57.405Z</time>
      </trkpt>
      <trkpt lat="47.78336" lon="6.70316">
        <ele>901</ele>
        <time>2023-05-01T19:22:03.178Z</time>
      </trkpt>
      <trkpt lat="47.78331" lon="6.70335">
        <ele>902</ele>
        <time>2023-05-01T19:22:08.954Z</time>
      </trkpt>
      <trkpt lat="47.78324" lon="6.70374">
        <ele>902</ele>
        <time>2023-05-01T19:22:14.735Z</time>
      </trkpt>
      <trkpt lat="47.78322" lon="6.70393">
        <ele>902</ele>
        <time>2023-05-01T19:22:20.519Z</time>
      </trkpt>
      <trkpt lat="47.78303" lon="6.70485">
        <ele>901</ele>
        <time>2023-05-01T19:22:26.316Z</time>
      </trkpt>
      <trkpt lat="47.78289" lon="6.70602">
        <ele>901</ele>
        <time>2023-05-01T19:22:32.129Z</time>
      </trkpt>
      <trkpt lat="47.7827" lon="6.70688">
        <ele>900</ele>
        <time>2023-05-01T19:22:37.954Z</time>
      </trkpt>
      <trkpt lat="47.78269" lon="6.70699">
        <ele>900</ele>
        <time>2023-05-01T19:22:43.781Z</time>
      </trkpt>
      <trkpt lat="47.78271" lon="6.70717">
        <ele>899</ele>
        <time>2023-05-01T19:22:49.610Z</time>
      </trkpt>
      <trkpt lat="47.78295" lon="6.70777">
        <ele>898</ele>
        <time>2023-05-01T19:22:55.449Z</time>
      </trkpt>
      <trkpt lat="47.78301" lon="6.70805">
        <ele>897</ele>
        <time>2023-05-01T19:23:01.292Z</time>
      </trkpt>
      <trkpt lat="47.78302" lon="6.70826">
        <ele>896</ele>
        <time>2023-05-01T19:23:07.138Z</time>
      </trkpt>
      <trkpt lat="47.78296" lon="6.70953">
        <ele>895</ele>
        <time>2023-05-01T19:23:13.001Z</time>
      </trkpt>
      <trkpt lat="47.78283" lon="6.71023">
        <ele>893</ele>
        <time>2023-05-01T19:23:18.873Z</time>
      </trkpt>
      <trkpt lat="47.78282" lon="6.71081">
        <ele>892</ele>
        <time>2023-05-01T19:23:24.753Z</time>
      </trkpt>
      <trkpt lat="47.78278" lon="6.71125">
        <ele>891</ele>
        <time>2023-05-01T19:23:30.639Z</time>
      </trkpt>
      <trkpt lat="47.78272" lon="6.71146">
        <ele>889</ele>
        <time>2023-05-01T19:23:36.528Z</time>
      </trkpt>
      <trkpt lat="47.78267" lon="6.71156">
        <ele>887</ele>
        <time>2023-05-01T19:23:42.419Z</time>
      </trkpt>
      <trkpt lat="47.7826" lon="6.71161">
        <ele>886</ele>
        <time>2023-05-01T19:23:48.311Z</time>
      </trkpt>
      <trkpt lat="47.78252" lon="6.71165">
        <ele>884</ele>
        <time>2023-05-01T19:23:54.205Z</time>
      </trkpt>
      <trkpt lat="47.78245" lon="6.71163">
        <ele>883</ele>
        <time>2023-05-01T19:24:00.101Z</time>
      </trkpt>
      <trkpt lat="47.78232" lon="6.71152">
        <ele>881</ele>
        <time>2023-05-01T19:24:06.000Z</time>
      </trkpt>
      <trkpt lat="47.78182" lon="6.71094">
        <ele>879</ele>
        <time>2023-05-01T19:24:11.911Z</time>
      </trkpt>
      <trkpt lat="47.78172" lon="6.71087">
        <ele>877</ele>
        <time>2023-05-01T19:24:17.825Z</time>
      </trkpt>
      <trkpt lat="47.78168" lon="6.71085">
        <ele>875</ele>
        <time>2023-05-01T19:24:23.739Z</time>
      </trkpt>
      <trkpt lat="47.78166" lon="6.7109">
        <ele>874</ele>
        <time>2023-05-01T19:24:29.654Z</time>
      </trkpt>
      <trkpt lat="47.78165" lon="6.71094">
        <ele>872</ele>
        <time>2023-05-01T19:24:35.570Z</time>
      </trkpt>
      <trkpt lat="47.78167" lon="6.71113">
        <ele>871</ele>
        <time>2023-05-01T19:24:41.488Z</time>
      </trkpt>
      <trkpt lat="47.78169" lon="6.71166">
        <ele>869</ele>
        <time>2023-05-01T19:24:47.414Z</time>
      </trkpt>
      <trkpt lat="47.78172" lon="6.71182">
        <ele>868</ele>
        <time>2023-05-01T19:24:53.342Z</time>
      </trkpt>
      <trkpt lat="47.78188" lon="6.71232">
        <ele>866</ele>
        <time>2023-05-01T19:24:59.277Z</time>
      </trkpt>
      <trkpt lat="47.78194" lon="6.71265">
        <ele>865</ele>
        <time>2023-05-01T19:25:05.217Z</time>
      </trkpt>
      <trkpt lat="47.78196" lon="6.7129">
        <ele>863</ele>
        <time>2023-05-01T19:25:11.160Z</time>
      </trkpt>
      <trkpt lat="47.78195" lon="6.71332">
        <ele>862</ele>
        <time>2023-05-01T19:25:17.109Z</time>
      </trkpt>
      <trkpt lat="47.78192" lon="6.71349">
        <ele>861</ele>
        <time>2023-05-01T19:25:23.060Z</time>
      </trkpt>
      <trkpt lat="47.78171" lon="6.71401">
        <ele>860</ele>
        <time>2023-05-01T19:25:29.019Z</time>
      </trkpt>
      <trkpt lat="47.78154" lon="6.71469">
        <ele>859</ele>
        <time>2023-05-01T19:25:34.988Z</time>
      </trkpt>
      <trkpt lat="47.78143" lon="6.71492">
        <ele>858</ele>
        <time>2023-05-01T19:25:40.961Z</time>
      </trkpt>
      <trkpt lat="47.78125" lon="6.71522">
        <ele>857</ele>
        <time>2023-05-01T19:25:46.939Z</time>
      </trkpt>
      <trkpt lat="47.78113" lon="6.7155">
        <ele>856</ele>
        <time>2023-05-01T19:25:52.922Z</time>
      </trkpt>
      <trkpt lat="47.78102" lon="6.71595">
        <ele>856</ele>
        <time>2023-05-01T19:25:58.911Z</time>
      </trkpt>
      <trkpt lat="47.78073" lon="6.71683">
        <ele>856</ele>
        <time>2023-05-01T19:26:04.914Z</time>
      </trkpt>
      <trkpt lat="47.78054" lon="6.71719">
        <ele>855</ele>
        <time>2023-05-01T19:26:10.923Z</time>
      </trkpt>
      <trkpt lat="47.77989" lon="6.71808">
        <ele>855</ele>
        <time>2023-05-01T19:26:16.949Z</time>
      </trkpt>
      <trkpt lat="47.77971" lon="6.71825">
        <ele>855</ele>
        <time>2023-05-01T19:26:22.980Z</time>
      </trkpt>
      <trkpt lat="47.77966" lon="6.71829">
        <ele>855</ele>
        <time>2023-05-01T19:26:29.012Z</time>
      </trkpt>
      <trkpt lat="47.77953" lon="6.71832">
        <ele>855</ele>
        <time>2023-05-01T19:26:35.046Z</time>
      </trkpt>
      <trkpt lat="47.77933" lon="6.71833">
        <ele>855</ele>
        <time>2023-05-01T19:26:41.084Z</time>
      </trkpt>
      <trkpt lat="47.7792" lon="6.71838">
        <ele>856</ele>
        <time>2023-05-01T19:26:47.125Z</time>
      </trkpt>
      <trkpt lat="47.77903" lon="6.71844">
        <ele>856</ele>
        <time>2023-05-01T19:26:53.170Z</time>
      </trkpt>
      <trkpt lat="47.77884" lon="6.71855">
        <ele>856</ele>
        <time>2023-05-01T19:26:59.219Z</time>
      </trkpt>
      <trkpt lat="47.77847" lon="6.7187">
        <ele>857</ele>
        <time>2023-05-01T19:27:05.275Z</time>
      </trkpt>
      <trkpt lat="47.77837" lon="6.71877">
        <ele>857</ele>
        <time>2023-05-01T19:27:11.334Z</time>
      </trkpt>
      <trkpt lat="47.7778" lon="6.71951">
        <ele>858</ele>
        <time>2023-05-01T19:27:17.408Z</time>
      </trkpt>
      <trkpt lat="47.7777" lon="6.71974">
        <ele>859</ele>
        <time>2023-05-01T19:27:23.485Z</time>
      </trkpt>
      <trkpt lat="47.77766" lon="6.71991">
        <ele>860</ele>
        <time>2023-05-01T19:27:29.565Z</time>
      </trkpt>
      <trkpt lat="47.77757" lon="6.72061">
        <ele>861</ele>
        <time>2023-05-01T19:27:35.655Z</time>
      </trkpt>
      <trkpt lat="47.77749" lon="6.72159">
        <ele>863</ele>
        <time>2023-05-01T19:27:41.758Z</time>
      </trkpt>
      <trkpt lat="47.77744" lon="6.72185">
        <ele>864</ele>
        <time>2023-05-01T19:27:47.864Z</time>
      </trkpt>
      <trkpt lat="47.77736" lon="6.72204">
        <ele>865</ele>
        <time>2023-05-01T19:27:53.973Z</time>
      </trkpt>
      <trkpt lat="47.77717" lon="6.72222">
        <ele>866</ele>
        <time>2023-05-01T19:28:00.087Z</time>
      </trkpt>
      <trkpt lat="47.77703" lon="6.72232">
        <ele>867</ele>
        <time>2023-05-01T19:28:06.204Z</time>
      </trkpt>
      <trkpt lat="47.77691" lon="6.72237">
        <ele>868</ele>
        <time>2023-05-01T19:28:12.323Z</time>
      </trkpt>
      <trkpt lat="47.77681" lon="6.72243">
        <ele>869</ele>
        <time>2023-05-01T19:28:18.445Z</time>
      </trkpt>
      <trkpt lat="47.77675" lon="6.72244">
        <ele>871</ele>
        <time>2023-05-01T19:28:24.568Z</time>
      </trkpt>
      <trkpt lat="47.77667" lon="6.72249">
        <ele>872</ele>
        <time>2023-05-01T19:28:30.693Z</time>
      </trkpt>
      <trkpt lat="47.77632" lon="6.72266">
        <ele>873</ele>
        <time>2023-05-01T19:28:36.825Z</time>
      </trkpt>
      <trkpt lat="47.77612" lon="6.72267">
        <ele>873</ele>
        <time>2023-05-01T19:28:42.961Z</time>
      </trkpt>
      <trkpt lat="47.77607" lon="6.72265">
        <ele>874</ele>
        <time>2023-05-01T19:28:49.098Z</time>
      </trkpt>
      <trkpt lat="47.776" lon="6.72266">
        <ele>875</ele>
        <time>2023-05-01T19:28:55.237Z</time>
      </trkpt>
      <trkpt lat="47.77594" lon="6.72261">
        <ele>875</ele>
        <time>2023-05-01T19:29:01.377Z</time>
      </trkpt>
      <trkpt lat="47.77589" lon="6.72259">
        <ele>876</ele>
        <time>2023-05-01T19:29:07.518Z</time>
      </trkpt>
      <trkpt lat="47.7757" lon="6.72245">
        <ele>876</ele>
        <time>2023-05-01T19:29:13.663Z</time>
      </trkpt>
      <trkpt lat="47.77552" lon="6.72239">
        <ele>877</ele>
        <time>2023-05-01T19:29:19.812Z</time>
      </trkpt>
      <trkpt lat="47.77531" lon="6.72229">
        <ele>877</ele>
        <time>2023-05-01T19:29:25.965Z</time>
      </trkpt>
      <trkpt lat="47.77523" lon="6.72229">
        <ele>877</ele>
        <time>2023-05-01T19:29:32.120Z</time>
      </trkpt>
      <trkpt lat="47.77414" lon="6.72576">
        <ele>877</ele>
        <time>2023-05-01T19:29:38.327Z</time>
      </trkpt>
      <trkpt lat="47.77409" lon="6.72606">
        <ele>876</ele>
        <time>2023-05-01T19:29:44.538Z</time>
      </trkpt>
      <trkpt lat="47.77394" lon="6.7267">
        <ele>876</ele>
        <time>2023-05-01T19:29:50.758Z</time>
      </trkpt>
      <trkpt lat="47.77388" lon="6.72701">
        <ele>875</ele>
        <time>2023-05-01T19:29:56.982Z</time>
      </trkpt>
      <trkpt lat="47.77386" lon="6.72733">
        <ele>874</ele>
        <time>2023-05-01T19:30:03.211Z</time>
      </trkpt>
      <trkpt lat="47.77388" lon="6.72758">
        <ele>873</ele>
        <time>2023-05-01T19:30:09.443Z</time>
      </trkpt>
      <trkpt lat="47.77393" lon="6.7278">
        <ele>872</ele>
        <time>2023-05-01T19:30:15.678Z</time>
      </trkpt>
      <trkpt lat="47.77415" lon="6.72837">
        <ele>870</ele>
        <time>2023-05-01T19:30:21.922Z</time>
      </trkpt>
      <trkpt lat="47.77427" lon="6.72864">
        <ele>869</ele>
        <time>2023-05-01T19:30:28.170Z</time>
      </trkpt>
      <trkpt lat="47.7746" lon="6.72915">
        <ele>867</ele>
        <time>2023-05-01T19:30:34.428Z</time>
      </trkpt>
      <trkpt lat="47.77466" lon="6.72928">
        <ele>865</ele>
        <time>2023-05-01T19:30:40.688Z</time>
      </trkpt>
      <trkpt lat="47.77471" lon="6.72941">
        <ele>864</ele>
        <time>2023-05-01T19:30:46.950Z</time>
      </trkpt>
      <trkpt lat="47.77473" lon="6.72957">
        <ele>862</ele>
        <time>2023-05-01T19:30:53.214Z</time>
      </trkpt>
      <trkpt lat="47.77473" lon="6.7297">
        <ele>860</ele>
        <time>2023-05-01T19:30:59.480Z</time>
      </trkpt>
      <trkpt lat="47.7746" lon="6.73027">
        <ele>858</ele>
        <time>2023-05-01T19:31:05.754Z</time>
      </trkpt>
      <trkpt lat="47.77458" lon="6.73043">
        <ele>856</ele>
        <time>2023-05-01T19:31:12.030Z</time>
      </trkpt>
      <trkpt lat="47.7746" lon="6.73073">
        <ele>855</ele>
        <time>2023-05-01T19:31:18.310Z</time>
      </trkpt>
      <trkpt lat="47.77466" lon="6.73097">
        <ele>853</ele>
        <time>2023-05-01T19:31:24.594Z</time>
      </trkpt>
      <trkpt lat="47.77475" lon="6.73107">
        <ele>851</ele>
        <time>2023-05-01T19:31:30.880Z</time>
      </trkpt>
      <trkpt lat="47.77484" lon="6.73111">
        <ele>849</ele>
        <time>2023-05-01T19:31:37.168Z</time>
      </trkpt>
      <trkpt lat="47.77508" lon="6.73114">
        <ele>848</ele>
        <time>2023-05-01T19:31:43.461Z</time>
      </trkpt>
      <trkpt lat="47.77516" lon="6.73112">
        <ele>846</ele>
        <time>2023-05-01T19:31:49.755Z</time>
      </trkpt>
      <trkpt lat="47.77516" lon="6.7311">
        <ele>844</ele>
        <time>2023-05-01T19:31:56.050Z</time>
      </trkpt>
      <trkpt lat="47.77527" lon="6.73115">
        <ele>843</ele>
        <time>2023-05-01T19:32:02.347Z</time>
      </trkpt>
      <trkpt lat="47.77579" lon="6.73136">
        <ele>841</ele>
        <time>2023-05-01T19:32:08.655Z</time>
      </trkpt>
      <trkpt lat="47.77623" lon="6.73162">
        <ele>840</ele>
        <time>2023-05-01T19:32:14.972Z</time>
      </trkpt>
      <trkpt lat="47.77631" lon="6.73169">
        <ele>839</ele>
        <time>2023-05-01T19:32:21.291Z</time>
      </trkpt>
      <trkpt lat="47.77638" lon="6.73178">
        <ele>838</ele>
        <time>2023-05-01T19:32:27.612Z</time>
      </trkpt>
      <trkpt lat="47.77641" lon="6.73185">
        <ele>837</ele>
        <time>2023-05-01T19:32:33.934Z</time>
      </trkpt>
      <trkpt lat="47.77641" lon="6.73191">
        <ele>836</ele>
        <time>2023-05-01T19:32:40.257Z</time>
      </trkpt>
      <trkpt lat="47.77634" lon="6.73204">
        <ele>836</ele>
        <time>2023-05-01T19:32:46.582Z</time>
      </trkpt>
      <trkpt lat="47.77633" lon="6.73222">
        <ele>836</ele>
        <time>2023-05-01T19:32:52.910Z</time>
      </trkpt>
      <trkpt lat="47.7763" lon="6.73228">
        <ele>835</ele>
        <time>2023-05-01T19:32:59.239Z</time>
      </trkpt>
      <trkpt lat="47.77626" lon="6.73232">
        <ele>836</ele>
        <time>2023-05-01T19:33:05.569Z</time>
      </trkpt>
      <trkpt lat="47.7762" lon="6.73235">
        <ele>836</ele>
        <time>2023-05-01T19:33:11.900Z</time>
      </trkpt>
      <trkpt lat="47.77611" lon="6.73235">
        <ele>836</ele>
        <time>2023-05-01T19:33:18.233Z</time>
      </trkpt>
      <trkpt lat="47.77592" lon="6.73244">
        <ele>837</ele>
        <time>2023-05-01T19:33:24.570Z</time>
      </trkpt>
      <trkpt lat="47.77571" lon="6.7325">
        <ele>837</ele>
        <time>2023-05-01T19:33:30.911Z</time>
      </trkpt>
      <trkpt lat="47.77555" lon="6.73259">
        <ele>838</ele>
        <time>2023-05-01T19:33:37.255Z</time>
      </trkpt>
      <trkpt lat="47.77542" lon="6.73268">
        <ele>839</ele>
        <time>2023-05-01T19:33:43.602Z</time>
      </trkpt>
      <trkpt lat="47.7753" lon="6.73272">
        <ele>840</ele>
        <time>2023-05-01T19:33:49.952Z</time>
      </trkpt>
      <trkpt lat="47.77522" lon="6.73265">
        <ele>841</ele>
        <time>2023-05-01T19:33:56.304Z</time>
      </trkpt>
      <trkpt lat="47.7752" lon="6.73258">
        <ele>842</ele>
        <time>2023-05-01T19:34:02.657Z</time>
      </trkpt>
      <trkpt lat="47.77523" lon="6.73249">
        <ele>843</ele>
        <time>2023-05-01T19:34:09.011Z</time>
      </trkpt>
      <trkpt lat="47.77531" lon="6.7324">
        <ele>845</ele>
        <time>2023-05-01T19:34:15.367Z</time>
      </trkpt>
      <trkpt lat="47.77536" lon="6.73231">
        <ele>846</ele>
        <time>2023-05-01T19:34:21.725Z</time>
      </trkpt>
      <trkpt lat="47.77537" lon="6.73218">
        <ele>847</ele>
        <time>2023-05-01T19:34:28.084Z</time>
      </trkpt>
      <trkpt lat="47.77532" lon="6.73206">
        <ele>848</ele>
        <time>2023-05-01T19:34:34.445Z</time>
      </trkpt>
      <trkpt lat="47.77517" lon="6.73196">
        <ele>850</ele>
        <time>2023-05-01T19:34:40.810Z</time>
      </trkpt>
      <trkpt lat="47.775" lon="6.73188">
        <ele>851</ele>
        <time>2023-05-01T19:34:47.178Z</time>
      </trkpt>
      <trkpt lat="47.77482" lon="6.73191">
        <ele>852</ele>
        <time>2023-05-01T19:34:53.550Z</time>
      </trkpt>
      <trkpt lat="47.77468" lon="6.73189">
        <ele>853</ele>
        <time>2023-05-01T19:34:59.925Z</time>
      </trkpt>
      <trkpt lat="47.77453" lon="6.73192">
        <ele>854</ele>
        <time>2023-05-01T19:35:06.303Z</time>
      </trkpt>
      <trkpt lat="47.77421" lon="6.73193">
        <ele>856</ele>
        <time>2023-05-01T19:35:12.687Z</time>
      </trkpt>
      <trkpt lat="47.77407" lon="6.73192">
        <ele>856</ele>
        <time>2023-05-01T19:35:19.074Z</time>
      </trkpt>
      <trkpt lat="47.77401" lon="6.73187">
        <ele>857</ele>
        <time>2023-05-01T19:35:25.462Z</time>
      </trkpt>
      <trkpt lat="47.77393" lon="6.73177">
        <ele>858</ele>
        <time>2023-05-01T19:35:31.852Z</time>
      </trkpt>
      <trkpt lat="47.77375" lon="6.73137">
        <ele>859</ele>
        <time>2023-05-01T19:35:38.249Z</time>
      </trkpt>
      <trkpt lat="47.77366" lon="6.73126">
        <ele>859</ele>
        <time>2023-05-01T19:35:44.648Z</time>
      </trkpt>
      <trkpt lat="47.77347" lon="6.73117">
        <ele>860</ele>
        <time>2023-05-01T19:35:51.051Z</time>
      </trkpt>
      <trkpt lat="47.7732" lon="6.7312">
        <ele>860</ele>
        <time>2023-05-01T19:35:57.459Z</time>
      </trkpt>
      <trkpt lat="47.77297" lon="6.73106">
        <ele>860</ele>
        <time>2023-05-01T19:36:03.872Z</time>
      </trkpt>
      <trkpt lat="47.77282" lon="6.73106">
        <ele>859</ele>
        <time>2023-05-01T19:36:10.288Z</time>
      </trkpt>
      <trkpt lat="47.77268" lon="6.73102">
        <ele>859</ele>
        <time>2023-05-01T19:36:16.707Z</time>
      </trkpt>
      <trkpt lat="47.77238" lon="6.73085">
        <ele>858</ele>
        <time>2023-05-01T19:36:23.133Z</time>
      </trkpt>
      <trkpt lat="47.77213" lon="6.73069">
        <ele>857</ele>
        <time>2023-05-01T19:36:29.564Z</time>
      </trkpt>
      <trkpt lat="47.77195" lon="6.7305">
        <ele>855</ele>
        <time>2023-05-01T19:36:36.000Z</time>
      </trkpt>
      <trkpt lat="47.77142" lon="6.72977">
        <ele>854</ele>
        <time>2023-05-01T19:36:42.450Z</time>
      </trkpt>
      <trkpt lat="47.771" lon="6.7293">
        <ele>853</ele>
        <time>2023-05-01T19:36:48.911Z</time>
      </trkpt>
      <trkpt lat="47.7703" lon="6.72828">
        <ele>850</ele>
        <time>2023-05-01T19:36:55.391Z</time>
      </trkpt>
      <trkpt lat="47.77022" lon="6.72814">
        <ele>848</ele>
        <time>2023-05-01T19:37:01.874Z</time>
      </trkpt>
      <trkpt lat="47.76988" lon="6.72732">
        <ele>845</ele>
        <time>2023-05-01T19:37:08.370Z</time>
      </trkpt>
      <trkpt lat="47.76986" lon="6.72713">
        <ele>843</ele>
        <time>2023-05-01T19:37:14.868Z</time>
      </trkpt>
      <trkpt lat="47.76988" lon="6.72677">
        <ele>840</ele>
        <time>2023-05-01T19:37:21.371Z</time>
      </trkpt>
      <trkpt lat="47.76987" lon="6.7265">
        <ele>837</ele>
        <time>2023-05-01T19:37:27.878Z</time>
      </trkpt>
      <trkpt lat="47.76984" lon="6.72623">
        <ele>834</ele>
        <time>2023-05-01T19:37:34.389Z</time>
      </trkpt>
      <trkpt lat="47.76975" lon="6.7259">
        <ele>831</ele>
        <time>2023-05-01T19:37:40.904Z</time>
      </trkpt>
      <trkpt lat="47.76973" lon="6.72572">
        <ele>828</ele>
        <time>2023-05-01T19:37:47.422Z</time>
      </trkpt>
      <trkpt lat="47.76975" lon="6.72556">
        <ele>824</ele>
        <time>2023-05-01T19:37:53.942Z</time>
      </trkpt>
      <trkpt lat="47.76978" lon="6.72552">
        <ele>821</ele>
        <time>2023-05-01T19:38:00.463Z</time>
      </trkpt>
      <trkpt lat="47.76982" lon="6.72551">
        <ele>817</ele>
        <time>2023-05-01T19:38:06.985Z</time>
      </trkpt>
      <trkpt lat="47.76966" lon="6.72524">
        <ele>814</ele>
        <time>2023-05-01T19:38:13.512Z</time>
      </trkpt>
      <trkpt lat="47.76953" lon="6.72413">
        <ele>810</ele>
        <time>2023-05-01T19:38:20.054Z</time>
      </trkpt>
      <trkpt lat="47.76946" lon="6.72366">
        <ele>806</ele>
        <time>2023-05-01T19:38:26.602Z</time>
      </trkpt>
      <trkpt lat="47.76936" lon="6.72325">
        <ele>802</ele>
        <time>2023-05-01T19:38:33.156Z</time>
      </trkpt>
      <trkpt lat="47.76928" lon="6.72303">
        <ele>799</ele>
        <time>2023-05-01T19:38:39.713Z</time>
      </trkpt>
      <trkpt lat="47.76926" lon="6.72293">
        <ele>795</ele>
        <time>2023-05-01T19:38:46.272Z</time>
      </trkpt>
      <trkpt lat="47.76928" lon="6.72264">
        <ele>791</ele>
        <time>2023-05-01T19:38:52.835Z</time>
      </trkpt>
      <trkpt lat="47.76927" lon="6.72216">
        <ele>788</ele>
        <time>2023-05-01T19:38:59.404Z</time>
      </trkpt>
      <trkpt lat="47.7693" lon="6.72179">
        <ele>784</ele>
        <time>2023-05-01T19:39:05.978Z</time>
      </trkpt>
      <trkpt lat="47.76929" lon="6.72163">
        <ele>780</ele>
        <time>2023-05-01T19:39:12.554Z</time>
      </trkpt>
      <trkpt lat="47.76917" lon="6.72123">
        <ele>777</ele>
        <time>2023-05-01T19:39:19.136Z</time>
      </trkpt>
      <trkpt lat="47.7691" lon="6.72068">
        <ele>773</ele>
        <time>2023-05-01T19:39:25.726Z</time>
      </trkpt>
      <trkpt lat="47.76895" lon="6.72015">
        <ele>770</ele>
        <time>2023-05-01T19:39:32.324Z</time>
      </trkpt>
      <trkpt lat="47.7689" lon="6.7199">
        <ele>767</ele>
        <time>2023-05-01T19:39:38.925Z</time>
      </trkpt>
      <trkpt lat="47.76874" lon="6.7195">
        <ele>764</ele>
        <time>2023-05-01T19:39:45.533Z</time>
      </trkpt>
      <trkpt lat="47.76858" lon="6.71904">
        <ele>761</ele>
        <time>2023-05-01T19:39:52.147Z</time>
      </trkpt>
      <trkpt lat="47.76858" lon="6.71896">
        <ele>758</ele>
        <time>2023-05-01T19:39:58.762Z</time>
      </trkpt>
      <trkpt lat="47.7686" lon="6.71895">
        <ele>756</ele>
        <time>2023-05-01T19:40:05.378Z</time>
      </trkpt>
      <trkpt lat="47.76856" lon="6.71892">
        <ele>754</ele>
        <time>2023-05-01T19:40:11.995Z</time>
      </trkpt>
      <trkpt lat="47.76846" lon="6.71863">
        <ele>751</ele>
        <time>2023-05-01T19:40:18.616Z</time>
      </trkpt>
      <trkpt lat="47.76824" lon="6.71813">
        <ele>749</ele>
        <time>2023-05-01T19:40:25.245Z</time>
      </trkpt>
      <trkpt lat="47.7682" lon="6.71788">
        <ele>747</ele>
        <time>2023-05-01T19:40:31.878Z</time>
      </trkpt>
      <trkpt lat="47.76797" lon="6.71726">
        <ele>745</ele>
        <time>2023-05-01T19:40:38.520Z</time>
      </trkpt>
      <trkpt lat="47.76774" lon="6.71673">
        <ele>744</ele>
        <time>2023-05-01T19:40:45.171Z</time>
      </trkpt>
      <trkpt lat="47.7677" lon="6.71668">
        <ele>743</ele>
        <time>2023-05-01T19:40:51.823Z</time>
      </trkpt>
      <trkpt lat="47.76761" lon="6.71664">
        <ele>742</ele>
        <time>2023-05-01T19:40:58.477Z</time>
      </trkpt>
      <trkpt lat="47.76747" lon="6.71662">
        <ele>741</ele>
        <time>2023-05-01T19:41:05.133Z</time>
      </trkpt>
      <trkpt lat="47.7674" lon="6.71659">
        <ele>741</ele>
        <time>2023-05-01T19:41:11.791Z</time>
      </trkpt>
      <trkpt lat="47.7674" lon="6.71661">
        <ele>740</ele>
        <time>2023-05-01T19:41:18.449Z</time>
      </trkpt>
      <trkpt lat="47.76738" lon="6.71661">
        <ele>740</ele>
        <time>2023-05-01T19:41:25.108Z</time>
      </trkpt>
      <trkpt lat="47.76691" lon="6.71672">
        <ele>740</ele>
        <time>2023-05-01T19:41:31.776Z</time>
      </trkpt>
      <trkpt lat="47.76682" lon="6.71679">
        <ele>740</ele>
        <time>2023-05-01T19:41:38.446Z</time>
      </trkpt>
      <trkpt lat="47.76675" lon="6.71681">
        <ele>740</ele>
        <time>2023-05-01T19:41:45.118Z</time>
      </trkpt>
      <trkpt lat="47.7667" lon="6.71681">
        <ele>741</ele>
        <time>2023-05-01T19:41:51.791Z</time>
      </trkpt>
      <trkpt lat="47.76645" lon="6.71689">
        <ele>741</ele>
        <time>2023-05-01T19:41:58.469Z</time>
      </trkpt>
      <trkpt lat="47.76641" lon="6.71689">
        <ele>742</ele>
        <time>2023-05-01T19:42:05.147Z</time>
      </trkpt>
      <trkpt lat="47.76636" lon="6.71685">
        <ele>742</ele>
        <time>2023-05-01T19:42:11.827Z</time>
      </trkpt>
      <trkpt lat="47.76633" lon="6.71685">
        <ele>743</ele>
        <time>2023-05-01T19:42:18.507Z</time>
      </trkpt>
      <trkpt lat="47.76615" lon="6.71696">
        <ele>744</ele>
        <time>2023-05-01T19:42:25.191Z</time>
      </trkpt>
      <trkpt lat="47.76611" lon="6.71696">
        <ele>745</ele>
        <time>2023-05-01T19:42:31.876Z</time>
      </trkpt>
      <trkpt lat="47.76602" lon="6.71699">
        <ele>745</ele>
        <time>2023-05-01T19:42:38.563Z</time>
      </trkpt>
      <trkpt lat="47.766" lon="6.71702">
        <ele>746</ele>
        <time>2023-05-01T19:42:45.250Z</time>
      </trkpt>
      <trkpt lat="47.76594" lon="6.71703">
        <ele>747</ele>
        <time>2023-05-01T19:42:51.939Z</time>
      </trkpt>
      <trkpt lat="47.76589" lon="6.71701">
        <ele>748</ele>
        <time>2023-05-01T19:42:58.629Z</time>
      </trkpt>
      <trkpt lat="47.76581" lon="6.71706">
        <ele>748</ele>
        <time>2023-05-01T19:43:05.320Z</time>
      </trkpt>
      <trkpt lat="47.76574" lon="6.71705">
        <ele>749</ele>
        <time>2023-05-01T19:43:12.013Z</time>
      </trkpt>
      <trkpt lat="47.76556" lon="6.7172">
        <ele>750</ele>
        <time>2023-05-01T19:43:18.710Z</time>
      </trkpt>
      <trkpt lat="47.76552" lon="6.71726">
        <ele>750</ele>
        <time>2023-05-01T19:43:25.408Z</time>
      </trkpt>
      <trkpt lat="47.76545" lon="6.71748">
        <ele>750</ele>
        <time>2023-05-01T19:43:32.109Z</time>
      </trkpt>
      <trkpt lat="47.76545" lon="6.71755">
        <ele>750</ele>
        <time>2023-05-01T19:43:38.811Z</time>
      </trkpt>
      <trkpt lat="47.76542" lon="6.71763">
        <ele>750</ele>
        <time>2023-05-01T19:43:45.514Z</time>
      </trkpt>
      <trkpt lat="47.7654" lon="6.71778">
        <ele>750</ele>
        <time>2023-05-01T19:43:52.220Z</time>
      </trkpt>
      <trkpt lat="47.76536" lon="6.71784">
        <ele>750</ele>
        <time>2023-05-01T19:43:58.927Z</time>
      </trkpt>
      <trkpt lat="47.76519" lon="6.71793">
        <ele>749</ele>
        <time>2023-05-01T19:44:05.637Z</time>
      </trkpt>
      <trkpt lat="47.76507" lon="6.71795">
        <ele>749</ele>
        <time>2023-05-01T19:44:12.350Z</time>
      </trkpt>
      <trkpt lat="47.76504" lon="6.71795">
        <ele>748</ele>
        <time>2023-05-01T19:44:19.063Z</time>
      </trkpt>
      <trkpt lat="47.76496" lon="6.71787">
        <ele>747</ele>
        <time>2023-05-01T19:44:25.778Z</time>
      </trkpt>
      <trkpt lat="47.76491" lon="6.71773">
        <ele>746</ele>
        <time>2023-05-01T19:44:32.495Z</time>
      </trkpt>
      <trkpt lat="47.7648" lon="6.71758">
        <ele>744</ele>
        <time>2023-05-01T19:44:39.215Z</time>
      </trkpt>
      <trkpt lat="47.76454" lon="6.71746">
        <ele>742</ele>
        <time>2023-05-01T19:44:45.941Z</time>
      </trkpt>
      <trkpt lat="47.7644" lon="6.71746">
        <ele>741</ele>
        <time>2023-05-01T19:44:52.670Z</time>
      </trkpt>
      <trkpt lat="47.76416" lon="6.71733">
        <ele>739</ele>
        <time>2023-05-01T19:44:59.404Z</time>
      </trkpt>
      <trkpt lat="47.764" lon="6.71722">
        <ele>736</ele>
        <time>2023-05-01T19:45:06.141Z</time>
      </trkpt>
      <trkpt lat="47.76383" lon="6.71705">
        <ele>734</ele>
        <time>2023-05-01T19:45:12.882Z</time>
      </trkpt>
      <trkpt lat="47.76374" lon="6.71699">
        <ele>732</ele>
        <time>2023-05-01T19:45:19.625Z</time>
      </trkpt>
      <trkpt lat="47.76353" lon="6.71689">
        <ele>730</ele>
        <time>2023-05-01T19:45:26.373Z</time>
      </trkpt>
      <trkpt lat="47.76318" lon="6.71676">
        <ele>727</ele>
        <time>2023-05-01T19:45:33.128Z</time>
      </trkpt>
      <trkpt lat="47.76308" lon="6.7167">
        <ele>724</ele>
        <time>2023-05-01T19:45:39.885Z</time>
      </trkpt>
      <trkpt lat="47.76292" lon="6.71655">
        <ele>722</ele>
        <time>2023-05-01T19:45:46.646Z</time>
      </trkpt>
      <trkpt lat="47.76285" lon="6.71633">
        <ele>719</ele>
        <time>2023-05-01T19:45:53.410Z</time>
      </trkpt>
      <trkpt lat="47.76251" lon="6.71591">
        <ele>716</ele>
        <time>2023-05-01T19:46:00.183Z</time>
      </trkpt>
      <trkpt lat="47.76232" lon="6.7158">
        <ele>713</ele>
        <time>2023-05-01T19:46:06.960Z</time>
      </trkpt>
      <trkpt lat="47.76215" lon="6.71578">
        <ele>710</ele>
        <time>2023-05-01T19:46:13.740Z</time>
      </trkpt>
      <trkpt lat="47.76203" lon="6.71578">
        <ele>707</ele>
        <time>2023-05-01T19:46:20.523Z</time>
      </trkpt>
      <trkpt lat="47.76199" lon="6.71576">
        <ele>704</ele>
        <time>2023-05-01T19:46:27.307Z</time>
      </trkpt>
      <trkpt lat="47.76194" lon="6.7157">
        <ele>701</ele>
        <time>2023-05-01T19:46:34.092Z</time>
      </trkpt>
      <trkpt lat="47.76188" lon="6.71548">
        <ele>698</ele>
        <time>2023-05-01T19:46:40.880Z</time>
      </trkpt>
      <trkpt lat="47.76187" lon="6.71538">
        <ele>695</ele>
        <time>2023-05-01T19:46:47.670Z</time>
      </trkpt>
      <trkpt lat="47.76189" lon="6.71529">
        <ele>692</ele>
        <time>2023-05-01T19:46:54.461Z</time>
      </trkpt>
      <trkpt lat="47.76196" lon="6.71507">
        <ele>689</ele>
        <time>2023-05-01T19:47:01.255Z</time>
      </trkpt>
      <trkpt lat="47.76195" lon="6.71499">
        <ele>686</ele>
        <time>2023-05-01T19:47:08.050Z</time>
      </trkpt>
      <trkpt lat="47.76191" lon="6.71492">
        <ele>683</ele>
        <time>2023-05-01T19:47:14.847Z</time>
      </trkpt>
      <trkpt lat="47.76172" lon="6.71483">
        <ele>679</ele>
        <time>2023-05-01T19:47:21.648Z</time>
      </trkpt>
      <trkpt lat="47.76165" lon="6.71481">
        <ele>676</ele>
        <time>2023-05-01T19:47:28.450Z</time>
      </trkpt>
      <trkpt lat="47.7616" lon="6.71459">
        <ele>674</ele>
        <time>2023-05-01T19:47:35.255Z</time>
      </trkpt>
      <trkpt lat="47.76153" lon="6.7145">
        <ele>671</ele>
        <time>2023-05-01T19:47:42.062Z</time>
      </trkpt>
      <trkpt lat="47.76148" lon="6.71448">
        <ele>668</ele>
        <time>2023-05-01T19:47:48.870Z</time>
      </trkpt>
      <trkpt lat="47.76133" lon="6.71449">
        <ele>665</ele>
        <time>2023-05-01T19:47:55.681Z</time>
      </trkpt>
      <trkpt lat="47.76117" lon="6.71458">
        <ele>662</ele>
        <time>2023-05-01T19:48:02.495Z</time>
      </trkpt>
      <trkpt lat="47.76105" lon="6.71467">
        <ele>660</ele>
        <time>2023-05-01T19:48:09.312Z</time>
      </trkpt>
      <trkpt lat="47.76083" lon="6.71495">
        <ele>657</ele>
        <time>2023-05-01T19:48:16.135Z</time>
      </trkpt>
      <trkpt lat="47.76075" lon="6.71511">
        <ele>654</ele>
        <time>2023-05-01T19:48:22.961Z</time>
      </trkpt>
      <trkpt lat="47.76044" lon="6.71582">
        <ele>652</ele>
        <time>2023-05-01T19:48:29.798Z</time>
      </trkpt>
      <trkpt lat="47.76039" lon="6.71625">
        <ele>649</ele>
        <time>2023-05-01T19:48:36.641Z</time>
      </trkpt>
      <trkpt lat="47.7604" lon="6.71646">
        <ele>647</ele>
        <time>2023-05-01T19:48:43.487Z</time>
      </trkpt>
      <trkpt lat="47.76045" lon="6.71674">
        <ele>645</ele>
        <time>2023-05-01T19:48:50.337Z</time>
      </trkpt>
      <trkpt lat="47.76052" lon="6.71707">
        <ele>643</ele>
        <time>2023-05-01T19:48:57.191Z</time>
      </trkpt>
      <trkpt lat="47.76066" lon="6.71759">
        <ele>641</ele>
        <time>2023-05-01T19:49:04.053Z</time>
      </trkpt>
      <trkpt lat="47.76078" lon="6.71792">
        <ele>639</ele>
        <time>2023-05-01T19:49:10.920Z</time>
      </trkpt>
      <trkpt lat="47.76096" lon="6.71818">
        <ele>637</ele>
        <time>2023-05-01T19:49:17.792Z</time>
      </trkpt>
      <trkpt lat="47.76127" lon="6.71852">
        <ele>635</ele>
        <time>2023-05-01T19:49:24.672Z</time>
      </trkpt>
      <trkpt lat="47.76161" lon="6.71884">
        <ele>633</ele>
        <time>2023-05-01T19:49:31.560Z</time>
      </trkpt>
      <trkpt lat="47.76176" lon="6.719">
        <ele>632</ele>
        <time>2023-05-01T19:49:38.452Z</time>
      </trkpt>
      <trkpt lat="47.76187" lon="6.7193">
        <ele>630</ele>
        <time>2023-05-01T19:49:45.348Z</time>
      </trkpt>
      <trkpt lat="47.76187" lon="6.71938">
        <ele>628</ele>
        <time>2023-05-01T19:49:52.245Z</time>
      </trkpt>
      <trkpt lat="47.76184" lon="6.71945">
        <ele>627</ele>
        <time>2023-05-01T19:49:59.143Z</time>
      </trkpt>
      <trkpt lat="47.76179" lon="6.7195">
        <ele>625</ele>
        <time>2023-05-01T19:50:06.043Z</time>
      </trkpt>
      <trkpt lat="47.76164" lon="6.71951">
        <ele>624</ele>
        <time>2023-05-01T19:50:12.945Z</time>
      </trkpt>
      <trkpt lat="47.76141" lon="6.71946">
        <ele>622</ele>
        <time>2023-05-01T19:50:19.852Z</time>
      </trkpt>
      <trkpt lat="47.76133" lon="6.71949">
        <ele>621</ele>
        <time>2023-05-01T19:50:26.761Z</time>
      </trkpt>
      <trkpt lat="47.7611" lon="6.71962">
        <ele>620</ele>
        <time>2023-05-01T19:50:33.675Z</time>
      </trkpt>
      <trkpt lat="47.76101" lon="6.71964">
        <ele>618</ele>
        <time>2023-05-01T19:50:40.591Z</time>
      </trkpt>
      <trkpt lat="47.76092" lon="6.71965">
        <ele>617</ele>
        <time>2023-05-01T19:50:47.508Z</time>
      </trkpt>
      <trkpt lat="47.76084" lon="6.71964">
        <ele>616</ele>
        <time>2023-05-01T19:50:54.427Z</time>
      </trkpt>
      <trkpt lat="47.76068" lon="6.71958">
        <ele>614</ele>
        <time>2023-05-01T19:51:01.349Z</time>
      </trkpt>
      <trkpt lat="47.76054" lon="6.7195">
        <ele>613</ele>
        <time>2023-05-01T19:51:08.274Z</time>
      </trkpt>
      <trkpt lat="47.7604" lon="6.7194">
        <ele>611</ele>
        <time>2023-05-01T19:51:15.202Z</time>
      </trkpt>
      <trkpt lat="47.76002" lon="6.71927">
        <ele>610</ele>
        <time>2023-05-01T19:51:22.138Z</time>
      </trkpt>
      <trkpt lat="47.75966" lon="6.7192">
        <ele>609</ele>
        <time>2023-05-01T19:51:29.082Z</time>
      </trkpt>
      <trkpt lat="47.75956" lon="6.71914">
        <ele>607</ele>
        <time>2023-05-01T19:51:36.028Z</time>
      </trkpt>
      <trkpt lat="47.75947" lon="6.71907">
        <ele>606</ele>
        <time>2023-05-01T19:51:42.976Z</time>
      </trkpt>
      <trkpt lat="47.7594" lon="6.71897">
        <ele>605</ele>
        <time>2023-05-01T19:51:49.926Z</time>
      </trkpt>
      <trkpt lat="47.75902" lon="6.71815">
        <ele>603</ele>
        <time>2023-05-01T19:51:56.889Z</time>
      </trkpt>
      <trkpt lat="47.75887" lon="6.71795">
        <ele>602</ele>
        <time>2023-05-01T19:52:03.856Z</time>
      </trkpt>
      <trkpt lat="47.75875" lon="6.71784">
        <ele>601</ele>
        <time>2023-05-01T19:52:10.826Z</time>
      </trkpt>
      <trkpt lat="47.75837" lon="6.71754">
        <ele>600</ele>
        <time>2023-05-01T19:52:17.805Z</time>
      </trkpt>
      <trkpt lat="47.75817" lon="6.71742">
        <ele>598</ele>
        <time>2023-05-01T19:52:24.788Z</time>
      </trkpt>
      <trkpt lat="47.75794" lon="6.71732">
        <ele>597</ele>
        <time>2023-05-01T19:52:31.776Z</time>
      </trkpt>
      <trkpt lat="47.75789" lon="6.71728">
        <ele>596</ele>
        <time>2023-05-01T19:52:38.765Z</time>
      </trkpt>
      <trkpt lat="47.75784" lon="6.71721">
        <ele>595</ele>
        <time>2023-05-01T19:52:45.755Z</time>
      </trkpt>
      <trkpt lat="47.75777" lon="6.71694">
        <ele>594</ele>
        <time>2023-05-01T19:52:52.749Z</time>
      </trkpt>
      <trkpt lat="47.7577" lon="6.71675">
        <ele>592</ele>
        <time>2023-05-01T19:52:59.746Z</time>
      </trkpt>
      <trkpt lat="47.75725" lon="6.71604">
        <ele>591</ele>
        <time>2023-05-01T19:53:06.756Z</time>
      </trkpt>
      <trkpt lat="47.75718" lon="6.71581">
        <ele>591</ele>
        <time>2023-05-01T19:53:13.770Z</time>
      </trkpt>
      <trkpt lat="47.75718" lon="6.71568">
        <ele>590</ele>
        <time>2023-05-01T19:53:20.785Z</time>
      </trkpt>
      <trkpt lat="47.75719" lon="6.71557">
        <ele>589</ele>
        <time>2023-05-01T19:53:27.802Z</time>
      </trkpt>
      <trkpt lat="47.75739" lon="6.71484">
        <ele>588</ele>
        <time>2023-05-01T19:53:34.829Z</time>
      </trkpt>
      <trkpt lat="47.75753" lon="6.71425">
        <ele>587</ele>
        <time>2023-05-01T19:53:41.865Z</time>
      </trkpt>
      <trkpt lat="47.75757" lon="6.71418">
        <ele>586</ele>
        <time>2023-05-01T19:53:48.902Z</time>
      </trkpt>
      <trkpt lat="47.75762" lon="6.71412">
        <ele>585</ele>
        <time>2023-05-01T19:53:55.940Z</time>
      </trkpt>
      <trkpt lat="47.75787" lon="6.71392">
        <ele>585</ele>
        <time>2023-05-01T19:54:02.984Z</time>
      </trkpt>
      <trkpt lat="47.75793" lon="6.71392">
        <ele>584</ele>
        <time>2023-05-01T19:54:10.029Z</time>
      </trkpt>
      <trkpt lat="47.75794" lon="6.71391">
        <ele>584</ele>
        <time>2023-05-01T19:54:17.074Z</time>
      </trkpt>
      <trkpt lat="47.75793" lon="6.71389">
        <ele>583</ele>
        <time>2023-05-01T19:54:24.120Z</time>
      </trkpt>
      <trkpt lat="47.75791" lon="6.71389">
        <ele>583</ele>
        <time>2023-05-01T19:54:31.166Z</time>
      </trkpt>
      <trkpt lat="47.75782" lon="6.71398">
        <ele>583</ele>
        <time>2023-05-01T19:54:38.214Z</time>
      </trkpt>
      <trkpt lat="47.75778" lon="6.714">
        <ele>583</ele>
        <time>2023-05-01T19:54:45.263Z</time>
      </trkpt>
      <trkpt lat="47.75761" lon="6.71381">
        <ele>583</ele>
        <time>2023-05-01T19:54:52.316Z</time>
      </trkpt>
      <trkpt lat="47.75763" lon="6.71357">
        <ele>583</ele>
        <time>2023-05-01T19:54:59.373Z</time>
      </trkpt>
      <trkpt lat="47.75775" lon="6.71301">
        <ele>583</ele>
        <time>2023-05-01T19:55:06.438Z</time>
      </trkpt>
      <trkpt lat="47.75786" lon="6.71237">
        <ele>583</ele>
        <time>2023-05-01T19:55:13.512Z</time>
      </trkpt>
      <trkpt lat="47.75788" lon="6.71218">
        <ele>583</ele>
        <time>2023-05-01T19:55:20.588Z</time>
      </trkpt>
      <trkpt lat="47.75785" lon="6.7109">
        <ele>583</ele>
        <time>2023-05-01T19:55:27.681Z</time>
      </trkpt>
      <trkpt lat="47.75792" lon="6.71051">
        <ele>584</ele>
        <time>2023-05-01T19:55:34.780Z</time>
      </trkpt>
      <trkpt lat="47.75791" lon="6.71032">
        <ele>584</ele>
        <time>2023-05-01T19:55:41.881Z</time>
      </trkpt>
      <trkpt lat="47.75784" lon="6.70988">
        <ele>584</ele>
        <time>2023-05-01T19:55:48.989Z</time>
      </trkpt>
      <trkpt lat="47.75776" lon="6.70897">
        <ele>585</ele>
        <time>2023-05-01T19:55:56.109Z</time>
      </trkpt>
      <trkpt lat="47.75773" lon="6.70881">
        <ele>586</ele>
        <time>2023-05-01T19:56:03.231Z</time>
      </trkpt>
      <trkpt lat="47.75764" lon="6.70851">
        <ele>587</ele>
        <time>2023-05-01T19:56:10.358Z</time>
      </trkpt>
      <trkpt lat="47.75758" lon="6.7084">
        <ele>587</ele>
        <time>2023-05-01T19:56:17.487Z</time>
      </trkpt>
      <trkpt lat="47.75753" lon="6.70835">
        <ele>588</ele>
        <time>2023-05-01T19:56:24.617Z</time>
      </trkpt>
      <trkpt lat="47.75718" lon="6.70812">
        <ele>589</ele>
        <time>2023-05-01T19:56:31.754Z</time>
      </trkpt>
      <trkpt lat="47.75711" lon="6.70805">
        <ele>590</ele>
        <time>2023-05-01T19:56:38.893Z</time>
      </trkpt>
      <trkpt lat="47.75702" lon="6.70793">
        <ele>591</ele>
        <time>2023-05-01T19:56:46.035Z</time>
      </trkpt>
      <trkpt lat="47.75684" lon="6.70775">
        <ele>592</ele>
        <time>2023-05-01T19:56:53.181Z</time>
      </trkpt>
      <trkpt lat="47.75685" lon="6.7077">
        <ele>593</ele>
        <time>2023-05-01T19:57:00.328Z</time>
      </trkpt>
      <trkpt lat="47.75686" lon="6.7077">
        <ele>594</ele>
        <time>2023-05-01T19:57:07.475Z</time>
      </trkpt>
      <trkpt lat="47.75683" lon="6.70764">
        <ele>595</ele>
        <time>2023-05-01T19:57:14.623Z</time>
      </trkpt>
      <trkpt lat="47.75684" lon="6.70755">
        <ele>596</ele>
        <time>2023-05-01T19:57:21.772Z</time>
      </trkpt>
      <trkpt lat="47.75692" lon="6.70735">
        <ele>597</ele>
        <time>2023-05-01T19:57:28.924Z</time>
      </trkpt>
      <trkpt lat="47.75697" lon="6.70728">
        <ele>598</ele>
        <time>2023-05-01T19:57:36.078Z</time>
      </trkpt>
      <trkpt lat="47.75701" lon="6.70727">
        <ele>599</ele>
        <time>2023-05-01T19:57:43.232Z</time>
      </trkpt>
      <trkpt lat="47.75705" lon="6.70718">
        <ele>601</ele>
        <time>2023-05-01T19:57:50.388Z</time>
      </trkpt>
      <trkpt lat="47.75717" lon="6.70702">
        <ele>602</ele>
        <time>2023-05-01T19:57:57.547Z</time>
      </trkpt>
      <trkpt lat="47.75719" lon="6.70697">
        <ele>603</ele>
        <time>2023-05-01T19:58:04.707Z</time>
      </trkpt>
      <trkpt lat="47.75736" lon="6.70679">
        <ele>604</ele>
        <time>2023-05-01T19:58:11.871Z</time>
      </trkpt>
      <trkpt lat="47.75747" lon="6.70662">
        <ele>605</ele>
        <time>2023-05-01T19:58:19.038Z</time>
      </trkpt>
      <trkpt lat="47.75765" lon="6.7061">
        <ele>606</ele>
        <time>2023-05-01T19:58:26.213Z</time>
      </trkpt>
      <trkpt lat="47.75767" lon="6.70595">
        <ele>608</ele>
        <time>2023-05-01T19:58:33.390Z</time>
      </trkpt>
      <trkpt lat="47.75767" lon="6.70589">
        <ele>609</ele>
        <time>2023-05-01T19:58:40.568Z</time>
      </trkpt>
      <trkpt lat="47.75774" lon="6.70562">
        <ele>610</ele>
        <time>2023-05-01T19:58:47.750Z</time>
      </trkpt>
      <trkpt lat="47.75772" lon="6.70556">
        <ele>611</ele>
        <time>2023-05-01T19:58:54.933Z</time>
      </trkpt>
      <trkpt lat="47.75776" lon="6.70546">
        <ele>612</ele>
        <time>2023-05-01T19:59:02.118Z</time>
      </trkpt>
      <trkpt lat="47.75774" lon="6.70536">
        <ele>614</ele>
        <time>2023-05-01T19:59:09.304Z</time>
      </trkpt>
      <trkpt lat="47.75776" lon="6.70519">
        <ele>615</ele>
        <time>2023-05-01T19:59:16.492Z</time>
      </trkpt>
      <trkpt lat="47.75773" lon="6.70494">
        <ele>616</ele>
        <time>2023-05-01T19:59:23.684Z</time>
      </trkpt>
      <trkpt lat="47.75769" lon="6.70485">
        <ele>617</ele>
        <time>2023-05-01T19:59:30.877Z</time>
      </trkpt>
      <trkpt lat="47.75758" lon="6.70439">
        <ele>618</ele>
        <time>2023-05-01T19:59:38.077Z</time>
      </trkpt>
      <trkpt lat="47.75751" lon="6.70429">
        <ele>620</ele>
        <time>2023-05-01T19:59:45.279Z</time>
      </trkpt>
      <trkpt lat="47.7574" lon="6.70404">
        <ele>621</ele>
        <time>2023-05-01T19:59:52.485Z</time>
      </trkpt>
      <trkpt lat="47.7574" lon="6.70396">
        <ele>622</ele>
        <time>2023-05-01T19:59:59.692Z</time>
      </trkpt>
      <trkpt lat="47.75736" lon="6.70389">
        <ele>623</ele>
        <time>2023-05-01T20:00:06.900Z</time>
      </trkpt>
      <trkpt lat="47.75733" lon="6.70374">
        <ele>623</ele>
        <time>2023-05-01T20:00:14.110Z</time>
      </trkpt>
      <trkpt lat="47.75727" lon="6.70366">
        <ele>624</ele>
        <time>2023-05-01T20:00:21.322Z</time>
      </trkpt>
      <trkpt lat="47.75728" lon="6.7036">
        <ele>625</ele>
        <time>2023-05-01T20:00:28.535Z</time>
      </trkpt>
      <trkpt lat="47.75739" lon="6.70352">
        <ele>626</ele>
        <time>2023-05-01T20:00:35.750Z</time>
      </trkpt>
      <trkpt lat="47.75748" lon="6.70341">
        <ele>626</ele>
        <time>2023-05-01T20:00:42.967Z</time>
      </trkpt>
      <trkpt lat="47.75754" lon="6.70337">
        <ele>627</ele>
        <time>2023-05-01T20:00:50.186Z</time>
      </trkpt>
      <trkpt lat="47.75758" lon="6.70336">
        <ele>628</ele>
        <time>2023-05-01T20:00:57.405Z</time>
      </trkpt>
      <trkpt lat="47.75762" lon="6.70334">
        <ele>629</ele>
        <time>2023-05-01T20:01:04.625Z</time>
      </trkpt>
      <trkpt lat="47.75765" lon="6.70331">
        <ele>629</ele>
        <time>2023-05-01T20:01:11.846Z</time>
      </trkpt>
      <trkpt lat="47.75765" lon="6.70323">
        <ele>630</ele>
        <time>2023-05-01T20:01:19.068Z</time>
      </trkpt>
      <trkpt lat="47.75769" lon="6.7031">
        <ele>631</ele>
        <time>2023-05-01T20:01:26.292Z</time>
      </trkpt>
      <trkpt lat="47.75782" lon="6.70297">
        <ele>631</ele>
        <time>2023-05-01T20:01:33.519Z</time>
      </trkpt>
      <trkpt lat="47.75803" lon="6.70265">
        <ele>632</ele>
        <time>2023-05-01T20:01:40.752Z</time>
      </trkpt>
      <trkpt lat="47.75819" lon="6.70228">
        <ele>633</ele>
        <time>2023-05-01T20:01:47.991Z</time>
      </trkpt>
      <trkpt lat="47.75834" lon="6.70204">
        <ele>634</ele>
        <time>2023-05-01T20:01:55.234Z</time>
      </trkpt>
      <trkpt lat="47.7584" lon="6.70185">
        <ele>634</ele>
        <time>2023-05-01T20:02:02.480Z</time>
      </trkpt>
      <trkpt lat="47.75839" lon="6.70178">
        <ele>635</ele>
        <time>2023-05-01T20:02:09.727Z</time>
      </trkpt>
      <trkpt lat="47.75846" lon="6.7016">
        <ele>636</ele>
        <time>2023-05-01T20:02:16.977Z</time>
      </trkpt>
      <trkpt lat="47.7585" lon="6.70138">
        <ele>636</ele>
        <time>2023-05-01T20:02:24.230Z</time>
      </trkpt>
      <trkpt lat="47.75852" lon="6.70136">
        <ele>637</ele>
        <time>2023-05-01T20:02:31.484Z</time>
      </trkpt>
      <trkpt lat="47.75853" lon="6.70133">
        <ele>638</ele>
        <time>2023-05-01T20:02:38.738Z</time>
      </trkpt>
      <trkpt lat="47.75854" lon="6.70119">
        <ele>638</ele>
        <time>2023-05-01T20:02:45.994Z</time>
      </trkpt>
      <trkpt lat="47.75852" lon="6.70114">
        <ele>639</ele>
        <time>2023-05-01T20:02:53.251Z</time>
      </trkpt>
      <trkpt lat="47.75855" lon="6.70079">
        <ele>639</ele>
        <time>2023-05-01T20:03:00.512Z</time>
      </trkpt>
      <trkpt lat="47.75855" lon="6.70054">
        <ele>640</ele>
        <time>2023-05-01T20:03:07.777Z</time>
      </trkpt>
      <trkpt lat="47.75853" lon="6.70048">
        <ele>641</ele>
        <time>2023-05-01T20:03:15.043Z</time>
      </trkpt>
      <trkpt lat="47.75855" lon="6.70041">
        <ele>641</ele>
        <time>2023-05-01T20:03:22.310Z</time>
      </trkpt>
      <trkpt lat="47.75855" lon="6.70032">
        <ele>642</ele>
        <time>2023-05-01T20:03:29.578Z</time>
      </trkpt>
      <trkpt lat="47.75845" lon="6.69987">
        <ele>642</ele>
        <time>2023-05-01T20:03:36.852Z</time>
      </trkpt>
      <trkpt lat="47.75842" lon="6.6997">
        <ele>643</ele>
        <time>2023-05-01T20:03:44.129Z</time>
      </trkpt>
      <trkpt lat="47.75838" lon="6.69955">
        <ele>644</ele>
        <time>2023-05-01T20:03:51.408Z</time>
      </trkpt>
      <trkpt lat="47.75839" lon="6.6995">
        <ele>644</ele>
        <time>2023-05-01T20:03:58.688Z</time>
      </trkpt>
      <trkpt lat="47.7583" lon="6.69929">
        <ele>645</ele>
        <time>2023-05-01T20:04:05.971Z</time>
      </trkpt>
      <trkpt lat="47.75829" lon="6.69922">
        <ele>645</ele>
        <time>2023-05-01T20:04:13.255Z</time>
      </trkpt>
      <trkpt lat="47.7582" lon="6.69899">
        <ele>646</ele>
        <time>2023-05-01T20:04:20.543Z</time>
      </trkpt>
      <trkpt lat="47.75813" lon="6.69889">
        <ele>647</ele>
        <time>2023-05-01T20:04:27.833Z</time>
      </trkpt>
      <trkpt lat="47.75806" lon="6.69882">
        <ele>647</ele>
        <time>2023-05-01T20:04:35.124Z</time>
      </trkpt>
      <trkpt lat="47.75781" lon="6.69843">
        <ele>648</ele>
        <time>2023-05-01T20:04:42.423Z</time>
      </trkpt>
      <trkpt lat="47.75775" lon="6.69836">
        <ele>649</ele>
        <time>2023-05-01T20:04:49.723Z</time>
      </trkpt>
      <trkpt lat="47.75765" lon="6.69833">
        <ele>649</ele>
        <time>2023-05-01T20:04:57.025Z</time>
      </trkpt>
      <trkpt lat="47.75756" lon="6.69835">
        <ele>650</ele>
        <time>2023-05-01T20:05:04.329Z</time>
      </trkpt>
      <trkpt lat="47.75753" lon="6.69833">
        <ele>651</ele>
        <time>2023-05-01T20:05:11.634Z</time>
      </trkpt>
      <trkpt lat="47.75745" lon="6.69833">
        <ele>652</ele>
        <time>2023-05-01T20:05:18.940Z</time>
      </trkpt>
      <trkpt lat="47.75747" lon="6.69832">
        <ele>652</ele>
        <time>2023-05-01T20:05:26.246Z</time>
      </trkpt>
      <trkpt lat="47.75744" lon="6.69831">
        <ele>653</ele>
        <time>2023-05-01T20:05:33.553Z</time>
      </trkpt>
      <trkpt lat="47.75735" lon="6.69831">
        <ele>654</ele>
        <time>2023-05-01T20:05:40.862Z</time>
      </trkpt>
      <trkpt lat="47.75724" lon="6.69833">
        <ele>655</ele>
        <time>2023-05-01T20:05:48.173Z</time>
      </trkpt>
      <trkpt lat="47.75718" lon="6.69835">
        <ele>656</ele>
        <time>2023-05-01T20:05:55.485Z</time>
      </trkpt>
      <trkpt lat="47.75712" lon="6.69833">
        <ele>657</ele>
        <time>2023-05-01T20:06:02.799Z</time>
      </trkpt>
      <trkpt lat="47.75694" lon="6.69841">
        <ele>658</ele>
        <time>2023-05-01T20:06:10.116Z</time>
      </trkpt>
      <trkpt lat="47.75688" lon="6.6984">
        <ele>659</ele>
        <time>2023-05-01T20:06:17.435Z</time>
      </trkpt>
      <trkpt lat="47.75681" lon="6.69842">
        <ele>660</ele>
        <time>2023-05-01T20:06:24.755Z</time>
      </trkpt>
      <trkpt lat="47.7567" lon="6.69854">
        <ele>661</ele>
        <time>2023-05-01T20:06:32.078Z</time>
      </trkpt>
      <trkpt lat="47.75662" lon="6.69855">
        <ele>662</ele>
        <time>2023-05-01T20:06:39.402Z</time>
      </trkpt>
      <trkpt lat="47.75656" lon="6.69861">
        <ele>663</ele>
        <time>2023-05-01T20:06:46.728Z</time>
      </trkpt>
      <trkpt lat="47.75643" lon="6.69867">
        <ele>664</ele>
        <time>2023-05-01T20:06:54.056Z</time>
      </trkpt>
      <trkpt lat="47.75634" lon="6.69864">
        <ele>666</ele>
        <time>2023-05-01T20:07:01.386Z</time>
      </trkpt>
      <trkpt lat="47.7563" lon="6.69866">
        <ele>667</ele>
        <time>2023-05-01T20:07:08.717Z</time>
      </trkpt>
      <trkpt lat="47.75626" lon="6.69871">
        <ele>668</ele>
        <time>2023-05-01T20:07:16.049Z</time>
      </trkpt>
      <trkpt lat="47.75604" lon="6.69881">
        <ele>669</ele>
        <time>2023-05-01T20:07:23.386Z</time>
      </trkpt>
      <trkpt lat="47.75597" lon="6.69888">
        <ele>671</ele>
        <time>2023-05-01T20:07:30.724Z</time>
      </trkpt>
      <trkpt lat="47.75591" lon="6.69896">
        <ele>672</ele>
        <time>2023-05-01T20:07:38.064Z</time>
      </trkpt>
      <trkpt lat="47.75584" lon="6.69919">
        <ele>673</ele>
        <time>2023-05-01T20:07:45.408Z</time>
      </trkpt>
      <trkpt lat="47.75583" lon="6.69939">
        <ele>675</ele>
        <time>2023-05-01T20:07:52.754Z</time>
      </trkpt>
      <trkpt lat="47.75578" lon="6.69972">
        <ele>676</ele>
        <time>2023-05-01T20:08:00.105Z</time>
      </trkpt>
      <trkpt lat="47.75576" lon="6.70004">
        <ele>677</ele>
        <time>2023-05-01T20:08:07.460Z</time>
      </trkpt>
      <trkpt lat="47.75569" lon="6.7005">
        <ele>679</ele>
        <time>2023-05-01T20:08:14.822Z</time>
      </trkpt>
      <trkpt lat="47.7556" lon="6.70082">
        <ele>680</ele>
        <time>2023-05-01T20:08:22.188Z</time>
      </trkpt>
      <trkpt lat="47.75544" lon="6.70122">
        <ele>682</ele>
        <time>2023-05-01T20:08:29.560Z</time>
      </trkpt>
      <trkpt lat="47.75509" lon="6.70176">
        <ele>683</ele>
        <time>2023-05-01T20:08:36.943Z</time>
      </trkpt>
      <trkpt lat="47.75481" lon="6.70209">
        <ele>685</ele>
        <time>2023-05-01T20:08:44.333Z</time>
      </trkpt>
      <trkpt lat="47.75472" lon="6.70228">
        <ele>686</ele>
        <time>2023-05-01T20:08:51.726Z</time>
      </trkpt>
      <trkpt lat="47.75461" lon="6.70241">
        <ele>688</ele>
        <time>2023-05-01T20:08:59.122Z</time>
      </trkpt>
      <trkpt lat="47.75443" lon="6.70279">
        <ele>689</ele>
        <time>2023-05-01T20:09:06.524Z</time>
      </trkpt>
      <trkpt lat="47.75434" lon="6.70313">
        <ele>691</ele>
        <time>2023-05-01T20:09:13.931Z</time>
      </trkpt>
      <trkpt lat="47.7542" lon="6.70353">
        <ele>692</ele>
        <time>2023-05-01T20:09:21.344Z</time>
      </trkpt>
      <trkpt lat="47.75413" lon="6.70364">
        <ele>694</ele>
        <time>2023-05-01T20:09:28.759Z</time>
      </trkpt>
      <trkpt lat="47.754" lon="6.70379">
        <ele>695</ele>
        <time>2023-05-01T20:09:36.177Z</time>
      </trkpt>
      <trkpt lat="47.75368" lon="6.70401">
        <ele>696</ele>
        <time>2023-05-01T20:09:43.602Z</time>
      </trkpt>
      <trkpt lat="47.75364" lon="6.70401">
        <ele>698</ele>
        <time>2023-05-01T20:09:51.028Z</time>
      </trkpt>
      <trkpt lat="47.75354" lon="6.70397">
        <ele>699</ele>
        <time>2023-05-01T20:09:58.456Z</time>
      </trkpt>
      <trkpt lat="47.75337" lon="6.70377">
        <ele>701</ele>
        <time>2023-05-01T20:10:05.889Z</time>
      </trkpt>
      <trkpt lat="47.75325" lon="6.70356">
        <ele>702</ele>
        <time>2023-05-01T20:10:13.325Z</time>
      </trkpt>
      <trkpt lat="47.75305" lon="6.70339">
        <ele>704</ele>
        <time>2023-05-01T20:10:20.766Z</time>
      </trkpt>
      <trkpt lat="47.75297" lon="6.70337">
        <ele>705</ele>
        <time>2023-05-01T20:10:28.209Z</time>
      </trkpt>
      <trkpt lat="47.75286" lon="6.70328">
        <ele>707</ele>
        <time>2023-05-01T20:10:35.654Z</time>
      </trkpt>
      <trkpt lat="47.75284" lon="6.70323">
        <ele>708</ele>
        <time>2023-05-01T20:10:43.100Z</time>
      </trkpt>
      <trkpt lat="47.75277" lon="6.70317">
        <ele>709</ele>
        <time>2023-05-01T20:10:50.547Z</time>
      </trkpt>
      <trkpt lat="47.75265" lon="6.703">
        <ele>710</ele>
        <time>2023-05-01T20:10:57.998Z</time>
      </trkpt>
      <trkpt lat="47.75258" lon="6.70287">
        <ele>712</ele>
        <time>2023-05-01T20:11:05.451Z</time>
      </trkpt>
      <trkpt lat="47.75253" lon="6.70282">
        <ele>713</ele>
        <time>2023-05-01T20:11:12.905Z</time>
      </trkpt>
      <trkpt lat="47.75245" lon="6.70278">
        <ele>714</ele>
        <time>2023-05-01T20:11:20.361Z</time>
      </trkpt>
      <trkpt lat="47.75243" lon="6.70273">
        <ele>715</ele>
        <time>2023-05-01T20:11:27.818Z</time>
      </trkpt>
      <trkpt lat="47.75238" lon="6.70267">
        <ele>716</ele>
        <time>2023-05-01T20:11:35.276Z</time>
      </trkpt>
      <trkpt lat="47.75237" lon="6.70261">
        <ele>717</ele>
        <time>2023-05-01T20:11:42.735Z</time>
      </trkpt>
      <trkpt lat="47.75231" lon="6.70253">
        <ele>718</ele>
        <time>2023-05-01T20:11:50.196Z</time>
      </trkpt>
      <trkpt lat="47.75232" lon="6.70251">
        <ele>719</ele>
        <time>2023-05-01T20:11:57.657Z</time>
      </trkpt>
      <trkpt lat="47.75227" lon="6.70242">
        <ele>720</ele>
        <time>2023-05-01T20:12:05.119Z</time>
      </trkpt>
      <trkpt lat="47.75219" lon="6.70213">
        <ele>721</ele>
        <time>2023-05-01T20:12:12.586Z</time>
      </trkpt>
      <trkpt lat="47.75219" lon="6.70202">
        <ele>722</ele>
        <time>2023-05-01T20:12:20.054Z</time>
      </trkpt>
      <trkpt lat="47.75215" lon="6.70192">
        <ele>723</ele>
        <time>2023-05-01T20:12:27.524Z</time>
      </trkpt>
      <trkpt lat="47.75215" lon="6.70188">
        <ele>724</ele>
        <time>2023-05-01T20:12:34.994Z</time>
      </trkpt>
      <trkpt lat="47.75211" lon="6.7018">
        <ele>725</ele>
        <time>2023-05-01T20:12:42.466Z</time>
      </trkpt>
      <trkpt lat="47.7521" lon="6.70169">
        <ele>725</ele>
        <time>2023-05-01T20:12:49.939Z</time>
      </trkpt>
      <trkpt lat="47.75201" lon="6.70145">
        <ele>726</ele>
        <time>2023-05-01T20:12:57.416Z</time>
      </trkpt>
      <trkpt lat="47.75176" lon="6.70107">
        <ele>727</ele>
        <time>2023-05-01T20:13:04.900Z</time>
      </trkpt>
      <trkpt lat="47.7517" lon="6.70094">
        <ele>728</ele>
        <time>2023-05-01T20:13:12.386Z</time>
      </trkpt>
      <trkpt lat="47.75164" lon="6.70086">
        <ele>729</ele>
        <time>2023-05-01T20:13:19.874Z</time>
      </trkpt>
      <trkpt lat="47.75164" lon="6.7008">
        <ele>730</ele>
        <time>2023-05-01T20:13:27.362Z</time>
      </trkpt>
      <trkpt lat="47.75155" lon="6.70062">
        <ele>731</ele>
        <time>2023-05-01T20:13:34.853Z</time>
      </trkpt>
      <trkpt lat="47.75153" lon="6.70052">
        <ele>732</ele>
        <time>2023-05-01T20:13:42.346Z</time>
      </trkpt>
      <trkpt lat="47.75146" lon="6.70042">
        <ele>734</ele>
        <time>2023-05-01T20:13:49.841Z</time>
      </trkpt>
      <trkpt lat="47.75145" lon="6.70039">
        <ele>735</ele>
        <time>2023-05-01T20:13:57.336Z</time>
      </trkpt>
      <trkpt lat="47.75148" lon="6.70032">
        <ele>736</ele>
        <time>2023-05-01T20:14:04.832Z</time>
      </trkpt>
      <trkpt lat="47.75148" lon="6.70024">
        <ele>737</ele>
        <time>2023-05-01T20:14:12.329Z</time>
      </trkpt>
      <trkpt lat="47.7515" lon="6.70018">
        <ele>738</ele>
        <time>2023-05-01T20:14:19.827Z</time>
      </trkpt>
      <trkpt lat="47.75148" lon="6.70014">
        <ele>739</ele>
        <time>2023-05-01T20:14:27.326Z</time>
      </trkpt>
      <trkpt lat="47.75149" lon="6.69988">
        <ele>740</ele>
        <time>2023-05-01T20:14:34.829Z</time>
      </trkpt>
      <trkpt lat="47.75148" lon="6.6998">
        <ele>741</ele>
        <time>2023-05-01T20:14:42.333Z</time>
      </trkpt>
      <trkpt lat="47.75134" lon="6.69934">
        <ele>743</ele>
        <time>2023-05-01T20:14:49.843Z</time>
      </trkpt>
      <trkpt lat="47.75133" lon="6.69923">
        <ele>744</ele>
        <time>2023-05-01T20:14:57.355Z</time>
      </trkpt>
      <trkpt lat="47.75129" lon="6.69914">
        <ele>745</ele>
        <time>2023-05-01T20:15:04.868Z</time>
      </trkpt>
      <trkpt lat="47.75125" lon="6.69899">
        <ele>747</ele>
        <time>2023-05-01T20:15:12.384Z</time>
      </trkpt>
      <trkpt lat="47.75113" lon="6.69875">
        <ele>748</ele>
        <time>2023-05-01T20:15:19.904Z</time>
      </trkpt>
      <trkpt lat="47.75111" lon="6.69863">
        <ele>750</ele>
        <time>2023-05-01T20:15:27.425Z</time>
      </trkpt>
      <trkpt lat="47.75098" lon="6.69844">
        <ele>751</ele>
        <time>2023-05-01T20:15:34.950Z</time>
      </trkpt>
      <trkpt lat="47.75098" lon="6.69831">
        <ele>753</ele>
        <time>2023-05-01T20:15:42.477Z</time>
      </trkpt>
      <trkpt lat="47.75093" lon="6.69813">
        <ele>754</ele>
        <time>2023-05-01T20:15:50.006Z</time>
      </trkpt>
      <trkpt lat="47.75095" lon="6.69802">
        <ele>755</ele>
        <time>2023-05-01T20:15:57.537Z</time>
      </trkpt>
      <trkpt lat="47.75093" lon="6.69792">
        <ele>757</ele>
        <time>2023-05-01T20:16:05.069Z</time>
      </trkpt>
      <trkpt lat="47.75097" lon="6.69784">
        <ele>758</ele>
        <time>2023-05-01T20:16:12.603Z</time>
      </trkpt>
      <trkpt lat="47.75094" lon="6.69777">
        <ele>759</ele>
        <time>2023-05-01T20:16:20.138Z</time>
      </trkpt>
      <trkpt lat="47.75095" lon="6.69773">
        <ele>761</ele>
        <time>2023-05-01T20:16:27.673Z</time>
      </trkpt>
      <trkpt lat="47.75092" lon="6.69764">
        <ele>762</ele>
        <time>2023-05-01T20:16:35.210Z</time>
      </trkpt>
      <trkpt lat="47.75092" lon="6.69757">
        <ele>764</ele>
        <time>2023-05-01T20:16:42.748Z</time>
      </trkpt>
      <trkpt lat="47.75096" lon="6.69742">
        <ele>765</ele>
        <time>2023-05-01T20:16:50.288Z</time>
      </trkpt>
      <trkpt lat="47.75099" lon="6.69707">
        <ele>766</ele>
        <time>2023-05-01T20:16:57.832Z</time>
      </trkpt>
      <trkpt lat="47.75096" lon="6.69696">
        <ele>768</ele>
        <time>2023-05-01T20:17:05.378Z</time>
      </trkpt>
      <trkpt lat="47.75095" lon="6.69668">
        <ele>769</ele>
        <time>2023-05-01T20:17:12.928Z</time>
      </trkpt>
      <trkpt lat="47.75092" lon="6.69663">
        <ele>771</ele>
        <time>2023-05-01T20:17:20.479Z</time>
      </trkpt>
      <trkpt lat="47.75085" lon="6.69638">
        <ele>772</ele>
        <time>2023-05-01T20:17:28.034Z</time>
      </trkpt>
      <trkpt lat="47.75078" lon="6.69628">
        <ele>773</ele>
        <time>2023-05-01T20:17:35.590Z</time>
      </trkpt>
      <trkpt lat="47.75075" lon="6.69617">
        <ele>775</ele>
        <time>2023-05-01T20:17:43.148Z</time>
      </trkpt>
      <trkpt lat="47.75069" lon="6.69608">
        <ele>776</ele>
        <time>2023-05-01T20:17:50.708Z</time>
      </trkpt>
      <trkpt lat="47.75064" lon="6.69592">
        <ele>778</ele>
        <time>2023-05-01T20:17:58.270Z</time>
      </trkpt>
      <trkpt lat="47.75054" lon="6.69575">
        <ele>779</ele>
        <time>2023-05-01T20:18:05.835Z</time>
      </trkpt>
      <trkpt lat="47.75044" lon="6.69548">
        <ele>780</ele>
        <time>2023-05-01T20:18:13.404Z</time>
      </trkpt>
      <trkpt lat="47.75045" lon="6.69518">
        <ele>781</ele>
        <time>2023-05-01T20:18:20.977Z</time>
      </trkpt>
      <trkpt lat="47.75036" lon="6.69477">
        <ele>783</ele>
        <time>2023-05-01T20:18:28.556Z</time>
      </trkpt>
      <trkpt lat="47.75039" lon="6.69459">
        <ele>784</ele>
        <time>2023-05-01T20:18:36.138Z</time>
      </trkpt>
      <trkpt lat="47.75038" lon="6.69445">
        <ele>785</ele>
        <time>2023-05-01T20:18:43.721Z</time>
      </trkpt>
      <trkpt lat="47.75039" lon="6.69437">
        <ele>786</ele>
        <time>2023-05-01T20:18:51.306Z</time>
      </trkpt>
      <trkpt lat="47.75037" lon="6.69429">
        <ele>787</ele>
        <time>2023-05-01T20:18:58.892Z</time>
      </trkpt>
      <trkpt lat="47.75039" lon="6.69423">
        <ele>787</ele>
        <time>2023-05-01T20:19:06.479Z</time>
      </trkpt>
      <trkpt lat="47.75045" lon="6.69415">
        <ele>788</ele>
        <time>2023-05-01T20:19:14.067Z</time>
      </trkpt>
      <trkpt lat="47.75046" lon="6.69409">
        <ele>788</ele>
        <time>2023-05-01T20:19:21.656Z</time>
      </trkpt>
      <trkpt lat="47.75055" lon="6.69398">
        <ele>789</ele>
        <time>2023-05-01T20:19:29.248Z</time>
      </trkpt>
      <trkpt lat="47.75087" lon="6.69368">
        <ele>789</ele>
        <time>2023-05-01T20:19:36.847Z</time>
      </trkpt>
      <trkpt lat="47.75092" lon="6.6936">
        <ele>790</ele>
        <time>2023-05-01T20:19:44.447Z</time>
      </trkpt>
      <trkpt lat="47.75106" lon="6.69351">
        <ele>790</ele>
        <time>2023-05-01T20:19:52.051Z</time>
      </trkpt>
      <trkpt lat="47.75111" lon="6.69344">
        <ele>790</ele>
        <time>2023-05-01T20:19:59.656Z</time>
      </trkpt>
      <trkpt lat="47.75118" lon="6.69326">
        <ele>790</ele>
        <time>2023-05-01T20:20:07.264Z</time>
      </trkpt>
      <trkpt lat="47.75128" lon="6.69287">
        <ele>791</ele>
        <time>2023-05-01T20:20:14.877Z</time>
      </trkpt>
      <trkpt lat="47.75126" lon="6.69273">
        <ele>791</ele>
        <time>2023-05-01T20:20:22.492Z</time>
      </trkpt>
      <trkpt lat="47.75122" lon="6.69265">
        <ele>791</ele>
        <time>2023-05-01T20:20:30.109Z</time>
      </trkpt>
      <trkpt lat="47.7512" lon="6.69263">
        <ele>791</ele>
        <time>2023-05-01T20:20:37.726Z</time>
      </trkpt>
      <trkpt lat="47.75116" lon="6.69263">
        <ele>791</ele>
        <time>2023-05-01T20:20:45.344Z</time>
      </trkpt>
      <trkpt lat="47.75109" lon="6.69265">
        <ele>792</ele>
        <time>2023-05-01T20:20:52.963Z</time>
      </trkpt>
      <trkpt lat="47.75108" lon="6.69267">
        <ele>792</ele>
        <time>2023-05-01T20:21:00.583Z</time>
      </trkpt>
      <trkpt lat="47.75109" lon="6.69272">
        <ele>792</ele>
        <time>2023-05-01T20:21:08.203Z</time>
      </trkpt>
      <trkpt lat="47.75117" lon="6.69273">
        <ele>792</ele>
        <time>2023-05-01T20:21:15.825Z</time>
      </trkpt>
      <trkpt lat="47.75121" lon="6.69279">
        <ele>792</ele>
        <time>2023-05-01T20:21:23.448Z</time>
      </trkpt>
      <trkpt lat="47.75123" lon="6.69284">
        <ele>792</ele>
        <time>2023-05-01T20:21:31.072Z</time>
      </trkpt>
      <trkpt lat="47.75123" lon="6.69293">
        <ele>792</ele>
        <time>2023-05-01T20:21:38.697Z</time>
      </trkpt>
      <trkpt lat="47.75119" lon="6.69309">
        <ele>792</ele>
        <time>2023-05-01T20:21:46.324Z</time>
      </trkpt>
      <trkpt lat="47.75097" lon="6.69352">
        <ele>792</ele>
        <time>2023-05-01T20:21:53.959Z</time>
      </trkpt>
      <trkpt lat="47.75099" lon="6.69354">
        <ele>792</ele>
        <time>2023-05-01T20:22:01.594Z</time>
      </trkpt>
      <trkpt lat="47.75108" lon="6.69344">
        <ele>793</ele>
        <time>2023-05-01T20:22:09.231Z</time>
      </trkpt>
      <trkpt lat="47.75112" lon="6.69335">
        <ele>793</ele>
        <time>2023-05-01T20:22:16.870Z</time>
      </trkpt>
      <trkpt lat="47.75118" lon="6.69325">
        <ele>793</ele>
        <time>2023-05-01T20:22:24.511Z</time>
      </trkpt>
      <trkpt lat="47.75127" lon="6.69303">
        <ele>794</ele>
        <time>2023-05-01T20:22:32.155Z</time>
      </trkpt>
      <trkpt lat="47.75126" lon="6.69295">
        <ele>794</ele>
        <time>2023-05-01T20:22:39.800Z</time>
      </trkpt>
      <trkpt lat="47.75129" lon="6.6929">
        <ele>795</ele>
        <time>2023-05-01T20:22:47.446Z</time>
      </trkpt>
      <trkpt lat="47.75129" lon="6.69283">
        <ele>796</ele>
        <time>2023-05-01T20:22:55.093Z</time>
      </trkpt>
      <trkpt lat="47.75125" lon="6.69269">
        <ele>796</ele>
        <time>2023-05-01T20:23:02.742Z</time>
      </trkpt>
      <trkpt lat="47.7512" lon="6.69266">
        <ele>797</ele>
        <time>2023-05-01T20:23:10.392Z</time>
      </trkpt>
      <trkpt lat="47.75113" lon="6.69267">
        <ele>798</ele>
        <time>2023-05-01T20:23:18.043Z</time>
      </trkpt>
      <trkpt lat="47.75102" lon="6.69272">
        <ele>799</ele>
        <time>2023-05-01T20:23:25.697Z</time>
      </trkpt>
      <trkpt lat="47.75099" lon="6.69275">
        <ele>800</ele>
        <time>2023-05-01T20:23:33.351Z</time>
      </trkpt>
      <trkpt lat="47.7509" lon="6.69277">
        <ele>801</ele>
        <time>2023-05-01T20:23:41.007Z</time>
      </trkpt>
      <trkpt lat="47.75078" lon="6.69287">
        <ele>802</ele>
        <time>2023-05-01T20:23:48.666Z</time>
      </trkpt>
      <trkpt lat="47.7507" lon="6.69291">
        <ele>803</ele>
        <time>2023-05-01T20:23:56.327Z</time>
      </trkpt>
      <trkpt lat="47.7506" lon="6.69302">
        <ele>805</ele>
        <time>2023-05-01T20:24:03.990Z</time>
      </trkpt>
      <trkpt lat="47.75056" lon="6.69303">
        <ele>806</ele>
        <time>2023-05-01T20:24:11.654Z</time>
      </trkpt>
      <trkpt lat="47.75041" lon="6.69319">
        <ele>807</ele>
        <time>2023-05-01T20:24:19.322Z</time>
      </trkpt>
      <trkpt lat="47.75027" lon="6.69329">
        <ele>809</ele>
        <time>2023-05-01T20:24:26.993Z</time>
      </trkpt>
      <trkpt lat="47.75012" lon="6.69346">
        <ele>810</ele>
        <time>2023-05-01T20:24:34.668Z</time>
      </trkpt>
      <trkpt lat="47.75007" lon="6.69349">
        <ele>812</ele>
        <time>2023-05-01T20:24:42.344Z</time>
      </trkpt>
      <trkpt lat="47.75003" lon="6.69355">
        <ele>813</ele>
        <time>2023-05-01T20:24:50.021Z</time>
      </trkpt>
      <trkpt lat="47.74996" lon="6.6936">
        <ele>814</ele>
        <time>2023-05-01T20:24:57.699Z</time>
      </trkpt>
      <trkpt lat="47.74985" lon="6.69375">
        <ele>816</ele>
        <time>2023-05-01T20:25:05.380Z</time>
      </trkpt>
      <trkpt lat="47.7498" lon="6.69383">
        <ele>817</ele>
        <time>2023-05-01T20:25:13.063Z</time>
      </trkpt>
      <trkpt lat="47.74974" lon="6.69397">
        <ele>819</ele>
        <time>2023-05-01T20:25:20.748Z</time>
      </trkpt>
      <trkpt lat="47.74957" lon="6.69427">
        <ele>820</ele>
        <time>2023-05-01T20:25:28.438Z</time>
      </trkpt>
      <trkpt lat="47.74953" lon="6.69463">
        <ele>822</ele>
        <time>2023-05-01T20:25:36.133Z</time>
      </trkpt>
      <trkpt lat="47.74947" lon="6.69473">
        <ele>823</ele>
        <time>2023-05-01T20:25:43.830Z</time>
      </trkpt>
      <trkpt lat="47.74947" lon="6.69482">
        <ele>824</ele>
        <time>2023-05-01T20:25:51.528Z</time>
      </trkpt>
      <trkpt lat="47.74939" lon="6.695">
        <ele>826</ele>
        <time>2023-05-01T20:25:59.229Z</time>
      </trkpt>
      <trkpt lat="47.74935" lon="6.69518">
        <ele>827</ele>
        <time>2023-05-01T20:26:06.933Z</time>
      </trkpt>
      <trkpt lat="47.74929" lon="6.69526">
        <ele>828</ele>
        <time>2023-05-01T20:26:14.638Z</time>
      </trkpt>
      <trkpt lat="47.7493" lon="6.69547">
        <ele>829</ele>
        <time>2023-05-01T20:26:22.346Z</time>
      </trkpt>
      <trkpt lat="47.74929" lon="6.69557">
        <ele>831</ele>
        <time>2023-05-01T20:26:30.056Z</time>
      </trkpt>
      <trkpt lat="47.74922" lon="6.69575">
        <ele>832</ele>
        <time>2023-05-01T20:26:37.768Z</time>
      </trkpt>
      <trkpt lat="47.74911" lon="6.69596">
        <ele>833</ele>
        <time>2023-05-01T20:26:45.484Z</time>
      </trkpt>
      <trkpt lat="47.74898" lon="6.69605">
        <ele>834</ele>
        <time>2023-05-01T20:26:53.203Z</time>
      </trkpt>
      <trkpt lat="47.7489" lon="6.696">
        <ele>835</ele>
        <time>2023-05-01T20:27:00.924Z</time>
      </trkpt>
      <trkpt lat="47.74885" lon="6.69592">
        <ele>836</ele>
        <time>2023-05-01T20:27:08.646Z</time>
      </trkpt>
      <trkpt lat="47.74863" lon="6.69575">
        <ele>837</ele>
        <time>2023-05-01T20:27:16.373Z</time>
      </trkpt>
      <trkpt lat="47.74856" lon="6.69567">
        <ele>839</ele>
        <time>2023-05-01T20:27:24.102Z</time>
      </trkpt>
      <trkpt lat="47.74846" lon="6.69551">
        <ele>840</ele>
        <time>2023-05-01T20:27:31.834Z</time>
      </trkpt>
      <trkpt lat="47.7484" lon="6.69546">
        <ele>841</ele>
        <time>2023-05-01T20:27:39.567Z</time>
      </trkpt>
      <trkpt lat="47.74827" lon="6.69527">
        <ele>842</ele>
        <time>2023-05-01T20:27:47.304Z</time>
      </trkpt>
      <trkpt lat="47.74825" lon="6.6952">
        <ele>843</ele>
        <time>2023-05-01T20:27:55.042Z</time>
      </trkpt>
      <trkpt lat="47.74818" lon="6.69509">
        <ele>844</ele>
        <time>2023-05-01T20:28:02.782Z</time>
      </trkpt>
      <trkpt lat="47.74816" lon="6.69505">
        <ele>845</ele>
        <time>2023-05-01T20:28:10.522Z</time>
      </trkpt>
      <trkpt lat="47.74817" lon="6.69497">
        <ele>846</ele>
        <time>2023-05-01T20:28:18.263Z</time>
      </trkpt>
      <trkpt lat="47.74814" lon="6.6949">
        <ele>846</ele>
        <time>2023-05-01T20:28:26.006Z</time>
      </trkpt>
      <trkpt lat="47.74814" lon="6.69485">
        <ele>847</ele>
        <time>2023-05-01T20:28:33.749Z</time>
      </trkpt>
      <trkpt lat="47.74807" lon="6.69479">
        <ele>848</ele>
        <time>2023-05-01T20:28:41.494Z</time>
      </trkpt>
      <trkpt lat="47.74803" lon="6.69473">
        <ele>849</ele>
        <time>2023-05-01T20:28:49.240Z</time>
      </trkpt>
      <trkpt lat="47.74799" lon="6.69473">
        <ele>849</ele>
        <time>2023-05-01T20:28:56.987Z</time>
      </trkpt>
      <trkpt lat="47.74789" lon="6.69471">
        <ele>850</ele>
        <time>2023-05-01T20:29:04.736Z</time>
      </trkpt>
      <trkpt lat="47.74783" lon="6.69467">
        <ele>850</ele>
        <time>2023-05-01T20:29:12.486Z</time>
      </trkpt>
      <trkpt lat="47.7475" lon="6.69455">
        <ele>850</ele>
        <time>2023-05-01T20:29:20.243Z</time>
      </trkpt>
      <trkpt lat="47.74736" lon="6.69448">
        <ele>851</ele>
        <time>2023-05-01T20:29:28.003Z</time>
      </trkpt>
      <trkpt lat="47.74721" lon="6.69451">
        <ele>851</ele>
        <time>2023-05-01T20:29:35.766Z</time>
      </trkpt>
      <trkpt lat="47.74707" lon="6.69451">
        <ele>851</ele>
        <time>2023-05-01T20:29:43.532Z</time>
      </trkpt>
      <trkpt lat="47.74694" lon="6.69449">
        <ele>851</ele>
        <time>2023-05-01T20:29:51.300Z</time>
      </trkpt>
      <trkpt lat="47.74688" lon="6.69445">
        <ele>852</ele>
        <time>2023-05-01T20:29:59.070Z</time>
      </trkpt>
      <trkpt lat="47.74674" lon="6.69442">
        <ele>852</ele>
        <time>2023-05-01T20:30:06.843Z</time>
      </trkpt>
      <trkpt lat="47.74658" lon="6.69448">
        <ele>851</ele>
        <time>2023-05-01T20:30:14.619Z</time>
      </trkpt>
      <trkpt lat="47.74638" lon="6.69449">
        <ele>851</ele>
        <time>2023-05-01T20:30:22.399Z</time>
      </trkpt>
      <trkpt lat="47.74608" lon="6.69448">
        <ele>851</ele>
        <time>2023-05-01T20:30:30.185Z</time>
      </trkpt>
      <trkpt lat="47.74591" lon="6.69449">
        <ele>850</ele>
        <time>2023-05-01T20:30:37.974Z</time>
      </trkpt>
      <trkpt lat="47.74563" lon="6.69439">
        <ele>850</ele>
        <time>2023-05-01T20:30:45.769Z</time>
      </trkpt>
      <trkpt lat="47.74552" lon="6.69441">
        <ele>850</ele>
        <time>2023-05-01T20:30:53.566Z</time>
      </trkpt>
      <trkpt lat="47.74543" lon="6.6944">
        <ele>849</ele>
        <time>2023-05-01T20:31:01.365Z</time>
      </trkpt>
      <trkpt lat="47.74532" lon="6.69443">
        <ele>849</ele>
        <time>2023-05-01T20:31:09.166Z</time>
      </trkpt>
      <trkpt lat="47.74525" lon="6.69447">
        <ele>848</ele>
        <time>2023-05-01T20:31:16.969Z</time>
      </trkpt>
      <trkpt lat="47.74518" lon="6.69448">
        <ele>847</ele>
        <time>2023-05-01T20:31:24.773Z</time>
      </trkpt>
      <trkpt lat="47.74501" lon="6.69459">
        <ele>846</ele>
        <time>2023-05-01T20:31:32.581Z</time>
      </trkpt>
      <trkpt lat="47.7448" lon="6.6946">
        <ele>845</ele>
        <time>2023-05-01T20:31:40.393Z</time>
      </trkpt>
      <trkpt lat="47.74454" lon="6.69465">
        <ele>843</ele>
        <time>2023-05-01T20:31:48.210Z</time>
      </trkpt>
      <trkpt lat="47.74429" lon="6.69465">
        <ele>842</ele>
        <time>2023-05-01T20:31:56.032Z</time>
      </trkpt>
      <trkpt lat="47.74414" lon="6.69462">
        <ele>841</ele>
        <time>2023-05-01T20:32:03.857Z</time>
      </trkpt>
      <trkpt lat="47.74383" lon="6.69452">
        <ele>840</ele>
        <time>2023-05-01T20:32:11.689Z</time>
      </trkpt>
      <trkpt lat="47.74366" lon="6.69455">
        <ele>838</ele>
        <time>2023-05-01T20:32:19.524Z</time>
      </trkpt>
      <trkpt lat="47.74353" lon="6.69454">
        <ele>837</ele>
        <time>2023-05-01T20:32:27.362Z</time>
      </trkpt>
      <trkpt lat="47.74336" lon="6.69456">
        <ele>835</ele>
        <time>2023-05-01T20:32:35.203Z</time>
      </trkpt>
      <trkpt lat="47.74316" lon="6.69449">
        <ele>834</ele>
        <time>2023-05-01T20:32:43.048Z</time>
      </trkpt>
      <trkpt lat="47.7428" lon="6.69447">
        <ele>832</ele>
        <time>2023-05-01T20:32:50.901Z</time>
      </trkpt>
      <trkpt lat="47.7424" lon="6.69448">
        <ele>831</ele>
        <time>2023-05-01T20:32:58.762Z</time>
      </trkpt>
      <trkpt lat="47.74216" lon="6.69442">
        <ele>829</ele>
        <time>2023-05-01T20:33:06.627Z</time>
      </trkpt>
      <trkpt lat="47.74187" lon="6.69441">
        <ele>827</ele>
        <time>2023-05-01T20:33:14.498Z</time>
      </trkpt>
      <trkpt lat="47.74157" lon="6.69436">
        <ele>825</ele>
        <time>2023-05-01T20:33:22.375Z</time>
      </trkpt>
      <trkpt lat="47.74126" lon="6.69436">
        <ele>824</ele>
        <time>2023-05-01T20:33:30.259Z</time>
      </trkpt>
      <trkpt lat="47.74114" lon="6.69431">
        <ele>822</ele>
        <time>2023-05-01T20:33:38.145Z</time>
      </trkpt>
      <trkpt lat="47.74095" lon="6.69419">
        <ele>820</ele>
        <time>2023-05-01T20:33:46.035Z</time>
      </trkpt>
      <trkpt lat="47.74058" lon="6.69378">
        <ele>819</ele>
        <time>2023-05-01T20:33:53.934Z</time>
      </trkpt>
      <trkpt lat="47.74023" lon="6.69343">
        <ele>817</ele>
        <time>2023-05-01T20:34:01.842Z</time>
      </trkpt>
      <trkpt lat="47.73999" lon="6.69312">
        <ele>815</ele>
        <time>2023-05-01T20:34:09.756Z</time>
      </trkpt>
      <trkpt lat="47.73957" lon="6.69246">
        <ele>814</ele>
        <time>2023-05-01T20:34:17.682Z</time>
      </trkpt>
      <trkpt lat="47.73947" lon="6.69227">
        <ele>813</ele>
        <time>2023-05-01T20:34:25.612Z</time>
      </trkpt>
      <trkpt lat="47.73937" lon="6.6919">
        <ele>811</ele>
        <time>2023-05-01T20:34:33.547Z</time>
      </trkpt>
      <trkpt lat="47.73927" lon="6.69142">
        <ele>810</ele>
        <time>2023-05-01T20:34:41.489Z</time>
      </trkpt>
      <trkpt lat="47.73915" lon="6.69101">
        <ele>809</ele>
        <time>2023-05-01T20:34:49.437Z</time>
      </trkpt>
      <trkpt lat="47.73913" lon="6.69075">
        <ele>808</ele>
        <time>2023-05-01T20:34:57.388Z</time>
      </trkpt>
      <trkpt lat="47.7391" lon="6.69059">
        <ele>807</ele>
        <time>2023-05-01T20:35:05.342Z</time>
      </trkpt>
      <trkpt lat="47.73898" lon="6.69018">
        <ele>806</ele>
        <time>2023-05-01T20:35:13.302Z</time>
      </trkpt>
      <trkpt lat="47.73886" lon="6.68984">
        <ele>806</ele>
        <time>2023-05-01T20:35:21.267Z</time>
      </trkpt>
      <trkpt lat="47.73886" lon="6.6898">
        <ele>805</ele>
        <time>2023-05-01T20:35:29.232Z</time>
      </trkpt>
      <trkpt lat="47.73882" lon="6.68975">
        <ele>804</ele>
        <time>2023-05-01T20:35:37.198Z</time>
      </trkpt>
      <trkpt lat="47.73871" lon="6.68947">
        <ele>804</ele>
        <time>2023-05-01T20:35:45.169Z</time>
      </trkpt>
      <trkpt lat="47.73862" lon="6.68916">
        <ele>803</ele>
        <time>2023-05-01T20:35:53.144Z</time>
      </trkpt>
      <trkpt lat="47.73851" lon="6.68871">
        <ele>803</ele>
        <time>2023-05-01T20:36:01.126Z</time>
      </trkpt>
      <trkpt lat="47.73852" lon="6.68854">
        <ele>802</ele>
        <time>2023-05-01T20:36:09.110Z</time>
      </trkpt>
      <trkpt lat="47.73849" lon="6.68842">
        <ele>802</ele>
        <time>2023-05-01T20:36:17.096Z</time>
      </trkpt>
      <trkpt lat="47.73836" lon="6.68792">
        <ele>802</ele>
        <time>2023-05-01T20:36:25.089Z</time>
      </trkpt>
      <trkpt lat="47.73818" lon="6.68754">
        <ele>802</ele>
        <time>2023-05-01T20:36:33.088Z</time>
      </trkpt>
      <trkpt lat="47.73811" lon="6.68733">
        <ele>802</ele>
        <time>2023-05-01T20:36:41.091Z</time>
      </trkpt>
      <trkpt lat="47.73801" lon="6.68722">
        <ele>802</ele>
        <time>2023-05-01T20:36:49.096Z</time>
      </trkpt>
      <trkpt lat="47.73795" lon="6.68707">
        <ele>802</ele>
        <time>2023-05-01T20:36:57.103Z</time>
      </trkpt>
      <trkpt lat="47.73772" lon="6.68677">
        <ele>802</ele>
        <time>2023-05-01T20:37:05.117Z</time>
      </trkpt>
      <trkpt lat="47.73761" lon="6.68644">
        <ele>802</ele>
        <time>2023-05-01T20:37:13.135Z</time>
      </trkpt>
      <trkpt lat="47.73756" lon="6.68634">
        <ele>802</ele>
        <time>2023-05-01T20:37:21.155Z</time>
      </trkpt>
      <trkpt lat="47.73735" lon="6.6857">
        <ele>803</ele>
        <time>2023-05-01T20:37:29.185Z</time>
      </trkpt>
      <trkpt lat="47.73735" lon="6.68556">
        <ele>803</ele>
        <time>2023-05-01T20:37:37.217Z</time>
      </trkpt>
      <trkpt lat="47.73733" lon="6.68531">
        <ele>803</ele>
        <time>2023-05-01T20:37:45.252Z</time>
      </trkpt>
      <trkpt lat="47.73731" lon="6.68523">
        <ele>803</ele>
        <time>2023-05-01T20:37:53.288Z</time>
      </trkpt>
      <trkpt lat="47.73731" lon="6.68512">
        <ele>804</ele>
        <time>2023-05-01T20:38:01.326Z</time>
      </trkpt>
      <trkpt lat="47.73736" lon="6.68441">
        <ele>804</ele>
        <time>2023-05-01T20:38:09.373Z</time>
      </trkpt>
      <trkpt lat="47.73739" lon="6.68425">
        <ele>804</ele>
        <time>2023-05-01T20:38:17.423Z</time>
      </trkpt>
      <trkpt lat="47.73753" lon="6.68396">
        <ele>804</ele>
        <time>2023-05-01T20:38:25.477Z</time>
      </trkpt>
      <trkpt lat="47.73757" lon="6.6838">
        <ele>804</ele>
        <time>2023-05-01T20:38:33.534Z</time>
      </trkpt>
      <trkpt lat="47.73762" lon="6.68377">
        <ele>804</ele>
        <time>2023-05-01T20:38:41.592Z</time>
      </trkpt>
      <trkpt lat="47.73767" lon="6.6837">
        <ele>804</ele>
        <time>2023-05-01T20:38:49.651Z</time>
      </trkpt>
      <trkpt lat="47.73772" lon="6.68353">
        <ele>805</ele>
        <time>2023-05-01T20:38:57.713Z</time>
      </trkpt>
      <trkpt lat="47.73784" lon="6.68339">
        <ele>805</ele>
        <time>2023-05-01T20:39:05.778Z</time>
      </trkpt>
      <trkpt lat="47.73797" lon="6.68332">
        <ele>805</ele>
        <time>2023-05-01T20:39:13.845Z</time>
      </trkpt>
      <trkpt lat="47.73803" lon="6.68304">
        <ele>805</ele>
        <time>2023-05-01T20:39:21.916Z</time>
      </trkpt>
      <trkpt lat="47.73808" lon="6.68297">
        <ele>805</ele>
        <time>2023-05-01T20:39:29.989Z</time>
      </trkpt>
      <trkpt lat="47.73815" lon="6.68273">
        <ele>805</ele>
        <time>2023-05-01T20:39:38.065Z</time>
      </trkpt>
      <trkpt lat="47.73824" lon="6.68214">
        <ele>805</ele>
        <time>2023-05-01T20:39:46.149Z</time>
      </trkpt>
      <trkpt lat="47.73822" lon="6.68195">
        <ele>805</ele>
        <time>2023-05-01T20:39:54.236Z</time>
      </trkpt>
      <trkpt lat="47.73812" lon="6.68159">
        <ele>805</ele>
        <time>2023-05-01T20:40:02.328Z</time>
      </trkpt>
      <trkpt lat="47.73809" lon="6.68136">
        <ele>805</ele>
        <time>2023-05-01T20:40:10.423Z</time>
      </trkpt>
      <trkpt lat="47.73807" lon="6.68097">
        <ele>804</ele>
        <time>2023-05-01T20:40:18.524Z</time>
      </trkpt>
      <trkpt lat="47.73809" lon="6.68052">
        <ele>804</ele>
        <time>2023-05-01T20:40:26.631Z</time>
      </trkpt>
      <trkpt lat="47.73806" lon="6.68016">
        <ele>804</ele>
        <time>2023-05-01T20:40:34.743Z</time>
      </trkpt>
      <trkpt lat="47.73805" lon="6.67955">
        <ele>804</ele>
        <time>2023-05-01T20:40:42.863Z</time>
      </trkpt>
      <trkpt lat="47.73799" lon="6.67934">
        <ele>804</ele>
        <time>2023-05-01T20:40:50.986Z</time>
      </trkpt>
      <trkpt lat="47.73794" lon="6.67904">
        <ele>803</ele>
        <time>2023-05-01T20:40:59.113Z</time>
      </trkpt>
      <trkpt lat="47.73785" lon="6.67878">
        <ele>803</ele>
        <time>2023-05-01T20:41:07.244Z</time>
      </trkpt>
      <trkpt lat="47.73773" lon="6.67837">
        <ele>803</ele>
        <time>2023-05-01T20:41:15.381Z</time>
      </trkpt>
      <trkpt lat="47.73771" lon="6.6782">
        <ele>802</ele>
        <time>2023-05-01T20:41:23.520Z</time>
      </trkpt>
      <trkpt lat="47.73774" lon="6.6781">
        <ele>802</ele>
        <time>2023-05-01T20:41:31.661Z</time>
      </trkpt>
      <trkpt lat="47.73774" lon="6.67802">
        <ele>801</ele>
        <time>2023-05-01T20:41:39.803Z</time>
      </trkpt>
      <trkpt lat="47.73773" lon="6.67771">
        <ele>801</ele>
        <time>2023-05-01T20:41:47.949Z</time>
      </trkpt>
      <trkpt lat="47.73776" lon="6.67753">
        <ele>800</ele>
        <time>2023-05-01T20:41:56.098Z</time>
      </trkpt>
      <trkpt lat="47.73776" lon="6.67733">
        <ele>799</ele>
        <time>2023-05-01T20:42:04.249Z</time>
      </trkpt>
      <trkpt lat="47.73775" lon="6.67718">
        <ele>798</ele>
        <time>2023-05-01T20:42:12.402Z</time>
      </trkpt>
      <trkpt lat="47.73782" lon="6.677">
        <ele>797</ele>
        <time>2023-05-01T20:42:20.558Z</time>
      </trkpt>
      <trkpt lat="47.73783" lon="6.67678">
        <ele>796</ele>
        <time>2023-05-01T20:42:28.717Z</time>
      </trkpt>
      <trkpt lat="47.73789" lon="6.67649">
        <ele>795</ele>
        <time>2023-05-01T20:42:36.880Z</time>
      </trkpt>
      <trkpt lat="47.73786" lon="6.67605">
        <ele>793</ele>
        <time>2023-05-01T20:42:45.049Z</time>
      </trkpt>
      <trkpt lat="47.73787" lon="6.67585">
        <ele>792</ele>
        <time>2023-05-01T20:42:53.221Z</time>
      </trkpt>
      <trkpt lat="47.73784" lon="6.67572">
        <ele>790</ele>
        <time>2023-05-01T20:43:01.395Z</time>
      </trkpt>
      <trkpt lat="47.73779" lon="6.67523">
        <ele>788</ele>
        <time>2023-05-01T20:43:09.576Z</time>
      </trkpt>
      <trkpt lat="47.7379" lon="6.6744">
        <ele>785</ele>
        <time>2023-05-01T20:43:17.768Z</time>
      </trkpt>
      <trkpt lat="47.73788" lon="6.67396">
        <ele>783</ele>
        <time>2023-05-01T20:43:25.966Z</time>
      </trkpt>
      <trkpt lat="47.73781" lon="6.67365">
        <ele>780</ele>
        <time>2023-05-01T20:43:34.168Z</time>
      </trkpt>
      <trkpt lat="47.73776" lon="6.6731">
        <ele>777</ele>
        <time>2023-05-01T20:43:42.378Z</time>
      </trkpt>
      <trkpt lat="47.73783" lon="6.67224">
        <ele>774</ele>
        <time>2023-05-01T20:43:50.599Z</time>
      </trkpt>
      <trkpt lat="47.73784" lon="6.67214">
        <ele>771</ele>
        <time>2023-05-01T20:43:58.822Z</time>
      </trkpt>
      <trkpt lat="47.7381" lon="6.67128">
        <ele>768</ele>
        <time>2023-05-01T20:44:07.058Z</time>
      </trkpt>
      <trkpt lat="47.73842" lon="6.67045">
        <ele>764</ele>
        <time>2023-05-01T20:44:15.306Z</time>
      </trkpt>
      <trkpt lat="47.73871" lon="6.66978">
        <ele>761</ele>
        <time>2023-05-01T20:44:23.565Z</time>
      </trkpt>
      <trkpt lat="47.73888" lon="6.66929">
        <ele>757</ele>
        <time>2023-05-01T20:44:31.832Z</time>
      </trkpt>
      <trkpt lat="47.73911" lon="6.66873">
        <ele>754</ele>
        <time>2023-05-01T20:44:40.107Z</time>
      </trkpt>
      <trkpt lat="47.73907" lon="6.66843">
        <ele>750</ele>
        <time>2023-05-01T20:44:48.387Z</time>
      </trkpt>
      <trkpt lat="47.7391" lon="6.66834">
        <ele>747</ele>
        <time>2023-05-01T20:44:56.668Z</time>
      </trkpt>
      <trkpt lat="47.73915" lon="6.66808">
        <ele>743</ele>
        <time>2023-05-01T20:45:04.953Z</time>
      </trkpt>
      <trkpt lat="47.73922" lon="6.66764">
        <ele>740</ele>
        <time>2023-05-01T20:45:13.244Z</time>
      </trkpt>
      <trkpt lat="47.73922" lon="6.66735">
        <ele>736</ele>
        <time>2023-05-01T20:45:21.539Z</time>
      </trkpt>
      <trkpt lat="47.7392" lon="6.66714">
        <ele>733</ele>
        <time>2023-05-01T20:45:29.837Z</time>
      </trkpt>
      <trkpt lat="47.73913" lon="6.66684">
        <ele>730</ele>
        <time>2023-05-01T20:45:38.139Z</time>
      </trkpt>
      <trkpt lat="47.73887" lon="6.66592">
        <ele>726</ele>
        <time>2023-05-01T20:45:46.454Z</time>
      </trkpt>
      <trkpt lat="47.73883" lon="6.6656">
        <ele>723</ele>
        <time>2023-05-01T20:45:54.774Z</time>
      </trkpt>
      <trkpt lat="47.73885" lon="6.66551">
        <ele>720</ele>
        <time>2023-05-01T20:46:03.095Z</time>
      </trkpt>
      <trkpt lat="47.73893" lon="6.66525">
        <ele>717</ele>
        <time>2023-05-01T20:46:11.420Z</time>
      </trkpt>
      <trkpt lat="47.73896" lon="6.66501">
        <ele>714</ele>
        <time>2023-05-01T20:46:19.748Z</time>
      </trkpt>
      <trkpt lat="47.739" lon="6.66489">
        <ele>711</ele>
        <time>2023-05-01T20:46:28.078Z</time>
      </trkpt>
      <trkpt lat="47.73921" lon="6.66449">
        <ele>708</ele>
        <time>2023-05-01T20:46:36.415Z</time>
      </trkpt>
      <trkpt lat="47.73934" lon="6.66419">
        <ele>705</ele>
        <time>2023-05-01T20:46:44.757Z</time>
      </trkpt>
      <trkpt lat="47.7394" lon="6.66386">
        <ele>703</ele>
        <time>2023-05-01T20:46:53.103Z</time>
      </trkpt>
      <trkpt lat="47.73952" lon="6.66346">
        <ele>700</ele>
        <time>2023-05-01T20:47:01.455Z</time>
      </trkpt>
      <trkpt lat="47.73955" lon="6.66329">
        <ele>698</ele>
        <time>2023-05-01T20:47:09.809Z</time>
      </trkpt>
      <trkpt lat="47.73954" lon="6.66298">
        <ele>696</ele>
        <time>2023-05-01T20:47:18.168Z</time>
      </trkpt>
      <trkpt lat="47.73957" lon="6.66268">
        <ele>694</ele>
        <time>2023-05-01T20:47:26.531Z</time>
      </trkpt>
      <trkpt lat="47.73962" lon="6.66246">
        <ele>692</ele>
        <time>2023-05-01T20:47:34.897Z</time>
      </trkpt>
      <trkpt lat="47.73975" lon="6.66209">
        <ele>690</ele>
        <time>2023-05-01T20:47:43.269Z</time>
      </trkpt>
      <trkpt lat="47.73992" lon="6.66187">
        <ele>688</ele>
        <time>2023-05-01T20:47:51.645Z</time>
      </trkpt>
      <trkpt lat="47.74006" lon="6.66178">
        <ele>686</ele>
        <time>2023-05-01T20:48:00.024Z</time>
      </trkpt>
      <trkpt lat="47.7402" lon="6.66176">
        <ele>684</ele>
        <time>2023-05-01T20:48:08.406Z</time>
      </trkpt>
      <trkpt lat="47.74039" lon="6.66176">
        <ele>683</ele>
        <time>2023-05-01T20:48:16.792Z</time>
      </trkpt>
      <trkpt lat="47.74051" lon="6.66174">
        <ele>682</ele>
        <time>2023-05-01T20:48:25.180Z</time>
      </trkpt>
      <trkpt lat="47.74061" lon="6.66166">
        <ele>680</ele>
        <time>2023-05-01T20:48:33.570Z</time>
      </trkpt>
      <trkpt lat="47.74098" lon="6.66127">
        <ele>679</ele>
        <time>2023-05-01T20:48:41.969Z</time>
      </trkpt>
      <trkpt lat="47.7411" lon="6.66109">
        <ele>677</ele>
        <time>2023-05-01T20:48:50.372Z</time>
      </trkpt>
      <trkpt lat="47.74111" lon="6.66097">
        <ele>677</ele>
        <time>2023-05-01T20:48:58.776Z</time>
      </trkpt>
      <trkpt lat="47.74128" lon="6.66044">
        <ele>676</ele>
        <time>2023-05-01T20:49:07.188Z</time>
      </trkpt>
      <trkpt lat="47.74131" lon="6.66032">
        <ele>675</ele>
        <time>2023-05-01T20:49:15.602Z</time>
      </trkpt>
      <trkpt lat="47.74133" lon="6.66018">
        <ele>674</ele>
        <time>2023-05-01T20:49:24.018Z</time>
      </trkpt>
      <trkpt lat="47.74134" lon="6.6599">
        <ele>674</ele>
        <time>2023-05-01T20:49:32.438Z</time>
      </trkpt>
      <trkpt lat="47.74126" lon="6.65946">
        <ele>673</ele>
        <time>2023-05-01T20:49:40.864Z</time>
      </trkpt>
      <trkpt lat="47.74109" lon="6.65905">
        <ele>673</ele>
        <time>2023-05-01T20:49:49.296Z</time>
      </trkpt>
      <trkpt lat="47.7409" lon="6.65872">
        <ele>673</ele>
        <time>2023-05-01T20:49:57.734Z</time>
      </trkpt>
      <trkpt lat="47.74085" lon="6.6586">
        <ele>673</ele>
        <time>2023-05-01T20:50:06.174Z</time>
      </trkpt>
      <trkpt lat="47.74083" lon="6.65848">
        <ele>673</ele>
        <time>2023-05-01T20:50:14.616Z</time>
      </trkpt>
      <trkpt lat="47.74083" lon="6.65823">
        <ele>674</ele>
        <time>2023-05-01T20:50:23.061Z</time>
      </trkpt>
      <trkpt lat="47.74092" lon="6.65792">
        <ele>674</ele>
        <time>2023-05-01T20:50:31.511Z</time>
      </trkpt>
      <trkpt lat="47.74097" lon="6.65767">
        <ele>675</ele>
        <time>2023-05-01T20:50:39.964Z</time>
      </trkpt>
      <trkpt lat="47.74096" lon="6.6576">
        <ele>676</ele>
        <time>2023-05-01T20:50:48.418Z</time>
      </trkpt>
      <trkpt lat="47.74091" lon="6.65737">
        <ele>677</ele>
        <time>2023-05-01T20:50:56.876Z</time>
      </trkpt>
      <trkpt lat="47.74065" lon="6.6566">
        <ele>678</ele>
        <time>2023-05-01T20:51:05.345Z</time>
      </trkpt>
      <trkpt lat="47.7406" lon="6.65623">
        <ele>679</ele>
        <time>2023-05-01T20:51:13.819Z</time>
      </trkpt>
      <trkpt lat="47.74058" lon="6.65593">
        <ele>681</ele>
        <time>2023-05-01T20:51:22.297Z</time>
      </trkpt>
      <trkpt lat="47.74055" lon="6.65577">
        <ele>682</ele>
        <time>2023-05-01T20:51:30.778Z</time>
      </trkpt>
      <trkpt lat="47.74047" lon="6.65558">
        <ele>683</ele>
        <time>2023-05-01T20:51:39.262Z</time>
      </trkpt>
      <trkpt lat="47.74045" lon="6.65546">
        <ele>685</ele>
        <time>2023-05-01T20:51:47.747Z</time>
      </trkpt>
      <trkpt lat="47.74042" lon="6.65517">
        <ele>686</ele>
        <time>2023-05-01T20:51:56.236Z</time>
      </trkpt>
      <trkpt lat="47.74044" lon="6.65508">
        <ele>688</ele>
        <time>2023-05-01T20:52:04.727Z</time>
      </trkpt>
      <trkpt lat="47.74049" lon="6.65468">
        <ele>690</ele>
        <time>2023-05-01T20:52:13.223Z</time>
      </trkpt>
      <trkpt lat="47.7406" lon="6.65427">
        <ele>691</ele>
        <time>2023-05-01T20:52:21.725Z</time>
      </trkpt>
      <trkpt lat="47.74063" lon="6.65409">
        <ele>693</ele>
        <time>2023-05-01T20:52:30.229Z</time>
      </trkpt>
      <trkpt lat="47.74065" lon="6.6537">
        <ele>695</ele>
        <time>2023-05-01T20:52:38.739Z</time>
      </trkpt>
      <trkpt lat="47.74072" lon="6.65327">
        <ele>696</ele>
        <time>2023-05-01T20:52:47.255Z</time>
      </trkpt>
      <trkpt lat="47.74088" lon="6.65283">
        <ele>698</ele>
        <time>2023-05-01T20:52:55.777Z</time>
      </trkpt>
      <trkpt lat="47.74092" lon="6.65275">
        <ele>700</ele>
        <time>2023-05-01T20:53:04.301Z</time>
      </trkpt>
      <trkpt lat="47.74101" lon="6.65247">
        <ele>701</ele>
        <time>2023-05-01T20:53:12.829Z</time>
      </trkpt>
      <trkpt lat="47.74105" lon="6.6524">
        <ele>703</ele>
        <time>2023-05-01T20:53:21.358Z</time>
      </trkpt>
      <trkpt lat="47.74121" lon="6.65195">
        <ele>705</ele>
        <time>2023-05-01T20:53:29.894Z</time>
      </trkpt>
      <trkpt lat="47.74143" lon="6.65152">
        <ele>706</ele>
        <time>2023-05-01T20:53:38.437Z</time>
      </trkpt>
      <trkpt lat="47.74153" lon="6.65074">
        <ele>708</ele>
        <time>2023-05-01T20:53:46.991Z</time>
      </trkpt>
      <trkpt lat="47.7415" lon="6.65008">
        <ele>710</ele>
        <time>2023-05-01T20:53:55.554Z</time>
      </trkpt>
      <trkpt lat="47.74153" lon="6.64991">
        <ele>711</ele>
        <time>2023-05-01T20:54:04.119Z</time>
      </trkpt>
      <trkpt lat="47.74158" lon="6.6498">
        <ele>712</ele>
        <time>2023-05-01T20:54:12.686Z</time>
      </trkpt>
      <trkpt lat="47.74161" lon="6.64976">
        <ele>714</ele>
        <time>2023-05-01T20:54:21.254Z</time>
      </trkpt>
      <trkpt lat="47.74172" lon="6.6496">
        <ele>715</ele>
        <time>2023-05-01T20:54:29.825Z</time>
      </trkpt>
      <trkpt lat="47.74177" lon="6.6495">
        <ele>716</ele>
        <time>2023-05-01T20:54:38.398Z</time>
      </trkpt>
      <trkpt lat="47.74188" lon="6.64939">
        <ele>718</ele>
        <time>2023-05-01T20:54:46.974Z</time>
      </trkpt>
      <trkpt lat="47.74202" lon="6.64923">
        <ele>719</ele>
        <time>2023-05-01T20:54:55.553Z</time>
      </trkpt>
      <trkpt lat="47.74216" lon="6.64912">
        <ele>720</ele>
        <time>2023-05-01T20:55:04.135Z</time>
      </trkpt>
      <trkpt lat="47.74225" lon="6.64903">
        <ele>720</ele>
        <time>2023-05-01T20:55:12.719Z</time>
      </trkpt>
      <trkpt lat="47.74238" lon="6.64882">
        <ele>721</ele>
        <time>2023-05-01T20:55:21.307Z</time>
      </trkpt>
      <trkpt lat="47.74254" lon="6.6486">
        <ele>722</ele>
        <time>2023-05-01T20:55:29.900Z</time>
      </trkpt>
      <trkpt lat="47.74265" lon="6.64836">
        <ele>722</ele>
        <time>2023-05-01T20:55:38.497Z</time>
      </trkpt>
      <trkpt lat="47.74276" lon="6.64793">
        <ele>723</ele>
        <time>2023-05-01T20:55:47.100Z</time>
      </trkpt>
      <trkpt lat="47.74275" lon="6.64783">
        <ele>723</ele>
        <time>2023-05-01T20:55:55.704Z</time>
      </trkpt>
      <trkpt lat="47.74277" lon="6.64749">
        <ele>723</ele>
        <time>2023-05-01T20:56:04.313Z</time>
      </trkpt>
      <trkpt lat="47.7428" lon="6.64743">
        <ele>723</ele>
        <time>2023-05-01T20:56:12.923Z</time>
      </trkpt>
      <trkpt lat="47.74281" lon="6.64737">
        <ele>723</ele>
        <time>2023-05-01T20:56:21.534Z</time>
      </trkpt>
      <trkpt lat="47.74289" lon="6.64719">
        <ele>723</ele>
        <time>2023-05-01T20:56:30.147Z</time>
      </trkpt>
      <trkpt lat="47.74298" lon="6.64693">
        <ele>723</ele>
        <time>2023-05-01T20:56:38.764Z</time>
      </trkpt>
      <trkpt lat="47.74299" lon="6.64669">
        <ele>723</ele>
        <time>2023-05-01T20:56:47.385Z</time>
      </trkpt>
      <trkpt lat="47.74296" lon="6.64644">
        <ele>723</ele>
        <time>2023-05-01T20:56:56.009Z</time>
      </trkpt>
      <trkpt lat="47.7431" lon="6.64582">
        <ele>722</ele>
        <time>2023-05-01T20:57:04.642Z</time>
      </trkpt>
      <trkpt lat="47.74308" lon="6.64521">
        <ele>722</ele>
        <time>2023-05-01T20:57:13.283Z</time>
      </trkpt>
      <trkpt lat="47.743" lon="6.6445">
        <ele>721</ele>
        <time>2023-05-01T20:57:21.934Z</time>
      </trkpt>
      <trkpt lat="47.74304" lon="6.64401">
        <ele>721</ele>
        <time>2023-05-01T20:57:30.592Z</time>
      </trkpt>
      <trkpt lat="47.74301" lon="6.64367">
        <ele>720</ele>
        <time>2023-05-01T20:57:39.254Z</time>
      </trkpt>
      <trkpt lat="47.74317" lon="6.64323">
        <ele>720</ele>
        <time>2023-05-01T20:57:47.923Z</time>
      </trkpt>
      <trkpt lat="47.74323" lon="6.643">
        <ele>719</ele>
        <time>2023-05-01T20:57:56.595Z</time>
      </trkpt>
      <trkpt lat="47.74325" lon="6.64295">
        <ele>718</ele>
        <time>2023-05-01T20:58:05.268Z</time>
      </trkpt>
      <trkpt lat="47.74327" lon="6.64293">
        <ele>717</ele>
        <time>2023-05-01T20:58:13.942Z</time>
      </trkpt>
      <trkpt lat="47.74329" lon="6.64293">
        <ele>716</ele>
        <time>2023-05-01T20:58:22.616Z</time>
      </trkpt>
      <trkpt lat="47.74334" lon="6.64304">
        <ele>715</ele>
        <time>2023-05-01T20:58:31.292Z</time>
      </trkpt>
      <trkpt lat="47.74347" lon="6.64319">
        <ele>715</ele>
        <time>2023-05-01T20:58:39.971Z</time>
      </trkpt>
      <trkpt lat="47.74354" lon="6.64327">
        <ele>714</ele>
        <time>2023-05-01T20:58:48.652Z</time>
      </trkpt>
      <trkpt lat="47.74378" lon="6.64345">
        <ele>713</ele>
        <time>2023-05-01T20:58:57.338Z</time>
      </trkpt>
      <trkpt lat="47.74402" lon="6.64376">
        <ele>711</ele>
        <time>2023-05-01T20:59:06.031Z</time>
      </trkpt>
      <trkpt lat="47.74411" lon="6.64385">
        <ele>710</ele>
        <time>2023-05-01T20:59:14.726Z</time>
      </trkpt>
      <trkpt lat="47.74431" lon="6.64417">
        <ele>709</ele>
        <time>2023-05-01T20:59:23.427Z</time>
      </trkpt>
      <trkpt lat="47.74443" lon="6.64447">
        <ele>708</ele>
        <time>2023-05-01T20:59:32.132Z</time>
      </trkpt>
      <trkpt lat="47.74461" lon="6.64475">
        <ele>707</ele>
        <time>2023-05-01T20:59:40.843Z</time>
      </trkpt>
      <trkpt lat="47.74474" lon="6.64502">
        <ele>705</ele>
        <time>2023-05-01T20:59:49.558Z</time>
      </trkpt>
      <trkpt lat="47.74497" lon="6.64536">
        <ele>704</ele>
        <time>2023-05-01T20:59:58.280Z</time>
      </trkpt>
      <trkpt lat="47.74504" lon="6.64553">
        <ele>703</ele>
        <time>2023-05-01T21:00:07.004Z</time>
      </trkpt>
      <trkpt lat="47.7451" lon="6.64562">
        <ele>702</ele>
        <time>2023-05-01T21:00:15.730Z</time>
      </trkpt>
      <trkpt lat="47.74517" lon="6.64589">
        <ele>700</ele>
        <time>2023-05-01T21:00:24.460Z</time>
      </trkpt>
      <trkpt lat="47.74528" lon="6.64617">
        <ele>699</ele>
        <time>2023-05-01T21:00:33.194Z</time>
      </trkpt>
      <trkpt lat="47.74552" lon="6.64644">
        <ele>698</ele>
        <time>2023-05-01T21:00:41.934Z</time>
      </trkpt>
      <trkpt lat="47.74569" lon="6.64667">
        <ele>696</ele>
        <time>2023-05-01T21:00:50.679Z</time>
      </trkpt>
      <trkpt lat="47.74584" lon="6.64695">
        <ele>695</ele>
        <time>2023-05-01T21:00:59.429Z</time>
      </trkpt>
      <trkpt lat="47.7459" lon="6.64703">
        <ele>693</ele>
        <time>2023-05-01T21:01:08.180Z</time>
      </trkpt>
      <trkpt lat="47.74624" lon="6.64744">
        <ele>692</ele>
        <time>2023-05-01T21:01:16.940Z</time>
      </trkpt>
      <trkpt lat="47.74633" lon="6.64753">
        <ele>690</ele>
        <time>2023-05-01T21:01:25.702Z</time>
      </trkpt>
      <trkpt lat="47.74643" lon="6.6476">
        <ele>689</ele>
        <time>2023-05-01T21:01:34.466Z</time>
      </trkpt>
      <trkpt lat="47.74662" lon="6.64768">
        <ele>688</ele>
        <time>2023-05-01T21:01:43.234Z</time>
      </trkpt>
      <trkpt lat="47.74684" lon="6.64772">
        <ele>686</ele>
        <time>2023-05-01T21:01:52.007Z</time>
      </trkpt>
      <trkpt lat="47.74704" lon="6.64785">
        <ele>685</ele>
        <time>2023-05-01T21:02:00.784Z</time>
      </trkpt>
      <trkpt lat="47.74712" lon="6.64787">
        <ele>684</ele>
        <time>2023-05-01T21:02:09.563Z</time>
      </trkpt>
      <trkpt lat="47.74733" lon="6.64786">
        <ele>683</ele>
        <time>2023-05-01T21:02:18.346Z</time>
      </trkpt>
      <trkpt lat="47.74746" lon="6.64788">
        <ele>681</ele>
        <time>2023-05-01T21:02:27.132Z</time>
      </trkpt>
      <trkpt lat="47.7477" lon="6.64787">
        <ele>680</ele>
        <time>2023-05-01T21:02:35.922Z</time>
      </trkpt>
      <trkpt lat="47.74778" lon="6.64783">
        <ele>679</ele>
        <time>2023-05-01T21:02:44.714Z</time>
      </trkpt>
      <trkpt lat="47.74783" lon="6.64778">
        <ele>678</ele>
        <time>2023-05-01T21:02:53.507Z</time>
      </trkpt>
      <trkpt lat="47.74788" lon="6.64779">
        <ele>677</ele>
        <time>2023-05-01T21:03:02.301Z</time>
      </trkpt>
      <trkpt lat="47.74797" lon="6.64778">
        <ele>677</ele>
        <time>2023-05-01T21:03:11.097Z</time>
      </trkpt>
      <trkpt lat="47.74811" lon="6.64782">
        <ele>676</ele>
        <time>2023-05-01T21:03:19.896Z</time>
      </trkpt>
      <trkpt lat="47.74815" lon="6.6478">
        <ele>675</ele>
        <time>2023-05-01T21:03:28.696Z</time>
      </trkpt>
      <trkpt lat="47.74804" lon="6.6478">
        <ele>675</ele>
        <time>2023-05-01T21:03:37.498Z</time>
      </trkpt>
      <trkpt lat="47.74772" lon="6.64773">
        <ele>674</ele>
        <time>2023-05-01T21:03:46.306Z</time>
      </trkpt>
      <trkpt lat="47.74768" lon="6.64776">
        <ele>674</ele>
        <time>2023-05-01T21:03:55.115Z</time>
      </trkpt>
      <trkpt lat="47.74761" lon="6.64774">
        <ele>673</ele>
        <time>2023-05-01T21:04:03.926Z</time>
      </trkpt>
      <trkpt lat="47.74757" lon="6.64778">
        <ele>673</ele>
        <time>2023-05-01T21:04:12.738Z</time>
      </trkpt>
      <trkpt lat="47.74748" lon="6.64775">
        <ele>673</ele>
        <time>2023-05-01T21:04:21.552Z</time>
      </trkpt>
      <trkpt lat="47.74744" lon="6.64776">
        <ele>672</ele>
        <time>2023-05-01T21:04:30.366Z</time>
      </trkpt>
      <trkpt lat="47.7474" lon="6.64773">
        <ele>672</ele>
        <time>2023-05-01T21:04:39.181Z</time>
      </trkpt>
      <trkpt lat="47.74736" lon="6.64775">
        <ele>671</ele>
        <time>2023-05-01T21:04:47.997Z</time>
      </trkpt>
      <trkpt lat="47.74754" lon="6.64782">
        <ele>671</ele>
        <time>2023-05-01T21:04:56.817Z</time>
      </trkpt>
      <trkpt lat="47.74762" lon="6.64783">
        <ele>670</ele>
        <time>2023-05-01T21:05:05.638Z</time>
      </trkpt>
      <trkpt lat="47.74766" lon="6.64781">
        <ele>669</ele>
        <time>2023-05-01T21:05:14.460Z</time>
      </trkpt>
      <trkpt lat="47.74771" lon="6.64784">
        <ele>669</ele>
        <time>2023-05-01T21:05:23.283Z</time>
      </trkpt>
      <trkpt lat="47.74789" lon="6.64787">
        <ele>668</ele>
        <time>2023-05-01T21:05:32.110Z</time>
      </trkpt>
      <trkpt lat="47.74804" lon="6.64785">
        <ele>667</ele>
        <time>2023-05-01T21:05:40.940Z</time>
      </trkpt>
      <trkpt lat="47.74815" lon="6.64787">
        <ele>666</ele>
        <time>2023-05-01T21:05:49.772Z</time>
      </trkpt>
      <trkpt lat="47.74824" lon="6.6479">
        <ele>665</ele>
        <time>2023-05-01T21:05:58.606Z</time>
      </trkpt>
      <trkpt lat="47.74827" lon="6.64788">
        <ele>664</ele>
        <time>2023-05-01T21:06:07.441Z</time>
      </trkpt>
      <trkpt lat="47.74834" lon="6.64789">
        <ele>663</ele>
        <time>2023-05-01T21:06:16.277Z</time>
      </trkpt>
      <trkpt lat="47.74856" lon="6.64795">
        <ele>662</ele>
        <time>2023-05-01T21:06:25.117Z</time>
      </trkpt>
      <trkpt lat="47.74866" lon="6.64796">
        <ele>661</ele>
        <time>2023-05-01T21:06:33.959Z</time>
      </trkpt>
      <trkpt lat="47.74873" lon="6.64799">
        <ele>659</ele>
        <time>2023-05-01T21:06:42.803Z</time>
      </trkpt>
      <trkpt lat="47.74882" lon="6.64806">
        <ele>658</ele>
        <time>2023-05-01T21:06:51.649Z</time>
      </trkpt>
      <trkpt lat="47.74907" lon="6.64811">
        <ele>656</ele>
        <time>2023-05-01T21:07:00.500Z</time>
      </trkpt>
      <trkpt lat="47.74929" lon="6.64823">
        <ele>654</ele>
        <time>2023-05-01T21:07:09.356Z</time>
      </trkpt>
      <trkpt lat="47.7495" lon="6.64828">
        <ele>652</ele>
        <time>2023-05-01T21:07:18.216Z</time>
      </trkpt>
      <trkpt lat="47.74957" lon="6.64827">
        <ele>650</ele>
        <time>2023-05-01T21:07:27.077Z</time>
      </trkpt>
      <trkpt lat="47.74964" lon="6.64828">
        <ele>648</ele>
        <time>2023-05-01T21:07:35.940Z</time>
      </trkpt>
      <trkpt lat="47.74974" lon="6.64822">
        <ele>646</ele>
        <time>2023-05-01T21:07:44.805Z</time>
      </trkpt>
      <trkpt lat="47.74978" lon="6.64822">
        <ele>643</ele>
        <time>2023-05-01T21:07:53.671Z</time>
      </trkpt>
      <trkpt lat="47.74988" lon="6.64825">
        <ele>641</ele>
        <time>2023-05-01T21:08:02.539Z</time>
      </trkpt>
      <trkpt lat="47.74997" lon="6.64831">
        <ele>639</ele>
        <time>2023-05-01T21:08:11.409Z</time>
      </trkpt>
      <trkpt lat="47.7501" lon="6.64834">
        <ele>636</ele>
        <time>2023-05-01T21:08:20.281Z</time>
      </trkpt>
      <trkpt lat="47.75033" lon="6.64849">
        <ele>634</ele>
        <time>2023-05-01T21:08:29.158Z</time>
      </trkpt>
      <trkpt lat="47.75041" lon="6.64852">
        <ele>631</ele>
        <time>2023-05-01T21:08:38.037Z</time>
      </trkpt>
      <trkpt lat="47.75086" lon="6.64894">
        <ele>628</ele>
        <time>2023-05-01T21:08:46.927Z</time>
      </trkpt>
      <trkpt lat="47.75104" lon="6.64917">
        <ele>625</ele>
        <time>2023-05-01T21:08:55.821Z</time>
      </trkpt>
      <trkpt lat="47.75131" lon="6.64962">
        <ele>622</ele>
        <time>2023-05-01T21:09:04.724Z</time>
      </trkpt>
      <trkpt lat="47.75143" lon="6.64991">
        <ele>620</ele>
        <time>2023-05-01T21:09:13.631Z</time>
      </trkpt>
      <trkpt lat="47.75156" lon="6.65009">
        <ele>617</ele>
        <time>2023-05-01T21:09:22.542Z</time>
      </trkpt>
      <trkpt lat="47.7518" lon="6.65039">
        <ele>613</ele>
        <time>2023-05-01T21:09:31.459Z</time>
      </trkpt>
      <trkpt lat="47.7519" lon="6.65058">
        <ele>610</ele>
        <time>2023-05-01T21:09:40.379Z</time>
      </trkpt>
      <trkpt lat="47.75199" lon="6.6507">
        <ele>607</ele>
        <time>2023-05-01T21:09:49.302Z</time>
      </trkpt>
      <trkpt lat="47.75211" lon="6.65071">
        <ele>604</ele>
        <time>2023-05-01T21:09:58.227Z</time>
      </trkpt>
      <trkpt lat="47.75215" lon="6.6507">
        <ele>601</ele>
        <time>2023-05-01T21:10:07.153Z</time>
      </trkpt>
      <trkpt lat="47.75221" lon="6.65074">
        <ele>598</ele>
        <time>2023-05-01T21:10:16.080Z</time>
      </trkpt>
      <trkpt lat="47.75245" lon="6.65075">
        <ele>595</ele>
        <time>2023-05-01T21:10:25.012Z</time>
      </trkpt>
      <trkpt lat="47.75253" lon="6.65066">
        <ele>592</ele>
        <time>2023-05-01T21:10:33.946Z</time>
      </trkpt>
      <trkpt lat="47.75257" lon="6.65051">
        <ele>589</ele>
        <time>2023-05-01T21:10:42.882Z</time>
      </trkpt>
      <trkpt lat="47.75261" lon="6.65023">
        <ele>585</ele>
        <time>2023-05-01T21:10:51.822Z</time>
      </trkpt>
      <trkpt lat="47.75263" lon="6.65019">
        <ele>582</ele>
        <time>2023-05-01T21:11:00.763Z</time>
      </trkpt>
      <trkpt lat="47.75266" lon="6.65018">
        <ele>579</ele>
        <time>2023-05-01T21:11:09.704Z</time>
      </trkpt>
      <trkpt lat="47.75272" lon="6.65019">
        <ele>576</ele>
        <time>2023-05-01T21:11:18.647Z</time>
      </trkpt>
      <trkpt lat="47.75294" lon="6.65037">
        <ele>572</ele>
        <time>2023-05-01T21:11:27.595Z</time>
      </trkpt>
      <trkpt lat="47.75299" lon="6.6505">
        <ele>569</ele>
        <time>2023-05-01T21:11:36.545Z</time>
      </trkpt>
      <trkpt lat="47.75307" lon="6.65062">
        <ele>566</ele>
        <time>2023-05-01T21:11:45.497Z</time>
      </trkpt>
      <trkpt lat="47.75309" lon="6.65062">
        <ele>563</ele>
        <time>2023-05-01T21:11:54.449Z</time>
      </trkpt>
      <trkpt lat="47.75317" lon="6.6509">
        <ele>559</ele>
        <time>2023-05-01T21:12:03.405Z</time>
      </trkpt>
      <trkpt lat="47.75304" lon="6.65143">
        <ele>556</ele>
        <time>2023-05-01T21:12:12.369Z</time>
      </trkpt>
      <trkpt lat="47.75305" lon="6.6515">
        <ele>552</ele>
        <time>2023-05-01T21:12:21.334Z</time>
      </trkpt>
      <trkpt lat="47.75309" lon="6.65155">
        <ele>549</ele>
        <time>2023-05-01T21:12:30.300Z</time>
      </trkpt>
      <trkpt lat="47.75314" lon="6.65156">
        <ele>546</ele>
        <time>2023-05-01T21:12:39.267Z</time>
      </trkpt>
      <trkpt lat="47.75321" lon="6.65154">
        <ele>542</ele>
        <time>2023-05-01T21:12:48.235Z</time>
      </trkpt>
      <trkpt lat="47.75347" lon="6.6514">
        <ele>539</ele>
        <time>2023-05-01T21:12:57.209Z</time>
      </trkpt>
      <trkpt lat="47.75367" lon="6.65118">
        <ele>535</ele>
        <time>2023-05-01T21:13:06.188Z</time>
      </trkpt>
      <trkpt lat="47.75375" lon="6.65106">
        <ele>531</ele>
        <time>2023-05-01T21:13:15.169Z</time>
      </trkpt>
      <trkpt lat="47.75382" lon="6.65089">
        <ele>528</ele>
        <time>2023-05-01T21:13:24.153Z</time>
      </trkpt>
      <trkpt lat="47.75383" lon="6.65078">
        <ele>524</ele>
        <time>2023-05-01T21:13:33.138Z</time>
      </trkpt>
      <trkpt lat="47.75376" lon="6.65044">
        <ele>521</ele>
        <time>2023-05-01T21:13:42.128Z</time>
      </trkpt>
      <trkpt lat="47.75375" lon="6.65034">
        <ele>517</ele>
        <time>2023-05-01T21:13:51.120Z</time>
      </trkpt>
      <trkpt lat="47.75383" lon="6.65019">
        <ele>514</ele>
        <time>2023-05-01T21:14:00.114Z</time>
      </trkpt>
      <trkpt lat="47.75387" lon="6.65017">
        <ele>510</ele>
        <time>2023-05-01T21:14:09.109Z</time>
      </trkpt>
      <trkpt lat="47.75399" lon="6.65023">
        <ele>506</ele>
        <time>2023-05-01T21:14:18.107Z</time>
      </trkpt>
      <trkpt lat="47.75414" lon="6.65034">
        <ele>503</ele>
        <time>2023-05-01T21:14:27.108Z</time>
      </trkpt>
      <trkpt lat="47.7545" lon="6.65087">
        <ele>499</ele>
        <time>2023-05-01T21:14:36.119Z</time>
      </trkpt>
      <trkpt lat="47.75469" lon="6.65133">
        <ele>495</ele>
        <time>2023-05-01T21:14:45.137Z</time>
      </trkpt>
      <trkpt lat="47.75484" lon="6.65156">
        <ele>492</ele>
        <time>2023-05-01T21:14:54.160Z</time>
      </trkpt>
      <trkpt lat="47.75492" lon="6.65189">
        <ele>488</ele>
        <time>2023-05-01T21:15:03.187Z</time>
      </trkpt>
      <trkpt lat="47.75502" lon="6.65206">
        <ele>485</ele>
        <time>2023-05-01T21:15:12.217Z</time>
      </trkpt>
      <trkpt lat="47.75518" lon="6.65222">
        <ele>481</ele>
        <time>2023-05-01T21:15:21.251Z</time>
      </trkpt>
      <trkpt lat="47.75547" lon="6.65258">
        <ele>478</ele>
        <time>2023-05-01T21:15:30.293Z</time>
      </trkpt>
      <trkpt lat="47.75559" lon="6.6527">
        <ele>475</ele>
        <time>2023-05-01T21:15:39.338Z</time>
      </trkpt>
      <trkpt lat="47.7557" lon="6.65277">
        <ele>472</ele>
        <time>2023-05-01T21:15:48.385Z</time>
      </trkpt>
      <trkpt lat="47.75604" lon="6.65286">
        <ele>470</ele>
        <time>2023-05-01T21:15:57.439Z</time>
      </trkpt>
      <trkpt lat="47.75619" lon="6.65288">
        <ele>467</ele>
        <time>2023-05-01T21:16:06.496Z</time>
      </trkpt>
      <trkpt lat="47.75653" lon="6.65285">
        <ele>465</ele>
        <time>2023-05-01T21:16:15.560Z</time>
      </trkpt>
      <trkpt lat="47.75661" lon="6.65282">
        <ele>463</ele>
        <time>2023-05-01T21:16:24.626Z</time>
      </trkpt>
      <trkpt lat="47.75683" lon="6.65272">
        <ele>461</ele>
        <time>2023-05-01T21:16:33.696Z</time>
      </trkpt>
      <trkpt lat="47.75698" lon="6.65263">
        <ele>459</ele>
        <time>2023-05-01T21:16:42.769Z</time>
      </trkpt>
      <trkpt lat="47.75742" lon="6.65226">
        <ele>457</ele>
        <time>2023-05-01T21:16:51.853Z</time>
      </trkpt>
      <trkpt lat="47.75754" lon="6.6522">
        <ele>456</ele>
        <time>2023-05-01T21:17:00.939Z</time>
      </trkpt>
      <trkpt lat="47.75758" lon="6.65216">
        <ele>455</ele>
        <time>2023-05-01T21:17:10.026Z</time>
      </trkpt>
      <trkpt lat="47.75761" lon="6.6521">
        <ele>454</ele>
        <time>2023-05-01T21:17:19.114Z</time>
      </trkpt>
      <trkpt lat="47.75762" lon="6.65196">
        <ele>453</ele>
        <time>2023-05-01T21:17:28.204Z</time>
      </trkpt>
      <trkpt lat="47.75755" lon="6.65173">
        <ele>452</ele>
        <time>2023-05-01T21:17:37.297Z</time>
      </trkpt>
      <trkpt lat="47.75736" lon="6.65139">
        <ele>451</ele>
        <time>2023-05-01T21:17:46.396Z</time>
      </trkpt>
      <trkpt lat="47.75721" lon="6.65119">
        <ele>451</ele>
        <time>2023-05-01T21:17:55.499Z</time>
      </trkpt>
      <trkpt lat="47.75697" lon="6.65078">
        <ele>451</ele>
        <time>2023-05-01T21:18:04.610Z</time>
      </trkpt>
      <trkpt lat="47.75693" lon="6.65068">
        <ele>451</ele>
        <time>2023-05-01T21:18:13.722Z</time>
      </trkpt>
      <trkpt lat="47.75691" lon="6.65049">
        <ele>451</ele>
        <time>2023-05-01T21:18:22.837Z</time>
      </trkpt>
      <trkpt lat="47.75692" lon="6.65025">
        <ele>451</ele>
        <time>2023-05-01T21:18:31.955Z</time>
      </trkpt>
      <trkpt lat="47.75685" lon="6.65012">
        <ele>451</ele>
        <time>2023-05-01T21:18:41.075Z</time>
      </trkpt>
      <trkpt lat="47.75669" lon="6.64967">
        <ele>452</ele>
        <time>2023-05-01T21:18:50.202Z</time>
      </trkpt>
      <trkpt lat="47.75666" lon="6.64943">
        <ele>452</ele>
        <time>2023-05-01T21:18:59.332Z</time>
      </trkpt>
      <trkpt lat="47.7565" lon="6.64895">
        <ele>453</ele>
        <time>2023-05-01T21:19:08.470Z</time>
      </trkpt>
      <trkpt lat="47.75645" lon="6.64857">
        <ele>453</ele>
        <time>2023-05-01T21:19:17.613Z</time>
      </trkpt>
      <trkpt lat="47.7565" lon="6.64835">
        <ele>454</ele>
        <time>2023-05-01T21:19:26.759Z</time>
      </trkpt>
      <trkpt lat="47.75653" lon="6.64813">
        <ele>455</ele>
        <time>2023-05-01T21:19:35.908Z</time>
      </trkpt>
      <trkpt lat="47.75657" lon="6.648">
        <ele>456</ele>
        <time>2023-05-01T21:19:45.059Z</time>
      </trkpt>
      <trkpt lat="47.75662" lon="6.64749">
        <ele>457</ele>
        <time>2023-05-01T21:19:54.217Z</time>
      </trkpt>
      <trkpt lat="47.75668" lon="6.6473">
        <ele>458</ele>
        <time>2023-05-01T21:20:03.378Z</time>
      </trkpt>
      <trkpt lat="47.75676" lon="6.64709">
        <ele>459</ele>
        <time>2023-05-01T21:20:12.542Z</time>
      </trkpt>
      <trkpt lat="47.75689" lon="6.64689">
        <ele>460</ele>
        <time>2023-05-01T21:20:21.710Z</time>
      </trkpt>
      <trkpt lat="47.75699" lon="6.64667">
        <ele>462</ele>
        <time>2023-05-01T21:20:30.881Z</time>
      </trkpt>
      <trkpt lat="47.757" lon="6.64642">
        <ele>463</ele>
        <time>2023-05-01T21:20:40.056Z</time>
      </trkpt>
      <trkpt lat="47.75697" lon="6.64635">
        <ele>464</ele>
        <time>2023-05-01T21:20:49.232Z</time>
      </trkpt>
      <trkpt lat="47.75692" lon="6.64627">
        <ele>465</ele>
        <time>2023-05-01T21:20:58.409Z</time>
      </trkpt>
      <trkpt lat="47.75689" lon="6.64612">
        <ele>467</ele>
        <time>2023-05-01T21:21:07.588Z</time>
      </trkpt>
      <trkpt lat="47.75696" lon="6.64569">
        <ele>468</ele>
        <time>2023-05-01T21:21:16.774Z</time>
      </trkpt>
      <trkpt lat="47.75704" lon="6.64557">
        <ele>469</ele>
        <time>2023-05-01T21:21:25.962Z</time>
      </trkpt>
      <trkpt lat="47.75711" lon="6.64537">
        <ele>471</ele>
        <time>2023-05-01T21:21:35.153Z</time>
      </trkpt>
      <trkpt lat="47.75726" lon="6.64508">
        <ele>472</ele>
        <time>2023-05-01T21:21:44.349Z</time>
      </trkpt>
      <trkpt lat="47.75728" lon="6.64495">
        <ele>473</ele>
        <time>2023-05-01T21:21:53.546Z</time>
      </trkpt>
      <trkpt lat="47.75736" lon="6.64478">
        <ele>474</ele>
        <time>2023-05-01T21:22:02.746Z</time>
      </trkpt>
      <trkpt lat="47.75747" lon="6.64435">
        <ele>476</ele>
        <time>2023-05-01T21:22:11.952Z</time>
      </trkpt>
      <trkpt lat="47.75746" lon="6.64429">
        <ele>477</ele>
        <time>2023-05-01T21:22:21.159Z</time>
      </trkpt>
      <trkpt lat="47.75748" lon="6.64423">
        <ele>478</ele>
        <time>2023-05-01T21:22:30.367Z</time>
      </trkpt>
      <trkpt lat="47.75749" lon="6.64404">
        <ele>479</ele>
        <time>2023-05-01T21:22:39.578Z</time>
      </trkpt>
      <trkpt lat="47.75754" lon="6.64379">
        <ele>480</ele>
        <time>2023-05-01T21:22:48.792Z</time>
      </trkpt>
      <trkpt lat="47.75759" lon="6.64367">
        <ele>480</ele>
        <time>2023-05-01T21:22:58.008Z</time>
      </trkpt>
      <trkpt lat="47.75763" lon="6.64351">
        <ele>481</ele>
        <time>2023-05-01T21:23:07.226Z</time>
      </trkpt>
      <trkpt lat="47.75769" lon="6.64342">
        <ele>481</ele>
        <time>2023-05-01T21:23:16.446Z</time>
      </trkpt>
      <trkpt lat="47.75779" lon="6.64324">
        <ele>482</ele>
        <time>2023-05-01T21:23:25.669Z</time>
      </trkpt>
      <trkpt lat="47.75782" lon="6.64305">
        <ele>482</ele>
        <time>2023-05-01T21:23:34.895Z</time>
      </trkpt>
      <trkpt lat="47.75789" lon="6.64284">
        <ele>482</ele>
        <time>2023-05-01T21:23:44.124Z</time>
      </trkpt>
      <trkpt lat="47.75789" lon="6.64277">
        <ele>482</ele>
        <time>2023-05-01T21:23:53.354Z</time>
      </trkpt>
      <trkpt lat="47.75802" lon="6.64238">
        <ele>482</ele>
        <time>2023-05-01T21:24:02.590Z</time>
      </trkpt>
      <trkpt lat="47.75805" lon="6.64225">
        <ele>482</ele>
        <time>2023-05-01T21:24:11.828Z</time>
      </trkpt>
      <trkpt lat="47.75808" lon="6.64184">
        <ele>481</ele>
        <time>2023-05-01T21:24:21.071Z</time>
      </trkpt>
      <trkpt lat="47.75816" lon="6.6415">
        <ele>481</ele>
        <time>2023-05-01T21:24:30.319Z</time>
      </trkpt>
      <trkpt lat="47.75818" lon="6.64136">
        <ele>480</ele>
        <time>2023-05-01T21:24:39.569Z</time>
      </trkpt>
      <trkpt lat="47.75813" lon="6.64115">
        <ele>480</ele>
        <time>2023-05-01T21:24:48.822Z</time>
      </trkpt>
      <trkpt lat="47.75814" lon="6.64087">
        <ele>479</ele>
        <time>2023-05-01T21:24:58.079Z</time>
      </trkpt>
      <trkpt lat="47.75811" lon="6.6408">
        <ele>478</ele>
        <time>2023-05-01T21:25:07.337Z</time>
      </trkpt>
      <trkpt lat="47.7581" lon="6.64065">
        <ele>477</ele>
        <time>2023-05-01T21:25:16.597Z</time>
      </trkpt>
      <trkpt lat="47.75813" lon="6.64049">
        <ele>476</ele>
        <time>2023-05-01T21:25:25.859Z</time>
      </trkpt>
      <trkpt lat="47.75809" lon="6.64025">
        <ele>475</ele>
        <time>2023-05-01T21:25:35.125Z</time>
      </trkpt>
      <trkpt lat="47.75812" lon="6.63997">
        <ele>474</ele>
        <time>2023-05-01T21:25:44.394Z</time>
      </trkpt>
      <trkpt lat="47.75811" lon="6.63963">
        <ele>472</ele>
        <time>2023-05-01T21:25:53.668Z</time>
      </trkpt>
      <trkpt lat="47.75815" lon="6.6394">
        <ele>471</ele>
        <time>2023-05-01T21:26:02.945Z</time>
      </trkpt>
      <trkpt lat="47.7582" lon="6.63922">
        <ele>469</ele>
        <time>2023-05-01T21:26:12.225Z</time>
      </trkpt>
      <trkpt lat="47.75829" lon="6.63908">
        <ele>468</ele>
        <time>2023-05-01T21:26:21.508Z</time>
      </trkpt>
      <trkpt lat="47.75837" lon="6.63885">
        <ele>466</ele>
        <time>2023-05-01T21:26:30.794Z</time>
      </trkpt>
      <trkpt lat="47.75847" lon="6.63839">
        <ele>465</ele>
        <time>2023-05-01T21:26:40.087Z</time>
      </trkpt>
      <trkpt lat="47.75853" lon="6.63827">
        <ele>463</ele>
        <time>2023-05-01T21:26:49.382Z</time>
      </trkpt>
      <trkpt lat="47.75863" lon="6.6382">
        <ele>462</ele>
        <time>2023-05-01T21:26:58.679Z</time>
      </trkpt>
      <trkpt lat="47.75866" lon="6.63813">
        <ele>460</ele>
        <time>2023-05-01T21:27:07.977Z</time>
      </trkpt>
      <trkpt lat="47.75876" lon="6.63806">
        <ele>458</ele>
        <time>2023-05-01T21:27:17.277Z</time>
      </trkpt>
      <trkpt lat="47.75878" lon="6.63803">
        <ele>457</ele>
        <time>2023-05-01T21:27:26.578Z</time>
      </trkpt>
      <trkpt lat="47.75883" lon="6.63789">
        <ele>455</ele>
        <time>2023-05-01T21:27:35.881Z</time>
      </trkpt>
      <trkpt lat="47.75888" lon="6.63783">
        <ele>454</ele>
        <time>2023-05-01T21:27:45.185Z</time>
      </trkpt>
      <trkpt lat="47.75898" lon="6.63752">
        <ele>452</ele>
        <time>2023-05-01T21:27:54.494Z</time>
      </trkpt>
      <trkpt lat="47.75904" lon="6.6374">
        <ele>451</ele>
        <time>2023-05-01T21:28:03.805Z</time>
      </trkpt>
      <trkpt lat="47.75906" lon="6.63724">
        <ele>449</ele>
        <time>2023-05-01T21:28:13.118Z</time>
      </trkpt>
      <trkpt lat="47.75909" lon="6.63712">
        <ele>448</ele>
        <time>2023-05-01T21:28:22.433Z</time>
      </trkpt>
      <trkpt lat="47.75918" lon="6.63697">
        <ele>446</ele>
        <time>2023-05-01T21:28:31.750Z</time>
      </trkpt>
      <trkpt lat="47.75925" lon="6.63692">
        <ele>445</ele>
        <time>2023-05-01T21:28:41.069Z</time>
      </trkpt>
      <trkpt lat="47.75937" lon="6.63705">
        <ele>444</ele>
        <time>2023-05-01T21:28:50.391Z</time>
      </trkpt>
      <trkpt lat="47.75942" lon="6.63719">
        <ele>442</ele>
        <time>2023-05-01T21:28:59.715Z</time>
      </trkpt>
      <trkpt lat="47.75976" lon="6.63786">
        <ele>441</ele>
        <time>2023-05-01T21:29:09.050Z</time>
      </trkpt>
      <trkpt lat="47.75983" lon="6.63808">
        <ele>440</ele>
        <time>2023-05-01T21:29:18.389Z</time>
      </trkpt>
      <trkpt lat="47.75987" lon="6.63829">
        <ele>439</ele>
        <time>2023-05-01T21:29:27.731Z</time>
      </trkpt>
      <trkpt lat="47.76021" lon="6.63892">
        <ele>439</ele>
        <time>2023-05-01T21:29:37.084Z</time>
      </trkpt>
      <trkpt lat="47.76018" lon="6.63935">
        <ele>438</ele>
        <time>2023-05-01T21:29:46.442Z</time>
      </trkpt>
      <trkpt lat="47.76021" lon="6.63946">
        <ele>438</ele>
        <time>2023-05-01T21:29:55.802Z</time>
      </trkpt>
      <trkpt lat="47.76019" lon="6.63964">
        <ele>437</ele>
        <time>2023-05-01T21:30:05.164Z</time>
      </trkpt>
      <trkpt lat="47.76023" lon="6.6399">
        <ele>437</ele>
        <time>2023-05-01T21:30:14.530Z</time>
      </trkpt>
      <trkpt lat="47.76023" lon="6.63998">
        <ele>437</ele>
        <time>2023-05-01T21:30:23.897Z</time>
      </trkpt>
      <trkpt lat="47.76026" lon="6.64006">
        <ele>437</ele>
        <time>2023-05-01T21:30:33.265Z</time>
      </trkpt>
      <trkpt lat="47.76029" lon="6.64008">
        <ele>437</ele>
        <time>2023-05-01T21:30:42.634Z</time>
      </trkpt>
      <trkpt lat="47.76031" lon="6.64012">
        <ele>437</ele>
        <time>2023-05-01T21:30:52.004Z</time>
      </trkpt>
      <trkpt lat="47.7604" lon="6.64019">
        <ele>437</ele>
        <time>2023-05-01T21:31:01.376Z</time>
      </trkpt>
      <trkpt lat="47.76049" lon="6.6403">
        <ele>437</ele>
        <time>2023-05-01T21:31:10.750Z</time>
      </trkpt>
      <trkpt lat="47.76074" lon="6.64052">
        <ele>438</ele>
        <time>2023-05-01T21:31:20.130Z</time>
      </trkpt>
      <trkpt lat="47.76084" lon="6.64068">
        <ele>438</ele>
        <time>2023-05-01T21:31:29.513Z</time>
      </trkpt>
      <trkpt lat="47.7609" lon="6.64087">
        <ele>439</ele>
        <time>2023-05-01T21:31:38.899Z</time>
      </trkpt>
      <trkpt lat="47.76098" lon="6.641">
        <ele>439</ele>
        <time>2023-05-01T21:31:48.287Z</time>
      </trkpt>
      <trkpt lat="47.76121" lon="6.64128">
        <ele>440</ele>
        <time>2023-05-01T21:31:57.681Z</time>
      </trkpt>
      <trkpt lat="47.76135" lon="6.64136">
        <ele>441</ele>
        <time>2023-05-01T21:32:07.078Z</time>
      </trkpt>
      <trkpt lat="47.7614" lon="6.64137">
        <ele>442</ele>
        <time>2023-05-01T21:32:16.476Z</time>
      </trkpt>
      <trkpt lat="47.76148" lon="6.64134">
        <ele>443</ele>
        <time>2023-05-01T21:32:25.875Z</time>
      </trkpt>
      <trkpt lat="47.7616" lon="6.64135">
        <ele>443</ele>
        <time>2023-05-01T21:32:35.277Z</time>
      </trkpt>
      <trkpt lat="47.76183" lon="6.64131">
        <ele>445</ele>
        <time>2023-05-01T21:32:44.684Z</time>
      </trkpt>
      <trkpt lat="47.76188" lon="6.64127">
        <ele>445</ele>
        <time>2023-05-01T21:32:54.092Z</time>
      </trkpt>
      <trkpt lat="47.762" lon="6.64111">
        <ele>446</ele>
        <time>2023-05-01T21:33:03.503Z</time>
      </trkpt>
      <trkpt lat="47.76211" lon="6.641">
        <ele>447</ele>
        <time>2023-05-01T21:33:12.917Z</time>
      </trkpt>
      <trkpt lat="47.76221" lon="6.6408">
        <ele>448</ele>
        <time>2023-05-01T21:33:22.334Z</time>
      </trkpt>
      <trkpt lat="47.76231" lon="6.64065">
        <ele>449</ele>
        <time>2023-05-01T21:33:31.754Z</time>
      </trkpt>
      <trkpt lat="47.76241" lon="6.64055">
        <ele>450</ele>
        <time>2023-05-01T21:33:41.176Z</time>
      </trkpt>
      <trkpt lat="47.76253" lon="6.64038">
        <ele>451</ele>
        <time>2023-05-01T21:33:50.602Z</time>
      </trkpt>
      <trkpt lat="47.76274" lon="6.64006">
        <ele>452</ele>
        <time>2023-05-01T21:34:00.034Z</time>
      </trkpt>
      <trkpt lat="47.76277" lon="6.63995">
        <ele>452</ele>
        <time>2023-05-01T21:34:09.467Z</time>
      </trkpt>
      <trkpt lat="47.76276" lon="6.63982">
        <ele>453</ele>
        <time>2023-05-01T21:34:18.902Z</time>
      </trkpt>
      <trkpt lat="47.76271" lon="6.63971">
        <ele>454</ele>
        <time>2023-05-01T21:34:28.339Z</time>
      </trkpt>
      <trkpt lat="47.76254" lon="6.63952">
        <ele>454</ele>
        <time>2023-05-01T21:34:37.780Z</time>
      </trkpt>
      <trkpt lat="47.76229" lon="6.63933">
        <ele>455</ele>
        <time>2023-05-01T21:34:47.227Z</time>
      </trkpt>
      <trkpt lat="47.76208" lon="6.63912">
        <ele>455</ele>
        <time>2023-05-01T21:34:56.679Z</time>
      </trkpt>
      <trkpt lat="47.76199" lon="6.63901">
        <ele>455</ele>
        <time>2023-05-01T21:35:06.133Z</time>
      </trkpt>
      <trkpt lat="47.76175" lon="6.63861">
        <ele>455</ele>
        <time>2023-05-01T21:35:15.594Z</time>
      </trkpt>
      <trkpt lat="47.76167" lon="6.63843">
        <ele>456</ele>
        <time>2023-05-01T21:35:25.058Z</time>
      </trkpt>
      <trkpt lat="47.76162" lon="6.63822">
        <ele>456</ele>
        <time>2023-05-01T21:35:34.525Z</time>
      </trkpt>
      <trkpt lat="47.76154" lon="6.63756">
        <ele>456</ele>
        <time>2023-05-01T21:35:44.001Z</time>
      </trkpt>
      <trkpt lat="47.76146" lon="6.63744">
        <ele>456</ele>
        <time>2023-05-01T21:35:53.479Z</time>
      </trkpt>
      <trkpt lat="47.76119" lon="6.63723">
        <ele>456</ele>
        <time>2023-05-01T21:36:02.963Z</time>
      </trkpt>
      <trkpt lat="47.76108" lon="6.63709">
        <ele>455</ele>
        <time>2023-05-01T21:36:12.450Z</time>
      </trkpt>
      <trkpt lat="47.7609" lon="6.63673">
        <ele>455</ele>
        <time>2023-05-01T21:36:21.943Z</time>
      </trkpt>
      <trkpt lat="47.76082" lon="6.63652">
        <ele>455</ele>
        <time>2023-05-01T21:36:31.440Z</time>
      </trkpt>
      <trkpt lat="47.7607" lon="6.63617">
        <ele>454</ele>
        <time>2023-05-01T21:36:40.942Z</time>
      </trkpt>
      <trkpt lat="47.7606" lon="6.63576">
        <ele>453</ele>
        <time>2023-05-01T21:36:50.450Z</time>
      </trkpt>
      <trkpt lat="47.76057" lon="6.63549">
        <ele>453</ele>
        <time>2023-05-01T21:36:59.962Z</time>
      </trkpt>
      <trkpt lat="47.76057" lon="6.63524">
        <ele>452</ele>
        <time>2023-05-01T21:37:09.477Z</time>
      </trkpt>
      <trkpt lat="47.76063" lon="6.63435">
        <ele>451</ele>
        <time>2023-05-01T21:37:19.004Z</time>
      </trkpt>
      <trkpt lat="47.76078" lon="6.63346">
        <ele>450</ele>
        <time>2023-05-01T21:37:28.543Z</time>
      </trkpt>
      <trkpt lat="47.76097" lon="6.63289">
        <ele>448</ele>
        <time>2023-05-01T21:37:38.091Z</time>
      </trkpt>
      <trkpt lat="47.7611" lon="6.6327">
        <ele>447</ele>
        <time>2023-05-01T21:37:47.643Z</time>
      </trkpt>
      <trkpt lat="47.76118" lon="6.63268">
        <ele>446</ele>
        <time>2023-05-01T21:37:57.196Z</time>
      </trkpt>
      <trkpt lat="47.76128" lon="6.6327">
        <ele>445</ele>
        <time>2023-05-01T21:38:06.751Z</time>
      </trkpt>
      <trkpt lat="47.76137" lon="6.63278">
        <ele>444</ele>
        <time>2023-05-01T21:38:16.308Z</time>
      </trkpt>
      <trkpt lat="47.76144" lon="6.63288">
        <ele>443</ele>
        <time>2023-05-01T21:38:25.867Z</time>
      </trkpt>
      <trkpt lat="47.76174" lon="6.63349">
        <ele>442</ele>
        <time>2023-05-01T21:38:35.437Z</time>
      </trkpt>
      <trkpt lat="47.76193" lon="6.63382">
        <ele>440</ele>
        <time>2023-05-01T21:38:45.012Z</time>
      </trkpt>
      <trkpt lat="47.76198" lon="6.63387">
        <ele>439</ele>
        <time>2023-05-01T21:38:54.589Z</time>
      </trkpt>
      <trkpt lat="47.76204" lon="6.6339">
        <ele>438</ele>
        <time>2023-05-01T21:39:04.167Z</time>
      </trkpt>
      <trkpt lat="47.76208" lon="6.63388">
        <ele>436</ele>
        <time>2023-05-01T21:39:13.746Z</time>
      </trkpt>
      <trkpt lat="47.76211" lon="6.6338">
        <ele>435</ele>
        <time>2023-05-01T21:39:23.326Z</time>
      </trkpt>
      <trkpt lat="47.76213" lon="6.63358">
        <ele>434</ele>
        <time>2023-05-01T21:39:32.909Z</time>
      </trkpt>
      <trkpt lat="47.76229" lon="6.63286">
        <ele>432</ele>
        <time>2023-05-01T21:39:42.502Z</time>
      </trkpt>
      <trkpt lat="47.76234" lon="6.63243">
        <ele>430</ele>
        <time>2023-05-01T21:39:52.101Z</time>
      </trkpt>
      <trkpt lat="47.76236" lon="6.632">
        <ele>429</ele>
        <time>2023-05-01T21:40:01.706Z</time>
      </trkpt>
      <trkpt lat="47.76244" lon="6.63164">
        <ele>428</ele>
        <time>2023-05-01T21:40:11.316Z</time>
      </trkpt>
      <trkpt lat="47.76252" lon="6.63141">
        <ele>426</ele>
        <time>2023-05-01T21:40:20.930Z</time>
      </trkpt>
      <trkpt lat="47.7632" lon="6.63034">
        <ele>425</ele>
        <time>2023-05-01T21:40:30.563Z</time>
      </trkpt>
      <trkpt lat="47.76341" lon="6.63014">
        <ele>423</ele>
        <time>2023-05-01T21:40:40.201Z</time>
      </trkpt>
      <trkpt lat="47.76354" lon="6.62996">
        <ele>421</ele>
        <time>2023-05-01T21:40:49.843Z</time>
      </trkpt>
      <trkpt lat="47.76363" lon="6.62972">
        <ele>420</ele>
        <time>2023-05-01T21:40:59.489Z</time>
      </trkpt>
      <trkpt lat="47.76374" lon="6.62935">
        <ele>418</ele>
        <time>2023-05-01T21:41:09.140Z</time>
      </trkpt>
      <trkpt lat="47.7638" lon="6.62892">
        <ele>416</ele>
        <time>2023-05-01T21:41:18.797Z</time>
      </trkpt>
      <trkpt lat="47.76378" lon="6.62878">
        <ele>415</ele>
        <time>2023-05-01T21:41:28.456Z</time>
      </trkpt>
      <trkpt lat="47.76376" lon="6.6287">
        <ele>413</ele>
        <time>2023-05-01T21:41:38.116Z</time>
      </trkpt>
      <trkpt lat="47.76359" lon="6.62823">
        <ele>411</ele>
        <time>2023-05-01T21:41:47.783Z</time>
      </trkpt>
      <trkpt lat="47.76355" lon="6.62784">
        <ele>409</ele>
        <time>2023-05-01T21:41:57.456Z</time>
      </trkpt>
      <trkpt lat="47.76356" lon="6.62765">
        <ele>407</ele>
        <time>2023-05-01T21:42:07.131Z</time>
      </trkpt>
      <trkpt lat="47.76362" lon="6.62722">
        <ele>405</ele>
        <time>2023-05-01T21:42:16.812Z</time>
      </trkpt>
      <trkpt lat="47.76364" lon="6.62675">
        <ele>403</ele>
        <time>2023-05-01T21:42:26.499Z</time>
      </trkpt>
      <trkpt lat="47.76362" lon="6.62613">
        <ele>401</ele>
        <time>2023-05-01T21:42:36.195Z</time>
      </trkpt>
      <trkpt lat="47.76365" lon="6.62581">
        <ele>399</ele>
        <time>2023-05-01T21:42:45.895Z</time>
      </trkpt>
      <trkpt lat="47.7637" lon="6.62562">
        <ele>397</ele>
        <time>2023-05-01T21:42:55.598Z</time>
      </trkpt>
      <trkpt lat="47.76371" lon="6.62551">
        <ele>395</ele>
        <time>2023-05-01T21:43:05.302Z</time>
      </trkpt>
      <trkpt lat="47.76369" lon="6.62485">
        <ele>393</ele>
        <time>2023-05-01T21:43:15.015Z</time>
      </trkpt>
      <trkpt lat="47.76373" lon="6.62443">
        <ele>390</ele>
        <time>2023-05-01T21:43:24.734Z</time>
      </trkpt>
      <trkpt lat="47.76367" lon="6.62383">
        <ele>388</ele>
        <time>2023-05-01T21:43:34.461Z</time>
      </trkpt>
      <trkpt lat="47.76364" lon="6.62255">
        <ele>386</ele>
        <time>2023-05-01T21:43:44.206Z</time>
      </trkpt>
      <trkpt lat="47.76366" lon="6.6223">
        <ele>384</ele>
        <time>2023-05-01T21:43:53.954Z</time>
      </trkpt>
      <trkpt lat="47.76367" lon="6.62177">
        <ele>381</ele>
        <time>2023-05-01T21:44:03.709Z</time>
      </trkpt>
      <trkpt lat="47.76373" lon="6.62131">
        <ele>379</ele>
        <time>2023-05-01T21:44:13.470Z</time>
      </trkpt>
      <trkpt lat="47.76377" lon="6.62049">
        <ele>376</ele>
        <time>2023-05-01T21:44:23.242Z</time>
      </trkpt>
      <trkpt lat="47.76374" lon="6.62013">
        <ele>374</ele>
        <time>2023-05-01T21:44:33.019Z</time>
      </trkpt>
      <trkpt lat="47.76369" lon="6.61976">
        <ele>372</ele>
        <time>2023-05-01T21:44:42.801Z</time>
      </trkpt>
      <trkpt lat="47.76368" lon="6.61898">
        <ele>369</ele>
        <time>2023-05-01T21:44:52.594Z</time>
      </trkpt>
      <trkpt lat="47.76364" lon="6.61862">
        <ele>367</ele>
        <time>2023-05-01T21:45:02.392Z</time>
      </trkpt>
      <trkpt lat="47.76353" lon="6.61817">
        <ele>364</ele>
        <time>2023-05-01T21:45:12.196Z</time>
      </trkpt>
      <trkpt lat="47.76349" lon="6.61813">
        <ele>362</ele>
        <time>2023-05-01T21:45:22.001Z</time>
      </trkpt>
      <trkpt lat="47.76329" lon="6.61805">
        <ele>360</ele>
        <time>2023-05-01T21:45:31.811Z</time>
      </trkpt>
      <trkpt lat="47.76308" lon="6.61795">
        <ele>358</ele>
        <time>2023-05-01T21:45:41.625Z</time>
      </trkpt>
      <trkpt lat="47.76299" lon="6.61783">
        <ele>356</ele>
        <time>2023-05-01T21:45:51.441Z</time>
      </trkpt>
      <trkpt lat="47.76293" lon="6.61754">
        <ele>354</ele>
        <time>2023-05-01T21:46:01.261Z</time>
      </trkpt>
      <trkpt lat="47.76296" lon="6.61724">
        <ele>352</ele>
        <time>2023-05-01T21:46:11.085Z</time>
      </trkpt>
      <trkpt lat="47.76303" lon="6.61712">
        <ele>350</ele>
        <time>2023-05-01T21:46:20.912Z</time>
      </trkpt>
      <trkpt lat="47.76307" lon="6.61697">
        <ele>348</ele>
        <time>2023-05-01T21:46:30.741Z</time>
      </trkpt>
      <trkpt lat="47.76317" lon="6.61682">
        <ele>346</ele>
        <time>2023-05-01T21:46:40.573Z</time>
      </trkpt>
      <trkpt lat="47.76318" lon="6.6167">
        <ele>345</ele>
        <time>2023-05-01T21:46:50.406Z</time>
      </trkpt>
      <trkpt lat="47.76313" lon="6.61628">
        <ele>343</ele>
        <time>2023-05-01T21:47:00.245Z</time>
      </trkpt>
      <trkpt lat="47.76306" lon="6.6159">
        <ele>342</ele>
        <time>2023-05-01T21:47:10.089Z</time>
      </trkpt>
      <trkpt lat="47.76302" lon="6.61539">
        <ele>341</ele>
        <time>2023-05-01T21:47:19.940Z</time>
      </trkpt>
      <trkpt lat="47.76303" lon="6.61502">
        <ele>340</ele>
        <time>2023-05-01T21:47:29.796Z</time>
      </trkpt>
      <trkpt lat="47.76319" lon="6.61299">
        <ele>339</ele>
        <time>2023-05-01T21:47:39.680Z</time>
      </trkpt>
      <trkpt lat="47.76321" lon="6.61282">
        <ele>338</ele>
        <time>2023-05-01T21:47:49.566Z</time>
      </trkpt>
      <trkpt lat="47.76337" lon="6.61235">
        <ele>337</ele>
        <time>2023-05-01T21:47:59.459Z</time>
      </trkpt>
      <trkpt lat="47.76367" lon="6.61168">
        <ele>336</ele>
        <time>2023-05-01T21:48:09.363Z</time>
      </trkpt>
      <trkpt lat="47.76388" lon="6.61117">
        <ele>335</ele>
        <time>2023-05-01T21:48:19.275Z</time>
      </trkpt>
      <trkpt lat="47.76392" lon="6.61073">
        <ele>335</ele>
        <time>2023-05-01T21:48:29.193Z</time>
      </trkpt>
      <trkpt lat="47.76386" lon="6.60994">
        <ele>335</ele>
        <time>2023-05-01T21:48:39.122Z</time>
      </trkpt>
      <trkpt lat="47.76383" lon="6.60977">
        <ele>334</ele>
        <time>2023-05-01T21:48:49.053Z</time>
      </trkpt>
      <trkpt lat="47.76375" lon="6.60953">
        <ele>334</ele>
        <time>2023-05-01T21:48:58.988Z</time>
      </trkpt>
      <trkpt lat="47.76358" lon="6.60928">
        <ele>334</ele>
        <time>2023-05-01T21:49:08.928Z</time>
      </trkpt>
      <trkpt lat="47.76311" lon="6.60873">
        <ele>334</ele>
        <time>2023-05-01T21:49:18.880Z</time>
      </trkpt>
      <trkpt lat="47.76305" lon="6.6086">
        <ele>335</ele>
        <time>2023-05-01T21:49:28.834Z</time>
      </trkpt>
      <trkpt lat="47.763" lon="6.6084">
        <ele>335</ele>
        <time>2023-05-01T21:49:38.791Z</time>
      </trkpt>
      <trkpt lat="47.76298" lon="6.60818">
        <ele>336</ele>
        <time>2023-05-01T21:49:48.751Z</time>
      </trkpt>
      <trkpt lat="47.76348" lon="6.60775">
        <ele>336</ele>
        <time>2023-05-01T21:49:58.722Z</time>
      </trkpt>
      <trkpt lat="47.76372" lon="6.60759">
        <ele>336</ele>
        <time>2023-05-01T21:50:08.699Z</time>
      </trkpt>
      <trkpt lat="47.76378" lon="6.60757">
        <ele>337</ele>
        <time>2023-05-01T21:50:18.677Z</time>
      </trkpt>
      <trkpt lat="47.76411" lon="6.60756">
        <ele>337</ele>
        <time>2023-05-01T21:50:28.661Z</time>
      </trkpt>
      <trkpt lat="47.76421" lon="6.60758">
        <ele>338</ele>
        <time>2023-05-01T21:50:38.647Z</time>
      </trkpt>
      <trkpt lat="47.76436" lon="6.60756">
        <ele>339</ele>
        <time>2023-05-01T21:50:48.636Z</time>
      </trkpt>
      <trkpt lat="47.76455" lon="6.60756">
        <ele>339</ele>
        <time>2023-05-01T21:50:58.629Z</time>
      </trkpt>
      <trkpt lat="47.76467" lon="6.60753">
        <ele>340</ele>
        <time>2023-05-01T21:51:08.625Z</time>
      </trkpt>
      <trkpt lat="47.76468" lon="6.60747">
        <ele>341</ele>
        <time>2023-05-01T21:51:18.621Z</time>
      </trkpt>
      <trkpt lat="47.76466" lon="6.60735">
        <ele>342</ele>
        <time>2023-05-01T21:51:28.619Z</time>
      </trkpt>
      <trkpt lat="47.76475" lon="6.60712">
        <ele>343</ele>
        <time>2023-05-01T21:51:38.621Z</time>
      </trkpt>
      <trkpt lat="47.76463" lon="6.60676">
        <ele>344</ele>
        <time>2023-05-01T21:51:48.628Z</time>
      </trkpt>
      <trkpt lat="47.76462" lon="6.60652">
        <ele>346</ele>
        <time>2023-05-01T21:51:58.638Z</time>
      </trkpt>
      <trkpt lat="47.76453" lon="6.60613">
        <ele>347</ele>
        <time>2023-05-01T21:52:08.654Z</time>
      </trkpt>
      <trkpt lat="47.76455" lon="6.60587">
        <ele>348</ele>
        <time>2023-05-01T21:52:18.674Z</time>
      </trkpt>
      <trkpt lat="47.76459" lon="6.60568">
        <ele>349</ele>
        <time>2023-05-01T21:52:28.696Z</time>
      </trkpt>
      <trkpt lat="47.76465" lon="6.60525">
        <ele>351</ele>
        <time>2023-05-01T21:52:38.724Z</time>
      </trkpt>
      <trkpt lat="47.7647" lon="6.60502">
        <ele>352</ele>
        <time>2023-05-01T21:52:48.756Z</time>
      </trkpt>
      <trkpt lat="47.76471" lon="6.60491">
        <ele>353</ele>
        <time>2023-05-01T21:52:58.789Z</time>
      </trkpt>
      <trkpt lat="47.76473" lon="6.60481">
        <ele>354</ele>
        <time>2023-05-01T21:53:08.824Z</time>
      </trkpt>
      <trkpt lat="47.76481" lon="6.60464">
        <ele>355</ele>
        <time>2023-05-01T21:53:18.861Z</time>
      </trkpt>
      <trkpt lat="47.76491" lon="6.60453">
        <ele>357</ele>
        <time>2023-05-01T21:53:28.901Z</time>
      </trkpt>
      <trkpt lat="47.76514" lon="6.60413">
        <ele>358</ele>
        <time>2023-05-01T21:53:38.948Z</time>
      </trkpt>
      <trkpt lat="47.76518" lon="6.60402">
        <ele>359</ele>
        <time>2023-05-01T21:53:48.996Z</time>
      </trkpt>
      <trkpt lat="47.76524" lon="6.60394">
        <ele>360</ele>
        <time>2023-05-01T21:53:59.046Z</time>
      </trkpt>
      <trkpt lat="47.7656" lon="6.60367">
        <ele>361</ele>
        <time>2023-05-01T21:54:09.104Z</time>
      </trkpt>
      <trkpt lat="47.7657" lon="6.60366">
        <ele>362</ele>
        <time>2023-05-01T21:54:19.164Z</time>
      </trkpt>
      <trkpt lat="47.76591" lon="6.60368">
        <ele>363</ele>
        <time>2023-05-01T21:54:29.228Z</time>
      </trkpt>
      <trkpt lat="47.76606" lon="6.60374">
        <ele>364</ele>
        <time>2023-05-01T21:54:39.295Z</time>
      </trkpt>
      <trkpt lat="47.76613" lon="6.60373">
        <ele>365</ele>
        <time>2023-05-01T21:54:49.364Z</time>
      </trkpt>
      <trkpt lat="47.76621" lon="6.60375">
        <ele>366</ele>
        <time>2023-05-01T21:54:59.435Z</time>
      </trkpt>
      <trkpt lat="47.76642" lon="6.60375">
        <ele>367</ele>
        <time>2023-05-01T21:55:09.510Z</time>
      </trkpt>
      <trkpt lat="47.76648" lon="6.60377">
        <ele>368</ele>
        <time>2023-05-01T21:55:19.586Z</time>
      </trkpt>
      <trkpt lat="47.76653" lon="6.60372">
        <ele>369</ele>
        <time>2023-05-01T21:55:29.663Z</time>
      </trkpt>
      <trkpt lat="47.76656" lon="6.60373">
        <ele>370</ele>
        <time>2023-05-01T21:55:39.741Z</time>
      </trkpt>
      <trkpt lat="47.76663" lon="6.60372">
        <ele>370</ele>
        <time>2023-05-01T21:55:49.820Z</time>
      </trkpt>
      <trkpt lat="47.76677" lon="6.60363">
        <ele>371</ele>
        <time>2023-05-01T21:55:59.902Z</time>
      </trkpt>
      <trkpt lat="47.7669" lon="6.60345">
        <ele>371</ele>
        <time>2023-05-01T21:56:09.988Z</time>
      </trkpt>
      <trkpt lat="47.76695" lon="6.60336">
        <ele>372</ele>
        <time>2023-05-01T21:56:20.075Z</time>
      </trkpt>
      <trkpt lat="47.76701" lon="6.60333">
        <ele>372</ele>
        <time>2023-05-01T21:56:30.164Z</time>
      </trkpt>
      <trkpt lat="47.76708" lon="6.60323">
        <ele>373</ele>
        <time>2023-05-01T21:56:40.255Z</time>
      </trkpt>
      <trkpt lat="47.76719" lon="6.60315">
        <ele>373</ele>
        <time>2023-05-01T21:56:50.348Z</time>
      </trkpt>
      <trkpt lat="47.76724" lon="6.60313">
        <ele>373</ele>
        <time>2023-05-01T21:57:00.442Z</time>
      </trkpt>
      <trkpt lat="47.76731" lon="6.60317">
        <ele>373</ele>
        <time>2023-05-01T21:57:10.538Z</time>
      </trkpt>
      <trkpt lat="47.76742" lon="6.60332">
        <ele>373</ele>
        <time>2023-05-01T21:57:20.637Z</time>
      </trkpt>
      <trkpt lat="47.76755" lon="6.60342">
        <ele>373</ele>
        <time>2023-05-01T21:57:30.738Z</time>
      </trkpt>
      <trkpt lat="47.76775" lon="6.60349">
        <ele>373</ele>
        <time>2023-05-01T21:57:40.844Z</time>
      </trkpt>
      <trkpt lat="47.76784" lon="6.6035">
        <ele>373</ele>
        <time>2023-05-01T21:57:50.951Z</time>
      </trkpt>
      <trkpt lat="47.76795" lon="6.60348">
        <ele>373</ele>
        <time>2023-05-01T21:58:01.061Z</time>
      </trkpt>
      <trkpt lat="47.76839" lon="6.60324">
        <ele>373</ele>
        <time>2023-05-01T21:58:11.180Z</time>
      </trkpt>
      <trkpt lat="47.76872" lon="6.60311">
        <ele>373</ele>
        <time>2023-05-01T21:58:21.306Z</time>
      </trkpt>
      <trkpt lat="47.7691" lon="6.60282">
        <ele>373</ele>
        <time>2023-05-01T21:58:31.440Z</time>
      </trkpt>
      <trkpt lat="47.76925" lon="6.60262">
        <ele>372</ele>
        <time>2023-05-01T21:58:41.578Z</time>
      </trkpt>
      <trkpt lat="47.76936" lon="6.60235">
        <ele>372</ele>
        <time>2023-05-01T21:58:51.721Z</time>
      </trkpt>
      <trkpt lat="47.76935" lon="6.60216">
        <ele>372</ele>
        <time>2023-05-01T21:59:01.866Z</time>
      </trkpt>
      <trkpt lat="47.76936" lon="6.602">
        <ele>371</ele>
        <time>2023-05-01T21:59:12.013Z</time>
      </trkpt>
      <trkpt lat="47.76947" lon="6.60145">
        <ele>371</ele>
        <time>2023-05-01T21:59:22.168Z</time>
      </trkpt>
      <trkpt lat="47.76948" lon="6.60126">
        <ele>371</ele>
        <time>2023-05-01T21:59:32.326Z</time>
      </trkpt>
      <trkpt lat="47.76953" lon="6.6009">
        <ele>370</ele>
        <time>2023-05-01T21:59:42.489Z</time>
      </trkpt>
      <trkpt lat="47.76949" lon="6.60072">
        <ele>370</ele>
        <time>2023-05-01T21:59:52.654Z</time>
      </trkpt>
      <trkpt lat="47.76933" lon="6.60037">
        <ele>369</ele>
        <time>2023-05-01T22:00:02.825Z</time>
      </trkpt>
      <trkpt lat="47.76927" lon="6.60012">
        <ele>368</ele>
        <time>2023-05-01T22:00:13.000Z</time>
      </trkpt>
      <trkpt lat="47.76928" lon="6.59993">
        <ele>368</ele>
        <time>2023-05-01T22:00:23.177Z</time>
      </trkpt>
      <trkpt lat="47.76933" lon="6.59957">
        <ele>367</ele>
        <time>2023-05-01T22:00:33.359Z</time>
      </trkpt>
      <trkpt lat="47.76941" lon="6.5992">
        <ele>367</ele>
        <time>2023-05-01T22:00:43.546Z</time>
      </trkpt>
      <trkpt lat="47.76948" lon="6.59908">
        <ele>366</ele>
        <time>2023-05-01T22:00:53.735Z</time>
      </trkpt>
      <trkpt lat="47.76961" lon="6.59891">
        <ele>366</ele>
        <time>2023-05-01T22:01:03.928Z</time>
      </trkpt>
      <trkpt lat="47.76974" lon="6.59851">
        <ele>366</ele>
        <time>2023-05-01T22:01:14.127Z</time>
      </trkpt>
      <trkpt lat="47.76981" lon="6.59817">
        <ele>365</ele>
        <time>2023-05-01T22:01:24.331Z</time>
      </trkpt>
      <trkpt lat="47.76992" lon="6.59789">
        <ele>365</ele>
        <time>2023-05-01T22:01:34.539Z</time>
      </trkpt>
      <trkpt lat="47.77003" lon="6.59749">
        <ele>364</ele>
        <time>2023-05-01T22:01:44.753Z</time>
      </trkpt>
      <trkpt lat="47.77003" lon="6.5972">
        <ele>364</ele>
        <time>2023-05-01T22:01:54.971Z</time>
      </trkpt>
      <trkpt lat="47.76999" lon="6.59714">
        <ele>364</ele>
        <time>2023-05-01T22:02:05.190Z</time>
      </trkpt>
      <trkpt lat="47.76988" lon="6.59705">
        <ele>363</ele>
        <time>2023-05-01T22:02:15.411Z</time>
      </trkpt>
      <trkpt lat="47.76983" lon="6.59695">
        <ele>363</ele>
        <time>2023-05-01T22:02:25.634Z</time>
      </trkpt>
      <trkpt lat="47.76978" lon="6.59691">
        <ele>363</ele>
        <time>2023-05-01T22:02:35.858Z</time>
      </trkpt>
      <trkpt lat="47.76972" lon="6.5969">
        <ele>362</ele>
        <time>2023-05-01T22:02:46.083Z</time>
      </trkpt>
      <trkpt lat="47.76967" lon="6.59691">
        <ele>362</ele>
        <time>2023-05-01T22:02:56.310Z</time>
      </trkpt>
      <trkpt lat="47.76941" lon="6.59708">
        <ele>361</ele>
        <time>2023-05-01T22:03:06.542Z</time>
      </trkpt>
      <trkpt lat="47.76926" lon="6.59715">
        <ele>361</ele>
        <time>2023-05-01T22:03:16.777Z</time>
      </trkpt>
      <trkpt lat="47.76893" lon="6.59727">
        <ele>361</ele>
        <time>2023-05-01T22:03:27.019Z</time>
      </trkpt>
      <trkpt lat="47.76892" lon="6.5973">
        <ele>361</ele>
        <time>2023-05-01T22:03:37.262Z</time>
      </trkpt>
      <trkpt lat="47.76883" lon="6.59722">
        <ele>361</ele>
        <time>2023-05-01T22:03:47.507Z</time>
      </trkpt>
      <trkpt lat="47.76877" lon="6.59722">
        <ele>360</ele>
        <time>2023-05-01T22:03:57.753Z</time>
      </trkpt>
      <trkpt lat="47.76874" lon="6.59719">
        <ele>360</ele>
        <time>2023-05-01T22:04:07.999Z</time>
      </trkpt>
      <trkpt lat="47.76861" lon="6.59718">
        <ele>360</ele>
        <time>2023-05-01T22:04:18.248Z</time>
      </trkpt>
      <trkpt lat="47.76847" lon="6.59721">
        <ele>360</ele>
        <time>2023-05-01T22:04:28.500Z</time>
      </trkpt>
      <trkpt lat="47.76845" lon="6.59717">
        <ele>360</ele>
        <time>2023-05-01T22:04:38.753Z</time>
      </trkpt>
      <trkpt lat="47.76833" lon="6.59711">
        <ele>360</ele>
        <time>2023-05-01T22:04:49.008Z</time>
      </trkpt>
      <trkpt lat="47.76819" lon="6.59709">
        <ele>360</ele>
        <time>2023-05-01T22:04:59.266Z</time>
      </trkpt>
      <trkpt lat="47.76801" lon="6.59693">
        <ele>361</ele>
        <time>2023-05-01T22:05:09.528Z</time>
      </trkpt>
      <trkpt lat="47.76799" lon="6.59673">
        <ele>361</ele>
        <time>2023-05-01T22:05:19.793Z</time>
      </trkpt>
      <trkpt lat="47.76804" lon="6.59648">
        <ele>361</ele>
        <time>2023-05-01T22:05:30.061Z</time>
      </trkpt>
      <trkpt lat="47.76816" lon="6.59618">
        <ele>361</ele>
        <time>2023-05-01T22:05:40.334Z</time>
      </trkpt>
      <trkpt lat="47.76822" lon="6.59595">
        <ele>361</ele>
        <time>2023-05-01T22:05:50.610Z</time>
      </trkpt>
      <trkpt lat="47.76838" lon="6.59563">
        <ele>362</ele>
        <time>2023-05-01T22:06:00.892Z</time>
      </trkpt>
      <trkpt lat="47.76848" lon="6.5955">
        <ele>362</ele>
        <time>2023-05-01T22:06:11.176Z</time>
      </trkpt>
      <trkpt lat="47.76862" lon="6.59527">
        <ele>362</ele>
        <time>2023-05-01T22:06:21.464Z</time>
      </trkpt>
      <trkpt lat="47.76866" lon="6.59521">
        <ele>363</ele>
        <time>2023-05-01T22:06:31.754Z</time>
      </trkpt>
      <trkpt lat="47.76866" lon="6.59514">
        <ele>363</ele>
        <time>2023-05-01T22:06:42.045Z</time>
      </trkpt>
      <trkpt lat="47.76873" lon="6.5951">
        <ele>363</ele>
        <time>2023-05-01T22:06:52.337Z</time>
      </trkpt>
      <trkpt lat="47.76878" lon="6.59504">
        <ele>364</ele>
        <time>2023-05-01T22:07:02.630Z</time>
      </trkpt>
      <trkpt lat="47.76889" lon="6.59484">
        <ele>364</ele>
        <time>2023-05-01T22:07:12.927Z</time>
      </trkpt>
      <trkpt lat="47.76903" lon="6.59465">
        <ele>364</ele>
        <time>2023-05-01T22:07:23.228Z</time>
      </trkpt>
      <trkpt lat="47.76909" lon="6.59435">
        <ele>365</ele>
        <time>2023-05-01T22:07:33.533Z</time>
      </trkpt>
      <trkpt lat="47.76908" lon="6.59419">
        <ele>365</ele>
        <time>2023-05-01T22:07:43.840Z</time>
      </trkpt>
      <trkpt lat="47.76908" lon="6.59411">
        <ele>366</ele>
        <time>2023-05-01T22:07:54.148Z</time>
      </trkpt>
      <trkpt lat="47.76936" lon="6.59402">
        <ele>366</ele>
        <time>2023-05-01T22:08:04.462Z</time>
      </trkpt>
      <trkpt lat="47.76944" lon="6.59383">
        <ele>367</ele>
        <time>2023-05-01T22:08:14.779Z</time>
      </trkpt>
      <trkpt lat="47.76948" lon="6.59379">
        <ele>367</ele>
        <time>2023-05-01T22:08:25.097Z</time>
      </trkpt>
      <trkpt lat="47.76956" lon="6.59382">
        <ele>368</ele>
        <time>2023-05-01T22:08:35.416Z</time>
      </trkpt>
      <trkpt lat="47.76967" lon="6.59384">
        <ele>368</ele>
        <time>2023-05-01T22:08:45.738Z</time>
      </trkpt>
      <trkpt lat="47.76973" lon="6.59379">
        <ele>369</ele>
        <time>2023-05-01T22:08:56.061Z</time>
      </trkpt>
      <trkpt lat="47.76977" lon="6.59379">
        <ele>369</ele>
        <time>2023-05-01T22:09:06.385Z</time>
      </trkpt>
      <trkpt lat="47.76988" lon="6.59373">
        <ele>370</ele>
        <time>2023-05-01T22:09:16.711Z</time>
      </trkpt>
      <trkpt lat="47.77002" lon="6.59352">
        <ele>371</ele>
        <time>2023-05-01T22:09:27.041Z</time>
      </trkpt>
      <trkpt lat="47.77006" lon="6.59352">
        <ele>371</ele>
        <time>2023-05-01T22:09:37.372Z</time>
      </trkpt>
      <trkpt lat="47.77017" lon="6.59345">
        <ele>372</ele>
        <time>2023-05-01T22:09:47.705Z</time>
      </trkpt>
      <trkpt lat="47.77024" lon="6.59345">
        <ele>373</ele>
        <time>2023-05-01T22:09:58.040Z</time>
      </trkpt>
      <trkpt lat="47.77032" lon="6.59349">
        <ele>373</ele>
        <time>2023-05-01T22:10:08.376Z</time>
      </trkpt>
      <trkpt lat="47.77042" lon="6.59346">
        <ele>374</ele>
        <time>2023-05-01T22:10:18.714Z</time>
      </trkpt>
      <trkpt lat="47.77051" lon="6.59339">
        <ele>375</ele>
        <time>2023-05-01T22:10:29.054Z</time>
      </trkpt>
      <trkpt lat="47.77064" lon="6.59333">
        <ele>375</ele>
        <time>2023-05-01T22:10:39.397Z</time>
      </trkpt>
      <trkpt lat="47.77073" lon="6.59324">
        <ele>376</ele>
        <time>2023-05-01T22:10:49.742Z</time>
      </trkpt>
      <trkpt lat="47.77089" lon="6.59316">
        <ele>377</ele>
        <time>2023-05-01T22:11:00.091Z</time>
      </trkpt>
      <trkpt lat="47.77093" lon="6.59315">
        <ele>377</ele>
        <time>2023-05-01T22:11:10.441Z</time>
      </trkpt>
      <trkpt lat="47.77102" lon="6.5932">
        <ele>378</ele>
        <time>2023-05-01T22:11:20.792Z</time>
      </trkpt>
      <trkpt lat="47.77119" lon="6.59357">
        <ele>379</ele>
        <time>2023-05-01T22:11:31.149Z</time>
      </trkpt>
      <trkpt lat="47.7713" lon="6.59373">
        <ele>380</ele>
        <time>2023-05-01T22:11:41.510Z</time>
      </trkpt>
      <trkpt lat="47.77131" lon="6.59386">
        <ele>380</ele>
        <time>2023-05-01T22:11:51.872Z</time>
      </trkpt>
      <trkpt lat="47.77126" lon="6.59417">
        <ele>381</ele>
        <time>2023-05-01T22:12:02.239Z</time>
      </trkpt>
      <trkpt lat="47.77128" lon="6.59428">
        <ele>381</ele>
        <time>2023-05-01T22:12:12.607Z</time>
      </trkpt>
      <trkpt lat="47.77134" lon="6.59435">
        <ele>382</ele>
        <time>2023-05-01T22:12:22.977Z</time>
      </trkpt>
      <trkpt lat="47.77148" lon="6.59445">
        <ele>383</ele>
        <time>2023-05-01T22:12:33.350Z</time>
      </trkpt>
      <trkpt lat="47.77154" lon="6.59444">
        <ele>383</ele>
        <time>2023-05-01T22:12:43.724Z</time>
      </trkpt>
      <trkpt lat="47.77169" lon="6.59446">
        <ele>384</ele>
        <time>2023-05-01T22:12:54.101Z</time>
      </trkpt>
      <trkpt lat="47.77188" lon="6.59463">
        <ele>385</ele>
        <time>2023-05-01T22:13:04.483Z</time>
      </trkpt>
      <trkpt lat="47.77193" lon="6.59462">
        <ele>385</ele>
        <time>2023-05-01T22:13:14.866Z</time>
      </trkpt>
      <trkpt lat="47.77199" lon="6.59454">
        <ele>386</ele>
        <time>2023-05-01T22:13:25.250Z</time>
      </trkpt>
      <trkpt lat="47.77205" lon="6.59453">
        <ele>386</ele>
        <time>2023-05-01T22:13:35.635Z</time>
      </trkpt>
      <trkpt lat="47.77226" lon="6.59456">
        <ele>386</ele>
        <time>2023-05-01T22:13:46.025Z</time>
      </trkpt>
      <trkpt lat="47.77235" lon="6.59454">
        <ele>387</ele>
        <time>2023-05-01T22:13:56.416Z</time>
      </trkpt>
      <trkpt lat="47.77241" lon="6.59451">
        <ele>387</ele>
        <time>2023-05-01T22:14:06.809Z</time>
      </trkpt>
      <trkpt lat="47.77246" lon="6.59434">
        <ele>388</ele>
        <time>2023-05-01T22:14:17.204Z</time>
      </trkpt>
      <trkpt lat="47.77254" lon="6.59419">
        <ele>388</ele>
        <time>2023-05-01T22:14:27.602Z</time>
      </trkpt>
      <trkpt lat="47.77256" lon="6.59411">
        <ele>388</ele>
        <time>2023-05-01T22:14:38.001Z</time>
      </trkpt>
      <trkpt lat="47.77246" lon="6.59387">
        <ele>388</ele>
        <time>2023-05-01T22:14:48.404Z</time>
      </trkpt>
      <trkpt lat="47.7724" lon="6.59354">
        <ele>388</ele>
        <time>2023-05-01T22:14:58.811Z</time>
      </trkpt>
      <trkpt lat="47.77232" lon="6.59326">
        <ele>388</ele>
        <time>2023-05-01T22:15:09.222Z</time>
      </trkpt>
      <trkpt lat="47.77236" lon="6.59296">
        <ele>388</ele>
        <time>2023-05-01T22:15:19.637Z</time>
      </trkpt>
      <trkpt lat="47.77241" lon="6.59286">
        <ele>388</ele>
        <time>2023-05-01T22:15:30.054Z</time>
      </trkpt>
      <trkpt lat="47.77247" lon="6.59285">
        <ele>388</ele>
        <time>2023-05-01T22:15:40.472Z</time>
      </trkpt>
      <trkpt lat="47.7726" lon="6.59271">
        <ele>388</ele>
        <time>2023-05-01T22:15:50.893Z</time>
      </trkpt>
      <trkpt lat="47.77265" lon="6.5927">
        <ele>387</ele>
        <time>2023-05-01T22:16:01.316Z</time>
      </trkpt>
      <trkpt lat="47.77274" lon="6.5926">
        <ele>387</ele>
        <time>2023-05-01T22:16:11.741Z</time>
      </trkpt>
      <trkpt lat="47.77286" lon="6.59253">
        <ele>386</ele>
        <time>2023-05-01T22:16:22.168Z</time>
      </trkpt>
      <trkpt lat="47.77296" lon="6.59239">
        <ele>386</ele>
        <time>2023-05-01T22:16:32.598Z</time>
      </trkpt>
      <trkpt lat="47.77312" lon="6.59209">
        <ele>385</ele>
        <time>2023-05-01T22:16:43.033Z</time>
      </trkpt>
      <trkpt lat="47.77321" lon="6.592">
        <ele>384</ele>
        <time>2023-05-01T22:16:53.470Z</time>
      </trkpt>
      <trkpt lat="47.77328" lon="6.5919">
        <ele>383</ele>
        <time>2023-05-01T22:17:03.909Z</time>
      </trkpt>
      <trkpt lat="47.77327" lon="6.59168">
        <ele>382</ele>
        <time>2023-05-01T22:17:14.351Z</time>
      </trkpt>
      <trkpt lat="47.7733" lon="6.59141">
        <ele>381</ele>
        <time>2023-05-01T22:17:24.797Z</time>
      </trkpt>
      <trkpt lat="47.77328" lon="6.59108">
        <ele>380</ele>
        <time>2023-05-01T22:17:35.247Z</time>
      </trkpt>
      <trkpt lat="47.77335" lon="6.59071">
        <ele>378</ele>
        <time>2023-05-01T22:17:45.703Z</time>
      </trkpt>
      <trkpt lat="47.77358" lon="6.59004">
        <ele>377</ele>
        <time>2023-05-01T22:17:56.169Z</time>
      </trkpt>
      <trkpt lat="47.77378" lon="6.58956">
        <ele>375</ele>
        <time>2023-05-01T22:18:06.642Z</time>
      </trkpt>
      <trkpt lat="47.77383" lon="6.58941">
        <ele>373</ele>
        <time>2023-05-01T22:18:17.118Z</time>
      </trkpt>
      <trkpt lat="47.77386" lon="6.58927">
        <ele>372</ele>
        <time>2023-05-01T22:18:27.596Z</time>
      </trkpt>
      <trkpt lat="47.77388" lon="6.589">
        <ele>371</ele>
        <time>2023-05-01T22:18:38.077Z</time>
      </trkpt>
      <trkpt lat="47.77387" lon="6.58884">
        <ele>369</ele>
        <time>2023-05-01T22:18:48.560Z</time>
      </trkpt>
      <trkpt lat="47.77376" lon="6.58827">
        <ele>368</ele>
        <time>2023-05-01T22:18:59.052Z</time>
      </trkpt>
      <trkpt lat="47.77366" lon="6.58796">
        <ele>367</ele>
        <time>2023-05-01T22:19:09.548Z</time>
      </trkpt>
      <trkpt lat="47.77357" lon="6.58774">
        <ele>365</ele>
        <time>2023-05-01T22:19:20.048Z</time>
      </trkpt>
      <trkpt lat="47.77347" lon="6.58743">
        <ele>364</ele>
        <time>2023-05-01T22:19:30.552Z</time>
      </trkpt>
      <trkpt lat="47.77341" lon="6.58729">
        <ele>363</ele>
        <time>2023-05-01T22:19:41.058Z</time>
      </trkpt>
      <trkpt lat="47.77334" lon="6.58719">
        <ele>362</ele>
        <time>2023-05-01T22:19:51.566Z</time>
      </trkpt>
      <trkpt lat="47.77332" lon="6.58704">
        <ele>361</ele>
        <time>2023-05-01T22:20:02.077Z</time>
      </trkpt>
      <trkpt lat="47.77334" lon="6.58695">
        <ele>360</ele>
        <time>2023-05-01T22:20:12.589Z</time>
      </trkpt>
      <trkpt lat="47.77341" lon="6.58683">
        <ele>359</ele>
        <time>2023-05-01T22:20:23.103Z</time>
      </trkpt>
      <trkpt lat="47.77355" lon="6.58674">
        <ele>358</ele>
        <time>2023-05-01T22:20:33.620Z</time>
      </trkpt>
      <trkpt lat="47.77372" lon="6.58668">
        <ele>357</ele>
        <time>2023-05-01T22:20:44.141Z</time>
      </trkpt>
      <trkpt lat="47.77382" lon="6.58663">
        <ele>356</ele>
        <time>2023-05-01T22:20:54.664Z</time>
      </trkpt>
      <trkpt lat="47.77386" lon="6.5866">
        <ele>356</ele>
        <time>2023-05-01T22:21:05.188Z</time>
      </trkpt>
      <trkpt lat="47.77392" lon="6.5865">
        <ele>355</ele>
        <time>2023-05-01T22:21:15.713Z</time>
      </trkpt>
      <trkpt lat="47.774" lon="6.58626">
        <ele>355</ele>
        <time>2023-05-01T22:21:26.242Z</time>
      </trkpt>
      <trkpt lat="47.77401" lon="6.58616">
        <ele>354</ele>
        <time>2023-05-01T22:21:36.772Z</time>
      </trkpt>
      <trkpt lat="47.774" lon="6.58599">
        <ele>354</ele>
        <time>2023-05-01T22:21:47.305Z</time>
      </trkpt>
      <trkpt lat="47.77398" lon="6.58591">
        <ele>354</ele>
        <time>2023-05-01T22:21:57.839Z</time>
      </trkpt>
      <trkpt lat="47.77376" lon="6.58572">
        <ele>354</ele>
        <time>2023-05-01T22:22:08.378Z</time>
      </trkpt>
      <trkpt lat="47.77365" lon="6.58558">
        <ele>354</ele>
        <time>2023-05-01T22:22:18.920Z</time>
      </trkpt>
      <trkpt lat="47.7736" lon="6.58546">
        <ele>354</ele>
        <time>2023-05-01T22:22:29.464Z</time>
      </trkpt>
      <trkpt lat="47.7736" lon="6.58534">
        <ele>354</ele>
        <time>2023-05-01T22:22:40.009Z</time>
      </trkpt>
      <trkpt lat="47.77362" lon="6.5853">
        <ele>355</ele>
        <time>2023-05-01T22:22:50.555Z</time>
      </trkpt>
      <trkpt lat="47.77371" lon="6.58525">
        <ele>355</ele>
        <time>2023-05-01T22:23:01.103Z</time>
      </trkpt>
      <trkpt lat="47.77373" lon="6.58522">
        <ele>355</ele>
        <time>2023-05-01T22:23:11.651Z</time>
      </trkpt>
      <trkpt lat="47.77375" lon="6.58502">
        <ele>356</ele>
        <time>2023-05-01T22:23:22.202Z</time>
      </trkpt>
      <trkpt lat="47.77384" lon="6.58492">
        <ele>356</ele>
        <time>2023-05-01T22:23:32.755Z</time>
      </trkpt>
      <trkpt lat="47.7739" lon="6.58481">
        <ele>356</ele>
        <time>2023-05-01T22:23:43.310Z</time>
      </trkpt>
      <trkpt lat="47.77395" lon="6.58478">
        <ele>357</ele>
        <time>2023-05-01T22:23:53.866Z</time>
      </trkpt>
      <trkpt lat="47.77402" lon="6.5847">
        <ele>357</ele>
        <time>2023-05-01T22:24:04.424Z</time>
      </trkpt>
      <trkpt lat="47.77405" lon="6.58462">
        <ele>358</ele>
        <time>2023-05-01T22:24:14.983Z</time>
      </trkpt>
      <trkpt lat="47.77407" lon="6.58449">
        <ele>358</ele>
        <time>2023-05-01T22:24:25.544Z</time>
      </trkpt>
      <trkpt lat="47.77406" lon="6.58439">
        <ele>359</ele>
        <time>2023-05-01T22:24:36.107Z</time>
      </trkpt>
      <trkpt lat="47.77408" lon="6.5843">
        <ele>359</ele>
        <time>2023-05-01T22:24:46.671Z</time>
      </trkpt>
      <trkpt lat="47.77438" lon="6.5842">
        <ele>360</ele>
        <time>2023-05-01T22:24:57.241Z</time>
      </trkpt>
      <trkpt lat="47.77446" lon="6.58416">
        <ele>360</ele>
        <time>2023-05-01T22:25:07.813Z</time>
      </trkpt>
      <trkpt lat="47.77452" lon="6.58405">
        <ele>361</ele>
        <time>2023-05-01T22:25:18.387Z</time>
      </trkpt>
      <trkpt lat="47.77453" lon="6.58395">
        <ele>361</ele>
        <time>2023-05-01T22:25:28.962Z</time>
      </trkpt>
      <trkpt lat="47.77457" lon="6.58381">
        <ele>362</ele>
        <time>2023-05-01T22:25:39.539Z</time>
      </trkpt>
      <trkpt lat="47.77456" lon="6.58377">
        <ele>362</ele>
        <time>2023-05-01T22:25:50.117Z</time>
      </trkpt>
      <trkpt lat="47.77444" lon="6.58375">
        <ele>363</ele>
        <time>2023-05-01T22:26:00.697Z</time>
      </trkpt>
      <trkpt lat="47.77437" lon="6.58372">
        <ele>363</ele>
        <time>2023-05-01T22:26:11.278Z</time>
      </trkpt>
      <trkpt lat="47.77427" lon="6.58365">
        <ele>364</ele>
        <time>2023-05-01T22:26:21.862Z</time>
      </trkpt>
      <trkpt lat="47.77414" lon="6.58352">
        <ele>364</ele>
        <time>2023-05-01T22:26:32.449Z</time>
      </trkpt>
      <trkpt lat="47.774" lon="6.58334">
        <ele>365</ele>
        <time>2023-05-01T22:26:43.040Z</time>
      </trkpt>
      <trkpt lat="47.77372" lon="6.58318">
        <ele>365</ele>
        <time>2023-05-01T22:26:53.636Z</time>
      </trkpt>
      <trkpt lat="47.77353" lon="6.58304">
        <ele>365</ele>
        <time>2023-05-01T22:27:04.237Z</time>
      </trkpt>
      <trkpt lat="47.77345" lon="6.58291">
        <ele>366</ele>
        <time>2023-05-01T22:27:14.840Z</time>
      </trkpt>
      <trkpt lat="47.77341" lon="6.58274">
        <ele>366</ele>
        <time>2023-05-01T22:27:25.446Z</time>
      </trkpt>
      <trkpt lat="47.7734" lon="6.58239">
        <ele>367</ele>
        <time>2023-05-01T22:27:36.056Z</time>
      </trkpt>
      <trkpt lat="47.77347" lon="6.58158">
        <ele>367</ele>
        <time>2023-05-01T22:27:46.677Z</time>
      </trkpt>
      <trkpt lat="47.77344" lon="6.58151">
        <ele>368</ele>
        <time>2023-05-01T22:27:57.299Z</time>
      </trkpt>
      <trkpt lat="47.7733" lon="6.5813">
        <ele>368</ele>
        <time>2023-05-01T22:28:07.925Z</time>
      </trkpt>
      <trkpt lat="47.77327" lon="6.58121">
        <ele>368</ele>
        <time>2023-05-01T22:28:18.553Z</time>
      </trkpt>
      <trkpt lat="47.77324" lon="6.58066">
        <ele>369</ele>
        <time>2023-05-01T22:28:29.188Z</time>
      </trkpt>
      <trkpt lat="47.77316" lon="6.58053">
        <ele>369</ele>
        <time>2023-05-01T22:28:39.826Z</time>
      </trkpt>
      <trkpt lat="47.77305" lon="6.58049">
        <ele>369</ele>
        <time>2023-05-01T22:28:50.466Z</time>
      </trkpt>
      <trkpt lat="47.77285" lon="6.5805">
        <ele>369</ele>
        <time>2023-05-01T22:29:01.110Z</time>
      </trkpt>
      <trkpt lat="47.77267" lon="6.58053">
        <ele>369</ele>
        <time>2023-05-01T22:29:11.758Z</time>
      </trkpt>
      <trkpt lat="47.77223" lon="6.58064">
        <ele>369</ele>
        <time>2023-05-01T22:29:22.414Z</time>
      </trkpt>
      <trkpt lat="47.77174" lon="6.58066">
        <ele>369</ele>
        <time>2023-05-01T22:29:33.080Z</time>
      </trkpt>
      <trkpt lat="47.77159" lon="6.58064">
        <ele>369</ele>
        <time>2023-05-01T22:29:43.749Z</time>
      </trkpt>
      <trkpt lat="47.77149" lon="6.58059">
        <ele>369</ele>
        <time>2023-05-01T22:29:54.420Z</time>
      </trkpt>
      <trkpt lat="47.7714" lon="6.5805">
        <ele>369</ele>
        <time>2023-05-01T22:30:05.093Z</time>
      </trkpt>
      <trkpt lat="47.77129" lon="6.58035">
        <ele>369</ele>
        <time>2023-05-01T22:30:15.769Z</time>
      </trkpt>
      <trkpt lat="47.7712" lon="6.58016">
        <ele>369</ele>
        <time>2023-05-01T22:30:26.449Z</time>
      </trkpt>
      <trkpt lat="47.77114" lon="6.57995">
        <ele>368</ele>
        <time>2023-05-01T22:30:37.132Z</time>
      </trkpt>
      <trkpt lat="47.77108" lon="6.57948">
        <ele>368</ele>
        <time>2023-05-01T22:30:47.821Z</time>
      </trkpt>
      <trkpt lat="47.77103" lon="6.57849">
        <ele>368</ele>
        <time>2023-05-01T22:30:58.524Z</time>
      </trkpt>
      <trkpt lat="47.77096" lon="6.57832">
        <ele>368</ele>
        <time>2023-05-01T22:31:09.229Z</time>
      </trkpt>
      <trkpt lat="47.77091" lon="6.57827">
        <ele>367</ele>
        <time>2023-05-01T22:31:19.935Z</time>
      </trkpt>
      <trkpt lat="47.77085" lon="6.57825">
        <ele>367</ele>
        <time>2023-05-01T22:31:30.643Z</time>
      </trkpt>
      <trkpt lat="47.77067" lon="6.57823">
        <ele>367</ele>
        <time>2023-05-01T22:31:41.354Z</time>
      </trkpt>
      <trkpt lat="47.77051" lon="6.57814">
        <ele>367</ele>
        <time>2023-05-01T22:31:52.069Z</time>
      </trkpt>
      <trkpt lat="47.76988" lon="6.57768">
        <ele>366</ele>
        <time>2023-05-01T22:32:02.798Z</time>
      </trkpt>
      <trkpt lat="47.76974" lon="6.57759">
        <ele>366</ele>
        <time>2023-05-01T22:32:13.530Z</time>
      </trkpt>
      <trkpt lat="47.76959" lon="6.57755">
        <ele>366</ele>
        <time>2023-05-01T22:32:24.265Z</time>
      </trkpt>
      <trkpt lat="47.76944" lon="6.57755">
        <ele>365</ele>
        <time>2023-05-01T22:32:35.003Z</time>
      </trkpt>
      <trkpt lat="47.76879" lon="6.57768">
        <ele>365</ele>
        <time>2023-05-01T22:32:45.754Z</time>
      </trkpt>
      <trkpt lat="47.76831" lon="6.57766">
        <ele>365</ele>
        <time>2023-05-01T22:32:56.515Z</time>
      </trkpt>
      <trkpt lat="47.7683" lon="6.57765">
        <ele>365</ele>
        <time>2023-05-01T22:33:07.276Z</time>
      </trkpt>
      <trkpt lat="47.76844" lon="6.57756">
        <ele>364</ele>
        <time>2023-05-01T22:33:18.040Z</time>
      </trkpt>
      <trkpt lat="47.7685" lon="6.57734">
        <ele>364</ele>
        <time>2023-05-01T22:33:28.807Z</time>
      </trkpt>
      <trkpt lat="47.76854" lon="6.57713">
        <ele>364</ele>
        <time>2023-05-01T22:33:39.577Z</time>
      </trkpt>
      <trkpt lat="47.76873" lon="6.57654">
        <ele>363</ele>
        <time>2023-05-01T22:33:50.356Z</time>
      </trkpt>
      <trkpt lat="47.76882" lon="6.57597">
        <ele>363</ele>
        <time>2023-05-01T22:34:01.143Z</time>
      </trkpt>
      <trkpt lat="47.76886" lon="6.5758">
        <ele>363</ele>
        <time>2023-05-01T22:34:11.932Z</time>
      </trkpt>
      <trkpt lat="47.76881" lon="6.57537">
        <ele>362</ele>
        <time>2023-05-01T22:34:22.727Z</time>
      </trkpt>
      <trkpt lat="47.76873" lon="6.57525">
        <ele>362</ele>
        <time>2023-05-01T22:34:33.524Z</time>
      </trkpt>
      <trkpt lat="47.76856" lon="6.57517">
        <ele>362</ele>
        <time>2023-05-01T22:34:44.325Z</time>
      </trkpt>
      <trkpt lat="47.76847" lon="6.57505">
        <ele>362</ele>
        <time>2023-05-01T22:34:55.128Z</time>
      </trkpt>
      <trkpt lat="47.76839" lon="6.57488">
        <ele>362</ele>
        <time>2023-05-01T22:35:05.934Z</time>
      </trkpt>
      <trkpt lat="47.76834" lon="6.57483">
        <ele>362</ele>
        <time>2023-05-01T22:35:16.741Z</time>
      </trkpt>
      <trkpt lat="47.76829" lon="6.57478">
        <ele>362</ele>
        <time>2023-05-01T22:35:27.549Z</time>
      </trkpt>
      <trkpt lat="47.76819" lon="6.57474">
        <ele>361</ele>
        <time>2023-05-01T22:35:38.360Z</time>
      </trkpt>
      <trkpt lat="47.76807" lon="6.57472">
        <ele>361</ele>
        <time>2023-05-01T22:35:49.173Z</time>
      </trkpt>
      <trkpt lat="47.768" lon="6.57479">
        <ele>361</ele>
        <time>2023-05-01T22:35:59.988Z</time>
      </trkpt>
      <trkpt lat="47.76791" lon="6.57492">
        <ele>361</ele>
        <time>2023-05-01T22:36:10.805Z</time>
      </trkpt>
      <trkpt lat="47.76778" lon="6.57504">
        <ele>361</ele>
        <time>2023-05-01T22:36:21.625Z</time>
      </trkpt>
      <trkpt lat="47.76761" lon="6.57515">
        <ele>361</ele>
        <time>2023-05-01T22:36:32.449Z</time>
      </trkpt>
      <trkpt lat="47.76742" lon="6.57521">
        <ele>361</ele>
        <time>2023-05-01T22:36:43.277Z</time>
      </trkpt>
      <trkpt lat="47.76733" lon="6.57529">
        <ele>361</ele>
        <time>2023-05-01T22:36:54.107Z</time>
      </trkpt>
      <trkpt lat="47.76728" lon="6.57539">
        <ele>361</ele>
        <time>2023-05-01T22:37:04.939Z</time>
      </trkpt>
      <trkpt lat="47.76722" lon="6.57545">
        <ele>361</ele>
        <time>2023-05-01T22:37:15.772Z</time>
      </trkpt>
      <trkpt lat="47.76711" lon="6.5755">
        <ele>361</ele>
        <time>2023-05-01T22:37:26.607Z</time>
      </trkpt>
      <trkpt lat="47.76687" lon="6.57551">
        <ele>361</ele>
        <time>2023-05-01T22:37:37.447Z</time>
      </trkpt>
      <trkpt lat="47.7668" lon="6.57556">
        <ele>361</ele>
        <time>2023-05-01T22:37:48.289Z</time>
      </trkpt>
      <trkpt lat="47.76671" lon="6.57566">
        <ele>361</ele>
        <time>2023-05-01T22:37:59.133Z</time>
      </trkpt>
      <trkpt lat="47.76651" lon="6.57607">
        <ele>361</ele>
        <time>2023-05-01T22:38:09.984Z</time>
      </trkpt>
      <trkpt lat="47.76643" lon="6.5762">
        <ele>361</ele>
        <time>2023-05-01T22:38:20.837Z</time>
      </trkpt>
      <trkpt lat="47.76639" lon="6.57617">
        <ele>361</ele>
        <time>2023-05-01T22:38:31.691Z</time>
      </trkpt>
      <trkpt lat="47.76623" lon="6.57572">
        <ele>361</ele>
        <time>2023-05-01T22:38:42.552Z</time>
      </trkpt>
      <trkpt lat="47.76617" lon="6.57563">
        <ele>361</ele>
        <time>2023-05-01T22:38:53.415Z</time>
      </trkpt>
      <trkpt lat="47.7661" lon="6.57557">
        <ele>360</ele>
        <time>2023-05-01T22:39:04.279Z</time>
      </trkpt>
      <trkpt lat="47.76602" lon="6.57552">
        <ele>360</ele>
        <time>2023-05-01T22:39:15.145Z</time>
      </trkpt>
      <trkpt lat="47.76574" lon="6.57559">
        <ele>360</ele>
        <time>2023-05-01T22:39:26.017Z</time>
      </trkpt>
      <trkpt lat="47.76559" lon="6.57559">
        <ele>360</ele>
        <time>2023-05-01T22:39:36.892Z</time>
      </trkpt>
      <trkpt lat="47.76537" lon="6.57554">
        <ele>360</ele>
        <time>2023-05-01T22:39:47.771Z</time>
      </trkpt>
      <trkpt lat="47.76535" lon="6.57551">
        <ele>359</ele>
        <time>2023-05-01T22:39:58.651Z</time>
      </trkpt>
      <trkpt lat="47.76536" lon="6.57542">
        <ele>359</ele>
        <time>2023-05-01T22:40:09.532Z</time>
      </trkpt>
      <trkpt lat="47.7653" lon="6.57504">
        <ele>358</ele>
        <time>2023-05-01T22:40:20.418Z</time>
      </trkpt>
      <trkpt lat="47.76528" lon="6.57497">
        <ele>358</ele>
        <time>2023-05-01T22:40:31.305Z</time>
      </trkpt>
      <trkpt lat="47.76524" lon="6.57494">
        <ele>358</ele>
        <time>2023-05-01T22:40:42.193Z</time>
      </trkpt>
      <trkpt lat="47.76519" lon="6.57493">
        <ele>357</ele>
        <time>2023-05-01T22:40:53.082Z</time>
      </trkpt>
      <trkpt lat="47.76512" lon="6.57501">
        <ele>357</ele>
        <time>2023-05-01T22:41:03.973Z</time>
      </trkpt>
      <trkpt lat="47.76508" lon="6.57504">
        <ele>356</ele>
        <time>2023-05-01T22:41:14.865Z</time>
      </trkpt>
      <trkpt lat="47.76503" lon="6.57503">
        <ele>356</ele>
        <time>2023-05-01T22:41:25.758Z</time>
      </trkpt>
      <trkpt lat="47.76483" lon="6.57492">
        <ele>355</ele>
        <time>2023-05-01T22:41:36.655Z</time>
      </trkpt>
      <trkpt lat="47.76454" lon="6.57497">
        <ele>354</ele>
        <time>2023-05-01T22:41:47.558Z</time>
      </trkpt>
      <trkpt lat="47.76443" lon="6.57496">
        <ele>354</ele>
        <time>2023-05-01T22:41:58.463Z</time>
      </trkpt>
      <trkpt lat="47.76429" lon="6.57491">
        <ele>353</ele>
        <time>2023-05-01T22:42:09.371Z</time>
      </trkpt>
      <trkpt lat="47.7642" lon="6.5749">
        <ele>352</ele>
        <time>2023-05-01T22:42:20.281Z</time>
      </trkpt>
      <trkpt lat="47.76397" lon="6.57471">
        <ele>351</ele>
        <time>2023-05-01T22:42:31.196Z</time>
      </trkpt>
      <trkpt lat="47.76391" lon="6.5746">
        <ele>350</ele>
        <time>2023-05-01T22:42:42.113Z</time>
      </trkpt>
      <trkpt lat="47.76391" lon="6.57456">
        <ele>349</ele>
        <time>2023-05-01T22:42:53.031Z</time>
      </trkpt>
      <trkpt lat="47.76385" lon="6.57436">
        <ele>348</ele>
        <time>2023-05-01T22:43:03.951Z</time>
      </trkpt>
      <trkpt lat="47.7638" lon="6.57412">
        <ele>347</ele>
        <time>2023-05-01T22:43:14.875Z</time>
      </trkpt>
      <trkpt lat="47.76378" lon="6.57383">
        <ele>346</ele>
        <time>2023-05-01T22:43:25.803Z</time>
      </trkpt>
      <trkpt lat="47.76369" lon="6.57339">
        <ele>345</ele>
        <time>2023-05-01T22:43:36.737Z</time>
      </trkpt>
      <trkpt lat="47.76363" lon="6.5732">
        <ele>344</ele>
        <time>2023-05-01T22:43:47.674Z</time>
      </trkpt>
      <trkpt lat="47.76351" lon="6.57291">
        <ele>344</ele>
        <time>2023-05-01T22:43:58.615Z</time>
      </trkpt>
      <trkpt lat="47.76343" lon="6.5728">
        <ele>343</ele>
        <time>2023-05-01T22:44:09.559Z</time>
      </trkpt>
      <trkpt lat="47.76334" lon="6.57279">
        <ele>342</ele>
        <time>2023-05-01T22:44:20.504Z</time>
      </trkpt>
      <trkpt lat="47.76324" lon="6.57281">
        <ele>341</ele>
        <time>2023-05-01T22:44:31.451Z</time>
      </trkpt>
      <trkpt lat="47.76312" lon="6.57281">
        <ele>340</ele>
        <time>2023-05-01T22:44:42.401Z</time>
      </trkpt>
      <trkpt lat="47.76286" lon="6.57272">
        <ele>339</ele>
        <time>2023-05-01T22:44:53.356Z</time>
      </trkpt>
      <trkpt lat="47.76254" lon="6.5729">
        <ele>338</ele>
        <time>2023-05-01T22:45:04.318Z</time>
      </trkpt>
      <trkpt lat="47.76182" lon="6.57327">
        <ele>338</ele>
        <time>2023-05-01T22:45:15.295Z</time>
      </trkpt>
      <trkpt lat="47.76136" lon="6.57359">
        <ele>337</ele>
        <time>2023-05-01T22:45:26.283Z</time>
      </trkpt>
      <trkpt lat="47.76111" lon="6.57382">
        <ele>337</ele>
        <time>2023-05-01T22:45:37.276Z</time>
      </trkpt>
      <trkpt lat="47.76089" lon="6.57396">
        <ele>336</ele>
        <time>2023-05-01T22:45:48.274Z</time>
      </trkpt>
      <trkpt lat="47.76042" lon="6.57405">
        <ele>336</ele>
        <time>2023-05-01T22:45:59.282Z</time>
      </trkpt>
      <trkpt lat="47.76018" lon="6.57402">
        <ele>336</ele>
        <time>2023-05-01T22:46:10.294Z</time>
      </trkpt>
      <trkpt lat="47.75983" lon="6.57391">
        <ele>335</ele>
        <time>2023-05-01T22:46:21.314Z</time>
      </trkpt>
      <trkpt lat="47.75978" lon="6.57386">
        <ele>335</ele>
        <time>2023-05-01T22:46:32.335Z</time>
      </trkpt>
      <trkpt lat="47.75976" lon="6.57379">
        <ele>335</ele>
        <time>2023-05-01T22:46:43.357Z</time>
      </trkpt>
      <trkpt lat="47.75975" lon="6.57331">
        <ele>335</ele>
        <time>2023-05-01T22:46:54.385Z</time>
      </trkpt>
      <trkpt lat="47.75966" lon="6.57282">
        <ele>335</ele>
        <time>2023-05-01T22:47:05.420Z</time>
      </trkpt>
      <trkpt lat="47.75955" lon="6.57241">
        <ele>335</ele>
        <time>2023-05-01T22:47:16.461Z</time>
      </trkpt>
      <trkpt lat="47.75953" lon="6.5723">
        <ele>335</ele>
        <time>2023-05-01T22:47:27.504Z</time>
      </trkpt>
      <trkpt lat="47.75955" lon="6.57216">
        <ele>335</ele>
        <time>2023-05-01T22:47:38.549Z</time>
      </trkpt>
      <trkpt lat="47.75921" lon="6.5706">
        <ele>335</ele>
        <time>2023-05-01T22:47:49.616Z</time>
      </trkpt>
      <trkpt lat="47.75913" lon="6.57006">
        <ele>335</ele>
        <time>2023-05-01T22:48:00.690Z</time>
      </trkpt>
      <trkpt lat="47.75906" lon="6.56966">
        <ele>336</ele>
        <time>2023-05-01T22:48:11.770Z</time>
      </trkpt>
      <trkpt lat="47.75898" lon="6.56933">
        <ele>336</ele>
        <time>2023-05-01T22:48:22.854Z</time>
      </trkpt>
      <trkpt lat="47.75894" lon="6.56924">
        <ele>336</ele>
        <time>2023-05-01T22:48:33.940Z</time>
      </trkpt>
      <trkpt lat="47.7589" lon="6.56924">
        <ele>336</ele>
        <time>2023-05-01T22:48:45.027Z</time>
      </trkpt>
      <trkpt lat="47.75858" lon="6.56943">
        <ele>336</ele>
        <time>2023-05-01T22:48:56.121Z</time>
      </trkpt>
      <trkpt lat="47.75795" lon="6.56971">
        <ele>336</ele>
        <time>2023-05-01T22:49:07.228Z</time>
      </trkpt>
      <trkpt lat="47.75767" lon="6.56989">
        <ele>336</ele>
        <time>2023-05-01T22:49:18.341Z</time>
      </trkpt>
      <trkpt lat="47.75731" lon="6.57025">
        <ele>336</ele>
        <time>2023-05-01T22:49:29.462Z</time>
      </trkpt>
      <trkpt lat="47.75702" lon="6.57059">
        <ele>336</ele>
        <time>2023-05-01T22:49:40.591Z</time>
      </trkpt>
      <trkpt lat="47.75645" lon="6.57119">
        <ele>336</ele>
        <time>2023-05-01T22:49:51.734Z</time>
      </trkpt>
    </trkseg>
  </trk>
</gpx>